<?xml version="1.0" encoding="UTF-8" standalone="no" ?>
<gpx xmlns="http://www.topografix.com/GPX/1/1" xmlns:xsi="http://www.w3.org/2001/XMLSchema-instance" xsi:schemaLocation="http://www.topografix.com/GPX/1/1 http://www.topografix.com/GPX/1/1/gpx.xsd" version="1.1" creator="VisuGPX - https://www.visugpx.com">
  <metadata>
    <name>2011-01-30 - Givry - Chatenoy</name>
    <desc><![CDATA[Sortie de VTT de CHALON SUR SAONE par GIVRY et CHATENOIS]]></desc>
  </metadata>
  <trk>
    <name><![CDATA[2011-01-30 - Givry - Chatenoy]]></name>
    <desc><![CDATA[30 janv. 2011  2:25 pm]]></desc>
    <trkseg>
      <trkpt lat="46.78152" lon="4.85396">
        <ele>182.13868</ele>
        <time>2011-01-30T13:26:36Z</time>
      </trkpt>
      <trkpt lat="46.78121" lon="4.85409">
        <ele>182.086482</ele>
        <time>2011-01-30T13:26:44Z</time>
      </trkpt>
      <trkpt lat="46.78109" lon="4.85407">
        <ele>182.047231</ele>
        <time>2011-01-30T13:26:46Z</time>
      </trkpt>
      <trkpt lat="46.78095" lon="4.854">
        <ele>182.032588</ele>
        <time>2011-01-30T13:26:49Z</time>
      </trkpt>
      <trkpt lat="46.78084" lon="4.85389">
        <ele>182.087841</ele>
        <time>2011-01-30T13:26:52Z</time>
      </trkpt>
      <trkpt lat="46.7808" lon="4.85368">
        <ele>182.275427</ele>
        <time>2011-01-30T13:26:55Z</time>
      </trkpt>
      <trkpt lat="46.78077" lon="4.85351">
        <ele>182.690727</ele>
        <time>2011-01-30T13:26:57Z</time>
      </trkpt>
      <trkpt lat="46.78074" lon="4.85332">
        <ele>183.308929</ele>
        <time>2011-01-30T13:26:59Z</time>
      </trkpt>
      <trkpt lat="46.7807" lon="4.85301">
        <ele>183.855561</ele>
        <time>2011-01-30T13:27:02Z</time>
      </trkpt>
      <trkpt lat="46.78065" lon="4.85267">
        <ele>184.111504</ele>
        <time>2011-01-30T13:27:05Z</time>
      </trkpt>
      <trkpt lat="46.78056" lon="4.85251">
        <ele>184.148216</ele>
        <time>2011-01-30T13:27:07Z</time>
      </trkpt>
      <trkpt lat="46.78048" lon="4.85235">
        <ele>184.082837</ele>
        <time>2011-01-30T13:27:10Z</time>
      </trkpt>
      <trkpt lat="46.78036" lon="4.85228">
        <ele>183.963199</ele>
        <time>2011-01-30T13:27:13Z</time>
      </trkpt>
      <trkpt lat="46.78023" lon="4.85224">
        <ele>183.801959</ele>
        <time>2011-01-30T13:27:16Z</time>
      </trkpt>
      <trkpt lat="46.7801" lon="4.85227">
        <ele>183.58221</ele>
        <time>2011-01-30T13:27:19Z</time>
      </trkpt>
      <trkpt lat="46.77998" lon="4.8523">
        <ele>183.277637</ele>
        <time>2011-01-30T13:27:22Z</time>
      </trkpt>
      <trkpt lat="46.77987" lon="4.85238">
        <ele>182.926063</ele>
        <time>2011-01-30T13:27:25Z</time>
      </trkpt>
      <trkpt lat="46.77977" lon="4.8525">
        <ele>182.622798</ele>
        <time>2011-01-30T13:27:28Z</time>
      </trkpt>
      <trkpt lat="46.77966" lon="4.85262">
        <ele>182.433662</ele>
        <time>2011-01-30T13:27:31Z</time>
      </trkpt>
      <trkpt lat="46.77955" lon="4.85275">
        <ele>182.334834</ele>
        <time>2011-01-30T13:27:34Z</time>
      </trkpt>
      <trkpt lat="46.77947" lon="4.85285">
        <ele>182.25486</ele>
        <time>2011-01-30T13:27:36Z</time>
      </trkpt>
      <trkpt lat="46.77933" lon="4.853">
        <ele>182.151204</ele>
        <time>2011-01-30T13:27:39Z</time>
      </trkpt>
      <trkpt lat="46.7792" lon="4.85298">
        <ele>182.013242</ele>
        <time>2011-01-30T13:27:42Z</time>
      </trkpt>
      <trkpt lat="46.77914" lon="4.85288">
        <ele>181.851265</ele>
        <time>2011-01-30T13:27:44Z</time>
      </trkpt>
      <trkpt lat="46.77905" lon="4.85269">
        <ele>181.631502</ele>
        <time>2011-01-30T13:27:47Z</time>
      </trkpt>
      <trkpt lat="46.77896" lon="4.85248">
        <ele>181.290787</ele>
        <time>2011-01-30T13:27:50Z</time>
      </trkpt>
      <trkpt lat="46.77887" lon="4.85226">
        <ele>180.884015</ele>
        <time>2011-01-30T13:27:53Z</time>
      </trkpt>
      <trkpt lat="46.77879" lon="4.85205">
        <ele>180.537578</ele>
        <time>2011-01-30T13:27:56Z</time>
      </trkpt>
      <trkpt lat="46.77871" lon="4.85185">
        <ele>180.283908</ele>
        <time>2011-01-30T13:27:59Z</time>
      </trkpt>
      <trkpt lat="46.77866" lon="4.85172">
        <ele>180.084734</ele>
        <time>2011-01-30T13:28:01Z</time>
      </trkpt>
      <trkpt lat="46.77858" lon="4.85155">
        <ele>179.907805</ele>
        <time>2011-01-30T13:28:04Z</time>
      </trkpt>
      <trkpt lat="46.77851" lon="4.85143">
        <ele>179.731717</ele>
        <time>2011-01-30T13:28:07Z</time>
      </trkpt>
      <trkpt lat="46.77843" lon="4.8513">
        <ele>179.550202</ele>
        <time>2011-01-30T13:28:10Z</time>
      </trkpt>
      <trkpt lat="46.77838" lon="4.85114">
        <ele>179.371499</ele>
        <time>2011-01-30T13:28:13Z</time>
      </trkpt>
      <trkpt lat="46.77837" lon="4.85098">
        <ele>179.198427</ele>
        <time>2011-01-30T13:28:16Z</time>
      </trkpt>
      <trkpt lat="46.77835" lon="4.85079">
        <ele>179.033992</ele>
        <time>2011-01-30T13:28:19Z</time>
      </trkpt>
      <trkpt lat="46.7783" lon="4.85066">
        <ele>178.894183</ele>
        <time>2011-01-30T13:28:21Z</time>
      </trkpt>
      <trkpt lat="46.77817" lon="4.85051">
        <ele>178.79432</ele>
        <time>2011-01-30T13:28:24Z</time>
      </trkpt>
      <trkpt lat="46.77807" lon="4.85043">
        <ele>178.7379</ele>
        <time>2011-01-30T13:28:26Z</time>
      </trkpt>
      <trkpt lat="46.77796" lon="4.85031">
        <ele>178.689656</ele>
        <time>2011-01-30T13:28:28Z</time>
      </trkpt>
      <trkpt lat="46.7778" lon="4.85005">
        <ele>178.533181</ele>
        <time>2011-01-30T13:28:31Z</time>
      </trkpt>
      <trkpt lat="46.77769" lon="4.84987">
        <ele>178.16461</ele>
        <time>2011-01-30T13:28:33Z</time>
      </trkpt>
      <trkpt lat="46.77758" lon="4.84969">
        <ele>177.585957</ele>
        <time>2011-01-30T13:28:35Z</time>
      </trkpt>
      <trkpt lat="46.77741" lon="4.84943">
        <ele>176.797213</ele>
        <time>2011-01-30T13:28:38Z</time>
      </trkpt>
      <trkpt lat="46.77731" lon="4.84926">
        <ele>175.863007</ele>
        <time>2011-01-30T13:28:40Z</time>
      </trkpt>
      <trkpt lat="46.77721" lon="4.84909">
        <ele>175.024741</ele>
        <time>2011-01-30T13:28:42Z</time>
      </trkpt>
      <trkpt lat="46.77712" lon="4.84891">
        <ele>174.480628</ele>
        <time>2011-01-30T13:28:44Z</time>
      </trkpt>
      <trkpt lat="46.77699" lon="4.84867">
        <ele>174.233496</ele>
        <time>2011-01-30T13:28:47Z</time>
      </trkpt>
      <trkpt lat="46.7769" lon="4.84851">
        <ele>174.186159</ele>
        <time>2011-01-30T13:28:49Z</time>
      </trkpt>
      <trkpt lat="46.77677" lon="4.84826">
        <ele>174.220977</ele>
        <time>2011-01-30T13:28:52Z</time>
      </trkpt>
      <trkpt lat="46.77665" lon="4.84802">
        <ele>174.26676</ele>
        <time>2011-01-30T13:28:55Z</time>
      </trkpt>
      <trkpt lat="46.77656" lon="4.84786">
        <ele>174.302595</ele>
        <time>2011-01-30T13:28:57Z</time>
      </trkpt>
      <trkpt lat="46.77643" lon="4.84763">
        <ele>174.322612</ele>
        <time>2011-01-30T13:29:00Z</time>
      </trkpt>
      <trkpt lat="46.77635" lon="4.84747">
        <ele>174.327453</ele>
        <time>2011-01-30T13:29:02Z</time>
      </trkpt>
      <trkpt lat="46.77622" lon="4.84723">
        <ele>174.311247</ele>
        <time>2011-01-30T13:29:05Z</time>
      </trkpt>
      <trkpt lat="46.77609" lon="4.84699">
        <ele>174.25775</ele>
        <time>2011-01-30T13:29:08Z</time>
      </trkpt>
      <trkpt lat="46.776" lon="4.84683">
        <ele>174.178911</ele>
        <time>2011-01-30T13:29:10Z</time>
      </trkpt>
      <trkpt lat="46.77592" lon="4.84667">
        <ele>174.113554</ele>
        <time>2011-01-30T13:29:12Z</time>
      </trkpt>
      <trkpt lat="46.77577" lon="4.84646">
        <ele>174.071</ele>
        <time>2011-01-30T13:29:15Z</time>
      </trkpt>
      <trkpt lat="46.77562" lon="4.84626">
        <ele>174.012959</ele>
        <time>2011-01-30T13:29:18Z</time>
      </trkpt>
      <trkpt lat="46.77547" lon="4.84608">
        <ele>173.907431</ele>
        <time>2011-01-30T13:29:21Z</time>
      </trkpt>
      <trkpt lat="46.77536" lon="4.84597">
        <ele>173.773959</ele>
        <time>2011-01-30T13:29:23Z</time>
      </trkpt>
      <trkpt lat="46.77526" lon="4.84587">
        <ele>173.64367</ele>
        <time>2011-01-30T13:29:25Z</time>
      </trkpt>
      <trkpt lat="46.77509" lon="4.84572">
        <ele>173.498155</ele>
        <time>2011-01-30T13:29:28Z</time>
      </trkpt>
      <trkpt lat="46.77498" lon="4.84563">
        <ele>173.272658</ele>
        <time>2011-01-30T13:29:30Z</time>
      </trkpt>
      <trkpt lat="46.77487" lon="4.84554">
        <ele>172.93882</ele>
        <time>2011-01-30T13:29:32Z</time>
      </trkpt>
      <trkpt lat="46.7747" lon="4.84541">
        <ele>172.547297</ele>
        <time>2011-01-30T13:29:35Z</time>
      </trkpt>
      <trkpt lat="46.77459" lon="4.84533">
        <ele>172.192628</ele>
        <time>2011-01-30T13:29:37Z</time>
      </trkpt>
      <trkpt lat="46.77442" lon="4.84521">
        <ele>171.958173</ele>
        <time>2011-01-30T13:29:40Z</time>
      </trkpt>
      <trkpt lat="46.77424" lon="4.8451">
        <ele>171.862742</ele>
        <time>2011-01-30T13:29:43Z</time>
      </trkpt>
      <trkpt lat="46.77412" lon="4.84502">
        <ele>171.851495</ele>
        <time>2011-01-30T13:29:45Z</time>
      </trkpt>
      <trkpt lat="46.77394" lon="4.84491">
        <ele>171.830184</ele>
        <time>2011-01-30T13:29:48Z</time>
      </trkpt>
      <trkpt lat="46.77381" lon="4.84484">
        <ele>171.72675</ele>
        <time>2011-01-30T13:29:50Z</time>
      </trkpt>
      <trkpt lat="46.77363" lon="4.84474">
        <ele>171.559239</ele>
        <time>2011-01-30T13:29:53Z</time>
      </trkpt>
      <trkpt lat="46.7735" lon="4.84468">
        <ele>171.406697</ele>
        <time>2011-01-30T13:29:55Z</time>
      </trkpt>
      <trkpt lat="46.77332" lon="4.84459">
        <ele>171.320617</ele>
        <time>2011-01-30T13:29:58Z</time>
      </trkpt>
      <trkpt lat="46.77319" lon="4.84452">
        <ele>171.297758</ele>
        <time>2011-01-30T13:30:00Z</time>
      </trkpt>
      <trkpt lat="46.773" lon="4.84439">
        <ele>171.305095</ele>
        <time>2011-01-30T13:30:03Z</time>
      </trkpt>
      <trkpt lat="46.77288" lon="4.8443">
        <ele>171.329093</ele>
        <time>2011-01-30T13:30:05Z</time>
      </trkpt>
      <trkpt lat="46.77276" lon="4.84423">
        <ele>171.402569</ele>
        <time>2011-01-30T13:30:07Z</time>
      </trkpt>
      <trkpt lat="46.77257" lon="4.84413">
        <ele>171.550993</ele>
        <time>2011-01-30T13:30:10Z</time>
      </trkpt>
      <trkpt lat="46.77245" lon="4.84409">
        <ele>171.7188</ele>
        <time>2011-01-30T13:30:12Z</time>
      </trkpt>
      <trkpt lat="46.77226" lon="4.84404">
        <ele>171.825251</ele>
        <time>2011-01-30T13:30:15Z</time>
      </trkpt>
      <trkpt lat="46.77207" lon="4.844">
        <ele>171.857486</ele>
        <time>2011-01-30T13:30:18Z</time>
      </trkpt>
      <trkpt lat="46.77189" lon="4.84395">
        <ele>171.8506</ele>
        <time>2011-01-30T13:30:21Z</time>
      </trkpt>
      <trkpt lat="46.7717" lon="4.84388">
        <ele>171.8326</ele>
        <time>2011-01-30T13:30:24Z</time>
      </trkpt>
      <trkpt lat="46.77157" lon="4.84384">
        <ele>171.803947</ele>
        <time>2011-01-30T13:30:26Z</time>
      </trkpt>
      <trkpt lat="46.77139" lon="4.84378">
        <ele>171.760873</ele>
        <time>2011-01-30T13:30:29Z</time>
      </trkpt>
      <trkpt lat="46.77121" lon="4.84372">
        <ele>171.719746</ele>
        <time>2011-01-30T13:30:32Z</time>
      </trkpt>
      <trkpt lat="46.77109" lon="4.84368">
        <ele>171.685806</ele>
        <time>2011-01-30T13:30:34Z</time>
      </trkpt>
      <trkpt lat="46.77097" lon="4.84365">
        <ele>171.636797</ele>
        <time>2011-01-30T13:30:36Z</time>
      </trkpt>
      <trkpt lat="46.77078" lon="4.8436">
        <ele>171.573656</ele>
        <time>2011-01-30T13:30:39Z</time>
      </trkpt>
      <trkpt lat="46.77059" lon="4.84356">
        <ele>171.551123</ele>
        <time>2011-01-30T13:30:42Z</time>
      </trkpt>
      <trkpt lat="46.77041" lon="4.84352">
        <ele>171.597491</ele>
        <time>2011-01-30T13:30:45Z</time>
      </trkpt>
      <trkpt lat="46.77022" lon="4.84349">
        <ele>171.626018</ele>
        <time>2011-01-30T13:30:48Z</time>
      </trkpt>
      <trkpt lat="46.7701" lon="4.84347">
        <ele>171.565297</ele>
        <time>2011-01-30T13:30:50Z</time>
      </trkpt>
      <trkpt lat="46.76991" lon="4.84344">
        <ele>171.474284</ele>
        <time>2011-01-30T13:30:53Z</time>
      </trkpt>
      <trkpt lat="46.76978" lon="4.84342">
        <ele>171.4217</ele>
        <time>2011-01-30T13:30:55Z</time>
      </trkpt>
      <trkpt lat="46.76966" lon="4.84342">
        <ele>171.345361</ele>
        <time>2011-01-30T13:30:57Z</time>
      </trkpt>
      <trkpt lat="46.76953" lon="4.84341">
        <ele>171.115736</ele>
        <time>2011-01-30T13:30:59Z</time>
      </trkpt>
      <trkpt lat="46.76934" lon="4.8434">
        <ele>170.766735</ele>
        <time>2011-01-30T13:31:02Z</time>
      </trkpt>
      <trkpt lat="46.76923" lon="4.84339">
        <ele>170.495215</ele>
        <time>2011-01-30T13:31:04Z</time>
      </trkpt>
      <trkpt lat="46.76905" lon="4.84339">
        <ele>170.39048</ele>
        <time>2011-01-30T13:31:07Z</time>
      </trkpt>
      <trkpt lat="46.76887" lon="4.8434">
        <ele>170.414702</ele>
        <time>2011-01-30T13:31:10Z</time>
      </trkpt>
      <trkpt lat="46.76874" lon="4.84341">
        <ele>170.552566</ele>
        <time>2011-01-30T13:31:12Z</time>
      </trkpt>
      <trkpt lat="46.76856" lon="4.84344">
        <ele>170.801204</ele>
        <time>2011-01-30T13:31:15Z</time>
      </trkpt>
      <trkpt lat="46.76843" lon="4.84345">
        <ele>171.079787</ele>
        <time>2011-01-30T13:31:17Z</time>
      </trkpt>
      <trkpt lat="46.7683" lon="4.84346">
        <ele>171.266226</ele>
        <time>2011-01-30T13:31:19Z</time>
      </trkpt>
      <trkpt lat="46.76817" lon="4.84346">
        <ele>171.327046</ele>
        <time>2011-01-30T13:31:21Z</time>
      </trkpt>
      <trkpt lat="46.76798" lon="4.84344">
        <ele>171.319661</ele>
        <time>2011-01-30T13:31:24Z</time>
      </trkpt>
      <trkpt lat="46.76785" lon="4.84341">
        <ele>171.299285</ele>
        <time>2011-01-30T13:31:26Z</time>
      </trkpt>
      <trkpt lat="46.76772" lon="4.84337">
        <ele>171.294998</ele>
        <time>2011-01-30T13:31:28Z</time>
      </trkpt>
      <trkpt lat="46.76753" lon="4.84331">
        <ele>171.296187</ele>
        <time>2011-01-30T13:31:31Z</time>
      </trkpt>
      <trkpt lat="46.76735" lon="4.84323">
        <ele>171.280653</ele>
        <time>2011-01-30T13:31:34Z</time>
      </trkpt>
      <trkpt lat="46.76722" lon="4.84316">
        <ele>171.256792</ele>
        <time>2011-01-30T13:31:36Z</time>
      </trkpt>
      <trkpt lat="46.7671" lon="4.8431">
        <ele>171.232069</ele>
        <time>2011-01-30T13:31:38Z</time>
      </trkpt>
      <trkpt lat="46.76693" lon="4.84299">
        <ele>171.160392</ele>
        <time>2011-01-30T13:31:41Z</time>
      </trkpt>
      <trkpt lat="46.76681" lon="4.84292">
        <ele>171.006637</ele>
        <time>2011-01-30T13:31:43Z</time>
      </trkpt>
      <trkpt lat="46.7667" lon="4.84284">
        <ele>170.795185</ele>
        <time>2011-01-30T13:31:45Z</time>
      </trkpt>
      <trkpt lat="46.76653" lon="4.84274">
        <ele>170.548601</ele>
        <time>2011-01-30T13:31:48Z</time>
      </trkpt>
      <trkpt lat="46.76641" lon="4.84267">
        <ele>170.279678</ele>
        <time>2011-01-30T13:31:50Z</time>
      </trkpt>
      <trkpt lat="46.76624" lon="4.84257">
        <ele>170.046711</ele>
        <time>2011-01-30T13:31:53Z</time>
      </trkpt>
      <trkpt lat="46.76612" lon="4.84251">
        <ele>169.882208</ele>
        <time>2011-01-30T13:31:55Z</time>
      </trkpt>
      <trkpt lat="46.76594" lon="4.84242">
        <ele>169.760128</ele>
        <time>2011-01-30T13:31:58Z</time>
      </trkpt>
      <trkpt lat="46.76582" lon="4.84236">
        <ele>169.66658</ele>
        <time>2011-01-30T13:32:00Z</time>
      </trkpt>
      <trkpt lat="46.76572" lon="4.84231">
        <ele>169.600257</ele>
        <time>2011-01-30T13:32:02Z</time>
      </trkpt>
      <trkpt lat="46.76564" lon="4.84221">
        <ele>169.541826</ele>
        <time>2011-01-30T13:32:04Z</time>
      </trkpt>
      <trkpt lat="46.76556" lon="4.84203">
        <ele>169.486186</ele>
        <time>2011-01-30T13:32:07Z</time>
      </trkpt>
      <trkpt lat="46.76556" lon="4.84203">
        <ele>169.432338</ele>
        <time>2011-01-30T13:32:10Z</time>
      </trkpt>
      <trkpt lat="46.76539" lon="4.84182">
        <ele>169.372583</ele>
        <time>2011-01-30T13:32:16Z</time>
      </trkpt>
      <trkpt lat="46.76526" lon="4.84182">
        <ele>169.309705</ele>
        <time>2011-01-30T13:32:19Z</time>
      </trkpt>
      <trkpt lat="46.76513" lon="4.84181">
        <ele>169.22178</ele>
        <time>2011-01-30T13:32:22Z</time>
      </trkpt>
      <trkpt lat="46.76504" lon="4.84178">
        <ele>169.061797</ele>
        <time>2011-01-30T13:32:24Z</time>
      </trkpt>
      <trkpt lat="46.7649" lon="4.8417">
        <ele>168.713447</ele>
        <time>2011-01-30T13:32:27Z</time>
      </trkpt>
      <trkpt lat="46.76479" lon="4.84162">
        <ele>168.093139</ele>
        <time>2011-01-30T13:32:30Z</time>
      </trkpt>
      <trkpt lat="46.76468" lon="4.84153">
        <ele>167.383271</ele>
        <time>2011-01-30T13:32:33Z</time>
      </trkpt>
      <trkpt lat="46.76458" lon="4.84141">
        <ele>166.872519</ele>
        <time>2011-01-30T13:32:36Z</time>
      </trkpt>
      <trkpt lat="46.76449" lon="4.84129">
        <ele>166.625869</ele>
        <time>2011-01-30T13:32:39Z</time>
      </trkpt>
      <trkpt lat="46.7644" lon="4.84115">
        <ele>166.544912</ele>
        <time>2011-01-30T13:32:42Z</time>
      </trkpt>
      <trkpt lat="46.76431" lon="4.84104">
        <ele>166.516055</ele>
        <time>2011-01-30T13:32:45Z</time>
      </trkpt>
      <trkpt lat="46.76422" lon="4.84091">
        <ele>166.465104</ele>
        <time>2011-01-30T13:32:48Z</time>
      </trkpt>
      <trkpt lat="46.76414" lon="4.84079">
        <ele>166.341936</ele>
        <time>2011-01-30T13:32:51Z</time>
      </trkpt>
      <trkpt lat="46.76406" lon="4.84065">
        <ele>166.117216</ele>
        <time>2011-01-30T13:32:54Z</time>
      </trkpt>
      <trkpt lat="46.76398" lon="4.84051">
        <ele>165.807113</ele>
        <time>2011-01-30T13:32:57Z</time>
      </trkpt>
      <trkpt lat="46.7639" lon="4.84038">
        <ele>165.411593</ele>
        <time>2011-01-30T13:33:00Z</time>
      </trkpt>
      <trkpt lat="46.76381" lon="4.84025">
        <ele>164.920036</ele>
        <time>2011-01-30T13:33:03Z</time>
      </trkpt>
      <trkpt lat="46.76373" lon="4.84012">
        <ele>164.454316</ele>
        <time>2011-01-30T13:33:06Z</time>
      </trkpt>
      <trkpt lat="46.76365" lon="4.84">
        <ele>164.181148</ele>
        <time>2011-01-30T13:33:09Z</time>
      </trkpt>
      <trkpt lat="46.76357" lon="4.83987">
        <ele>164.10843</ele>
        <time>2011-01-30T13:33:12Z</time>
      </trkpt>
      <trkpt lat="46.76349" lon="4.83975">
        <ele>164.18697</ele>
        <time>2011-01-30T13:33:15Z</time>
      </trkpt>
      <trkpt lat="46.76342" lon="4.83961">
        <ele>164.469309</ele>
        <time>2011-01-30T13:33:18Z</time>
      </trkpt>
      <trkpt lat="46.76335" lon="4.83946">
        <ele>164.943531</ele>
        <time>2011-01-30T13:33:21Z</time>
      </trkpt>
      <trkpt lat="46.76328" lon="4.83931">
        <ele>165.400672</ele>
        <time>2011-01-30T13:33:24Z</time>
      </trkpt>
      <trkpt lat="46.76323" lon="4.83917">
        <ele>165.653055</ele>
        <time>2011-01-30T13:33:27Z</time>
      </trkpt>
      <trkpt lat="46.76318" lon="4.83902">
        <ele>165.714774</ele>
        <time>2011-01-30T13:33:30Z</time>
      </trkpt>
      <trkpt lat="46.76312" lon="4.83887">
        <ele>165.693321</ele>
        <time>2011-01-30T13:33:33Z</time>
      </trkpt>
      <trkpt lat="46.76306" lon="4.83871">
        <ele>165.662244</ele>
        <time>2011-01-30T13:33:36Z</time>
      </trkpt>
      <trkpt lat="46.763" lon="4.83854">
        <ele>165.657183</ele>
        <time>2011-01-30T13:33:39Z</time>
      </trkpt>
      <trkpt lat="46.76296" lon="4.83842">
        <ele>165.683717</ele>
        <time>2011-01-30T13:33:41Z</time>
      </trkpt>
      <trkpt lat="46.7629" lon="4.83823">
        <ele>165.716464</ele>
        <time>2011-01-30T13:33:44Z</time>
      </trkpt>
      <trkpt lat="46.76283" lon="4.83805">
        <ele>165.742921</ele>
        <time>2011-01-30T13:33:47Z</time>
      </trkpt>
      <trkpt lat="46.76275" lon="4.83785">
        <ele>165.775383</ele>
        <time>2011-01-30T13:33:50Z</time>
      </trkpt>
      <trkpt lat="46.7627" lon="4.83771">
        <ele>165.809975</ele>
        <time>2011-01-30T13:33:52Z</time>
      </trkpt>
      <trkpt lat="46.76262" lon="4.83749">
        <ele>165.8277</ele>
        <time>2011-01-30T13:33:55Z</time>
      </trkpt>
      <trkpt lat="46.76253" lon="4.83729">
        <ele>165.828159</ele>
        <time>2011-01-30T13:33:58Z</time>
      </trkpt>
      <trkpt lat="46.76246" lon="4.83715">
        <ele>165.841505</ele>
        <time>2011-01-30T13:34:00Z</time>
      </trkpt>
      <trkpt lat="46.76235" lon="4.83698">
        <ele>165.886598</ele>
        <time>2011-01-30T13:34:03Z</time>
      </trkpt>
      <trkpt lat="46.76226" lon="4.8369">
        <ele>165.94402</ele>
        <time>2011-01-30T13:34:05Z</time>
      </trkpt>
      <trkpt lat="46.76217" lon="4.83683">
        <ele>166.012291</ele>
        <time>2011-01-30T13:34:07Z</time>
      </trkpt>
      <trkpt lat="46.76203" lon="4.8367">
        <ele>166.165471</ele>
        <time>2011-01-30T13:34:10Z</time>
      </trkpt>
      <trkpt lat="46.76195" lon="4.83656">
        <ele>166.444557</ele>
        <time>2011-01-30T13:34:12Z</time>
      </trkpt>
      <trkpt lat="46.76187" lon="4.83632">
        <ele>166.769649</ele>
        <time>2011-01-30T13:34:15Z</time>
      </trkpt>
      <trkpt lat="46.76182" lon="4.83613">
        <ele>167.09093</ele>
        <time>2011-01-30T13:34:17Z</time>
      </trkpt>
      <trkpt lat="46.76178" lon="4.83595">
        <ele>167.416117</ele>
        <time>2011-01-30T13:34:19Z</time>
      </trkpt>
      <trkpt lat="46.76171" lon="4.83566">
        <ele>167.674042</ele>
        <time>2011-01-30T13:34:22Z</time>
      </trkpt>
      <trkpt lat="46.76166" lon="4.83546">
        <ele>167.794786</ele>
        <time>2011-01-30T13:34:24Z</time>
      </trkpt>
      <trkpt lat="46.76161" lon="4.83526">
        <ele>167.812092</ele>
        <time>2011-01-30T13:34:26Z</time>
      </trkpt>
      <trkpt lat="46.7615" lon="4.83497">
        <ele>167.708157</ele>
        <time>2011-01-30T13:34:29Z</time>
      </trkpt>
      <trkpt lat="46.76145" lon="4.83475">
        <ele>167.406626</ele>
        <time>2011-01-30T13:34:31Z</time>
      </trkpt>
      <trkpt lat="46.76151" lon="4.83445">
        <ele>167.005575</ele>
        <time>2011-01-30T13:34:34Z</time>
      </trkpt>
      <trkpt lat="46.76158" lon="4.83426">
        <ele>166.709551</ele>
        <time>2011-01-30T13:34:36Z</time>
      </trkpt>
      <trkpt lat="46.76165" lon="4.83402">
        <ele>166.565832</ele>
        <time>2011-01-30T13:34:39Z</time>
      </trkpt>
      <trkpt lat="46.76169" lon="4.83386">
        <ele>166.490745</ele>
        <time>2011-01-30T13:34:41Z</time>
      </trkpt>
      <trkpt lat="46.76173" lon="4.83361">
        <ele>166.422653</ele>
        <time>2011-01-30T13:34:44Z</time>
      </trkpt>
      <trkpt lat="46.76175" lon="4.83345">
        <ele>166.282724</ele>
        <time>2011-01-30T13:34:46Z</time>
      </trkpt>
      <trkpt lat="46.76178" lon="4.8332">
        <ele>165.977379</ele>
        <time>2011-01-30T13:34:49Z</time>
      </trkpt>
      <trkpt lat="46.7618" lon="4.83305">
        <ele>165.455178</ele>
        <time>2011-01-30T13:34:51Z</time>
      </trkpt>
      <trkpt lat="46.76183" lon="4.83284">
        <ele>164.741849</ele>
        <time>2011-01-30T13:34:54Z</time>
      </trkpt>
      <trkpt lat="46.76187" lon="4.83264">
        <ele>163.939828</ele>
        <time>2011-01-30T13:34:57Z</time>
      </trkpt>
      <trkpt lat="46.7619" lon="4.83244">
        <ele>163.225153</ele>
        <time>2011-01-30T13:35:00Z</time>
      </trkpt>
      <trkpt lat="46.76193" lon="4.83225">
        <ele>162.755769</ele>
        <time>2011-01-30T13:35:03Z</time>
      </trkpt>
      <trkpt lat="46.76195" lon="4.83206">
        <ele>162.567111</ele>
        <time>2011-01-30T13:35:06Z</time>
      </trkpt>
      <trkpt lat="46.76197" lon="4.83186">
        <ele>162.550622</ele>
        <time>2011-01-30T13:35:09Z</time>
      </trkpt>
      <trkpt lat="46.762" lon="4.83166">
        <ele>162.587608</ele>
        <time>2011-01-30T13:35:12Z</time>
      </trkpt>
      <trkpt lat="46.76205" lon="4.83147">
        <ele>162.620119</ele>
        <time>2011-01-30T13:35:15Z</time>
      </trkpt>
      <trkpt lat="46.7621" lon="4.83127">
        <ele>162.634028</ele>
        <time>2011-01-30T13:35:18Z</time>
      </trkpt>
      <trkpt lat="46.76216" lon="4.83106">
        <ele>162.635224</ele>
        <time>2011-01-30T13:35:21Z</time>
      </trkpt>
      <trkpt lat="46.76222" lon="4.83084">
        <ele>162.635312</ele>
        <time>2011-01-30T13:35:24Z</time>
      </trkpt>
      <trkpt lat="46.7623" lon="4.83064">
        <ele>162.642124</ele>
        <time>2011-01-30T13:35:27Z</time>
      </trkpt>
      <trkpt lat="46.76237" lon="4.83051">
        <ele>162.652681</ele>
        <time>2011-01-30T13:35:29Z</time>
      </trkpt>
      <trkpt lat="46.76249" lon="4.83037">
        <ele>162.658268</ele>
        <time>2011-01-30T13:35:32Z</time>
      </trkpt>
      <trkpt lat="46.76262" lon="4.83021">
        <ele>162.656391</ele>
        <time>2011-01-30T13:35:35Z</time>
      </trkpt>
      <trkpt lat="46.76274" lon="4.83003">
        <ele>162.65173</ele>
        <time>2011-01-30T13:35:38Z</time>
      </trkpt>
      <trkpt lat="46.76286" lon="4.82984">
        <ele>162.640015</ele>
        <time>2011-01-30T13:35:41Z</time>
      </trkpt>
      <trkpt lat="46.76295" lon="4.82971">
        <ele>162.584565</ele>
        <time>2011-01-30T13:35:43Z</time>
      </trkpt>
      <trkpt lat="46.76302" lon="4.82959">
        <ele>162.470626</ele>
        <time>2011-01-30T13:35:45Z</time>
      </trkpt>
      <trkpt lat="46.7631" lon="4.82946">
        <ele>162.294792</ele>
        <time>2011-01-30T13:35:47Z</time>
      </trkpt>
      <trkpt lat="46.76321" lon="4.82925">
        <ele>162.035426</ele>
        <time>2011-01-30T13:35:50Z</time>
      </trkpt>
      <trkpt lat="46.76327" lon="4.82911">
        <ele>161.679052</ele>
        <time>2011-01-30T13:35:52Z</time>
      </trkpt>
      <trkpt lat="46.76337" lon="4.82889">
        <ele>161.304451</ele>
        <time>2011-01-30T13:35:55Z</time>
      </trkpt>
      <trkpt lat="46.76342" lon="4.82875">
        <ele>161.049312</ele>
        <time>2011-01-30T13:35:57Z</time>
      </trkpt>
      <trkpt lat="46.76351" lon="4.82854">
        <ele>160.964189</ele>
        <time>2011-01-30T13:36:00Z</time>
      </trkpt>
      <trkpt lat="46.76356" lon="4.82839">
        <ele>161.006256</ele>
        <time>2011-01-30T13:36:02Z</time>
      </trkpt>
      <trkpt lat="46.7636" lon="4.82824">
        <ele>161.166102</ele>
        <time>2011-01-30T13:36:04Z</time>
      </trkpt>
      <trkpt lat="46.76365" lon="4.82809">
        <ele>161.477627</ele>
        <time>2011-01-30T13:36:06Z</time>
      </trkpt>
      <trkpt lat="46.76371" lon="4.82786">
        <ele>161.930623</ele>
        <time>2011-01-30T13:36:09Z</time>
      </trkpt>
      <trkpt lat="46.76375" lon="4.8277">
        <ele>162.405228</ele>
        <time>2011-01-30T13:36:11Z</time>
      </trkpt>
      <trkpt lat="46.76381" lon="4.82747">
        <ele>162.765754</ele>
        <time>2011-01-30T13:36:14Z</time>
      </trkpt>
      <trkpt lat="46.76386" lon="4.82725">
        <ele>162.973491</ele>
        <time>2011-01-30T13:36:17Z</time>
      </trkpt>
      <trkpt lat="46.76389" lon="4.8271">
        <ele>163.066656</ele>
        <time>2011-01-30T13:36:19Z</time>
      </trkpt>
      <trkpt lat="46.76392" lon="4.82695">
        <ele>163.117467</ele>
        <time>2011-01-30T13:36:21Z</time>
      </trkpt>
      <trkpt lat="46.76397" lon="4.82673">
        <ele>163.166253</ele>
        <time>2011-01-30T13:36:24Z</time>
      </trkpt>
      <trkpt lat="46.764" lon="4.8265">
        <ele>163.217171</ele>
        <time>2011-01-30T13:36:27Z</time>
      </trkpt>
      <trkpt lat="46.764" lon="4.82635">
        <ele>163.282964</ele>
        <time>2011-01-30T13:36:29Z</time>
      </trkpt>
      <trkpt lat="46.764" lon="4.82613">
        <ele>163.367517</ele>
        <time>2011-01-30T13:36:32Z</time>
      </trkpt>
      <trkpt lat="46.76397" lon="4.82592">
        <ele>163.447636</ele>
        <time>2011-01-30T13:36:35Z</time>
      </trkpt>
      <trkpt lat="46.76395" lon="4.82578">
        <ele>163.504743</ele>
        <time>2011-01-30T13:36:37Z</time>
      </trkpt>
      <trkpt lat="46.76392" lon="4.82564">
        <ele>163.546884</ele>
        <time>2011-01-30T13:36:39Z</time>
      </trkpt>
      <trkpt lat="46.76388" lon="4.82551">
        <ele>163.648348</ele>
        <time>2011-01-30T13:36:41Z</time>
      </trkpt>
      <trkpt lat="46.76385" lon="4.82538">
        <ele>163.940067</ele>
        <time>2011-01-30T13:36:43Z</time>
      </trkpt>
      <trkpt lat="46.76379" lon="4.82518">
        <ele>164.501208</ele>
        <time>2011-01-30T13:36:46Z</time>
      </trkpt>
      <trkpt lat="46.76373" lon="4.82498">
        <ele>165.24853</ele>
        <time>2011-01-30T13:36:49Z</time>
      </trkpt>
      <trkpt lat="46.76368" lon="4.82476">
        <ele>165.978974</ele>
        <time>2011-01-30T13:36:52Z</time>
      </trkpt>
      <trkpt lat="46.76368" lon="4.82453">
        <ele>166.536286</ele>
        <time>2011-01-30T13:36:55Z</time>
      </trkpt>
      <trkpt lat="46.76372" lon="4.82438">
        <ele>166.91269</ele>
        <time>2011-01-30T13:36:57Z</time>
      </trkpt>
      <trkpt lat="46.76379" lon="4.82426">
        <ele>167.186673</ele>
        <time>2011-01-30T13:36:59Z</time>
      </trkpt>
      <trkpt lat="46.76388" lon="4.82417">
        <ele>167.418248</ele>
        <time>2011-01-30T13:37:01Z</time>
      </trkpt>
      <trkpt lat="46.76403" lon="4.82406">
        <ele>167.606085</ele>
        <time>2011-01-30T13:37:04Z</time>
      </trkpt>
      <trkpt lat="46.76418" lon="4.82397">
        <ele>167.725687</ele>
        <time>2011-01-30T13:37:07Z</time>
      </trkpt>
      <trkpt lat="46.76428" lon="4.82391">
        <ele>167.772875</ele>
        <time>2011-01-30T13:37:09Z</time>
      </trkpt>
      <trkpt lat="46.76444" lon="4.82382">
        <ele>167.774281</ele>
        <time>2011-01-30T13:37:12Z</time>
      </trkpt>
      <trkpt lat="46.76459" lon="4.82373">
        <ele>167.74121</ele>
        <time>2011-01-30T13:37:15Z</time>
      </trkpt>
      <trkpt lat="46.76469" lon="4.82367">
        <ele>167.590327</ele>
        <time>2011-01-30T13:37:17Z</time>
      </trkpt>
      <trkpt lat="46.76483" lon="4.82357">
        <ele>167.122415</ele>
        <time>2011-01-30T13:37:20Z</time>
      </trkpt>
      <trkpt lat="46.76497" lon="4.82345">
        <ele>166.276723</ele>
        <time>2011-01-30T13:37:23Z</time>
      </trkpt>
      <trkpt lat="46.76504" lon="4.82334">
        <ele>165.331782</ele>
        <time>2011-01-30T13:37:25Z</time>
      </trkpt>
      <trkpt lat="46.76515" lon="4.82317">
        <ele>164.615478</ele>
        <time>2011-01-30T13:37:28Z</time>
      </trkpt>
      <trkpt lat="46.76522" lon="4.82306">
        <ele>164.208839</ele>
        <time>2011-01-30T13:37:30Z</time>
      </trkpt>
      <trkpt lat="46.76529" lon="4.82295">
        <ele>164.042257</ele>
        <time>2011-01-30T13:37:32Z</time>
      </trkpt>
      <trkpt lat="46.76535" lon="4.82283">
        <ele>164.01893</ele>
        <time>2011-01-30T13:37:34Z</time>
      </trkpt>
      <trkpt lat="46.76546" lon="4.82266">
        <ele>164.048852</ele>
        <time>2011-01-30T13:37:37Z</time>
      </trkpt>
      <trkpt lat="46.76553" lon="4.82254">
        <ele>164.082643</ele>
        <time>2011-01-30T13:37:39Z</time>
      </trkpt>
      <trkpt lat="46.76564" lon="4.82235">
        <ele>164.170736</ele>
        <time>2011-01-30T13:37:42Z</time>
      </trkpt>
      <trkpt lat="46.7657" lon="4.82222">
        <ele>164.393047</ele>
        <time>2011-01-30T13:37:44Z</time>
      </trkpt>
      <trkpt lat="46.76579" lon="4.82202">
        <ele>164.68122</ele>
        <time>2011-01-30T13:37:47Z</time>
      </trkpt>
      <trkpt lat="46.76585" lon="4.82188">
        <ele>164.879648</ele>
        <time>2011-01-30T13:37:49Z</time>
      </trkpt>
      <trkpt lat="46.7659" lon="4.82175">
        <ele>164.946751</ele>
        <time>2011-01-30T13:37:51Z</time>
      </trkpt>
      <trkpt lat="46.76596" lon="4.82162">
        <ele>164.91931</ele>
        <time>2011-01-30T13:37:53Z</time>
      </trkpt>
      <trkpt lat="46.766" lon="4.82148">
        <ele>164.831067</ele>
        <time>2011-01-30T13:37:55Z</time>
      </trkpt>
      <trkpt lat="46.76608" lon="4.82128">
        <ele>164.732866</ele>
        <time>2011-01-30T13:37:58Z</time>
      </trkpt>
      <trkpt lat="46.76614" lon="4.82116">
        <ele>164.649202</ele>
        <time>2011-01-30T13:38:00Z</time>
      </trkpt>
      <trkpt lat="46.76619" lon="4.82104">
        <ele>164.552806</ele>
        <time>2011-01-30T13:38:02Z</time>
      </trkpt>
      <trkpt lat="46.76628" lon="4.82088">
        <ele>164.406592</ele>
        <time>2011-01-30T13:38:05Z</time>
      </trkpt>
      <trkpt lat="46.76634" lon="4.82076">
        <ele>164.226378</ele>
        <time>2011-01-30T13:38:07Z</time>
      </trkpt>
      <trkpt lat="46.76643" lon="4.82059">
        <ele>164.086886</ele>
        <time>2011-01-30T13:38:10Z</time>
      </trkpt>
      <trkpt lat="46.76649" lon="4.82047">
        <ele>164.031539</ele>
        <time>2011-01-30T13:38:12Z</time>
      </trkpt>
      <trkpt lat="46.76657" lon="4.82028">
        <ele>164.029664</ele>
        <time>2011-01-30T13:38:15Z</time>
      </trkpt>
      <trkpt lat="46.76661" lon="4.82016">
        <ele>164.095834</ele>
        <time>2011-01-30T13:38:17Z</time>
      </trkpt>
      <trkpt lat="46.76666" lon="4.82004">
        <ele>164.24211</ele>
        <time>2011-01-30T13:38:19Z</time>
      </trkpt>
      <trkpt lat="46.76674" lon="4.81987">
        <ele>164.385061</ele>
        <time>2011-01-30T13:38:22Z</time>
      </trkpt>
      <trkpt lat="46.76682" lon="4.81971">
        <ele>164.450878</ele>
        <time>2011-01-30T13:38:25Z</time>
      </trkpt>
      <trkpt lat="46.76688" lon="4.81952">
        <ele>164.434059</ele>
        <time>2011-01-30T13:38:28Z</time>
      </trkpt>
      <trkpt lat="46.76689" lon="4.81933">
        <ele>164.355267</ele>
        <time>2011-01-30T13:38:31Z</time>
      </trkpt>
      <trkpt lat="46.76685" lon="4.81917">
        <ele>164.275125</ele>
        <time>2011-01-30T13:38:34Z</time>
      </trkpt>
      <trkpt lat="46.76679" lon="4.819">
        <ele>164.237119</ele>
        <time>2011-01-30T13:38:37Z</time>
      </trkpt>
      <trkpt lat="46.76672" lon="4.81884">
        <ele>164.231271</ele>
        <time>2011-01-30T13:38:40Z</time>
      </trkpt>
      <trkpt lat="46.76662" lon="4.81869">
        <ele>164.24038</ele>
        <time>2011-01-30T13:38:43Z</time>
      </trkpt>
      <trkpt lat="46.76656" lon="4.81859">
        <ele>164.278335</ele>
        <time>2011-01-30T13:38:45Z</time>
      </trkpt>
      <trkpt lat="46.7665" lon="4.81849">
        <ele>164.460017</ele>
        <time>2011-01-30T13:38:47Z</time>
      </trkpt>
      <trkpt lat="46.76644" lon="4.81838">
        <ele>164.913831</ele>
        <time>2011-01-30T13:38:49Z</time>
      </trkpt>
      <trkpt lat="46.76636" lon="4.81822">
        <ele>165.55728</ele>
        <time>2011-01-30T13:38:52Z</time>
      </trkpt>
      <trkpt lat="46.76627" lon="4.81807">
        <ele>166.183966</ele>
        <time>2011-01-30T13:38:55Z</time>
      </trkpt>
      <trkpt lat="46.76619" lon="4.81794">
        <ele>166.712002</ele>
        <time>2011-01-30T13:38:58Z</time>
      </trkpt>
      <trkpt lat="46.76608" lon="4.8178">
        <ele>167.177412</ele>
        <time>2011-01-30T13:39:01Z</time>
      </trkpt>
      <trkpt lat="46.766" lon="4.81772">
        <ele>167.607055</ele>
        <time>2011-01-30T13:39:03Z</time>
      </trkpt>
      <trkpt lat="46.76591" lon="4.81762">
        <ele>167.99292</ele>
        <time>2011-01-30T13:39:05Z</time>
      </trkpt>
      <trkpt lat="46.76578" lon="4.81747">
        <ele>168.301049</ele>
        <time>2011-01-30T13:39:08Z</time>
      </trkpt>
      <trkpt lat="46.76568" lon="4.81736">
        <ele>168.507566</ele>
        <time>2011-01-30T13:39:10Z</time>
      </trkpt>
      <trkpt lat="46.76554" lon="4.81719">
        <ele>168.651172</ele>
        <time>2011-01-30T13:39:13Z</time>
      </trkpt>
      <trkpt lat="46.76545" lon="4.81708">
        <ele>168.890191</ele>
        <time>2011-01-30T13:39:15Z</time>
      </trkpt>
      <trkpt lat="46.76536" lon="4.81696">
        <ele>169.332085</ele>
        <time>2011-01-30T13:39:17Z</time>
      </trkpt>
      <trkpt lat="46.76526" lon="4.81684">
        <ele>169.901506</ele>
        <time>2011-01-30T13:39:19Z</time>
      </trkpt>
      <trkpt lat="46.76511" lon="4.81664">
        <ele>170.445184</ele>
        <time>2011-01-30T13:39:22Z</time>
      </trkpt>
      <trkpt lat="46.765" lon="4.81652">
        <ele>170.871475</ele>
        <time>2011-01-30T13:39:24Z</time>
      </trkpt>
      <trkpt lat="46.76482" lon="4.81637">
        <ele>171.199938</ele>
        <time>2011-01-30T13:39:27Z</time>
      </trkpt>
      <trkpt lat="46.76463" lon="4.81622">
        <ele>171.552806</ele>
        <time>2011-01-30T13:39:30Z</time>
      </trkpt>
      <trkpt lat="46.7645" lon="4.81609">
        <ele>171.933134</ele>
        <time>2011-01-30T13:39:32Z</time>
      </trkpt>
      <trkpt lat="46.76428" lon="4.8158">
        <ele>172.198937</ele>
        <time>2011-01-30T13:39:35Z</time>
      </trkpt>
      <trkpt lat="46.76415" lon="4.81558">
        <ele>172.290448</ele>
        <time>2011-01-30T13:39:37Z</time>
      </trkpt>
      <trkpt lat="46.76394" lon="4.81521">
        <ele>172.269012</ele>
        <time>2011-01-30T13:39:40Z</time>
      </trkpt>
      <trkpt lat="46.76381" lon="4.81496">
        <ele>172.037886</ele>
        <time>2011-01-30T13:39:42Z</time>
      </trkpt>
      <trkpt lat="46.76358" lon="4.8147">
        <ele>171.455442</ele>
        <time>2011-01-30T13:39:45Z</time>
      </trkpt>
      <trkpt lat="46.76329" lon="4.81468">
        <ele>170.587479</ele>
        <time>2011-01-30T13:39:48Z</time>
      </trkpt>
      <trkpt lat="46.76308" lon="4.81477">
        <ele>169.675366</ele>
        <time>2011-01-30T13:39:50Z</time>
      </trkpt>
      <trkpt lat="46.76277" lon="4.81493">
        <ele>168.995127</ele>
        <time>2011-01-30T13:39:53Z</time>
      </trkpt>
      <trkpt lat="46.76255" lon="4.81497">
        <ele>168.69318</ele>
        <time>2011-01-30T13:39:55Z</time>
      </trkpt>
      <trkpt lat="46.7622" lon="4.81496">
        <ele>168.659942</ele>
        <time>2011-01-30T13:39:58Z</time>
      </trkpt>
      <trkpt lat="46.76197" lon="4.81487">
        <ele>168.763675</ele>
        <time>2011-01-30T13:40:00Z</time>
      </trkpt>
      <trkpt lat="46.76162" lon="4.81468">
        <ele>168.946621</ele>
        <time>2011-01-30T13:40:03Z</time>
      </trkpt>
      <trkpt lat="46.76141" lon="4.81449">
        <ele>169.274398</ele>
        <time>2011-01-30T13:40:05Z</time>
      </trkpt>
      <trkpt lat="46.76116" lon="4.81416">
        <ele>169.811706</ele>
        <time>2011-01-30T13:40:08Z</time>
      </trkpt>
      <trkpt lat="46.76101" lon="4.81394">
        <ele>170.412253</ele>
        <time>2011-01-30T13:40:10Z</time>
      </trkpt>
      <trkpt lat="46.7608" lon="4.81363">
        <ele>170.88366</ele>
        <time>2011-01-30T13:40:13Z</time>
      </trkpt>
      <trkpt lat="46.76068" lon="4.81345">
        <ele>171.247687</ele>
        <time>2011-01-30T13:40:15Z</time>
      </trkpt>
      <trkpt lat="46.76052" lon="4.8132">
        <ele>171.55333</ele>
        <time>2011-01-30T13:40:18Z</time>
      </trkpt>
      <trkpt lat="46.76036" lon="4.81295">
        <ele>171.766139</ele>
        <time>2011-01-30T13:40:21Z</time>
      </trkpt>
      <trkpt lat="46.76021" lon="4.81273">
        <ele>171.862611</ele>
        <time>2011-01-30T13:40:24Z</time>
      </trkpt>
      <trkpt lat="46.76011" lon="4.81259">
        <ele>171.882822</ele>
        <time>2011-01-30T13:40:26Z</time>
      </trkpt>
      <trkpt lat="46.75998" lon="4.81239">
        <ele>171.870533</ele>
        <time>2011-01-30T13:40:29Z</time>
      </trkpt>
      <trkpt lat="46.75986" lon="4.81221">
        <ele>171.837002</ele>
        <time>2011-01-30T13:40:32Z</time>
      </trkpt>
      <trkpt lat="46.75978" lon="4.81209">
        <ele>171.757273</ele>
        <time>2011-01-30T13:40:34Z</time>
      </trkpt>
      <trkpt lat="46.75967" lon="4.81191">
        <ele>171.574669</ele>
        <time>2011-01-30T13:40:37Z</time>
      </trkpt>
      <trkpt lat="46.75958" lon="4.81177">
        <ele>171.302273</ele>
        <time>2011-01-30T13:40:40Z</time>
      </trkpt>
      <trkpt lat="46.7595" lon="4.81167">
        <ele>171.067865</ele>
        <time>2011-01-30T13:40:44Z</time>
      </trkpt>
      <trkpt lat="46.75943" lon="4.81157">
        <ele>170.925861</ele>
        <time>2011-01-30T13:40:48Z</time>
      </trkpt>
      <trkpt lat="46.75943" lon="4.81157">
        <ele>170.819729</ele>
        <time>2011-01-30T13:40:49Z</time>
      </trkpt>
      <trkpt lat="46.75922" lon="4.81116">
        <ele>170.743677</ele>
        <time>2011-01-30T13:41:05Z</time>
      </trkpt>
      <trkpt lat="46.75922" lon="4.81116">
        <ele>170.711241</ele>
        <time>2011-01-30T13:41:09Z</time>
      </trkpt>
      <trkpt lat="46.75902" lon="4.81081">
        <ele>170.690182</ele>
        <time>2011-01-30T13:41:21Z</time>
      </trkpt>
      <trkpt lat="46.75896" lon="4.8107">
        <ele>170.648159</ele>
        <time>2011-01-30T13:41:26Z</time>
      </trkpt>
      <trkpt lat="46.75885" lon="4.81052">
        <ele>170.579565</ele>
        <time>2011-01-30T13:41:34Z</time>
      </trkpt>
      <trkpt lat="46.75879" lon="4.81041">
        <ele>170.458681</ele>
        <time>2011-01-30T13:41:38Z</time>
      </trkpt>
      <trkpt lat="46.75872" lon="4.8103">
        <ele>170.262319</ele>
        <time>2011-01-30T13:41:42Z</time>
      </trkpt>
      <trkpt lat="46.75865" lon="4.81018">
        <ele>170.020625</ele>
        <time>2011-01-30T13:41:46Z</time>
      </trkpt>
      <trkpt lat="46.75865" lon="4.81018">
        <ele>169.802875</ele>
        <time>2011-01-30T13:41:50Z</time>
      </trkpt>
      <trkpt lat="46.7585" lon="4.80994">
        <ele>169.671086</ele>
        <time>2011-01-30T13:41:54Z</time>
      </trkpt>
      <trkpt lat="46.75843" lon="4.80981">
        <ele>169.634028</ele>
        <time>2011-01-30T13:41:58Z</time>
      </trkpt>
      <trkpt lat="46.75838" lon="4.80966">
        <ele>169.659524</ele>
        <time>2011-01-30T13:42:02Z</time>
      </trkpt>
      <trkpt lat="46.75834" lon="4.8095">
        <ele>169.7239</ele>
        <time>2011-01-30T13:42:06Z</time>
      </trkpt>
      <trkpt lat="46.75831" lon="4.80935">
        <ele>169.803009</ele>
        <time>2011-01-30T13:42:10Z</time>
      </trkpt>
      <trkpt lat="46.75827" lon="4.80922">
        <ele>169.882648</ele>
        <time>2011-01-30T13:42:13Z</time>
      </trkpt>
      <trkpt lat="46.75823" lon="4.80908">
        <ele>169.95723</ele>
        <time>2011-01-30T13:42:16Z</time>
      </trkpt>
      <trkpt lat="46.7582" lon="4.80892">
        <ele>170.016388</ele>
        <time>2011-01-30T13:42:19Z</time>
      </trkpt>
      <trkpt lat="46.75816" lon="4.80878">
        <ele>170.06179</ele>
        <time>2011-01-30T13:42:22Z</time>
      </trkpt>
      <trkpt lat="46.75812" lon="4.80864">
        <ele>170.107693</ele>
        <time>2011-01-30T13:42:25Z</time>
      </trkpt>
      <trkpt lat="46.75808" lon="4.80852">
        <ele>170.165129</ele>
        <time>2011-01-30T13:42:28Z</time>
      </trkpt>
      <trkpt lat="46.75804" lon="4.8084">
        <ele>170.236104</ele>
        <time>2011-01-30T13:42:31Z</time>
      </trkpt>
      <trkpt lat="46.75801" lon="4.80826">
        <ele>170.322745</ele>
        <time>2011-01-30T13:42:34Z</time>
      </trkpt>
      <trkpt lat="46.75799" lon="4.80811">
        <ele>170.427119</ele>
        <time>2011-01-30T13:42:37Z</time>
      </trkpt>
      <trkpt lat="46.758" lon="4.80798">
        <ele>170.543623</ele>
        <time>2011-01-30T13:42:40Z</time>
      </trkpt>
      <trkpt lat="46.75801" lon="4.80784">
        <ele>170.666117</ele>
        <time>2011-01-30T13:42:43Z</time>
      </trkpt>
      <trkpt lat="46.75804" lon="4.8077">
        <ele>170.799766</ele>
        <time>2011-01-30T13:42:46Z</time>
      </trkpt>
      <trkpt lat="46.75807" lon="4.80756">
        <ele>170.958948</ele>
        <time>2011-01-30T13:42:49Z</time>
      </trkpt>
      <trkpt lat="46.7581" lon="4.80742">
        <ele>171.152037</ele>
        <time>2011-01-30T13:42:52Z</time>
      </trkpt>
      <trkpt lat="46.75812" lon="4.80728">
        <ele>171.369928</ele>
        <time>2011-01-30T13:42:55Z</time>
      </trkpt>
      <trkpt lat="46.75814" lon="4.80714">
        <ele>171.592096</ele>
        <time>2011-01-30T13:42:58Z</time>
      </trkpt>
      <trkpt lat="46.75816" lon="4.80701">
        <ele>171.801131</ele>
        <time>2011-01-30T13:43:01Z</time>
      </trkpt>
      <trkpt lat="46.75818" lon="4.80687">
        <ele>171.989297</ele>
        <time>2011-01-30T13:43:04Z</time>
      </trkpt>
      <trkpt lat="46.75818" lon="4.80687">
        <ele>172.136429</ele>
        <time>2011-01-30T13:43:06Z</time>
      </trkpt>
      <trkpt lat="46.75821" lon="4.80655">
        <ele>172.236428</ele>
        <time>2011-01-30T13:43:14Z</time>
      </trkpt>
      <trkpt lat="46.75823" lon="4.80641">
        <ele>172.322108</ele>
        <time>2011-01-30T13:43:17Z</time>
      </trkpt>
      <trkpt lat="46.75824" lon="4.80626">
        <ele>172.411307</ele>
        <time>2011-01-30T13:43:20Z</time>
      </trkpt>
      <trkpt lat="46.75824" lon="4.80611">
        <ele>172.519442</ele>
        <time>2011-01-30T13:43:23Z</time>
      </trkpt>
      <trkpt lat="46.75823" lon="4.80595">
        <ele>172.668229</ele>
        <time>2011-01-30T13:43:26Z</time>
      </trkpt>
      <trkpt lat="46.75821" lon="4.8058">
        <ele>172.823138</ele>
        <time>2011-01-30T13:43:29Z</time>
      </trkpt>
      <trkpt lat="46.75817" lon="4.80564">
        <ele>172.927855</ele>
        <time>2011-01-30T13:43:32Z</time>
      </trkpt>
      <trkpt lat="46.75813" lon="4.80547">
        <ele>172.972022</ele>
        <time>2011-01-30T13:43:35Z</time>
      </trkpt>
      <trkpt lat="46.75812" lon="4.80529">
        <ele>172.979298</ele>
        <time>2011-01-30T13:43:38Z</time>
      </trkpt>
      <trkpt lat="46.75812" lon="4.80512">
        <ele>172.977294</ele>
        <time>2011-01-30T13:43:42Z</time>
      </trkpt>
      <trkpt lat="46.75812" lon="4.80498">
        <ele>172.976002</ele>
        <time>2011-01-30T13:43:45Z</time>
      </trkpt>
      <trkpt lat="46.75813" lon="4.80483">
        <ele>172.989683</ele>
        <time>2011-01-30T13:43:48Z</time>
      </trkpt>
      <trkpt lat="46.75815" lon="4.80467">
        <ele>173.059952</ele>
        <time>2011-01-30T13:43:51Z</time>
      </trkpt>
      <trkpt lat="46.75815" lon="4.80449">
        <ele>173.20278</ele>
        <time>2011-01-30T13:43:54Z</time>
      </trkpt>
      <trkpt lat="46.75817" lon="4.80431">
        <ele>173.372671</ele>
        <time>2011-01-30T13:43:57Z</time>
      </trkpt>
      <trkpt lat="46.75819" lon="4.80413">
        <ele>173.524389</ele>
        <time>2011-01-30T13:44:00Z</time>
      </trkpt>
      <trkpt lat="46.7582" lon="4.80394">
        <ele>173.637674</ele>
        <time>2011-01-30T13:44:03Z</time>
      </trkpt>
      <trkpt lat="46.75822" lon="4.80377">
        <ele>173.696584</ele>
        <time>2011-01-30T13:44:06Z</time>
      </trkpt>
      <trkpt lat="46.75825" lon="4.8036">
        <ele>173.708605</ele>
        <time>2011-01-30T13:44:09Z</time>
      </trkpt>
      <trkpt lat="46.75828" lon="4.80347">
        <ele>173.703571</ele>
        <time>2011-01-30T13:44:11Z</time>
      </trkpt>
      <trkpt lat="46.75831" lon="4.80326">
        <ele>173.704238</ele>
        <time>2011-01-30T13:44:14Z</time>
      </trkpt>
      <trkpt lat="46.75832" lon="4.8031">
        <ele>173.717525</ele>
        <time>2011-01-30T13:44:16Z</time>
      </trkpt>
      <trkpt lat="46.75834" lon="4.80278">
        <ele>173.717956</ele>
        <time>2011-01-30T13:44:19Z</time>
      </trkpt>
      <trkpt lat="46.75836" lon="4.80263">
        <ele>173.674768</ele>
        <time>2011-01-30T13:44:21Z</time>
      </trkpt>
      <trkpt lat="46.75838" lon="4.80241">
        <ele>173.606443</ele>
        <time>2011-01-30T13:44:24Z</time>
      </trkpt>
      <trkpt lat="46.75839" lon="4.80219">
        <ele>173.525165</ele>
        <time>2011-01-30T13:44:27Z</time>
      </trkpt>
      <trkpt lat="46.75841" lon="4.80199">
        <ele>173.341275</ele>
        <time>2011-01-30T13:44:30Z</time>
      </trkpt>
      <trkpt lat="46.75842" lon="4.80176">
        <ele>173.041577</ele>
        <time>2011-01-30T13:44:33Z</time>
      </trkpt>
      <trkpt lat="46.75843" lon="4.80161">
        <ele>172.786186</ele>
        <time>2011-01-30T13:44:35Z</time>
      </trkpt>
      <trkpt lat="46.75844" lon="4.80147">
        <ele>172.679531</ele>
        <time>2011-01-30T13:44:37Z</time>
      </trkpt>
      <trkpt lat="46.75844" lon="4.80132">
        <ele>172.761971</ele>
        <time>2011-01-30T13:44:39Z</time>
      </trkpt>
      <trkpt lat="46.75845" lon="4.80111">
        <ele>173.024328</ele>
        <time>2011-01-30T13:44:42Z</time>
      </trkpt>
      <trkpt lat="46.75846" lon="4.8009">
        <ele>173.303071</ele>
        <time>2011-01-30T13:44:45Z</time>
      </trkpt>
      <trkpt lat="46.75848" lon="4.80068">
        <ele>173.462072</ele>
        <time>2011-01-30T13:44:48Z</time>
      </trkpt>
      <trkpt lat="46.7585" lon="4.80045">
        <ele>173.569512</ele>
        <time>2011-01-30T13:44:51Z</time>
      </trkpt>
      <trkpt lat="46.75852" lon="4.80029">
        <ele>173.812824</ele>
        <time>2011-01-30T13:44:53Z</time>
      </trkpt>
      <trkpt lat="46.75855" lon="4.80006">
        <ele>174.452669</ele>
        <time>2011-01-30T13:44:56Z</time>
      </trkpt>
      <trkpt lat="46.75857" lon="4.79982">
        <ele>175.62176</ele>
        <time>2011-01-30T13:44:59Z</time>
      </trkpt>
      <trkpt lat="46.75858" lon="4.79967">
        <ele>177.034197</ele>
        <time>2011-01-30T13:45:01Z</time>
      </trkpt>
      <trkpt lat="46.75859" lon="4.79944">
        <ele>178.133503</ele>
        <time>2011-01-30T13:45:04Z</time>
      </trkpt>
      <trkpt lat="46.75861" lon="4.79928">
        <ele>178.641237</ele>
        <time>2011-01-30T13:45:06Z</time>
      </trkpt>
      <trkpt lat="46.75863" lon="4.79904">
        <ele>178.709818</ele>
        <time>2011-01-30T13:45:09Z</time>
      </trkpt>
      <trkpt lat="46.75864" lon="4.79888">
        <ele>178.536254</ele>
        <time>2011-01-30T13:45:11Z</time>
      </trkpt>
      <trkpt lat="46.75865" lon="4.79872">
        <ele>178.221653</ele>
        <time>2011-01-30T13:45:13Z</time>
      </trkpt>
      <trkpt lat="46.75866" lon="4.79855">
        <ele>177.846788</ele>
        <time>2011-01-30T13:45:15Z</time>
      </trkpt>
      <trkpt lat="46.75869" lon="4.79829">
        <ele>177.326902</ele>
        <time>2011-01-30T13:45:18Z</time>
      </trkpt>
      <trkpt lat="46.7587" lon="4.79812">
        <ele>176.518483</ele>
        <time>2011-01-30T13:45:20Z</time>
      </trkpt>
      <trkpt lat="46.75873" lon="4.79787">
        <ele>175.638047</ele>
        <time>2011-01-30T13:45:23Z</time>
      </trkpt>
      <trkpt lat="46.75874" lon="4.79771">
        <ele>175.06914</ele>
        <time>2011-01-30T13:45:25Z</time>
      </trkpt>
      <trkpt lat="46.75876" lon="4.79747">
        <ele>174.892197</ele>
        <time>2011-01-30T13:45:28Z</time>
      </trkpt>
      <trkpt lat="46.75877" lon="4.79731">
        <ele>174.95863</ele>
        <time>2011-01-30T13:45:30Z</time>
      </trkpt>
      <trkpt lat="46.7588" lon="4.79707">
        <ele>175.244043</ele>
        <time>2011-01-30T13:45:33Z</time>
      </trkpt>
      <trkpt lat="46.75881" lon="4.7969">
        <ele>175.703923</ele>
        <time>2011-01-30T13:45:35Z</time>
      </trkpt>
      <trkpt lat="46.75882" lon="4.79665">
        <ele>176.173293</ele>
        <time>2011-01-30T13:45:38Z</time>
      </trkpt>
      <trkpt lat="46.75882" lon="4.79648">
        <ele>176.545715</ele>
        <time>2011-01-30T13:45:40Z</time>
      </trkpt>
      <trkpt lat="46.75883" lon="4.79633">
        <ele>176.854314</ele>
        <time>2011-01-30T13:45:42Z</time>
      </trkpt>
      <trkpt lat="46.75883" lon="4.79617">
        <ele>177.195078</ele>
        <time>2011-01-30T13:45:44Z</time>
      </trkpt>
      <trkpt lat="46.75884" lon="4.79595">
        <ele>177.708034</ele>
        <time>2011-01-30T13:45:47Z</time>
      </trkpt>
      <trkpt lat="46.75885" lon="4.7958">
        <ele>178.481236</ele>
        <time>2011-01-30T13:45:49Z</time>
      </trkpt>
      <trkpt lat="46.75886" lon="4.79557">
        <ele>179.337529</ele>
        <time>2011-01-30T13:45:52Z</time>
      </trkpt>
      <trkpt lat="46.75888" lon="4.79534">
        <ele>179.913178</ele>
        <time>2011-01-30T13:45:55Z</time>
      </trkpt>
      <trkpt lat="46.7589" lon="4.7952">
        <ele>180.10207</ele>
        <time>2011-01-30T13:45:57Z</time>
      </trkpt>
      <trkpt lat="46.75891" lon="4.79505">
        <ele>179.918239</ele>
        <time>2011-01-30T13:45:59Z</time>
      </trkpt>
      <trkpt lat="46.75892" lon="4.79489">
        <ele>179.280133</ele>
        <time>2011-01-30T13:46:01Z</time>
      </trkpt>
      <trkpt lat="46.75893" lon="4.79466">
        <ele>178.41997</ele>
        <time>2011-01-30T13:46:04Z</time>
      </trkpt>
      <trkpt lat="46.75894" lon="4.79439">
        <ele>177.808767</ele>
        <time>2011-01-30T13:46:07Z</time>
      </trkpt>
      <trkpt lat="46.75895" lon="4.7942">
        <ele>177.594243</ele>
        <time>2011-01-30T13:46:09Z</time>
      </trkpt>
      <trkpt lat="46.75896" lon="4.7939">
        <ele>177.924832</ele>
        <time>2011-01-30T13:46:12Z</time>
      </trkpt>
      <trkpt lat="46.75897" lon="4.79362">
        <ele>179.048757</ele>
        <time>2011-01-30T13:46:15Z</time>
      </trkpt>
      <trkpt lat="46.75897" lon="4.79344">
        <ele>180.7719</ele>
        <time>2011-01-30T13:46:17Z</time>
      </trkpt>
      <trkpt lat="46.75898" lon="4.79326">
        <ele>182.644145</ele>
        <time>2011-01-30T13:46:19Z</time>
      </trkpt>
      <trkpt lat="46.75899" lon="4.793">
        <ele>184.229064</ele>
        <time>2011-01-30T13:46:22Z</time>
      </trkpt>
      <trkpt lat="46.75899" lon="4.79282">
        <ele>185.120294</ele>
        <time>2011-01-30T13:46:24Z</time>
      </trkpt>
      <trkpt lat="46.759" lon="4.79265">
        <ele>185.353573</ele>
        <time>2011-01-30T13:46:26Z</time>
      </trkpt>
      <trkpt lat="46.75901" lon="4.79246">
        <ele>185.302261</ele>
        <time>2011-01-30T13:46:28Z</time>
      </trkpt>
      <trkpt lat="46.75904" lon="4.79218">
        <ele>185.211893</ele>
        <time>2011-01-30T13:46:31Z</time>
      </trkpt>
      <trkpt lat="46.75906" lon="4.79201">
        <ele>185.158558</ele>
        <time>2011-01-30T13:46:33Z</time>
      </trkpt>
      <trkpt lat="46.75909" lon="4.79175">
        <ele>185.163474</ele>
        <time>2011-01-30T13:46:36Z</time>
      </trkpt>
      <trkpt lat="46.75912" lon="4.7915">
        <ele>185.226122</ele>
        <time>2011-01-30T13:46:39Z</time>
      </trkpt>
      <trkpt lat="46.75913" lon="4.79131">
        <ele>185.333256</ele>
        <time>2011-01-30T13:46:41Z</time>
      </trkpt>
      <trkpt lat="46.75914" lon="4.79111">
        <ele>185.565806</ele>
        <time>2011-01-30T13:46:43Z</time>
      </trkpt>
      <trkpt lat="46.75916" lon="4.79091">
        <ele>186.115911</ele>
        <time>2011-01-30T13:46:45Z</time>
      </trkpt>
      <trkpt lat="46.75917" lon="4.79061">
        <ele>187.11956</ele>
        <time>2011-01-30T13:46:48Z</time>
      </trkpt>
      <trkpt lat="46.75918" lon="4.79042">
        <ele>188.584263</ele>
        <time>2011-01-30T13:46:50Z</time>
      </trkpt>
      <trkpt lat="46.75921" lon="4.79014">
        <ele>190.187558</ele>
        <time>2011-01-30T13:46:53Z</time>
      </trkpt>
      <trkpt lat="46.75922" lon="4.78985">
        <ele>191.345403</ele>
        <time>2011-01-30T13:46:56Z</time>
      </trkpt>
      <trkpt lat="46.75924" lon="4.78955">
        <ele>191.809629</ele>
        <time>2011-01-30T13:46:59Z</time>
      </trkpt>
      <trkpt lat="46.75924" lon="4.78935">
        <ele>191.828815</ele>
        <time>2011-01-30T13:47:01Z</time>
      </trkpt>
      <trkpt lat="46.75925" lon="4.78916">
        <ele>191.647411</ele>
        <time>2011-01-30T13:47:03Z</time>
      </trkpt>
      <trkpt lat="46.75926" lon="4.78898">
        <ele>191.364572</ele>
        <time>2011-01-30T13:47:05Z</time>
      </trkpt>
      <trkpt lat="46.75929" lon="4.7887">
        <ele>191.097015</ele>
        <time>2011-01-30T13:47:08Z</time>
      </trkpt>
      <trkpt lat="46.75931" lon="4.78844">
        <ele>190.953201</ele>
        <time>2011-01-30T13:47:11Z</time>
      </trkpt>
      <trkpt lat="46.75934" lon="4.7882">
        <ele>190.921291</ele>
        <time>2011-01-30T13:47:14Z</time>
      </trkpt>
      <trkpt lat="46.75936" lon="4.78796">
        <ele>190.886719</ele>
        <time>2011-01-30T13:47:17Z</time>
      </trkpt>
      <trkpt lat="46.75938" lon="4.78781">
        <ele>190.774306</ele>
        <time>2011-01-30T13:47:19Z</time>
      </trkpt>
      <trkpt lat="46.75941" lon="4.78768">
        <ele>190.648073</ele>
        <time>2011-01-30T13:47:21Z</time>
      </trkpt>
      <trkpt lat="46.75944" lon="4.78747">
        <ele>190.310497</ele>
        <time>2011-01-30T13:47:24Z</time>
      </trkpt>
      <trkpt lat="46.75947" lon="4.78727">
        <ele>189.441178</ele>
        <time>2011-01-30T13:47:27Z</time>
      </trkpt>
      <trkpt lat="46.75951" lon="4.78708">
        <ele>188.216493</ele>
        <time>2011-01-30T13:47:30Z</time>
      </trkpt>
      <trkpt lat="46.75955" lon="4.78691">
        <ele>187.040024</ele>
        <time>2011-01-30T13:47:33Z</time>
      </trkpt>
      <trkpt lat="46.75959" lon="4.78679">
        <ele>186.115141</ele>
        <time>2011-01-30T13:47:35Z</time>
      </trkpt>
      <trkpt lat="46.75964" lon="4.78659">
        <ele>185.559321</ele>
        <time>2011-01-30T13:47:38Z</time>
      </trkpt>
      <trkpt lat="46.75967" lon="4.78646">
        <ele>185.332751</ele>
        <time>2011-01-30T13:47:40Z</time>
      </trkpt>
      <trkpt lat="46.75971" lon="4.78633">
        <ele>185.187591</ele>
        <time>2011-01-30T13:47:42Z</time>
      </trkpt>
      <trkpt lat="46.75976" lon="4.78611">
        <ele>184.855184</ele>
        <time>2011-01-30T13:47:45Z</time>
      </trkpt>
      <trkpt lat="46.75982" lon="4.78591">
        <ele>184.350171</ele>
        <time>2011-01-30T13:47:48Z</time>
      </trkpt>
      <trkpt lat="46.75987" lon="4.78578">
        <ele>183.937607</ele>
        <time>2011-01-30T13:47:50Z</time>
      </trkpt>
      <trkpt lat="46.75993" lon="4.78558">
        <ele>183.753594</ele>
        <time>2011-01-30T13:47:53Z</time>
      </trkpt>
      <trkpt lat="46.75997" lon="4.78543">
        <ele>183.71167</ele>
        <time>2011-01-30T13:47:55Z</time>
      </trkpt>
      <trkpt lat="46.76003" lon="4.78522">
        <ele>183.696432</ele>
        <time>2011-01-30T13:47:58Z</time>
      </trkpt>
      <trkpt lat="46.76009" lon="4.78508">
        <ele>183.568558</ele>
        <time>2011-01-30T13:48:00Z</time>
      </trkpt>
      <trkpt lat="46.7602" lon="4.7849">
        <ele>182.990663</ele>
        <time>2011-01-30T13:48:03Z</time>
      </trkpt>
      <trkpt lat="46.76027" lon="4.78479">
        <ele>181.8377</ele>
        <time>2011-01-30T13:48:05Z</time>
      </trkpt>
      <trkpt lat="46.76034" lon="4.78467">
        <ele>180.586332</ele>
        <time>2011-01-30T13:48:07Z</time>
      </trkpt>
      <trkpt lat="46.7604" lon="4.78455">
        <ele>179.774181</ele>
        <time>2011-01-30T13:48:09Z</time>
      </trkpt>
      <trkpt lat="46.76049" lon="4.78438">
        <ele>179.472203</ele>
        <time>2011-01-30T13:48:12Z</time>
      </trkpt>
      <trkpt lat="46.76056" lon="4.78427">
        <ele>179.476526</ele>
        <time>2011-01-30T13:48:14Z</time>
      </trkpt>
      <trkpt lat="46.76061" lon="4.78415">
        <ele>179.659311</ele>
        <time>2011-01-30T13:48:16Z</time>
      </trkpt>
      <trkpt lat="46.7607" lon="4.78397">
        <ele>180.066759</ele>
        <time>2011-01-30T13:48:19Z</time>
      </trkpt>
      <trkpt lat="46.76076" lon="4.78385">
        <ele>180.597008</ele>
        <time>2011-01-30T13:48:21Z</time>
      </trkpt>
      <trkpt lat="46.76086" lon="4.78368">
        <ele>181.055778</ele>
        <time>2011-01-30T13:48:24Z</time>
      </trkpt>
      <trkpt lat="46.76094" lon="4.78356">
        <ele>181.567072</ele>
        <time>2011-01-30T13:48:26Z</time>
      </trkpt>
      <trkpt lat="46.76107" lon="4.78337">
        <ele>182.221123</ele>
        <time>2011-01-30T13:48:29Z</time>
      </trkpt>
      <trkpt lat="46.76116" lon="4.78325">
        <ele>182.742025</ele>
        <time>2011-01-30T13:48:31Z</time>
      </trkpt>
      <trkpt lat="46.76128" lon="4.78307">
        <ele>182.947373</ele>
        <time>2011-01-30T13:48:34Z</time>
      </trkpt>
      <trkpt lat="46.76139" lon="4.78292">
        <ele>182.488154</ele>
        <time>2011-01-30T13:48:37Z</time>
      </trkpt>
      <trkpt lat="46.76151" lon="4.78276">
        <ele>180.912387</ele>
        <time>2011-01-30T13:48:40Z</time>
      </trkpt>
      <trkpt lat="46.76158" lon="4.78266">
        <ele>178.576977</ele>
        <time>2011-01-30T13:48:42Z</time>
      </trkpt>
      <trkpt lat="46.76169" lon="4.78251">
        <ele>176.463107</ele>
        <time>2011-01-30T13:48:45Z</time>
      </trkpt>
      <trkpt lat="46.76177" lon="4.7824">
        <ele>175.206665</ele>
        <time>2011-01-30T13:48:47Z</time>
      </trkpt>
      <trkpt lat="46.76188" lon="4.78224">
        <ele>174.815225</ele>
        <time>2011-01-30T13:48:50Z</time>
      </trkpt>
      <trkpt lat="46.76194" lon="4.78212">
        <ele>174.878864</ele>
        <time>2011-01-30T13:48:52Z</time>
      </trkpt>
      <trkpt lat="46.762" lon="4.78201">
        <ele>175.048613</ele>
        <time>2011-01-30T13:48:54Z</time>
      </trkpt>
      <trkpt lat="46.76207" lon="4.7819">
        <ele>175.36063</ele>
        <time>2011-01-30T13:48:56Z</time>
      </trkpt>
      <trkpt lat="46.76219" lon="4.78177">
        <ele>175.919012</ele>
        <time>2011-01-30T13:48:59Z</time>
      </trkpt>
      <trkpt lat="46.76226" lon="4.78168">
        <ele>176.49385</ele>
        <time>2011-01-30T13:49:01Z</time>
      </trkpt>
      <trkpt lat="46.76237" lon="4.78154">
        <ele>176.829428</ele>
        <time>2011-01-30T13:49:04Z</time>
      </trkpt>
      <trkpt lat="46.76249" lon="4.78138">
        <ele>177.062568</ele>
        <time>2011-01-30T13:49:07Z</time>
      </trkpt>
      <trkpt lat="46.76258" lon="4.78127">
        <ele>177.526964</ele>
        <time>2011-01-30T13:49:09Z</time>
      </trkpt>
      <trkpt lat="46.7627" lon="4.78111">
        <ele>178.414807</ele>
        <time>2011-01-30T13:49:12Z</time>
      </trkpt>
      <trkpt lat="46.76279" lon="4.781">
        <ele>179.456999</ele>
        <time>2011-01-30T13:49:14Z</time>
      </trkpt>
      <trkpt lat="46.76292" lon="4.78083">
        <ele>180.173313</ele>
        <time>2011-01-30T13:49:17Z</time>
      </trkpt>
      <trkpt lat="46.76306" lon="4.78066">
        <ele>180.415014</ele>
        <time>2011-01-30T13:49:20Z</time>
      </trkpt>
      <trkpt lat="46.76317" lon="4.78051">
        <ele>180.170395</ele>
        <time>2011-01-30T13:49:22Z</time>
      </trkpt>
      <trkpt lat="46.76327" lon="4.78037">
        <ele>179.168303</ele>
        <time>2011-01-30T13:49:24Z</time>
      </trkpt>
      <trkpt lat="46.76337" lon="4.78023">
        <ele>177.291155</ele>
        <time>2011-01-30T13:49:26Z</time>
      </trkpt>
      <trkpt lat="46.76348" lon="4.7801">
        <ele>175.066155</ele>
        <time>2011-01-30T13:49:28Z</time>
      </trkpt>
      <trkpt lat="46.76363" lon="4.7799">
        <ele>173.347254</ele>
        <time>2011-01-30T13:49:31Z</time>
      </trkpt>
      <trkpt lat="46.76372" lon="4.77979">
        <ele>172.471206</ele>
        <time>2011-01-30T13:49:33Z</time>
      </trkpt>
      <trkpt lat="46.76384" lon="4.77964">
        <ele>172.103317</ele>
        <time>2011-01-30T13:49:36Z</time>
      </trkpt>
      <trkpt lat="46.76392" lon="4.77945">
        <ele>171.898218</ele>
        <time>2011-01-30T13:49:39Z</time>
      </trkpt>
      <trkpt lat="46.76391" lon="4.7793">
        <ele>171.517715</ele>
        <time>2011-01-30T13:49:41Z</time>
      </trkpt>
      <trkpt lat="46.76387" lon="4.77907">
        <ele>170.800613</ele>
        <time>2011-01-30T13:49:44Z</time>
      </trkpt>
      <trkpt lat="46.76383" lon="4.77893">
        <ele>170.114009</ele>
        <time>2011-01-30T13:49:46Z</time>
      </trkpt>
      <trkpt lat="46.76375" lon="4.7787">
        <ele>169.802024</ele>
        <time>2011-01-30T13:49:49Z</time>
      </trkpt>
      <trkpt lat="46.76367" lon="4.7785">
        <ele>170.106615</ele>
        <time>2011-01-30T13:49:52Z</time>
      </trkpt>
      <trkpt lat="46.76362" lon="4.77836">
        <ele>171.567601</ele>
        <time>2011-01-30T13:49:54Z</time>
      </trkpt>
      <trkpt lat="46.76355" lon="4.77817">
        <ele>174.407401</ele>
        <time>2011-01-30T13:49:57Z</time>
      </trkpt>
      <trkpt lat="46.7635" lon="4.77805">
        <ele>178.028725</ele>
        <time>2011-01-30T13:49:59Z</time>
      </trkpt>
      <trkpt lat="46.76344" lon="4.77787">
        <ele>181.564368</ele>
        <time>2011-01-30T13:50:02Z</time>
      </trkpt>
      <trkpt lat="46.7634" lon="4.77769">
        <ele>184.583691</ele>
        <time>2011-01-30T13:50:05Z</time>
      </trkpt>
      <trkpt lat="46.76338" lon="4.77755">
        <ele>186.965349</ele>
        <time>2011-01-30T13:50:07Z</time>
      </trkpt>
      <trkpt lat="46.76334" lon="4.77736">
        <ele>188.540176</ele>
        <time>2011-01-30T13:50:10Z</time>
      </trkpt>
      <trkpt lat="46.76331" lon="4.77723">
        <ele>189.367563</ele>
        <time>2011-01-30T13:50:12Z</time>
      </trkpt>
      <trkpt lat="46.76328" lon="4.77711">
        <ele>189.769631</ele>
        <time>2011-01-30T13:50:14Z</time>
      </trkpt>
      <trkpt lat="46.76324" lon="4.77697">
        <ele>190.090934</ele>
        <time>2011-01-30T13:50:16Z</time>
      </trkpt>
      <trkpt lat="46.7632" lon="4.77677">
        <ele>190.53366</ele>
        <time>2011-01-30T13:50:19Z</time>
      </trkpt>
      <trkpt lat="46.76317" lon="4.77664">
        <ele>191.012798</ele>
        <time>2011-01-30T13:50:21Z</time>
      </trkpt>
      <trkpt lat="46.76313" lon="4.77645">
        <ele>191.323971</ele>
        <time>2011-01-30T13:50:24Z</time>
      </trkpt>
      <trkpt lat="46.76309" lon="4.77625">
        <ele>191.435094</ele>
        <time>2011-01-30T13:50:27Z</time>
      </trkpt>
      <trkpt lat="46.76304" lon="4.77612">
        <ele>191.429994</ele>
        <time>2011-01-30T13:50:29Z</time>
      </trkpt>
      <trkpt lat="46.76299" lon="4.77599">
        <ele>191.331703</ele>
        <time>2011-01-30T13:50:31Z</time>
      </trkpt>
      <trkpt lat="46.76293" lon="4.77579">
        <ele>190.740961</ele>
        <time>2011-01-30T13:50:34Z</time>
      </trkpt>
      <trkpt lat="46.76286" lon="4.77558">
        <ele>189.259537</ele>
        <time>2011-01-30T13:50:37Z</time>
      </trkpt>
      <trkpt lat="46.76281" lon="4.77543">
        <ele>187.287392</ele>
        <time>2011-01-30T13:50:39Z</time>
      </trkpt>
      <trkpt lat="46.76277" lon="4.77528">
        <ele>185.552142</ele>
        <time>2011-01-30T13:50:41Z</time>
      </trkpt>
      <trkpt lat="46.76273" lon="4.77503">
        <ele>184.394932</ele>
        <time>2011-01-30T13:50:44Z</time>
      </trkpt>
      <trkpt lat="46.76271" lon="4.77483">
        <ele>183.874888</ele>
        <time>2011-01-30T13:50:46Z</time>
      </trkpt>
      <trkpt lat="46.76271" lon="4.77483">
        <ele>183.761741</ele>
        <time>2011-01-30T13:50:47Z</time>
      </trkpt>
      <trkpt lat="46.76266" lon="4.77436">
        <ele>183.728853</ele>
        <time>2011-01-30T13:51:00Z</time>
      </trkpt>
      <trkpt lat="46.76266" lon="4.77436">
        <ele>183.684555</ele>
        <time>2011-01-30T13:51:04Z</time>
      </trkpt>
      <trkpt lat="46.76253" lon="4.77399">
        <ele>184.055106</ele>
        <time>2011-01-30T13:51:38Z</time>
      </trkpt>
      <trkpt lat="46.7625" lon="4.77386">
        <ele>185.275207</ele>
        <time>2011-01-30T13:51:42Z</time>
      </trkpt>
      <trkpt lat="46.76246" lon="4.7737">
        <ele>186.971326</ele>
        <time>2011-01-30T13:51:46Z</time>
      </trkpt>
      <trkpt lat="46.76242" lon="4.77355">
        <ele>188.702839</ele>
        <time>2011-01-30T13:51:50Z</time>
      </trkpt>
      <trkpt lat="46.76238" lon="4.77341">
        <ele>190.432413</ele>
        <time>2011-01-30T13:51:53Z</time>
      </trkpt>
      <trkpt lat="46.76234" lon="4.77325">
        <ele>191.858058</ele>
        <time>2011-01-30T13:51:56Z</time>
      </trkpt>
      <trkpt lat="46.7623" lon="4.77309">
        <ele>192.759109</ele>
        <time>2011-01-30T13:51:59Z</time>
      </trkpt>
      <trkpt lat="46.76226" lon="4.77291">
        <ele>193.341544</ele>
        <time>2011-01-30T13:52:02Z</time>
      </trkpt>
      <trkpt lat="46.76222" lon="4.77273">
        <ele>193.96282</ele>
        <time>2011-01-30T13:52:05Z</time>
      </trkpt>
      <trkpt lat="46.76218" lon="4.77255">
        <ele>194.922394</ele>
        <time>2011-01-30T13:52:08Z</time>
      </trkpt>
      <trkpt lat="46.76216" lon="4.77242">
        <ele>196.272281</ele>
        <time>2011-01-30T13:52:10Z</time>
      </trkpt>
      <trkpt lat="46.76212" lon="4.77223">
        <ele>197.668006</ele>
        <time>2011-01-30T13:52:13Z</time>
      </trkpt>
      <trkpt lat="46.76208" lon="4.77209">
        <ele>198.592976</ele>
        <time>2011-01-30T13:52:15Z</time>
      </trkpt>
      <trkpt lat="46.76205" lon="4.77196">
        <ele>198.890849</ele>
        <time>2011-01-30T13:52:17Z</time>
      </trkpt>
      <trkpt lat="46.762" lon="4.77178">
        <ele>198.838656</ele>
        <time>2011-01-30T13:52:20Z</time>
      </trkpt>
      <trkpt lat="46.76196" lon="4.7716">
        <ele>198.56283</ele>
        <time>2011-01-30T13:52:23Z</time>
      </trkpt>
      <trkpt lat="46.76194" lon="4.77147">
        <ele>198.023875</ele>
        <time>2011-01-30T13:52:25Z</time>
      </trkpt>
      <trkpt lat="46.76189" lon="4.77128">
        <ele>197.287889</ele>
        <time>2011-01-30T13:52:28Z</time>
      </trkpt>
      <trkpt lat="46.76187" lon="4.77115">
        <ele>196.577373</ele>
        <time>2011-01-30T13:52:30Z</time>
      </trkpt>
      <trkpt lat="46.76182" lon="4.77096">
        <ele>196.104682</ele>
        <time>2011-01-30T13:52:33Z</time>
      </trkpt>
      <trkpt lat="46.76178" lon="4.77081">
        <ele>195.910433</ele>
        <time>2011-01-30T13:52:36Z</time>
      </trkpt>
      <trkpt lat="46.76174" lon="4.77066">
        <ele>195.865943</ele>
        <time>2011-01-30T13:52:39Z</time>
      </trkpt>
      <trkpt lat="46.7617" lon="4.77052">
        <ele>195.866108</ele>
        <time>2011-01-30T13:52:42Z</time>
      </trkpt>
      <trkpt lat="46.76166" lon="4.77036">
        <ele>195.87552</ele>
        <time>2011-01-30T13:52:45Z</time>
      </trkpt>
      <trkpt lat="46.76161" lon="4.77018">
        <ele>195.882551</ele>
        <time>2011-01-30T13:52:48Z</time>
      </trkpt>
      <trkpt lat="46.76158" lon="4.77005">
        <ele>195.885156</ele>
        <time>2011-01-30T13:52:50Z</time>
      </trkpt>
      <trkpt lat="46.76153" lon="4.76986">
        <ele>195.889042</ele>
        <time>2011-01-30T13:52:53Z</time>
      </trkpt>
      <trkpt lat="46.76148" lon="4.76966">
        <ele>195.962807</ele>
        <time>2011-01-30T13:52:56Z</time>
      </trkpt>
      <trkpt lat="46.76143" lon="4.76945">
        <ele>196.185104</ele>
        <time>2011-01-30T13:52:59Z</time>
      </trkpt>
      <trkpt lat="46.76138" lon="4.76928">
        <ele>196.491644</ele>
        <time>2011-01-30T13:53:02Z</time>
      </trkpt>
      <trkpt lat="46.76134" lon="4.76911">
        <ele>196.744454</ele>
        <time>2011-01-30T13:53:05Z</time>
      </trkpt>
      <trkpt lat="46.7613" lon="4.76894">
        <ele>196.904089</ele>
        <time>2011-01-30T13:53:08Z</time>
      </trkpt>
      <trkpt lat="46.76126" lon="4.76877">
        <ele>196.999284</ele>
        <time>2011-01-30T13:53:11Z</time>
      </trkpt>
      <trkpt lat="46.76122" lon="4.76858">
        <ele>197.050467</ele>
        <time>2011-01-30T13:53:14Z</time>
      </trkpt>
      <trkpt lat="46.76118" lon="4.76844">
        <ele>197.068424</ele>
        <time>2011-01-30T13:53:16Z</time>
      </trkpt>
      <trkpt lat="46.76115" lon="4.7683">
        <ele>197.067344</ele>
        <time>2011-01-30T13:53:18Z</time>
      </trkpt>
      <trkpt lat="46.7611" lon="4.76809">
        <ele>196.878022</ele>
        <time>2011-01-30T13:53:21Z</time>
      </trkpt>
      <trkpt lat="46.76105" lon="4.7679">
        <ele>196.168491</ele>
        <time>2011-01-30T13:53:24Z</time>
      </trkpt>
      <trkpt lat="46.761" lon="4.76772">
        <ele>195.029387</ele>
        <time>2011-01-30T13:53:27Z</time>
      </trkpt>
      <trkpt lat="46.76097" lon="4.76755">
        <ele>194.046785</ele>
        <time>2011-01-30T13:53:30Z</time>
      </trkpt>
      <trkpt lat="46.76093" lon="4.76738">
        <ele>193.578225</ele>
        <time>2011-01-30T13:53:33Z</time>
      </trkpt>
      <trkpt lat="46.76089" lon="4.76721">
        <ele>193.505849</ele>
        <time>2011-01-30T13:53:36Z</time>
      </trkpt>
      <trkpt lat="46.76084" lon="4.76703">
        <ele>193.584929</ele>
        <time>2011-01-30T13:53:39Z</time>
      </trkpt>
      <trkpt lat="46.76081" lon="4.76686">
        <ele>193.665015</ele>
        <time>2011-01-30T13:53:42Z</time>
      </trkpt>
      <trkpt lat="46.76078" lon="4.76672">
        <ele>193.702706</ele>
        <time>2011-01-30T13:53:45Z</time>
      </trkpt>
      <trkpt lat="46.76074" lon="4.76657">
        <ele>193.679435</ele>
        <time>2011-01-30T13:53:48Z</time>
      </trkpt>
      <trkpt lat="46.76074" lon="4.76657">
        <ele>193.593952</ele>
        <time>2011-01-30T13:53:49Z</time>
      </trkpt>
      <trkpt lat="46.76067" lon="4.76626">
        <ele>193.470764</ele>
        <time>2011-01-30T13:53:55Z</time>
      </trkpt>
      <trkpt lat="46.76067" lon="4.76626">
        <ele>193.343901</ele>
        <time>2011-01-30T13:53:58Z</time>
      </trkpt>
      <trkpt lat="46.76059" lon="4.76597">
        <ele>193.233177</ele>
        <time>2011-01-30T13:54:02Z</time>
      </trkpt>
      <trkpt lat="46.76055" lon="4.76581">
        <ele>193.135656</ele>
        <time>2011-01-30T13:54:06Z</time>
      </trkpt>
      <trkpt lat="46.76055" lon="4.76581">
        <ele>193.046919</ele>
        <time>2011-01-30T13:54:08Z</time>
      </trkpt>
      <trkpt lat="46.76045" lon="4.76542">
        <ele>192.98812</ele>
        <time>2011-01-30T13:54:17Z</time>
      </trkpt>
      <trkpt lat="46.76045" lon="4.76542">
        <ele>192.958663</ele>
        <time>2011-01-30T13:54:20Z</time>
      </trkpt>
      <trkpt lat="46.76033" lon="4.76499">
        <ele>192.948058</ele>
        <time>2011-01-30T13:54:29Z</time>
      </trkpt>
      <trkpt lat="46.7603" lon="4.76485">
        <ele>192.953684</ele>
        <time>2011-01-30T13:54:33Z</time>
      </trkpt>
      <trkpt lat="46.76025" lon="4.76463">
        <ele>192.967044</ele>
        <time>2011-01-30T13:54:40Z</time>
      </trkpt>
      <trkpt lat="46.76022" lon="4.76448">
        <ele>193.002777</ele>
        <time>2011-01-30T13:54:45Z</time>
      </trkpt>
      <trkpt lat="46.7602" lon="4.76434">
        <ele>193.094369</ele>
        <time>2011-01-30T13:54:49Z</time>
      </trkpt>
      <trkpt lat="46.76018" lon="4.76419">
        <ele>193.242654</ele>
        <time>2011-01-30T13:54:53Z</time>
      </trkpt>
      <trkpt lat="46.76014" lon="4.76407">
        <ele>193.442031</ele>
        <time>2011-01-30T13:54:57Z</time>
      </trkpt>
      <trkpt lat="46.76008" lon="4.76393">
        <ele>193.715268</ele>
        <time>2011-01-30T13:55:01Z</time>
      </trkpt>
      <trkpt lat="46.76003" lon="4.76377">
        <ele>194.080194</ele>
        <time>2011-01-30T13:55:05Z</time>
      </trkpt>
      <trkpt lat="46.75998" lon="4.76362">
        <ele>194.507639</ele>
        <time>2011-01-30T13:55:08Z</time>
      </trkpt>
      <trkpt lat="46.75992" lon="4.76345">
        <ele>194.890964</ele>
        <time>2011-01-30T13:55:12Z</time>
      </trkpt>
      <trkpt lat="46.75988" lon="4.76329">
        <ele>195.120181</ele>
        <time>2011-01-30T13:55:16Z</time>
      </trkpt>
      <trkpt lat="46.75985" lon="4.76313">
        <ele>195.19009</ele>
        <time>2011-01-30T13:55:20Z</time>
      </trkpt>
      <trkpt lat="46.75982" lon="4.76299">
        <ele>195.17735</ele>
        <time>2011-01-30T13:55:24Z</time>
      </trkpt>
      <trkpt lat="46.75979" lon="4.76284">
        <ele>195.132844</ele>
        <time>2011-01-30T13:55:28Z</time>
      </trkpt>
      <trkpt lat="46.75977" lon="4.76271">
        <ele>195.055901</ele>
        <time>2011-01-30T13:55:32Z</time>
      </trkpt>
      <trkpt lat="46.75974" lon="4.76258">
        <ele>194.919536</ele>
        <time>2011-01-30T13:55:36Z</time>
      </trkpt>
      <trkpt lat="46.75973" lon="4.76244">
        <ele>194.73427</ele>
        <time>2011-01-30T13:55:40Z</time>
      </trkpt>
      <trkpt lat="46.75969" lon="4.76229">
        <ele>194.563868</ele>
        <time>2011-01-30T13:55:44Z</time>
      </trkpt>
      <trkpt lat="46.75965" lon="4.76214">
        <ele>194.439141</ele>
        <time>2011-01-30T13:55:48Z</time>
      </trkpt>
      <trkpt lat="46.75962" lon="4.76199">
        <ele>194.315146</ele>
        <time>2011-01-30T13:55:52Z</time>
      </trkpt>
      <trkpt lat="46.75962" lon="4.76199">
        <ele>194.17929</ele>
        <time>2011-01-30T13:55:56Z</time>
      </trkpt>
      <trkpt lat="46.75948" lon="4.76146">
        <ele>194.081142</ele>
        <time>2011-01-30T13:56:28Z</time>
      </trkpt>
      <trkpt lat="46.75944" lon="4.76134">
        <ele>194.046047</ele>
        <time>2011-01-30T13:56:41Z</time>
      </trkpt>
      <trkpt lat="46.75944" lon="4.76134">
        <ele>194.029546</ele>
        <time>2011-01-30T13:56:49Z</time>
      </trkpt>
      <trkpt lat="46.75944" lon="4.76134">
        <ele>193.989982</ele>
        <time>2011-01-30T13:57:24Z</time>
      </trkpt>
      <trkpt lat="46.75951" lon="4.76174">
        <ele>193.965097</ele>
        <time>2011-01-30T13:57:58Z</time>
      </trkpt>
      <trkpt lat="46.75956" lon="4.76187">
        <ele>194.082931</ele>
        <time>2011-01-30T13:58:03Z</time>
      </trkpt>
      <trkpt lat="46.75962" lon="4.762">
        <ele>194.407809</ele>
        <time>2011-01-30T13:58:08Z</time>
      </trkpt>
      <trkpt lat="46.75966" lon="4.76213">
        <ele>195.043269</ele>
        <time>2011-01-30T13:58:13Z</time>
      </trkpt>
      <trkpt lat="46.75971" lon="4.76225">
        <ele>195.937951</ele>
        <time>2011-01-30T13:58:17Z</time>
      </trkpt>
      <trkpt lat="46.75975" lon="4.76238">
        <ele>196.677002</ele>
        <time>2011-01-30T13:58:21Z</time>
      </trkpt>
      <trkpt lat="46.75976" lon="4.76251">
        <ele>196.977827</ele>
        <time>2011-01-30T13:58:25Z</time>
      </trkpt>
      <trkpt lat="46.75977" lon="4.76265">
        <ele>196.946282</ele>
        <time>2011-01-30T13:58:29Z</time>
      </trkpt>
      <trkpt lat="46.7598" lon="4.76278">
        <ele>196.70481</ele>
        <time>2011-01-30T13:58:33Z</time>
      </trkpt>
      <trkpt lat="46.75985" lon="4.76291">
        <ele>196.372164</ele>
        <time>2011-01-30T13:58:37Z</time>
      </trkpt>
      <trkpt lat="46.7599" lon="4.76307">
        <ele>196.082709</ele>
        <time>2011-01-30T13:58:41Z</time>
      </trkpt>
      <trkpt lat="46.75994" lon="4.76322">
        <ele>195.910214</ele>
        <time>2011-01-30T13:58:45Z</time>
      </trkpt>
      <trkpt lat="46.75997" lon="4.76338">
        <ele>195.829054</ele>
        <time>2011-01-30T13:58:49Z</time>
      </trkpt>
      <trkpt lat="46.75998" lon="4.76354">
        <ele>195.739867</ele>
        <time>2011-01-30T13:58:53Z</time>
      </trkpt>
      <trkpt lat="46.75997" lon="4.76371">
        <ele>195.602447</ele>
        <time>2011-01-30T13:58:57Z</time>
      </trkpt>
      <trkpt lat="46.75996" lon="4.76388">
        <ele>195.482869</ele>
        <time>2011-01-30T13:59:01Z</time>
      </trkpt>
      <trkpt lat="46.75996" lon="4.76403">
        <ele>195.432104</ele>
        <time>2011-01-30T13:59:05Z</time>
      </trkpt>
      <trkpt lat="46.76" lon="4.76416">
        <ele>195.458089</ele>
        <time>2011-01-30T13:59:09Z</time>
      </trkpt>
      <trkpt lat="46.76005" lon="4.76428">
        <ele>195.615128</ele>
        <time>2011-01-30T13:59:13Z</time>
      </trkpt>
      <trkpt lat="46.7601" lon="4.76439">
        <ele>195.947375</ele>
        <time>2011-01-30T13:59:17Z</time>
      </trkpt>
      <trkpt lat="46.76015" lon="4.76451">
        <ele>196.343522</ele>
        <time>2011-01-30T13:59:21Z</time>
      </trkpt>
      <trkpt lat="46.76019" lon="4.76463">
        <ele>196.613548</ele>
        <time>2011-01-30T13:59:25Z</time>
      </trkpt>
      <trkpt lat="46.76023" lon="4.76475">
        <ele>196.703727</ele>
        <time>2011-01-30T13:59:29Z</time>
      </trkpt>
      <trkpt lat="46.76027" lon="4.76487">
        <ele>196.676569</ele>
        <time>2011-01-30T13:59:33Z</time>
      </trkpt>
      <trkpt lat="46.76033" lon="4.76499">
        <ele>196.574064</ele>
        <time>2011-01-30T13:59:37Z</time>
      </trkpt>
      <trkpt lat="46.76038" lon="4.76514">
        <ele>196.409849</ele>
        <time>2011-01-30T13:59:41Z</time>
      </trkpt>
      <trkpt lat="46.76045" lon="4.76529">
        <ele>196.183877</ele>
        <time>2011-01-30T13:59:44Z</time>
      </trkpt>
      <trkpt lat="46.7605" lon="4.76544">
        <ele>195.873171</ele>
        <time>2011-01-30T13:59:47Z</time>
      </trkpt>
      <trkpt lat="46.76054" lon="4.76559">
        <ele>195.425438</ele>
        <time>2011-01-30T13:59:50Z</time>
      </trkpt>
      <trkpt lat="46.76059" lon="4.76575">
        <ele>194.844773</ele>
        <time>2011-01-30T13:59:54Z</time>
      </trkpt>
      <trkpt lat="46.76062" lon="4.7659">
        <ele>194.236689</ele>
        <time>2011-01-30T13:59:58Z</time>
      </trkpt>
      <trkpt lat="46.76065" lon="4.76603">
        <ele>193.699827</ele>
        <time>2011-01-30T14:00:02Z</time>
      </trkpt>
      <trkpt lat="46.76068" lon="4.76618">
        <ele>193.26275</ele>
        <time>2011-01-30T14:00:06Z</time>
      </trkpt>
      <trkpt lat="46.76071" lon="4.76631">
        <ele>192.93152</ele>
        <time>2011-01-30T14:00:10Z</time>
      </trkpt>
      <trkpt lat="46.76079" lon="4.7664">
        <ele>192.719075</ele>
        <time>2011-01-30T14:00:16Z</time>
      </trkpt>
      <trkpt lat="46.76089" lon="4.7664">
        <ele>192.628656</ele>
        <time>2011-01-30T14:00:22Z</time>
      </trkpt>
      <trkpt lat="46.76098" lon="4.76636">
        <ele>192.621194</ele>
        <time>2011-01-30T14:00:27Z</time>
      </trkpt>
      <trkpt lat="46.76108" lon="4.76631">
        <ele>192.736082</ele>
        <time>2011-01-30T14:00:31Z</time>
      </trkpt>
      <trkpt lat="46.76117" lon="4.76626">
        <ele>193.117176</ele>
        <time>2011-01-30T14:00:34Z</time>
      </trkpt>
      <trkpt lat="46.76126" lon="4.76623">
        <ele>193.761173</ele>
        <time>2011-01-30T14:00:37Z</time>
      </trkpt>
      <trkpt lat="46.76137" lon="4.76618">
        <ele>194.39943</ele>
        <time>2011-01-30T14:00:40Z</time>
      </trkpt>
      <trkpt lat="46.76149" lon="4.76612">
        <ele>194.774429</ele>
        <time>2011-01-30T14:00:43Z</time>
      </trkpt>
      <trkpt lat="46.7616" lon="4.76604">
        <ele>194.874562</ele>
        <time>2011-01-30T14:00:46Z</time>
      </trkpt>
      <trkpt lat="46.76172" lon="4.76597">
        <ele>194.835482</ele>
        <time>2011-01-30T14:00:49Z</time>
      </trkpt>
      <trkpt lat="46.76183" lon="4.7659">
        <ele>194.679543</ele>
        <time>2011-01-30T14:00:52Z</time>
      </trkpt>
      <trkpt lat="46.76194" lon="4.76581">
        <ele>194.311882</ele>
        <time>2011-01-30T14:00:55Z</time>
      </trkpt>
      <trkpt lat="46.76205" lon="4.76575">
        <ele>193.728046</ele>
        <time>2011-01-30T14:00:58Z</time>
      </trkpt>
      <trkpt lat="46.76215" lon="4.76567">
        <ele>193.046441</ele>
        <time>2011-01-30T14:01:01Z</time>
      </trkpt>
      <trkpt lat="46.76224" lon="4.76557">
        <ele>192.372967</ele>
        <time>2011-01-30T14:01:04Z</time>
      </trkpt>
      <trkpt lat="46.76233" lon="4.76547">
        <ele>191.754216</ele>
        <time>2011-01-30T14:01:07Z</time>
      </trkpt>
      <trkpt lat="46.76244" lon="4.76537">
        <ele>191.153857</ele>
        <time>2011-01-30T14:01:10Z</time>
      </trkpt>
      <trkpt lat="46.76256" lon="4.76528">
        <ele>190.498434</ele>
        <time>2011-01-30T14:01:13Z</time>
      </trkpt>
      <trkpt lat="46.76267" lon="4.76519">
        <ele>189.792004</ele>
        <time>2011-01-30T14:01:16Z</time>
      </trkpt>
      <trkpt lat="46.76279" lon="4.7651">
        <ele>189.115923</ele>
        <time>2011-01-30T14:01:19Z</time>
      </trkpt>
      <trkpt lat="46.7629" lon="4.76501">
        <ele>188.589714</ele>
        <time>2011-01-30T14:01:22Z</time>
      </trkpt>
      <trkpt lat="46.76301" lon="4.76492">
        <ele>188.307399</ele>
        <time>2011-01-30T14:01:25Z</time>
      </trkpt>
      <trkpt lat="46.76311" lon="4.76483">
        <ele>188.239333</ele>
        <time>2011-01-30T14:01:28Z</time>
      </trkpt>
      <trkpt lat="46.76321" lon="4.76473">
        <ele>188.268588</ele>
        <time>2011-01-30T14:01:31Z</time>
      </trkpt>
      <trkpt lat="46.76331" lon="4.76463">
        <ele>188.369031</ele>
        <time>2011-01-30T14:01:34Z</time>
      </trkpt>
      <trkpt lat="46.76339" lon="4.76455">
        <ele>188.636881</ele>
        <time>2011-01-30T14:01:36Z</time>
      </trkpt>
      <trkpt lat="46.76351" lon="4.76445">
        <ele>189.144798</ele>
        <time>2011-01-30T14:01:39Z</time>
      </trkpt>
      <trkpt lat="46.76358" lon="4.76439">
        <ele>189.837413</ele>
        <time>2011-01-30T14:01:41Z</time>
      </trkpt>
      <trkpt lat="46.7637" lon="4.76429">
        <ele>190.558841</ele>
        <time>2011-01-30T14:01:44Z</time>
      </trkpt>
      <trkpt lat="46.76382" lon="4.76421">
        <ele>191.202695</ele>
        <time>2011-01-30T14:01:47Z</time>
      </trkpt>
      <trkpt lat="46.76393" lon="4.76412">
        <ele>191.778195</ele>
        <time>2011-01-30T14:01:50Z</time>
      </trkpt>
      <trkpt lat="46.76404" lon="4.76404">
        <ele>192.310363</ele>
        <time>2011-01-30T14:01:53Z</time>
      </trkpt>
      <trkpt lat="46.76417" lon="4.76397">
        <ele>192.805506</ele>
        <time>2011-01-30T14:01:56Z</time>
      </trkpt>
      <trkpt lat="46.76429" lon="4.76388">
        <ele>193.288471</ele>
        <time>2011-01-30T14:01:59Z</time>
      </trkpt>
      <trkpt lat="46.7644" lon="4.76378">
        <ele>193.773405</ele>
        <time>2011-01-30T14:02:02Z</time>
      </trkpt>
      <trkpt lat="46.7645" lon="4.76368">
        <ele>194.259242</ele>
        <time>2011-01-30T14:02:05Z</time>
      </trkpt>
      <trkpt lat="46.7646" lon="4.76358">
        <ele>194.744004</ele>
        <time>2011-01-30T14:02:08Z</time>
      </trkpt>
      <trkpt lat="46.76471" lon="4.76348">
        <ele>195.191166</ele>
        <time>2011-01-30T14:02:11Z</time>
      </trkpt>
      <trkpt lat="46.76482" lon="4.76337">
        <ele>195.50766</ele>
        <time>2011-01-30T14:02:14Z</time>
      </trkpt>
      <trkpt lat="46.76494" lon="4.76327">
        <ele>195.644383</ele>
        <time>2011-01-30T14:02:17Z</time>
      </trkpt>
      <trkpt lat="46.76505" lon="4.76316">
        <ele>195.657017</ele>
        <time>2011-01-30T14:02:20Z</time>
      </trkpt>
      <trkpt lat="46.76517" lon="4.76305">
        <ele>195.557864</ele>
        <time>2011-01-30T14:02:23Z</time>
      </trkpt>
      <trkpt lat="46.76525" lon="4.76299">
        <ele>195.068833</ele>
        <time>2011-01-30T14:02:25Z</time>
      </trkpt>
      <trkpt lat="46.76538" lon="4.76289">
        <ele>194.085307</ele>
        <time>2011-01-30T14:02:27Z</time>
      </trkpt>
      <trkpt lat="46.7655" lon="4.7628">
        <ele>193.071475</ele>
        <time>2011-01-30T14:02:30Z</time>
      </trkpt>
      <trkpt lat="46.76562" lon="4.76269">
        <ele>192.385507</ele>
        <time>2011-01-30T14:02:33Z</time>
      </trkpt>
      <trkpt lat="46.76574" lon="4.76258">
        <ele>191.739415</ele>
        <time>2011-01-30T14:02:36Z</time>
      </trkpt>
      <trkpt lat="46.76582" lon="4.76251">
        <ele>190.846907</ele>
        <time>2011-01-30T14:02:38Z</time>
      </trkpt>
      <trkpt lat="46.7659" lon="4.76245">
        <ele>189.948357</ele>
        <time>2011-01-30T14:02:40Z</time>
      </trkpt>
      <trkpt lat="46.76601" lon="4.76236">
        <ele>189.425335</ele>
        <time>2011-01-30T14:02:43Z</time>
      </trkpt>
      <trkpt lat="46.76609" lon="4.7623">
        <ele>189.288057</ele>
        <time>2011-01-30T14:02:45Z</time>
      </trkpt>
      <trkpt lat="46.76617" lon="4.76223">
        <ele>189.575208</ele>
        <time>2011-01-30T14:02:47Z</time>
      </trkpt>
      <trkpt lat="46.76628" lon="4.76214">
        <ele>190.295687</ele>
        <time>2011-01-30T14:02:50Z</time>
      </trkpt>
      <trkpt lat="46.76639" lon="4.76204">
        <ele>191.051785</ele>
        <time>2011-01-30T14:02:53Z</time>
      </trkpt>
      <trkpt lat="46.76649" lon="4.76195">
        <ele>191.508472</ele>
        <time>2011-01-30T14:02:56Z</time>
      </trkpt>
      <trkpt lat="46.7666" lon="4.76187">
        <ele>191.773885</ele>
        <time>2011-01-30T14:02:59Z</time>
      </trkpt>
      <trkpt lat="46.7667" lon="4.76179">
        <ele>192.025471</ele>
        <time>2011-01-30T14:03:02Z</time>
      </trkpt>
      <trkpt lat="46.7668" lon="4.76171">
        <ele>192.349652</ele>
        <time>2011-01-30T14:03:05Z</time>
      </trkpt>
      <trkpt lat="46.76688" lon="4.76164">
        <ele>192.755546</ele>
        <time>2011-01-30T14:03:08Z</time>
      </trkpt>
      <trkpt lat="46.76698" lon="4.76156">
        <ele>193.180041</ele>
        <time>2011-01-30T14:03:11Z</time>
      </trkpt>
      <trkpt lat="46.76709" lon="4.76148">
        <ele>193.501073</ele>
        <time>2011-01-30T14:03:14Z</time>
      </trkpt>
      <trkpt lat="46.76719" lon="4.76139">
        <ele>193.661374</ele>
        <time>2011-01-30T14:03:17Z</time>
      </trkpt>
      <trkpt lat="46.7673" lon="4.7613">
        <ele>193.712479</ele>
        <time>2011-01-30T14:03:20Z</time>
      </trkpt>
      <trkpt lat="46.7674" lon="4.76122">
        <ele>193.716332</ele>
        <time>2011-01-30T14:03:23Z</time>
      </trkpt>
      <trkpt lat="46.76751" lon="4.76114">
        <ele>193.705739</ele>
        <time>2011-01-30T14:03:26Z</time>
      </trkpt>
      <trkpt lat="46.76762" lon="4.76105">
        <ele>193.69866</ele>
        <time>2011-01-30T14:03:29Z</time>
      </trkpt>
      <trkpt lat="46.7677" lon="4.76099">
        <ele>193.697426</ele>
        <time>2011-01-30T14:03:31Z</time>
      </trkpt>
      <trkpt lat="46.76782" lon="4.7609">
        <ele>193.697444</ele>
        <time>2011-01-30T14:03:34Z</time>
      </trkpt>
      <trkpt lat="46.76794" lon="4.7608">
        <ele>193.681461</ele>
        <time>2011-01-30T14:03:37Z</time>
      </trkpt>
      <trkpt lat="46.76802" lon="4.76074">
        <ele>193.641753</ele>
        <time>2011-01-30T14:03:39Z</time>
      </trkpt>
      <trkpt lat="46.76815" lon="4.76064">
        <ele>193.544501</ele>
        <time>2011-01-30T14:03:42Z</time>
      </trkpt>
      <trkpt lat="46.76827" lon="4.76057">
        <ele>192.693094</ele>
        <time>2011-01-30T14:03:45Z</time>
      </trkpt>
      <trkpt lat="46.76838" lon="4.7605">
        <ele>190.504521</ele>
        <time>2011-01-30T14:03:48Z</time>
      </trkpt>
      <trkpt lat="46.76848" lon="4.76042">
        <ele>187.832056</ele>
        <time>2011-01-30T14:03:51Z</time>
      </trkpt>
      <trkpt lat="46.76859" lon="4.76034">
        <ele>185.93187</ele>
        <time>2011-01-30T14:03:54Z</time>
      </trkpt>
      <trkpt lat="46.76869" lon="4.76027">
        <ele>185.014345</ele>
        <time>2011-01-30T14:03:57Z</time>
      </trkpt>
      <trkpt lat="46.76879" lon="4.76019">
        <ele>184.721673</ele>
        <time>2011-01-30T14:04:00Z</time>
      </trkpt>
      <trkpt lat="46.76888" lon="4.76011">
        <ele>184.685439</ele>
        <time>2011-01-30T14:04:03Z</time>
      </trkpt>
      <trkpt lat="46.76897" lon="4.76007">
        <ele>184.69599</ele>
        <time>2011-01-30T14:04:06Z</time>
      </trkpt>
      <trkpt lat="46.76906" lon="4.76003">
        <ele>184.65514</ele>
        <time>2011-01-30T14:04:09Z</time>
      </trkpt>
      <trkpt lat="46.76906" lon="4.76003">
        <ele>184.562845</ele>
        <time>2011-01-30T14:04:12Z</time>
      </trkpt>
      <trkpt lat="46.76917" lon="4.75963">
        <ele>184.474909</ele>
        <time>2011-01-30T14:04:21Z</time>
      </trkpt>
      <trkpt lat="46.76914" lon="4.75949">
        <ele>184.432672</ele>
        <time>2011-01-30T14:04:24Z</time>
      </trkpt>
      <trkpt lat="46.7691" lon="4.75935">
        <ele>184.425967</ele>
        <time>2011-01-30T14:04:27Z</time>
      </trkpt>
      <trkpt lat="46.76907" lon="4.75921">
        <ele>184.644266</ele>
        <time>2011-01-30T14:04:30Z</time>
      </trkpt>
      <trkpt lat="46.76902" lon="4.75905">
        <ele>185.277824</ele>
        <time>2011-01-30T14:04:33Z</time>
      </trkpt>
      <trkpt lat="46.76898" lon="4.75889">
        <ele>186.1097</ele>
        <time>2011-01-30T14:04:36Z</time>
      </trkpt>
      <trkpt lat="46.76893" lon="4.75873">
        <ele>186.815403</ele>
        <time>2011-01-30T14:04:39Z</time>
      </trkpt>
      <trkpt lat="46.76888" lon="4.75857">
        <ele>187.292361</ele>
        <time>2011-01-30T14:04:42Z</time>
      </trkpt>
      <trkpt lat="46.76883" lon="4.75841">
        <ele>187.514259</ele>
        <time>2011-01-30T14:04:45Z</time>
      </trkpt>
      <trkpt lat="46.76879" lon="4.75824">
        <ele>187.571915</ele>
        <time>2011-01-30T14:04:48Z</time>
      </trkpt>
      <trkpt lat="46.76881" lon="4.75811">
        <ele>187.609144</ele>
        <time>2011-01-30T14:04:51Z</time>
      </trkpt>
      <trkpt lat="46.76888" lon="4.75803">
        <ele>187.662907</ele>
        <time>2011-01-30T14:04:54Z</time>
      </trkpt>
      <trkpt lat="46.76896" lon="4.75795">
        <ele>187.701394</ele>
        <time>2011-01-30T14:04:57Z</time>
      </trkpt>
      <trkpt lat="46.76905" lon="4.75786">
        <ele>187.754408</ele>
        <time>2011-01-30T14:05:00Z</time>
      </trkpt>
      <trkpt lat="46.76914" lon="4.75775">
        <ele>187.893573</ele>
        <time>2011-01-30T14:05:03Z</time>
      </trkpt>
      <trkpt lat="46.76925" lon="4.75765">
        <ele>188.129609</ele>
        <time>2011-01-30T14:05:06Z</time>
      </trkpt>
      <trkpt lat="46.76925" lon="4.75765">
        <ele>188.375173</ele>
        <time>2011-01-30T14:05:10Z</time>
      </trkpt>
      <trkpt lat="46.76947" lon="4.75745">
        <ele>188.530596</ele>
        <time>2011-01-30T14:05:16Z</time>
      </trkpt>
      <trkpt lat="46.76955" lon="4.75738">
        <ele>188.577502</ele>
        <time>2011-01-30T14:05:19Z</time>
      </trkpt>
      <trkpt lat="46.76966" lon="4.7573">
        <ele>188.482392</ele>
        <time>2011-01-30T14:05:22Z</time>
      </trkpt>
      <trkpt lat="46.76974" lon="4.75724">
        <ele>188.2377</ele>
        <time>2011-01-30T14:05:24Z</time>
      </trkpt>
      <trkpt lat="46.76984" lon="4.75718">
        <ele>187.96917</ele>
        <time>2011-01-30T14:05:26Z</time>
      </trkpt>
      <trkpt lat="46.76998" lon="4.75708">
        <ele>187.751247</ele>
        <time>2011-01-30T14:05:29Z</time>
      </trkpt>
      <trkpt lat="46.77011" lon="4.75693">
        <ele>187.55864</ele>
        <time>2011-01-30T14:05:32Z</time>
      </trkpt>
      <trkpt lat="46.77019" lon="4.75682">
        <ele>187.417649</ele>
        <time>2011-01-30T14:05:34Z</time>
      </trkpt>
      <trkpt lat="46.77026" lon="4.7566">
        <ele>187.349479</ele>
        <time>2011-01-30T14:05:37Z</time>
      </trkpt>
      <trkpt lat="46.77031" lon="4.75646">
        <ele>187.328233</ele>
        <time>2011-01-30T14:05:39Z</time>
      </trkpt>
      <trkpt lat="46.77039" lon="4.75626">
        <ele>187.31069</ele>
        <time>2011-01-30T14:05:42Z</time>
      </trkpt>
      <trkpt lat="46.77045" lon="4.75613">
        <ele>187.229882</ele>
        <time>2011-01-30T14:05:44Z</time>
      </trkpt>
      <trkpt lat="46.77051" lon="4.756">
        <ele>187.062742</ele>
        <time>2011-01-30T14:05:46Z</time>
      </trkpt>
      <trkpt lat="46.77059" lon="4.7558">
        <ele>186.860783</ele>
        <time>2011-01-30T14:05:49Z</time>
      </trkpt>
      <trkpt lat="46.77068" lon="4.7556">
        <ele>186.675135</ele>
        <time>2011-01-30T14:05:52Z</time>
      </trkpt>
      <trkpt lat="46.77078" lon="4.75541">
        <ele>186.536105</ele>
        <time>2011-01-30T14:05:55Z</time>
      </trkpt>
      <trkpt lat="46.77086" lon="4.75521">
        <ele>186.465106</ele>
        <time>2011-01-30T14:05:58Z</time>
      </trkpt>
      <trkpt lat="46.77092" lon="4.75507">
        <ele>186.387847</ele>
        <time>2011-01-30T14:06:00Z</time>
      </trkpt>
      <trkpt lat="46.771" lon="4.75484">
        <ele>186.213169</ele>
        <time>2011-01-30T14:06:03Z</time>
      </trkpt>
      <trkpt lat="46.77108" lon="4.75461">
        <ele>185.993858</ele>
        <time>2011-01-30T14:06:06Z</time>
      </trkpt>
      <trkpt lat="46.77117" lon="4.75439">
        <ele>185.849598</ele>
        <time>2011-01-30T14:06:09Z</time>
      </trkpt>
      <trkpt lat="46.77125" lon="4.75415">
        <ele>185.803606</ele>
        <time>2011-01-30T14:06:12Z</time>
      </trkpt>
      <trkpt lat="46.77131" lon="4.754">
        <ele>185.833235</ele>
        <time>2011-01-30T14:06:14Z</time>
      </trkpt>
      <trkpt lat="46.77138" lon="4.75376">
        <ele>185.927107</ele>
        <time>2011-01-30T14:06:17Z</time>
      </trkpt>
      <trkpt lat="46.77141" lon="4.75359">
        <ele>186.074971</ele>
        <time>2011-01-30T14:06:19Z</time>
      </trkpt>
      <trkpt lat="46.77145" lon="4.75333">
        <ele>186.256592</ele>
        <time>2011-01-30T14:06:22Z</time>
      </trkpt>
      <trkpt lat="46.77149" lon="4.75318">
        <ele>186.432167</ele>
        <time>2011-01-30T14:06:24Z</time>
      </trkpt>
      <trkpt lat="46.77159" lon="4.753">
        <ele>186.557028</ele>
        <time>2011-01-30T14:06:27Z</time>
      </trkpt>
      <trkpt lat="46.77169" lon="4.75284">
        <ele>186.619059</ele>
        <time>2011-01-30T14:06:30Z</time>
      </trkpt>
      <trkpt lat="46.77176" lon="4.75273">
        <ele>186.633579</ele>
        <time>2011-01-30T14:06:32Z</time>
      </trkpt>
      <trkpt lat="46.77187" lon="4.75256">
        <ele>186.626822</ele>
        <time>2011-01-30T14:06:35Z</time>
      </trkpt>
      <trkpt lat="46.77197" lon="4.75239">
        <ele>186.616633</ele>
        <time>2011-01-30T14:06:38Z</time>
      </trkpt>
      <trkpt lat="46.77204" lon="4.75227">
        <ele>186.601895</ele>
        <time>2011-01-30T14:06:40Z</time>
      </trkpt>
      <trkpt lat="46.77215" lon="4.75209">
        <ele>186.560252</ele>
        <time>2011-01-30T14:06:43Z</time>
      </trkpt>
      <trkpt lat="46.77227" lon="4.75191">
        <ele>186.467714</ele>
        <time>2011-01-30T14:06:46Z</time>
      </trkpt>
      <trkpt lat="46.77234" lon="4.75178">
        <ele>186.348715</ele>
        <time>2011-01-30T14:06:48Z</time>
      </trkpt>
      <trkpt lat="46.77241" lon="4.75166">
        <ele>186.262857</ele>
        <time>2011-01-30T14:06:50Z</time>
      </trkpt>
      <trkpt lat="46.77252" lon="4.75149">
        <ele>186.232201</ele>
        <time>2011-01-30T14:06:53Z</time>
      </trkpt>
      <trkpt lat="46.7726" lon="4.75138">
        <ele>186.246368</ele>
        <time>2011-01-30T14:06:55Z</time>
      </trkpt>
      <trkpt lat="46.7727" lon="4.75132">
        <ele>186.29812</ele>
        <time>2011-01-30T14:06:57Z</time>
      </trkpt>
      <trkpt lat="46.7728" lon="4.75132">
        <ele>186.365031</ele>
        <time>2011-01-30T14:06:59Z</time>
      </trkpt>
      <trkpt lat="46.7729" lon="4.75134">
        <ele>186.417006</ele>
        <time>2011-01-30T14:07:01Z</time>
      </trkpt>
      <trkpt lat="46.77304" lon="4.75142">
        <ele>186.456088</ele>
        <time>2011-01-30T14:07:04Z</time>
      </trkpt>
      <trkpt lat="46.77313" lon="4.75149">
        <ele>186.533417</ele>
        <time>2011-01-30T14:07:06Z</time>
      </trkpt>
      <trkpt lat="46.77322" lon="4.75156">
        <ele>186.712666</ele>
        <time>2011-01-30T14:07:08Z</time>
      </trkpt>
      <trkpt lat="46.77336" lon="4.75165">
        <ele>186.992417</ele>
        <time>2011-01-30T14:07:11Z</time>
      </trkpt>
      <trkpt lat="46.7735" lon="4.75174">
        <ele>187.283318</ele>
        <time>2011-01-30T14:07:14Z</time>
      </trkpt>
      <trkpt lat="46.77359" lon="4.75182">
        <ele>187.483962</ele>
        <time>2011-01-30T14:07:16Z</time>
      </trkpt>
      <trkpt lat="46.77373" lon="4.75196">
        <ele>187.565199</ele>
        <time>2011-01-30T14:07:19Z</time>
      </trkpt>
      <trkpt lat="46.77387" lon="4.75211">
        <ele>187.569118</ele>
        <time>2011-01-30T14:07:22Z</time>
      </trkpt>
      <trkpt lat="46.77397" lon="4.75221">
        <ele>187.531573</ele>
        <time>2011-01-30T14:07:24Z</time>
      </trkpt>
      <trkpt lat="46.77412" lon="4.75236">
        <ele>187.415722</ele>
        <time>2011-01-30T14:07:27Z</time>
      </trkpt>
      <trkpt lat="46.77423" lon="4.75246">
        <ele>187.041111</ele>
        <time>2011-01-30T14:07:29Z</time>
      </trkpt>
      <trkpt lat="46.77433" lon="4.75257">
        <ele>186.404353</ele>
        <time>2011-01-30T14:07:31Z</time>
      </trkpt>
      <trkpt lat="46.77447" lon="4.75272">
        <ele>185.852138</ele>
        <time>2011-01-30T14:07:34Z</time>
      </trkpt>
      <trkpt lat="46.77461" lon="4.7529">
        <ele>185.618318</ele>
        <time>2011-01-30T14:07:37Z</time>
      </trkpt>
      <trkpt lat="46.77473" lon="4.75309">
        <ele>185.637914</ele>
        <time>2011-01-30T14:07:40Z</time>
      </trkpt>
      <trkpt lat="46.77487" lon="4.75327">
        <ele>185.887966</ele>
        <time>2011-01-30T14:07:43Z</time>
      </trkpt>
      <trkpt lat="46.77497" lon="4.75338">
        <ele>186.34498</ele>
        <time>2011-01-30T14:07:45Z</time>
      </trkpt>
      <trkpt lat="46.77513" lon="4.75355">
        <ele>186.942285</ele>
        <time>2011-01-30T14:07:48Z</time>
      </trkpt>
      <trkpt lat="46.77523" lon="4.75368">
        <ele>187.606161</ele>
        <time>2011-01-30T14:07:50Z</time>
      </trkpt>
      <trkpt lat="46.77531" lon="4.75382">
        <ele>188.167769</ele>
        <time>2011-01-30T14:07:52Z</time>
      </trkpt>
      <trkpt lat="46.77539" lon="4.75398">
        <ele>188.458737</ele>
        <time>2011-01-30T14:07:54Z</time>
      </trkpt>
      <trkpt lat="46.77547" lon="4.75414">
        <ele>188.51752</ele>
        <time>2011-01-30T14:07:56Z</time>
      </trkpt>
      <trkpt lat="46.77558" lon="4.75438">
        <ele>188.424969</ele>
        <time>2011-01-30T14:07:59Z</time>
      </trkpt>
      <trkpt lat="46.77568" lon="4.75462">
        <ele>188.136879</ele>
        <time>2011-01-30T14:08:02Z</time>
      </trkpt>
      <trkpt lat="46.7758" lon="4.75485">
        <ele>187.625397</ele>
        <time>2011-01-30T14:08:05Z</time>
      </trkpt>
      <trkpt lat="46.77587" lon="4.755">
        <ele>187.024735</ele>
        <time>2011-01-30T14:08:07Z</time>
      </trkpt>
      <trkpt lat="46.77598" lon="4.75524">
        <ele>186.545593</ele>
        <time>2011-01-30T14:08:10Z</time>
      </trkpt>
      <trkpt lat="46.77608" lon="4.75549">
        <ele>186.295404</ele>
        <time>2011-01-30T14:08:13Z</time>
      </trkpt>
      <trkpt lat="46.77614" lon="4.75576">
        <ele>186.200439</ele>
        <time>2011-01-30T14:08:16Z</time>
      </trkpt>
      <trkpt lat="46.77621" lon="4.75605">
        <ele>186.14325</ele>
        <time>2011-01-30T14:08:19Z</time>
      </trkpt>
      <trkpt lat="46.77627" lon="4.75633">
        <ele>186.101419</ele>
        <time>2011-01-30T14:08:22Z</time>
      </trkpt>
      <trkpt lat="46.77633" lon="4.75651">
        <ele>186.086257</ele>
        <time>2011-01-30T14:08:24Z</time>
      </trkpt>
      <trkpt lat="46.77642" lon="4.75675">
        <ele>186.121007</ele>
        <time>2011-01-30T14:08:27Z</time>
      </trkpt>
      <trkpt lat="46.7765" lon="4.7569">
        <ele>186.270025</ele>
        <time>2011-01-30T14:08:29Z</time>
      </trkpt>
      <trkpt lat="46.77662" lon="4.75711">
        <ele>186.53866</ele>
        <time>2011-01-30T14:08:32Z</time>
      </trkpt>
      <trkpt lat="46.77676" lon="4.7573">
        <ele>186.841836</ele>
        <time>2011-01-30T14:08:35Z</time>
      </trkpt>
      <trkpt lat="46.77685" lon="4.75741">
        <ele>187.095759</ele>
        <time>2011-01-30T14:08:37Z</time>
      </trkpt>
      <trkpt lat="46.77695" lon="4.75751">
        <ele>187.25479</ele>
        <time>2011-01-30T14:08:39Z</time>
      </trkpt>
      <trkpt lat="46.77708" lon="4.75762">
        <ele>187.313751</ele>
        <time>2011-01-30T14:08:42Z</time>
      </trkpt>
      <trkpt lat="46.77723" lon="4.75769">
        <ele>187.312776</ele>
        <time>2011-01-30T14:08:45Z</time>
      </trkpt>
      <trkpt lat="46.77736" lon="4.75765">
        <ele>187.283044</ele>
        <time>2011-01-30T14:08:48Z</time>
      </trkpt>
      <trkpt lat="46.77744" lon="4.7576">
        <ele>187.212855</ele>
        <time>2011-01-30T14:08:50Z</time>
      </trkpt>
      <trkpt lat="46.77755" lon="4.75748">
        <ele>187.080722</ele>
        <time>2011-01-30T14:08:53Z</time>
      </trkpt>
      <trkpt lat="46.77764" lon="4.75732">
        <ele>186.891787</ele>
        <time>2011-01-30T14:08:56Z</time>
      </trkpt>
      <trkpt lat="46.7777" lon="4.7572">
        <ele>186.67633</ele>
        <time>2011-01-30T14:08:58Z</time>
      </trkpt>
      <trkpt lat="46.77779" lon="4.757">
        <ele>186.463428</ele>
        <time>2011-01-30T14:09:01Z</time>
      </trkpt>
      <trkpt lat="46.77786" lon="4.75679">
        <ele>186.276444</ele>
        <time>2011-01-30T14:09:04Z</time>
      </trkpt>
      <trkpt lat="46.77791" lon="4.75666">
        <ele>186.139718</ele>
        <time>2011-01-30T14:09:06Z</time>
      </trkpt>
      <trkpt lat="46.77796" lon="4.75644">
        <ele>186.065256</ele>
        <time>2011-01-30T14:09:09Z</time>
      </trkpt>
      <trkpt lat="46.77801" lon="4.75622">
        <ele>186.020855</ele>
        <time>2011-01-30T14:09:12Z</time>
      </trkpt>
      <trkpt lat="46.77803" lon="4.75606">
        <ele>185.971925</ele>
        <time>2011-01-30T14:09:14Z</time>
      </trkpt>
      <trkpt lat="46.77805" lon="4.75591">
        <ele>185.928214</ele>
        <time>2011-01-30T14:09:16Z</time>
      </trkpt>
      <trkpt lat="46.77809" lon="4.75568">
        <ele>185.909286</ele>
        <time>2011-01-30T14:09:19Z</time>
      </trkpt>
      <trkpt lat="46.77812" lon="4.75553">
        <ele>185.948273</ele>
        <time>2011-01-30T14:09:21Z</time>
      </trkpt>
      <trkpt lat="46.77814" lon="4.75538">
        <ele>186.098833</ele>
        <time>2011-01-30T14:09:23Z</time>
      </trkpt>
      <trkpt lat="46.77819" lon="4.75517">
        <ele>186.336728</ele>
        <time>2011-01-30T14:09:26Z</time>
      </trkpt>
      <trkpt lat="46.77822" lon="4.75502">
        <ele>186.554373</ele>
        <time>2011-01-30T14:09:28Z</time>
      </trkpt>
      <trkpt lat="46.77826" lon="4.75481">
        <ele>186.690677</ele>
        <time>2011-01-30T14:09:31Z</time>
      </trkpt>
      <trkpt lat="46.7783" lon="4.75459">
        <ele>186.827852</ele>
        <time>2011-01-30T14:09:34Z</time>
      </trkpt>
      <trkpt lat="46.77834" lon="4.75438">
        <ele>187.083504</ele>
        <time>2011-01-30T14:09:37Z</time>
      </trkpt>
      <trkpt lat="46.77839" lon="4.75417">
        <ele>187.463184</ele>
        <time>2011-01-30T14:09:40Z</time>
      </trkpt>
      <trkpt lat="46.77843" lon="4.75396">
        <ele>187.894145</ele>
        <time>2011-01-30T14:09:43Z</time>
      </trkpt>
      <trkpt lat="46.77846" lon="4.75381">
        <ele>188.307249</ele>
        <time>2011-01-30T14:09:45Z</time>
      </trkpt>
      <trkpt lat="46.7785" lon="4.75359">
        <ele>188.656559</ele>
        <time>2011-01-30T14:09:48Z</time>
      </trkpt>
      <trkpt lat="46.77853" lon="4.75345">
        <ele>188.94637</ele>
        <time>2011-01-30T14:09:50Z</time>
      </trkpt>
      <trkpt lat="46.77857" lon="4.75331">
        <ele>189.194151</ele>
        <time>2011-01-30T14:09:52Z</time>
      </trkpt>
      <trkpt lat="46.77863" lon="4.7531">
        <ele>189.41809</ele>
        <time>2011-01-30T14:09:55Z</time>
      </trkpt>
      <trkpt lat="46.77867" lon="4.75296">
        <ele>189.619243</ele>
        <time>2011-01-30T14:09:57Z</time>
      </trkpt>
      <trkpt lat="46.77871" lon="4.75283">
        <ele>189.78923</ele>
        <time>2011-01-30T14:09:59Z</time>
      </trkpt>
      <trkpt lat="46.77875" lon="4.75269">
        <ele>189.921422</ele>
        <time>2011-01-30T14:10:01Z</time>
      </trkpt>
      <trkpt lat="46.7788" lon="4.75249">
        <ele>190.001827</ele>
        <time>2011-01-30T14:10:04Z</time>
      </trkpt>
      <trkpt lat="46.77884" lon="4.75236">
        <ele>190.024623</ele>
        <time>2011-01-30T14:10:06Z</time>
      </trkpt>
      <trkpt lat="46.77891" lon="4.75218">
        <ele>190.017187</ele>
        <time>2011-01-30T14:10:09Z</time>
      </trkpt>
      <trkpt lat="46.77896" lon="4.75198">
        <ele>189.975391</ele>
        <time>2011-01-30T14:10:12Z</time>
      </trkpt>
      <trkpt lat="46.77899" lon="4.75185">
        <ele>189.868708</ele>
        <time>2011-01-30T14:10:14Z</time>
      </trkpt>
      <trkpt lat="46.77904" lon="4.75166">
        <ele>189.681918</ele>
        <time>2011-01-30T14:10:17Z</time>
      </trkpt>
      <trkpt lat="46.77909" lon="4.75148">
        <ele>189.436782</ele>
        <time>2011-01-30T14:10:20Z</time>
      </trkpt>
      <trkpt lat="46.77913" lon="4.75135">
        <ele>189.192414</ele>
        <time>2011-01-30T14:10:22Z</time>
      </trkpt>
      <trkpt lat="46.77919" lon="4.75116">
        <ele>189.003355</ele>
        <time>2011-01-30T14:10:25Z</time>
      </trkpt>
      <trkpt lat="46.77923" lon="4.75103">
        <ele>188.841377</ele>
        <time>2011-01-30T14:10:27Z</time>
      </trkpt>
      <trkpt lat="46.77929" lon="4.75083">
        <ele>188.630936</ele>
        <time>2011-01-30T14:10:30Z</time>
      </trkpt>
      <trkpt lat="46.77933" lon="4.75069">
        <ele>188.29545</ele>
        <time>2011-01-30T14:10:32Z</time>
      </trkpt>
      <trkpt lat="46.77939" lon="4.75049">
        <ele>187.760836</ele>
        <time>2011-01-30T14:10:35Z</time>
      </trkpt>
      <trkpt lat="46.77944" lon="4.75029">
        <ele>187.105398</ele>
        <time>2011-01-30T14:10:38Z</time>
      </trkpt>
      <trkpt lat="46.7795" lon="4.7501">
        <ele>186.585731</ele>
        <time>2011-01-30T14:10:41Z</time>
      </trkpt>
      <trkpt lat="46.77956" lon="4.74995">
        <ele>186.327427</ele>
        <time>2011-01-30T14:10:44Z</time>
      </trkpt>
      <trkpt lat="46.77967" lon="4.74989">
        <ele>186.240403</ele>
        <time>2011-01-30T14:10:47Z</time>
      </trkpt>
      <trkpt lat="46.77978" lon="4.74994">
        <ele>186.226894</ele>
        <time>2011-01-30T14:10:50Z</time>
      </trkpt>
      <trkpt lat="46.7799" lon="4.74998">
        <ele>186.263198</ele>
        <time>2011-01-30T14:10:53Z</time>
      </trkpt>
      <trkpt lat="46.78004" lon="4.75003">
        <ele>186.335198</ele>
        <time>2011-01-30T14:10:56Z</time>
      </trkpt>
      <trkpt lat="46.78018" lon="4.75009">
        <ele>186.409883</ele>
        <time>2011-01-30T14:10:59Z</time>
      </trkpt>
      <trkpt lat="46.78033" lon="4.75015">
        <ele>186.530267</ele>
        <time>2011-01-30T14:11:02Z</time>
      </trkpt>
      <trkpt lat="46.78047" lon="4.7502">
        <ele>186.81909</ele>
        <time>2011-01-30T14:11:05Z</time>
      </trkpt>
      <trkpt lat="46.78057" lon="4.75025">
        <ele>187.24071</ele>
        <time>2011-01-30T14:11:07Z</time>
      </trkpt>
      <trkpt lat="46.78071" lon="4.75031">
        <ele>187.58915</ele>
        <time>2011-01-30T14:11:10Z</time>
      </trkpt>
      <trkpt lat="46.78081" lon="4.75035">
        <ele>187.780606</ele>
        <time>2011-01-30T14:11:12Z</time>
      </trkpt>
      <trkpt lat="46.78094" lon="4.75041">
        <ele>187.89643</ele>
        <time>2011-01-30T14:11:15Z</time>
      </trkpt>
      <trkpt lat="46.78105" lon="4.75045">
        <ele>188.025193</ele>
        <time>2011-01-30T14:11:18Z</time>
      </trkpt>
      <trkpt lat="46.78114" lon="4.75042">
        <ele>188.21492</ele>
        <time>2011-01-30T14:11:21Z</time>
      </trkpt>
      <trkpt lat="46.78121" lon="4.75033">
        <ele>188.476228</ele>
        <time>2011-01-30T14:11:24Z</time>
      </trkpt>
      <trkpt lat="46.78131" lon="4.75024">
        <ele>188.771624</ele>
        <time>2011-01-30T14:11:28Z</time>
      </trkpt>
      <trkpt lat="46.78137" lon="4.75009">
        <ele>189.022101</ele>
        <time>2011-01-30T14:11:32Z</time>
      </trkpt>
      <trkpt lat="46.7814" lon="4.74995">
        <ele>189.161445</ele>
        <time>2011-01-30T14:11:35Z</time>
      </trkpt>
      <trkpt lat="46.78143" lon="4.74981">
        <ele>189.201991</ele>
        <time>2011-01-30T14:11:38Z</time>
      </trkpt>
      <trkpt lat="46.78147" lon="4.74966">
        <ele>189.198622</ele>
        <time>2011-01-30T14:11:41Z</time>
      </trkpt>
      <trkpt lat="46.7815" lon="4.74951">
        <ele>189.207718</ele>
        <time>2011-01-30T14:11:44Z</time>
      </trkpt>
      <trkpt lat="46.78153" lon="4.74936">
        <ele>189.282638</ele>
        <time>2011-01-30T14:11:47Z</time>
      </trkpt>
      <trkpt lat="46.78156" lon="4.74921">
        <ele>189.442379</ele>
        <time>2011-01-30T14:11:50Z</time>
      </trkpt>
      <trkpt lat="46.7816" lon="4.74905">
        <ele>189.656263</ele>
        <time>2011-01-30T14:11:53Z</time>
      </trkpt>
      <trkpt lat="46.78164" lon="4.74889">
        <ele>189.883971</ele>
        <time>2011-01-30T14:11:56Z</time>
      </trkpt>
      <trkpt lat="46.78168" lon="4.74873">
        <ele>190.112728</ele>
        <time>2011-01-30T14:11:59Z</time>
      </trkpt>
      <trkpt lat="46.78171" lon="4.74856">
        <ele>190.447291</ele>
        <time>2011-01-30T14:12:02Z</time>
      </trkpt>
      <trkpt lat="46.78173" lon="4.7484">
        <ele>191.122494</ele>
        <time>2011-01-30T14:12:05Z</time>
      </trkpt>
      <trkpt lat="46.78176" lon="4.74825">
        <ele>192.11826</ele>
        <time>2011-01-30T14:12:08Z</time>
      </trkpt>
      <trkpt lat="46.78178" lon="4.7481">
        <ele>193.055963</ele>
        <time>2011-01-30T14:12:11Z</time>
      </trkpt>
      <trkpt lat="46.78181" lon="4.74794">
        <ele>193.678999</ele>
        <time>2011-01-30T14:12:14Z</time>
      </trkpt>
      <trkpt lat="46.78183" lon="4.74779">
        <ele>194.042279</ele>
        <time>2011-01-30T14:12:17Z</time>
      </trkpt>
      <trkpt lat="46.78185" lon="4.74763">
        <ele>194.28041</ele>
        <time>2011-01-30T14:12:20Z</time>
      </trkpt>
      <trkpt lat="46.78187" lon="4.74747">
        <ele>194.485479</ele>
        <time>2011-01-30T14:12:23Z</time>
      </trkpt>
      <trkpt lat="46.7819" lon="4.74731">
        <ele>194.677553</ele>
        <time>2011-01-30T14:12:26Z</time>
      </trkpt>
      <trkpt lat="46.78193" lon="4.74716">
        <ele>194.844569</ele>
        <time>2011-01-30T14:12:29Z</time>
      </trkpt>
      <trkpt lat="46.78196" lon="4.74699">
        <ele>194.988757</ele>
        <time>2011-01-30T14:12:32Z</time>
      </trkpt>
      <trkpt lat="46.78199" lon="4.74681">
        <ele>195.12639</ele>
        <time>2011-01-30T14:12:35Z</time>
      </trkpt>
      <trkpt lat="46.78202" lon="4.74665">
        <ele>195.265975</ele>
        <time>2011-01-30T14:12:38Z</time>
      </trkpt>
      <trkpt lat="46.78205" lon="4.74648">
        <ele>195.40483</ele>
        <time>2011-01-30T14:12:41Z</time>
      </trkpt>
      <trkpt lat="46.78209" lon="4.74632">
        <ele>195.556303</ele>
        <time>2011-01-30T14:12:44Z</time>
      </trkpt>
      <trkpt lat="46.78213" lon="4.74616">
        <ele>195.756534</ele>
        <time>2011-01-30T14:12:47Z</time>
      </trkpt>
      <trkpt lat="46.78218" lon="4.74601">
        <ele>196.021262</ele>
        <time>2011-01-30T14:12:50Z</time>
      </trkpt>
      <trkpt lat="46.78222" lon="4.74586">
        <ele>196.327942</ele>
        <time>2011-01-30T14:12:53Z</time>
      </trkpt>
      <trkpt lat="46.78227" lon="4.74572">
        <ele>196.641852</ele>
        <time>2011-01-30T14:12:56Z</time>
      </trkpt>
      <trkpt lat="46.78231" lon="4.74557">
        <ele>196.934435</ele>
        <time>2011-01-30T14:12:59Z</time>
      </trkpt>
      <trkpt lat="46.78237" lon="4.74544">
        <ele>197.188619</ele>
        <time>2011-01-30T14:13:02Z</time>
      </trkpt>
      <trkpt lat="46.78244" lon="4.74532">
        <ele>197.401382</ele>
        <time>2011-01-30T14:13:05Z</time>
      </trkpt>
      <trkpt lat="46.78251" lon="4.7452">
        <ele>197.580883</ele>
        <time>2011-01-30T14:13:08Z</time>
      </trkpt>
      <trkpt lat="46.78258" lon="4.74507">
        <ele>197.742546</ele>
        <time>2011-01-30T14:13:11Z</time>
      </trkpt>
      <trkpt lat="46.78263" lon="4.74491">
        <ele>197.898735</ele>
        <time>2011-01-30T14:13:14Z</time>
      </trkpt>
      <trkpt lat="46.78264" lon="4.74476">
        <ele>198.050665</ele>
        <time>2011-01-30T14:13:17Z</time>
      </trkpt>
      <trkpt lat="46.78263" lon="4.74459">
        <ele>198.194919</ele>
        <time>2011-01-30T14:13:21Z</time>
      </trkpt>
      <trkpt lat="46.78254" lon="4.74446">
        <ele>198.346267</ele>
        <time>2011-01-30T14:13:25Z</time>
      </trkpt>
      <trkpt lat="46.78245" lon="4.7444">
        <ele>198.533088</ele>
        <time>2011-01-30T14:13:27Z</time>
      </trkpt>
      <trkpt lat="46.78231" lon="4.74432">
        <ele>198.774487</ele>
        <time>2011-01-30T14:13:30Z</time>
      </trkpt>
      <trkpt lat="46.78222" lon="4.74425">
        <ele>199.073416</ele>
        <time>2011-01-30T14:13:32Z</time>
      </trkpt>
      <trkpt lat="46.78206" lon="4.74414">
        <ele>199.620702</ele>
        <time>2011-01-30T14:13:35Z</time>
      </trkpt>
      <trkpt lat="46.78196" lon="4.74407">
        <ele>200.750886</ele>
        <time>2011-01-30T14:13:37Z</time>
      </trkpt>
      <trkpt lat="46.7818" lon="4.74396">
        <ele>202.329392</ele>
        <time>2011-01-30T14:13:40Z</time>
      </trkpt>
      <trkpt lat="46.7817" lon="4.74387">
        <ele>203.704342</ele>
        <time>2011-01-30T14:13:42Z</time>
      </trkpt>
      <trkpt lat="46.7816" lon="4.74377">
        <ele>204.482162</ele>
        <time>2011-01-30T14:13:44Z</time>
      </trkpt>
      <trkpt lat="46.78148" lon="4.7436">
        <ele>204.77865</ele>
        <time>2011-01-30T14:13:47Z</time>
      </trkpt>
      <trkpt lat="46.78149" lon="4.74343">
        <ele>204.874711</ele>
        <time>2011-01-30T14:13:49Z</time>
      </trkpt>
      <trkpt lat="46.78151" lon="4.74329">
        <ele>204.94285</ele>
        <time>2011-01-30T14:13:51Z</time>
      </trkpt>
      <trkpt lat="46.78158" lon="4.74311">
        <ele>205.000501</ele>
        <time>2011-01-30T14:13:54Z</time>
      </trkpt>
      <trkpt lat="46.78164" lon="4.74294">
        <ele>205.024439</ele>
        <time>2011-01-30T14:13:57Z</time>
      </trkpt>
      <trkpt lat="46.78172" lon="4.74276">
        <ele>205.02176</ele>
        <time>2011-01-30T14:14:00Z</time>
      </trkpt>
      <trkpt lat="46.78178" lon="4.74259">
        <ele>204.944898</ele>
        <time>2011-01-30T14:14:03Z</time>
      </trkpt>
      <trkpt lat="46.78178" lon="4.74259">
        <ele>204.772179</ele>
        <time>2011-01-30T14:14:06Z</time>
      </trkpt>
      <trkpt lat="46.78169" lon="4.74226">
        <ele>204.576748</ele>
        <time>2011-01-30T14:14:12Z</time>
      </trkpt>
      <trkpt lat="46.78158" lon="4.74213">
        <ele>204.392755</ele>
        <time>2011-01-30T14:14:15Z</time>
      </trkpt>
      <trkpt lat="46.78149" lon="4.74206">
        <ele>204.152401</ele>
        <time>2011-01-30T14:14:17Z</time>
      </trkpt>
      <trkpt lat="46.78137" lon="4.74194">
        <ele>203.8693</ele>
        <time>2011-01-30T14:14:20Z</time>
      </trkpt>
      <trkpt lat="46.78128" lon="4.74186">
        <ele>203.660601</ele>
        <time>2011-01-30T14:14:22Z</time>
      </trkpt>
      <trkpt lat="46.78115" lon="4.74175">
        <ele>203.691529</ele>
        <time>2011-01-30T14:14:25Z</time>
      </trkpt>
      <trkpt lat="46.78106" lon="4.74166">
        <ele>203.972848</ele>
        <time>2011-01-30T14:14:27Z</time>
      </trkpt>
      <trkpt lat="46.78094" lon="4.74155">
        <ele>204.343073</ele>
        <time>2011-01-30T14:14:30Z</time>
      </trkpt>
      <trkpt lat="46.78085" lon="4.74147">
        <ele>204.732451</ele>
        <time>2011-01-30T14:14:32Z</time>
      </trkpt>
      <trkpt lat="46.78071" lon="4.74136">
        <ele>205.18972</ele>
        <time>2011-01-30T14:14:35Z</time>
      </trkpt>
      <trkpt lat="46.78057" lon="4.74125">
        <ele>205.629425</ele>
        <time>2011-01-30T14:14:38Z</time>
      </trkpt>
      <trkpt lat="46.78049" lon="4.74117">
        <ele>205.937576</ele>
        <time>2011-01-30T14:14:40Z</time>
      </trkpt>
      <trkpt lat="46.78036" lon="4.74106">
        <ele>206.113266</ele>
        <time>2011-01-30T14:14:43Z</time>
      </trkpt>
      <trkpt lat="46.78032" lon="4.7409">
        <ele>206.214812</ele>
        <time>2011-01-30T14:14:46Z</time>
      </trkpt>
      <trkpt lat="46.78037" lon="4.74076">
        <ele>206.299093</ele>
        <time>2011-01-30T14:14:49Z</time>
      </trkpt>
      <trkpt lat="46.78043" lon="4.74058">
        <ele>206.395559</ele>
        <time>2011-01-30T14:14:52Z</time>
      </trkpt>
      <trkpt lat="46.78048" lon="4.7404">
        <ele>206.526679</ele>
        <time>2011-01-30T14:14:55Z</time>
      </trkpt>
      <trkpt lat="46.78054" lon="4.74023">
        <ele>206.801838</ele>
        <time>2011-01-30T14:14:58Z</time>
      </trkpt>
      <trkpt lat="46.78059" lon="4.74011">
        <ele>207.362953</ele>
        <time>2011-01-30T14:15:00Z</time>
      </trkpt>
      <trkpt lat="46.78066" lon="4.73994">
        <ele>208.114608</ele>
        <time>2011-01-30T14:15:03Z</time>
      </trkpt>
      <trkpt lat="46.78072" lon="4.73976">
        <ele>208.731872</ele>
        <time>2011-01-30T14:15:06Z</time>
      </trkpt>
      <trkpt lat="46.7808" lon="4.73961">
        <ele>209.018533</ele>
        <time>2011-01-30T14:15:09Z</time>
      </trkpt>
      <trkpt lat="46.78086" lon="4.73945">
        <ele>209.058219</ele>
        <time>2011-01-30T14:15:12Z</time>
      </trkpt>
      <trkpt lat="46.78094" lon="4.73928">
        <ele>208.991492</ele>
        <time>2011-01-30T14:15:15Z</time>
      </trkpt>
      <trkpt lat="46.781" lon="4.73911">
        <ele>208.902415</ele>
        <time>2011-01-30T14:15:18Z</time>
      </trkpt>
      <trkpt lat="46.78107" lon="4.73894">
        <ele>208.839551</ele>
        <time>2011-01-30T14:15:21Z</time>
      </trkpt>
      <trkpt lat="46.78113" lon="4.73878">
        <ele>208.817659</ele>
        <time>2011-01-30T14:15:24Z</time>
      </trkpt>
      <trkpt lat="46.78121" lon="4.73863">
        <ele>208.835499</ele>
        <time>2011-01-30T14:15:27Z</time>
      </trkpt>
      <trkpt lat="46.78127" lon="4.73848">
        <ele>209.032918</ele>
        <time>2011-01-30T14:15:30Z</time>
      </trkpt>
      <trkpt lat="46.78133" lon="4.73833">
        <ele>209.552292</ele>
        <time>2011-01-30T14:15:33Z</time>
      </trkpt>
      <trkpt lat="46.78139" lon="4.7382">
        <ele>210.194324</ele>
        <time>2011-01-30T14:15:36Z</time>
      </trkpt>
      <trkpt lat="46.78145" lon="4.73807">
        <ele>210.615671</ele>
        <time>2011-01-30T14:15:39Z</time>
      </trkpt>
      <trkpt lat="46.7815" lon="4.73795">
        <ele>210.74958</ele>
        <time>2011-01-30T14:15:42Z</time>
      </trkpt>
      <trkpt lat="46.78156" lon="4.73782">
        <ele>210.723676</ele>
        <time>2011-01-30T14:15:45Z</time>
      </trkpt>
      <trkpt lat="46.78162" lon="4.7377">
        <ele>210.649617</ele>
        <time>2011-01-30T14:15:49Z</time>
      </trkpt>
      <trkpt lat="46.78168" lon="4.73758">
        <ele>210.584029</ele>
        <time>2011-01-30T14:15:53Z</time>
      </trkpt>
      <trkpt lat="46.78177" lon="4.7375">
        <ele>210.545284</ele>
        <time>2011-01-30T14:15:57Z</time>
      </trkpt>
      <trkpt lat="46.78184" lon="4.73742">
        <ele>210.52919</ele>
        <time>2011-01-30T14:16:01Z</time>
      </trkpt>
      <trkpt lat="46.78184" lon="4.73742">
        <ele>210.524071</ele>
        <time>2011-01-30T14:16:02Z</time>
      </trkpt>
      <trkpt lat="46.78197" lon="4.73714">
        <ele>210.520368</ele>
        <time>2011-01-30T14:16:11Z</time>
      </trkpt>
      <trkpt lat="46.78201" lon="4.73699">
        <ele>210.513483</ele>
        <time>2011-01-30T14:16:15Z</time>
      </trkpt>
      <trkpt lat="46.78206" lon="4.73686">
        <ele>210.484363</ele>
        <time>2011-01-30T14:16:19Z</time>
      </trkpt>
      <trkpt lat="46.78212" lon="4.73671">
        <ele>210.424081</ele>
        <time>2011-01-30T14:16:24Z</time>
      </trkpt>
      <trkpt lat="46.78212" lon="4.73671">
        <ele>210.361236</ele>
        <time>2011-01-30T14:16:25Z</time>
      </trkpt>
      <trkpt lat="46.78219" lon="4.73653">
        <ele>210.323518</ele>
        <time>2011-01-30T14:16:30Z</time>
      </trkpt>
      <trkpt lat="46.78219" lon="4.73653">
        <ele>210.309739</ele>
        <time>2011-01-30T14:16:35Z</time>
      </trkpt>
      <trkpt lat="46.78235" lon="4.73604">
        <ele>210.313446</ele>
        <time>2011-01-30T14:16:50Z</time>
      </trkpt>
      <trkpt lat="46.78235" lon="4.73604">
        <ele>210.326317</ele>
        <time>2011-01-30T14:16:54Z</time>
      </trkpt>
      <trkpt lat="46.78248" lon="4.73563">
        <ele>210.338261</ele>
        <time>2011-01-30T14:17:06Z</time>
      </trkpt>
      <trkpt lat="46.78253" lon="4.73548">
        <ele>210.349408</ele>
        <time>2011-01-30T14:17:12Z</time>
      </trkpt>
      <trkpt lat="46.78256" lon="4.73536">
        <ele>210.485131</ele>
        <time>2011-01-30T14:17:17Z</time>
      </trkpt>
      <trkpt lat="46.78259" lon="4.73516">
        <ele>211.087794</ele>
        <time>2011-01-30T14:17:24Z</time>
      </trkpt>
      <trkpt lat="46.78261" lon="4.73502">
        <ele>212.241996</ele>
        <time>2011-01-30T14:17:29Z</time>
      </trkpt>
      <trkpt lat="46.78263" lon="4.73487">
        <ele>213.505153</ele>
        <time>2011-01-30T14:17:35Z</time>
      </trkpt>
      <trkpt lat="46.78266" lon="4.73473">
        <ele>214.530416</ele>
        <time>2011-01-30T14:17:41Z</time>
      </trkpt>
      <trkpt lat="46.78263" lon="4.7346">
        <ele>215.370812</ele>
        <time>2011-01-30T14:17:46Z</time>
      </trkpt>
      <trkpt lat="46.78257" lon="4.73449">
        <ele>216.149809</ele>
        <time>2011-01-30T14:17:51Z</time>
      </trkpt>
      <trkpt lat="46.7825" lon="4.73439">
        <ele>216.941615</ele>
        <time>2011-01-30T14:17:56Z</time>
      </trkpt>
      <trkpt lat="46.78242" lon="4.73429">
        <ele>217.76835</ele>
        <time>2011-01-30T14:18:01Z</time>
      </trkpt>
      <trkpt lat="46.78235" lon="4.7342">
        <ele>218.617136</ele>
        <time>2011-01-30T14:18:06Z</time>
      </trkpt>
      <trkpt lat="46.78237" lon="4.734">
        <ele>219.487925</ele>
        <time>2011-01-30T14:18:15Z</time>
      </trkpt>
      <trkpt lat="46.78242" lon="4.73386">
        <ele>220.370309</ele>
        <time>2011-01-30T14:18:22Z</time>
      </trkpt>
      <trkpt lat="46.78246" lon="4.7337">
        <ele>221.242352</ele>
        <time>2011-01-30T14:18:29Z</time>
      </trkpt>
      <trkpt lat="46.7825" lon="4.73357">
        <ele>222.173561</ele>
        <time>2011-01-30T14:18:35Z</time>
      </trkpt>
      <trkpt lat="46.78253" lon="4.73344">
        <ele>223.225453</ele>
        <time>2011-01-30T14:18:41Z</time>
      </trkpt>
      <trkpt lat="46.78257" lon="4.7333">
        <ele>224.295111</ele>
        <time>2011-01-30T14:18:47Z</time>
      </trkpt>
      <trkpt lat="46.7826" lon="4.73318">
        <ele>225.240562</ele>
        <time>2011-01-30T14:18:53Z</time>
      </trkpt>
      <trkpt lat="46.78263" lon="4.73306">
        <ele>226.024167</ele>
        <time>2011-01-30T14:18:59Z</time>
      </trkpt>
      <trkpt lat="46.78265" lon="4.73291">
        <ele>226.666631</ele>
        <time>2011-01-30T14:19:06Z</time>
      </trkpt>
      <trkpt lat="46.78267" lon="4.73277">
        <ele>227.214547</ele>
        <time>2011-01-30T14:19:13Z</time>
      </trkpt>
      <trkpt lat="46.78266" lon="4.73263">
        <ele>227.702244</ele>
        <time>2011-01-30T14:19:20Z</time>
      </trkpt>
      <trkpt lat="46.78266" lon="4.73248">
        <ele>228.160592</ele>
        <time>2011-01-30T14:19:27Z</time>
      </trkpt>
      <trkpt lat="46.78267" lon="4.73233">
        <ele>228.622926</ele>
        <time>2011-01-30T14:19:34Z</time>
      </trkpt>
      <trkpt lat="46.78268" lon="4.7322">
        <ele>229.125616</ele>
        <time>2011-01-30T14:19:41Z</time>
      </trkpt>
      <trkpt lat="46.7827" lon="4.73207">
        <ele>229.720583</ele>
        <time>2011-01-30T14:19:47Z</time>
      </trkpt>
      <trkpt lat="46.78271" lon="4.73193">
        <ele>230.447306</ele>
        <time>2011-01-30T14:19:54Z</time>
      </trkpt>
      <trkpt lat="46.78273" lon="4.7318">
        <ele>231.299941</ele>
        <time>2011-01-30T14:20:01Z</time>
      </trkpt>
      <trkpt lat="46.78276" lon="4.73166">
        <ele>232.224518</ele>
        <time>2011-01-30T14:20:09Z</time>
      </trkpt>
      <trkpt lat="46.78279" lon="4.73151">
        <ele>233.178016</ele>
        <time>2011-01-30T14:20:17Z</time>
      </trkpt>
      <trkpt lat="46.78279" lon="4.73138">
        <ele>234.165547</ele>
        <time>2011-01-30T14:20:25Z</time>
      </trkpt>
      <trkpt lat="46.78278" lon="4.73123">
        <ele>235.18958</ele>
        <time>2011-01-30T14:20:33Z</time>
      </trkpt>
      <trkpt lat="46.78277" lon="4.73109">
        <ele>236.205594</ele>
        <time>2011-01-30T14:20:43Z</time>
      </trkpt>
      <trkpt lat="46.78275" lon="4.73095">
        <ele>237.156104</ele>
        <time>2011-01-30T14:20:52Z</time>
      </trkpt>
      <trkpt lat="46.78275" lon="4.73082">
        <ele>238.015058</ele>
        <time>2011-01-30T14:21:01Z</time>
      </trkpt>
      <trkpt lat="46.78275" lon="4.73068">
        <ele>238.831607</ele>
        <time>2011-01-30T14:21:10Z</time>
      </trkpt>
      <trkpt lat="46.78276" lon="4.73054">
        <ele>239.649649</ele>
        <time>2011-01-30T14:21:20Z</time>
      </trkpt>
      <trkpt lat="46.78277" lon="4.7304">
        <ele>240.445461</ele>
        <time>2011-01-30T14:21:28Z</time>
      </trkpt>
      <trkpt lat="46.78277" lon="4.73027">
        <ele>241.206878</ele>
        <time>2011-01-30T14:21:36Z</time>
      </trkpt>
      <trkpt lat="46.78277" lon="4.73027">
        <ele>241.858968</ele>
        <time>2011-01-30T14:21:53Z</time>
      </trkpt>
      <trkpt lat="46.78277" lon="4.73027">
        <ele>242.243276</ele>
        <time>2011-01-30T14:22:06Z</time>
      </trkpt>
      <trkpt lat="46.78268" lon="4.72977">
        <ele>242.515032</ele>
        <time>2011-01-30T14:25:10Z</time>
      </trkpt>
      <trkpt lat="46.78263" lon="4.72965">
        <ele>243.092844</ele>
        <time>2011-01-30T14:25:24Z</time>
      </trkpt>
      <trkpt lat="46.78263" lon="4.72965">
        <ele>243.934669</ele>
        <time>2011-01-30T14:25:35Z</time>
      </trkpt>
      <trkpt lat="46.78263" lon="4.72965">
        <ele>244.431288</ele>
        <time>2011-01-30T14:27:18Z</time>
      </trkpt>
      <trkpt lat="46.78258" lon="4.72915">
        <ele>244.300972</ele>
        <time>2011-01-30T14:27:20Z</time>
      </trkpt>
      <trkpt lat="46.78258" lon="4.72915">
        <ele>243.969644</ele>
        <time>2011-01-30T14:27:23Z</time>
      </trkpt>
      <trkpt lat="46.78256" lon="4.72876">
        <ele>246.42382</ele>
        <time>2011-01-30T14:27:44Z</time>
      </trkpt>
      <trkpt lat="46.78255" lon="4.72862">
        <ele>253.349249</ele>
        <time>2011-01-30T14:27:51Z</time>
      </trkpt>
      <trkpt lat="46.78254" lon="4.72848">
        <ele>261.4988</ele>
        <time>2011-01-30T14:27:59Z</time>
      </trkpt>
      <trkpt lat="46.78255" lon="4.72834">
        <ele>267.35684</ele>
        <time>2011-01-30T14:28:09Z</time>
      </trkpt>
      <trkpt lat="46.78256" lon="4.7282">
        <ele>270.464817</ele>
        <time>2011-01-30T14:28:24Z</time>
      </trkpt>
      <trkpt lat="46.78255" lon="4.72806">
        <ele>271.338117</ele>
        <time>2011-01-30T14:28:33Z</time>
      </trkpt>
      <trkpt lat="46.78253" lon="4.72793">
        <ele>271.237365</ele>
        <time>2011-01-30T14:28:43Z</time>
      </trkpt>
      <trkpt lat="46.78256" lon="4.72775">
        <ele>271.092784</ele>
        <time>2011-01-30T14:29:00Z</time>
      </trkpt>
      <trkpt lat="46.78253" lon="4.72763">
        <ele>271.234097</ele>
        <time>2011-01-30T14:29:07Z</time>
      </trkpt>
      <trkpt lat="46.7825" lon="4.7275">
        <ele>271.650512</ele>
        <time>2011-01-30T14:29:14Z</time>
      </trkpt>
      <trkpt lat="46.7825" lon="4.72736">
        <ele>272.254039</ele>
        <time>2011-01-30T14:29:22Z</time>
      </trkpt>
      <trkpt lat="46.78253" lon="4.72723">
        <ele>273.000803</ele>
        <time>2011-01-30T14:29:34Z</time>
      </trkpt>
      <trkpt lat="46.78253" lon="4.72709">
        <ele>273.905137</ele>
        <time>2011-01-30T14:29:43Z</time>
      </trkpt>
      <trkpt lat="46.78255" lon="4.72695">
        <ele>274.972595</ele>
        <time>2011-01-30T14:29:52Z</time>
      </trkpt>
      <trkpt lat="46.78256" lon="4.72681">
        <ele>276.265283</ele>
        <time>2011-01-30T14:30:01Z</time>
      </trkpt>
      <trkpt lat="46.78256" lon="4.72667">
        <ele>277.833563</ele>
        <time>2011-01-30T14:30:09Z</time>
      </trkpt>
      <trkpt lat="46.78255" lon="4.72653">
        <ele>279.499559</ele>
        <time>2011-01-30T14:30:17Z</time>
      </trkpt>
      <trkpt lat="46.78255" lon="4.72639">
        <ele>281.068085</ele>
        <time>2011-01-30T14:30:26Z</time>
      </trkpt>
      <trkpt lat="46.78255" lon="4.72624">
        <ele>282.532932</ele>
        <time>2011-01-30T14:30:32Z</time>
      </trkpt>
      <trkpt lat="46.78256" lon="4.72611">
        <ele>283.92895</ele>
        <time>2011-01-30T14:30:38Z</time>
      </trkpt>
      <trkpt lat="46.78258" lon="4.72596">
        <ele>285.318347</ele>
        <time>2011-01-30T14:30:45Z</time>
      </trkpt>
      <trkpt lat="46.78257" lon="4.72582">
        <ele>286.70323</ele>
        <time>2011-01-30T14:30:51Z</time>
      </trkpt>
      <trkpt lat="46.78259" lon="4.72568">
        <ele>287.968737</ele>
        <time>2011-01-30T14:30:58Z</time>
      </trkpt>
      <trkpt lat="46.78261" lon="4.72554">
        <ele>289.132096</ele>
        <time>2011-01-30T14:31:06Z</time>
      </trkpt>
      <trkpt lat="46.78262" lon="4.7254">
        <ele>290.345714</ele>
        <time>2011-01-30T14:31:12Z</time>
      </trkpt>
      <trkpt lat="46.78263" lon="4.72526">
        <ele>291.690374</ele>
        <time>2011-01-30T14:31:18Z</time>
      </trkpt>
      <trkpt lat="46.78262" lon="4.72513">
        <ele>293.175419</ele>
        <time>2011-01-30T14:31:24Z</time>
      </trkpt>
      <trkpt lat="46.78263" lon="4.72498">
        <ele>294.727244</ele>
        <time>2011-01-30T14:31:32Z</time>
      </trkpt>
      <trkpt lat="46.78264" lon="4.72482">
        <ele>296.206183</ele>
        <time>2011-01-30T14:31:39Z</time>
      </trkpt>
      <trkpt lat="46.78264" lon="4.72467">
        <ele>297.565989</ele>
        <time>2011-01-30T14:31:45Z</time>
      </trkpt>
      <trkpt lat="46.78267" lon="4.72453">
        <ele>298.952447</ele>
        <time>2011-01-30T14:31:52Z</time>
      </trkpt>
      <trkpt lat="46.78266" lon="4.72438">
        <ele>300.486549</ele>
        <time>2011-01-30T14:31:59Z</time>
      </trkpt>
      <trkpt lat="46.78263" lon="4.72423">
        <ele>302.022897</ele>
        <time>2011-01-30T14:32:05Z</time>
      </trkpt>
      <trkpt lat="46.78262" lon="4.7241">
        <ele>303.35662</ele>
        <time>2011-01-30T14:32:10Z</time>
      </trkpt>
      <trkpt lat="46.78263" lon="4.72397">
        <ele>304.474809</ele>
        <time>2011-01-30T14:32:15Z</time>
      </trkpt>
      <trkpt lat="46.78261" lon="4.72383">
        <ele>305.436412</ele>
        <time>2011-01-30T14:32:20Z</time>
      </trkpt>
      <trkpt lat="46.78262" lon="4.7237">
        <ele>306.277217</ele>
        <time>2011-01-30T14:32:25Z</time>
      </trkpt>
      <trkpt lat="46.78261" lon="4.72355">
        <ele>307.049452</ele>
        <time>2011-01-30T14:32:32Z</time>
      </trkpt>
      <trkpt lat="46.78257" lon="4.7234">
        <ele>307.807845</ele>
        <time>2011-01-30T14:32:39Z</time>
      </trkpt>
      <trkpt lat="46.78254" lon="4.72328">
        <ele>308.522673</ele>
        <time>2011-01-30T14:32:45Z</time>
      </trkpt>
      <trkpt lat="46.78251" lon="4.72314">
        <ele>309.073085</ele>
        <time>2011-01-30T14:32:52Z</time>
      </trkpt>
      <trkpt lat="46.78248" lon="4.723">
        <ele>309.464754</ele>
        <time>2011-01-30T14:32:59Z</time>
      </trkpt>
      <trkpt lat="46.78247" lon="4.72286">
        <ele>309.909164</ele>
        <time>2011-01-30T14:33:05Z</time>
      </trkpt>
      <trkpt lat="46.78246" lon="4.72272">
        <ele>310.629214</ele>
        <time>2011-01-30T14:33:12Z</time>
      </trkpt>
      <trkpt lat="46.78244" lon="4.72259">
        <ele>311.679664</ele>
        <time>2011-01-30T14:33:18Z</time>
      </trkpt>
      <trkpt lat="46.78245" lon="4.72244">
        <ele>312.899903</ele>
        <time>2011-01-30T14:33:25Z</time>
      </trkpt>
      <trkpt lat="46.78243" lon="4.72231">
        <ele>314.034529</ele>
        <time>2011-01-30T14:33:32Z</time>
      </trkpt>
      <trkpt lat="46.78242" lon="4.72216">
        <ele>314.927193</ele>
        <time>2011-01-30T14:33:40Z</time>
      </trkpt>
      <trkpt lat="46.7824" lon="4.72203">
        <ele>315.579255</ele>
        <time>2011-01-30T14:33:46Z</time>
      </trkpt>
      <trkpt lat="46.78244" lon="4.7219">
        <ele>316.094608</ele>
        <time>2011-01-30T14:33:53Z</time>
      </trkpt>
      <trkpt lat="46.78244" lon="4.72176">
        <ele>316.616818</ele>
        <time>2011-01-30T14:34:04Z</time>
      </trkpt>
      <trkpt lat="46.78244" lon="4.72162">
        <ele>317.224566</ele>
        <time>2011-01-30T14:34:09Z</time>
      </trkpt>
      <trkpt lat="46.78242" lon="4.72146">
        <ele>317.904568</ele>
        <time>2011-01-30T14:34:14Z</time>
      </trkpt>
      <trkpt lat="46.78243" lon="4.72132">
        <ele>318.617573</ele>
        <time>2011-01-30T14:34:19Z</time>
      </trkpt>
      <trkpt lat="46.78243" lon="4.72117">
        <ele>319.331213</ele>
        <time>2011-01-30T14:34:25Z</time>
      </trkpt>
      <trkpt lat="46.78244" lon="4.72103">
        <ele>320.025088</ele>
        <time>2011-01-30T14:34:31Z</time>
      </trkpt>
      <trkpt lat="46.78243" lon="4.72089">
        <ele>320.741702</ele>
        <time>2011-01-30T14:34:37Z</time>
      </trkpt>
      <trkpt lat="46.78243" lon="4.72075">
        <ele>321.542376</ele>
        <time>2011-01-30T14:34:44Z</time>
      </trkpt>
      <trkpt lat="46.78243" lon="4.72061">
        <ele>322.445171</ele>
        <time>2011-01-30T14:34:52Z</time>
      </trkpt>
      <trkpt lat="46.78243" lon="4.72047">
        <ele>323.426</ele>
        <time>2011-01-30T14:34:58Z</time>
      </trkpt>
      <trkpt lat="46.78246" lon="4.72032">
        <ele>324.480909</ele>
        <time>2011-01-30T14:35:05Z</time>
      </trkpt>
      <trkpt lat="46.78248" lon="4.7202">
        <ele>325.63767</ele>
        <time>2011-01-30T14:35:13Z</time>
      </trkpt>
      <trkpt lat="46.78249" lon="4.72005">
        <ele>326.855798</ele>
        <time>2011-01-30T14:35:20Z</time>
      </trkpt>
      <trkpt lat="46.7825" lon="4.71992">
        <ele>328.084277</ele>
        <time>2011-01-30T14:35:29Z</time>
      </trkpt>
      <trkpt lat="46.78251" lon="4.71976">
        <ele>329.364226</ele>
        <time>2011-01-30T14:35:38Z</time>
      </trkpt>
      <trkpt lat="46.78251" lon="4.71976">
        <ele>330.534663</ele>
        <time>2011-01-30T14:35:53Z</time>
      </trkpt>
      <trkpt lat="46.78251" lon="4.71976">
        <ele>331.245852</ele>
        <time>2011-01-30T14:36:25Z</time>
      </trkpt>
      <trkpt lat="46.78254" lon="4.71928">
        <ele>331.621775</ele>
        <time>2011-01-30T14:38:03Z</time>
      </trkpt>
      <trkpt lat="46.78264" lon="4.71929">
        <ele>332.263228</ele>
        <time>2011-01-30T14:38:10Z</time>
      </trkpt>
      <trkpt lat="46.78272" lon="4.71936">
        <ele>333.451101</ele>
        <time>2011-01-30T14:38:17Z</time>
      </trkpt>
      <trkpt lat="46.78278" lon="4.71949">
        <ele>336.315938</ele>
        <time>2011-01-30T14:38:30Z</time>
      </trkpt>
      <trkpt lat="46.78285" lon="4.71958">
        <ele>341.202388</ele>
        <time>2011-01-30T14:38:39Z</time>
      </trkpt>
      <trkpt lat="46.78293" lon="4.71963">
        <ele>345.61159</ele>
        <time>2011-01-30T14:38:47Z</time>
      </trkpt>
      <trkpt lat="46.78303" lon="4.71967">
        <ele>347.534901</ele>
        <time>2011-01-30T14:38:53Z</time>
      </trkpt>
      <trkpt lat="46.78311" lon="4.71959">
        <ele>347.622015</ele>
        <time>2011-01-30T14:38:59Z</time>
      </trkpt>
      <trkpt lat="46.78318" lon="4.71948">
        <ele>346.854004</ele>
        <time>2011-01-30T14:39:05Z</time>
      </trkpt>
      <trkpt lat="46.78324" lon="4.71938">
        <ele>345.898022</ele>
        <time>2011-01-30T14:39:12Z</time>
      </trkpt>
      <trkpt lat="46.7833" lon="4.71926">
        <ele>345.095324</ele>
        <time>2011-01-30T14:39:22Z</time>
      </trkpt>
      <trkpt lat="46.78333" lon="4.71913">
        <ele>344.511952</ele>
        <time>2011-01-30T14:39:30Z</time>
      </trkpt>
      <trkpt lat="46.78337" lon="4.719">
        <ele>344.101538</ele>
        <time>2011-01-30T14:39:39Z</time>
      </trkpt>
      <trkpt lat="46.78338" lon="4.71886">
        <ele>343.794094</ele>
        <time>2011-01-30T14:39:46Z</time>
      </trkpt>
      <trkpt lat="46.78343" lon="4.71873">
        <ele>343.550302</ele>
        <time>2011-01-30T14:39:56Z</time>
      </trkpt>
      <trkpt lat="46.78347" lon="4.71861">
        <ele>343.384555</ele>
        <time>2011-01-30T14:40:05Z</time>
      </trkpt>
      <trkpt lat="46.78348" lon="4.71848">
        <ele>343.306091</ele>
        <time>2011-01-30T14:40:12Z</time>
      </trkpt>
      <trkpt lat="46.78352" lon="4.71836">
        <ele>343.287241</ele>
        <time>2011-01-30T14:40:17Z</time>
      </trkpt>
      <trkpt lat="46.78355" lon="4.71821">
        <ele>343.294567</ele>
        <time>2011-01-30T14:40:22Z</time>
      </trkpt>
      <trkpt lat="46.78357" lon="4.71807">
        <ele>343.305446</ele>
        <time>2011-01-30T14:40:27Z</time>
      </trkpt>
      <trkpt lat="46.78361" lon="4.71794">
        <ele>343.314669</ele>
        <time>2011-01-30T14:40:33Z</time>
      </trkpt>
      <trkpt lat="46.78368" lon="4.71784">
        <ele>343.325574</ele>
        <time>2011-01-30T14:40:43Z</time>
      </trkpt>
      <trkpt lat="46.78373" lon="4.71771">
        <ele>343.344554</ele>
        <time>2011-01-30T14:40:50Z</time>
      </trkpt>
      <trkpt lat="46.78381" lon="4.71765">
        <ele>343.390273</ele>
        <time>2011-01-30T14:41:03Z</time>
      </trkpt>
      <trkpt lat="46.78381" lon="4.71765">
        <ele>343.461639</ele>
        <time>2011-01-30T14:41:19Z</time>
      </trkpt>
      <trkpt lat="46.78396" lon="4.71731">
        <ele>343.520886</ele>
        <time>2011-01-30T14:41:52Z</time>
      </trkpt>
      <trkpt lat="46.78396" lon="4.71716">
        <ele>343.545104</ele>
        <time>2011-01-30T14:41:59Z</time>
      </trkpt>
      <trkpt lat="46.78396" lon="4.71701">
        <ele>343.553679</ele>
        <time>2011-01-30T14:42:05Z</time>
      </trkpt>
      <trkpt lat="46.78402" lon="4.7169">
        <ele>343.566648</ele>
        <time>2011-01-30T14:42:15Z</time>
      </trkpt>
      <trkpt lat="46.78408" lon="4.71679">
        <ele>343.581201</ele>
        <time>2011-01-30T14:42:22Z</time>
      </trkpt>
      <trkpt lat="46.78416" lon="4.71669">
        <ele>343.642135</ele>
        <time>2011-01-30T14:42:29Z</time>
      </trkpt>
      <trkpt lat="46.78425" lon="4.71663">
        <ele>343.824787</ele>
        <time>2011-01-30T14:42:37Z</time>
      </trkpt>
      <trkpt lat="46.78428" lon="4.7165">
        <ele>344.087576</ele>
        <time>2011-01-30T14:42:48Z</time>
      </trkpt>
      <trkpt lat="46.78437" lon="4.71648">
        <ele>344.314055</ele>
        <time>2011-01-30T14:43:01Z</time>
      </trkpt>
      <trkpt lat="46.78446" lon="4.71646">
        <ele>344.479403</ele>
        <time>2011-01-30T14:43:13Z</time>
      </trkpt>
      <trkpt lat="46.78456" lon="4.7165">
        <ele>344.631775</ele>
        <time>2011-01-30T14:43:20Z</time>
      </trkpt>
      <trkpt lat="46.78465" lon="4.71653">
        <ele>344.792355</ele>
        <time>2011-01-30T14:43:25Z</time>
      </trkpt>
      <trkpt lat="46.78476" lon="4.71653">
        <ele>344.957349</ele>
        <time>2011-01-30T14:43:30Z</time>
      </trkpt>
      <trkpt lat="46.78485" lon="4.71656">
        <ele>345.113156</ele>
        <time>2011-01-30T14:43:34Z</time>
      </trkpt>
      <trkpt lat="46.78496" lon="4.71657">
        <ele>345.226519</ele>
        <time>2011-01-30T14:43:39Z</time>
      </trkpt>
      <trkpt lat="46.78505" lon="4.71659">
        <ele>345.279011</ele>
        <time>2011-01-30T14:43:44Z</time>
      </trkpt>
      <trkpt lat="46.78516" lon="4.71661">
        <ele>345.290806</ele>
        <time>2011-01-30T14:43:50Z</time>
      </trkpt>
      <trkpt lat="46.78525" lon="4.71662">
        <ele>345.291732</ele>
        <time>2011-01-30T14:43:56Z</time>
      </trkpt>
      <trkpt lat="46.7852" lon="4.71647">
        <ele>345.305434</ele>
        <time>2011-01-30T14:44:04Z</time>
      </trkpt>
      <trkpt lat="46.78511" lon="4.7164">
        <ele>345.335228</ele>
        <time>2011-01-30T14:44:08Z</time>
      </trkpt>
      <trkpt lat="46.78502" lon="4.71628">
        <ele>345.36546</ele>
        <time>2011-01-30T14:44:11Z</time>
      </trkpt>
      <trkpt lat="46.7849" lon="4.71611">
        <ele>345.39418</ele>
        <time>2011-01-30T14:44:14Z</time>
      </trkpt>
      <trkpt lat="46.78479" lon="4.71597">
        <ele>345.476607</ele>
        <time>2011-01-30T14:44:17Z</time>
      </trkpt>
      <trkpt lat="46.78471" lon="4.71586">
        <ele>345.676304</ele>
        <time>2011-01-30T14:44:20Z</time>
      </trkpt>
      <trkpt lat="46.78463" lon="4.71573">
        <ele>345.978227</ele>
        <time>2011-01-30T14:44:23Z</time>
      </trkpt>
      <trkpt lat="46.78453" lon="4.71564">
        <ele>346.323214</ele>
        <time>2011-01-30T14:44:26Z</time>
      </trkpt>
      <trkpt lat="46.78443" lon="4.71554">
        <ele>346.682822</ele>
        <time>2011-01-30T14:44:29Z</time>
      </trkpt>
      <trkpt lat="46.78433" lon="4.71544">
        <ele>347.048068</ele>
        <time>2011-01-30T14:44:32Z</time>
      </trkpt>
      <trkpt lat="46.78427" lon="4.71532">
        <ele>347.41023</ele>
        <time>2011-01-30T14:44:35Z</time>
      </trkpt>
      <trkpt lat="46.78419" lon="4.71524">
        <ele>347.763474</ele>
        <time>2011-01-30T14:44:38Z</time>
      </trkpt>
      <trkpt lat="46.7841" lon="4.71524">
        <ele>348.111861</ele>
        <time>2011-01-30T14:44:41Z</time>
      </trkpt>
      <trkpt lat="46.78401" lon="4.71524">
        <ele>348.45955</ele>
        <time>2011-01-30T14:44:44Z</time>
      </trkpt>
      <trkpt lat="46.7839" lon="4.71515">
        <ele>348.785688</ele>
        <time>2011-01-30T14:44:48Z</time>
      </trkpt>
      <trkpt lat="46.78382" lon="4.71507">
        <ele>349.05685</ele>
        <time>2011-01-30T14:44:50Z</time>
      </trkpt>
      <trkpt lat="46.78364" lon="4.71489">
        <ele>349.268071</ele>
        <time>2011-01-30T14:44:53Z</time>
      </trkpt>
      <trkpt lat="46.78351" lon="4.71474">
        <ele>349.448782</ele>
        <time>2011-01-30T14:44:55Z</time>
      </trkpt>
      <trkpt lat="46.78334" lon="4.71452">
        <ele>349.750704</ele>
        <time>2011-01-30T14:44:58Z</time>
      </trkpt>
      <trkpt lat="46.78322" lon="4.7144">
        <ele>350.357218</ele>
        <time>2011-01-30T14:45:00Z</time>
      </trkpt>
      <trkpt lat="46.7831" lon="4.7143">
        <ele>351.159108</ele>
        <time>2011-01-30T14:45:02Z</time>
      </trkpt>
      <trkpt lat="46.78298" lon="4.71419">
        <ele>351.835357</ele>
        <time>2011-01-30T14:45:04Z</time>
      </trkpt>
      <trkpt lat="46.78277" lon="4.71402">
        <ele>352.233763</ele>
        <time>2011-01-30T14:45:07Z</time>
      </trkpt>
      <trkpt lat="46.78264" lon="4.71389">
        <ele>352.40194</ele>
        <time>2011-01-30T14:45:09Z</time>
      </trkpt>
      <trkpt lat="46.78244" lon="4.71372">
        <ele>352.461396</ele>
        <time>2011-01-30T14:45:12Z</time>
      </trkpt>
      <trkpt lat="46.78233" lon="4.7136">
        <ele>352.692202</ele>
        <time>2011-01-30T14:45:14Z</time>
      </trkpt>
      <trkpt lat="46.7822" lon="4.71338">
        <ele>353.306299</ele>
        <time>2011-01-30T14:45:17Z</time>
      </trkpt>
      <trkpt lat="46.78212" lon="4.71323">
        <ele>354.131793</ele>
        <time>2011-01-30T14:45:19Z</time>
      </trkpt>
      <trkpt lat="46.78197" lon="4.71301">
        <ele>354.835695</ele>
        <time>2011-01-30T14:45:22Z</time>
      </trkpt>
      <trkpt lat="46.78184" lon="4.7128">
        <ele>355.254964</ele>
        <time>2011-01-30T14:45:25Z</time>
      </trkpt>
      <trkpt lat="46.78176" lon="4.71268">
        <ele>355.39754</ele>
        <time>2011-01-30T14:45:27Z</time>
      </trkpt>
      <trkpt lat="46.78167" lon="4.71258">
        <ele>355.429617</ele>
        <time>2011-01-30T14:45:30Z</time>
      </trkpt>
      <trkpt lat="46.78167" lon="4.71258">
        <ele>355.493033</ele>
        <time>2011-01-30T14:45:35Z</time>
      </trkpt>
      <trkpt lat="46.78153" lon="4.71234">
        <ele>355.699908</ele>
        <time>2011-01-30T14:45:41Z</time>
      </trkpt>
      <trkpt lat="46.78153" lon="4.71234">
        <ele>356.070125</ele>
        <time>2011-01-30T14:45:45Z</time>
      </trkpt>
      <trkpt lat="46.78153" lon="4.71234">
        <ele>356.415193</ele>
        <time>2011-01-30T14:46:09Z</time>
      </trkpt>
      <trkpt lat="46.78147" lon="4.71208">
        <ele>356.662922</ele>
        <time>2011-01-30T14:47:17Z</time>
      </trkpt>
      <trkpt lat="46.78147" lon="4.71184">
        <ele>356.966442</ele>
        <time>2011-01-30T14:47:20Z</time>
      </trkpt>
      <trkpt lat="46.78148" lon="4.71165">
        <ele>357.366535</ele>
        <time>2011-01-30T14:47:22Z</time>
      </trkpt>
      <trkpt lat="46.78147" lon="4.71143">
        <ele>358.514881</ele>
        <time>2011-01-30T14:47:24Z</time>
      </trkpt>
      <trkpt lat="46.78137" lon="4.71111">
        <ele>361.3774</ele>
        <time>2011-01-30T14:47:27Z</time>
      </trkpt>
      <trkpt lat="46.78131" lon="4.71095">
        <ele>365.341915</ele>
        <time>2011-01-30T14:47:29Z</time>
      </trkpt>
      <trkpt lat="46.78135" lon="4.71077">
        <ele>368.544463</ele>
        <time>2011-01-30T14:47:32Z</time>
      </trkpt>
      <trkpt lat="46.78135" lon="4.71077">
        <ele>370.070807</ele>
        <time>2011-01-30T14:47:36Z</time>
      </trkpt>
      <trkpt lat="46.78155" lon="4.71041">
        <ele>370.336399</ele>
        <time>2011-01-30T14:47:46Z</time>
      </trkpt>
      <trkpt lat="46.78155" lon="4.71041">
        <ele>370.13144</ele>
        <time>2011-01-30T14:47:50Z</time>
      </trkpt>
      <trkpt lat="46.78174" lon="4.71072">
        <ele>369.922989</ele>
        <time>2011-01-30T14:49:08Z</time>
      </trkpt>
      <trkpt lat="46.7818" lon="4.71084">
        <ele>369.803295</ele>
        <time>2011-01-30T14:49:16Z</time>
      </trkpt>
      <trkpt lat="46.78184" lon="4.71097">
        <ele>369.518575</ele>
        <time>2011-01-30T14:49:24Z</time>
      </trkpt>
      <trkpt lat="46.78184" lon="4.71097">
        <ele>368.916178</ele>
        <time>2011-01-30T14:49:36Z</time>
      </trkpt>
      <trkpt lat="46.78184" lon="4.71097">
        <ele>368.371792</ele>
        <time>2011-01-30T14:49:54Z</time>
      </trkpt>
      <trkpt lat="46.78209" lon="4.71122">
        <ele>368.029022</ele>
        <time>2011-01-30T14:51:41Z</time>
      </trkpt>
      <trkpt lat="46.78209" lon="4.71122">
        <ele>367.606851</ele>
        <time>2011-01-30T14:51:47Z</time>
      </trkpt>
      <trkpt lat="46.78209" lon="4.71122">
        <ele>367.206135</ele>
        <time>2011-01-30T14:52:37Z</time>
      </trkpt>
      <trkpt lat="46.78224" lon="4.71088">
        <ele>367.119151</ele>
        <time>2011-01-30T14:54:26Z</time>
      </trkpt>
      <trkpt lat="46.78224" lon="4.71088">
        <ele>367.295265</ele>
        <time>2011-01-30T14:54:29Z</time>
      </trkpt>
      <trkpt lat="46.78224" lon="4.71088">
        <ele>367.452481</ele>
        <time>2011-01-30T14:54:42Z</time>
      </trkpt>
      <trkpt lat="46.78252" lon="4.71039">
        <ele>366.24361</ele>
        <time>2011-01-30T15:03:43Z</time>
      </trkpt>
      <trkpt lat="46.78219" lon="4.71058">
        <ele>366.164661</ele>
        <time>2011-01-30T15:04:45Z</time>
      </trkpt>
      <trkpt lat="46.78219" lon="4.71058">
        <ele>366.135208</ele>
        <time>2011-01-30T15:04:48Z</time>
      </trkpt>
      <trkpt lat="46.78219" lon="4.71058">
        <ele>366.104493</ele>
        <time>2011-01-30T15:05:08Z</time>
      </trkpt>
      <trkpt lat="46.78245" lon="4.71044">
        <ele>366.032243</ele>
        <time>2011-01-30T15:05:37Z</time>
      </trkpt>
      <trkpt lat="46.78253" lon="4.71037">
        <ele>365.955604</ele>
        <time>2011-01-30T15:05:47Z</time>
      </trkpt>
      <trkpt lat="46.7826" lon="4.7103">
        <ele>365.918559</ele>
        <time>2011-01-30T15:05:55Z</time>
      </trkpt>
      <trkpt lat="46.7827" lon="4.71027">
        <ele>369.100301</ele>
        <time>2011-01-30T15:06:04Z</time>
      </trkpt>
      <trkpt lat="46.78278" lon="4.71021">
        <ele>377.898333</ele>
        <time>2011-01-30T15:06:14Z</time>
      </trkpt>
      <trkpt lat="46.78287" lon="4.71017">
        <ele>388.026367</ele>
        <time>2011-01-30T15:06:25Z</time>
      </trkpt>
      <trkpt lat="46.78296" lon="4.71011">
        <ele>394.522827</ele>
        <time>2011-01-30T15:06:35Z</time>
      </trkpt>
      <trkpt lat="46.78296" lon="4.71011">
        <ele>397.39655</ele>
        <time>2011-01-30T15:06:50Z</time>
      </trkpt>
      <trkpt lat="46.78327" lon="4.70991">
        <ele>398.283864</ele>
        <time>2011-01-30T15:07:19Z</time>
      </trkpt>
      <trkpt lat="46.78334" lon="4.70982">
        <ele>398.898934</ele>
        <time>2011-01-30T15:07:23Z</time>
      </trkpt>
      <trkpt lat="46.7834" lon="4.70972">
        <ele>400.043484</ele>
        <time>2011-01-30T15:07:27Z</time>
      </trkpt>
      <trkpt lat="46.78346" lon="4.70962">
        <ele>401.904117</ele>
        <time>2011-01-30T15:07:31Z</time>
      </trkpt>
      <trkpt lat="46.78353" lon="4.70951">
        <ele>404.295616</ele>
        <time>2011-01-30T15:07:35Z</time>
      </trkpt>
      <trkpt lat="46.7836" lon="4.70941">
        <ele>406.34852</ele>
        <time>2011-01-30T15:07:39Z</time>
      </trkpt>
      <trkpt lat="46.78367" lon="4.70926">
        <ele>407.506269</ele>
        <time>2011-01-30T15:07:42Z</time>
      </trkpt>
      <trkpt lat="46.78375" lon="4.70908">
        <ele>408.063944</ele>
        <time>2011-01-30T15:07:45Z</time>
      </trkpt>
      <trkpt lat="46.78381" lon="4.70891">
        <ele>408.384199</ele>
        <time>2011-01-30T15:07:48Z</time>
      </trkpt>
      <trkpt lat="46.78389" lon="4.70881">
        <ele>408.833001</ele>
        <time>2011-01-30T15:07:52Z</time>
      </trkpt>
      <trkpt lat="46.78399" lon="4.70873">
        <ele>409.707349</ele>
        <time>2011-01-30T15:07:57Z</time>
      </trkpt>
      <trkpt lat="46.78399" lon="4.70873">
        <ele>410.782118</ele>
        <time>2011-01-30T15:08:00Z</time>
      </trkpt>
      <trkpt lat="46.78426" lon="4.70897">
        <ele>411.51921</ele>
        <time>2011-01-30T15:08:14Z</time>
      </trkpt>
      <trkpt lat="46.78436" lon="4.709">
        <ele>411.767253</ele>
        <time>2011-01-30T15:08:21Z</time>
      </trkpt>
      <trkpt lat="46.78445" lon="4.70894">
        <ele>411.726503</ele>
        <time>2011-01-30T15:08:28Z</time>
      </trkpt>
      <trkpt lat="46.78454" lon="4.70891">
        <ele>411.59322</ele>
        <time>2011-01-30T15:08:35Z</time>
      </trkpt>
      <trkpt lat="46.78464" lon="4.70891">
        <ele>411.487351</ele>
        <time>2011-01-30T15:08:43Z</time>
      </trkpt>
      <trkpt lat="46.78474" lon="4.7089">
        <ele>411.445716</ele>
        <time>2011-01-30T15:08:51Z</time>
      </trkpt>
      <trkpt lat="46.78483" lon="4.70888">
        <ele>411.458181</ele>
        <time>2011-01-30T15:08:59Z</time>
      </trkpt>
      <trkpt lat="46.78493" lon="4.7089">
        <ele>411.528472</ele>
        <time>2011-01-30T15:09:07Z</time>
      </trkpt>
      <trkpt lat="46.78505" lon="4.7089">
        <ele>411.658932</ele>
        <time>2011-01-30T15:09:16Z</time>
      </trkpt>
      <trkpt lat="46.78515" lon="4.70891">
        <ele>411.836015</ele>
        <time>2011-01-30T15:09:24Z</time>
      </trkpt>
      <trkpt lat="46.78524" lon="4.70889">
        <ele>412.062001</ele>
        <time>2011-01-30T15:09:31Z</time>
      </trkpt>
      <trkpt lat="46.78533" lon="4.70889">
        <ele>412.362131</ele>
        <time>2011-01-30T15:09:40Z</time>
      </trkpt>
      <trkpt lat="46.78537" lon="4.70902">
        <ele>412.74878</ele>
        <time>2011-01-30T15:09:48Z</time>
      </trkpt>
      <trkpt lat="46.78545" lon="4.70895">
        <ele>413.192673</ele>
        <time>2011-01-30T15:10:02Z</time>
      </trkpt>
      <trkpt lat="46.7855" lon="4.70883">
        <ele>413.660011</ele>
        <time>2011-01-30T15:10:10Z</time>
      </trkpt>
      <trkpt lat="46.78559" lon="4.70881">
        <ele>414.194406</ele>
        <time>2011-01-30T15:10:17Z</time>
      </trkpt>
      <trkpt lat="46.78568" lon="4.70876">
        <ele>414.985556</ele>
        <time>2011-01-30T15:10:25Z</time>
      </trkpt>
      <trkpt lat="46.78577" lon="4.70874">
        <ele>416.119602</ele>
        <time>2011-01-30T15:10:33Z</time>
      </trkpt>
      <trkpt lat="46.78585" lon="4.70882">
        <ele>417.365051</ele>
        <time>2011-01-30T15:10:39Z</time>
      </trkpt>
      <trkpt lat="46.78593" lon="4.70887">
        <ele>418.459628</ele>
        <time>2011-01-30T15:10:45Z</time>
      </trkpt>
      <trkpt lat="46.78602" lon="4.70892">
        <ele>419.372871</ele>
        <time>2011-01-30T15:10:51Z</time>
      </trkpt>
      <trkpt lat="46.78609" lon="4.70884">
        <ele>420.150195</ele>
        <time>2011-01-30T15:10:59Z</time>
      </trkpt>
      <trkpt lat="46.78615" lon="4.70873">
        <ele>420.816113</ele>
        <time>2011-01-30T15:11:06Z</time>
      </trkpt>
      <trkpt lat="46.78624" lon="4.70869">
        <ele>421.392269</ele>
        <time>2011-01-30T15:11:13Z</time>
      </trkpt>
      <trkpt lat="46.78634" lon="4.70868">
        <ele>421.921363</ele>
        <time>2011-01-30T15:11:20Z</time>
      </trkpt>
      <trkpt lat="46.78643" lon="4.70864">
        <ele>422.429965</ele>
        <time>2011-01-30T15:11:26Z</time>
      </trkpt>
      <trkpt lat="46.78652" lon="4.70861">
        <ele>422.904645</ele>
        <time>2011-01-30T15:11:32Z</time>
      </trkpt>
      <trkpt lat="46.78661" lon="4.70854">
        <ele>423.328904</ele>
        <time>2011-01-30T15:11:38Z</time>
      </trkpt>
      <trkpt lat="46.78669" lon="4.70848">
        <ele>423.701336</ele>
        <time>2011-01-30T15:11:44Z</time>
      </trkpt>
      <trkpt lat="46.78677" lon="4.7084">
        <ele>424.020895</ele>
        <time>2011-01-30T15:11:51Z</time>
      </trkpt>
      <trkpt lat="46.78684" lon="4.70831">
        <ele>424.296924</ele>
        <time>2011-01-30T15:11:55Z</time>
      </trkpt>
      <trkpt lat="46.78689" lon="4.7082">
        <ele>424.544336</ele>
        <time>2011-01-30T15:11:59Z</time>
      </trkpt>
      <trkpt lat="46.78696" lon="4.70809">
        <ele>424.773637</ele>
        <time>2011-01-30T15:12:03Z</time>
      </trkpt>
      <trkpt lat="46.78704" lon="4.70796">
        <ele>424.963538</ele>
        <time>2011-01-30T15:12:07Z</time>
      </trkpt>
      <trkpt lat="46.7871" lon="4.70784">
        <ele>425.078433</ele>
        <time>2011-01-30T15:12:11Z</time>
      </trkpt>
      <trkpt lat="46.78717" lon="4.70772">
        <ele>425.135878</ele>
        <time>2011-01-30T15:12:15Z</time>
      </trkpt>
      <trkpt lat="46.78725" lon="4.70761">
        <ele>425.187478</ele>
        <time>2011-01-30T15:12:19Z</time>
      </trkpt>
      <trkpt lat="46.78731" lon="4.70751">
        <ele>425.25128</ele>
        <time>2011-01-30T15:12:23Z</time>
      </trkpt>
      <trkpt lat="46.78739" lon="4.70744">
        <ele>425.308553</ele>
        <time>2011-01-30T15:12:27Z</time>
      </trkpt>
      <trkpt lat="46.78748" lon="4.70738">
        <ele>425.339852</ele>
        <time>2011-01-30T15:12:32Z</time>
      </trkpt>
      <trkpt lat="46.78748" lon="4.70738">
        <ele>425.347069</ele>
        <time>2011-01-30T15:12:37Z</time>
      </trkpt>
      <trkpt lat="46.78748" lon="4.70738">
        <ele>425.331336</ele>
        <time>2011-01-30T15:13:02Z</time>
      </trkpt>
      <trkpt lat="46.78766" lon="4.70723">
        <ele>425.277651</ele>
        <time>2011-01-30T15:13:25Z</time>
      </trkpt>
      <trkpt lat="46.78777" lon="4.70721">
        <ele>425.160902</ele>
        <time>2011-01-30T15:13:28Z</time>
      </trkpt>
      <trkpt lat="46.78789" lon="4.7071">
        <ele>425.001924</ele>
        <time>2011-01-30T15:13:31Z</time>
      </trkpt>
      <trkpt lat="46.78802" lon="4.70694">
        <ele>424.841419</ele>
        <time>2011-01-30T15:13:34Z</time>
      </trkpt>
      <trkpt lat="46.78816" lon="4.70679">
        <ele>424.695435</ele>
        <time>2011-01-30T15:13:37Z</time>
      </trkpt>
      <trkpt lat="46.78826" lon="4.7067">
        <ele>424.586824</ele>
        <time>2011-01-30T15:13:39Z</time>
      </trkpt>
      <trkpt lat="46.78836" lon="4.70662">
        <ele>424.538153</ele>
        <time>2011-01-30T15:13:41Z</time>
      </trkpt>
      <trkpt lat="46.78852" lon="4.70651">
        <ele>424.492328</ele>
        <time>2011-01-30T15:13:44Z</time>
      </trkpt>
      <trkpt lat="46.78863" lon="4.70646">
        <ele>424.347217</ele>
        <time>2011-01-30T15:13:46Z</time>
      </trkpt>
      <trkpt lat="46.78874" lon="4.7064">
        <ele>424.049524</ele>
        <time>2011-01-30T15:13:48Z</time>
      </trkpt>
      <trkpt lat="46.78892" lon="4.70631">
        <ele>423.647728</ele>
        <time>2011-01-30T15:13:51Z</time>
      </trkpt>
      <trkpt lat="46.78911" lon="4.7062">
        <ele>423.255075</ele>
        <time>2011-01-30T15:13:54Z</time>
      </trkpt>
      <trkpt lat="46.78933" lon="4.70612">
        <ele>422.964332</ele>
        <time>2011-01-30T15:13:57Z</time>
      </trkpt>
      <trkpt lat="46.7895" lon="4.7061">
        <ele>422.773616</ele>
        <time>2011-01-30T15:13:59Z</time>
      </trkpt>
      <trkpt lat="46.78976" lon="4.70613">
        <ele>422.613407</ele>
        <time>2011-01-30T15:14:02Z</time>
      </trkpt>
      <trkpt lat="46.79" lon="4.70621">
        <ele>422.396847</ele>
        <time>2011-01-30T15:14:05Z</time>
      </trkpt>
      <trkpt lat="46.79016" lon="4.70626">
        <ele>422.070933</ele>
        <time>2011-01-30T15:14:07Z</time>
      </trkpt>
      <trkpt lat="46.7904" lon="4.70637">
        <ele>421.646762</ele>
        <time>2011-01-30T15:14:10Z</time>
      </trkpt>
      <trkpt lat="46.79056" lon="4.70644">
        <ele>421.230122</ele>
        <time>2011-01-30T15:14:12Z</time>
      </trkpt>
      <trkpt lat="46.79072" lon="4.7065">
        <ele>420.944652</ele>
        <time>2011-01-30T15:14:14Z</time>
      </trkpt>
      <trkpt lat="46.79089" lon="4.70653">
        <ele>420.719193</ele>
        <time>2011-01-30T15:14:16Z</time>
      </trkpt>
      <trkpt lat="46.79105" lon="4.70655">
        <ele>420.359177</ele>
        <time>2011-01-30T15:14:18Z</time>
      </trkpt>
      <trkpt lat="46.79127" lon="4.70658">
        <ele>419.825151</ele>
        <time>2011-01-30T15:14:21Z</time>
      </trkpt>
      <trkpt lat="46.79138" lon="4.70664">
        <ele>419.214057</ele>
        <time>2011-01-30T15:14:23Z</time>
      </trkpt>
      <trkpt lat="46.79152" lon="4.70677">
        <ele>418.622036</ele>
        <time>2011-01-30T15:14:26Z</time>
      </trkpt>
      <trkpt lat="46.79163" lon="4.70687">
        <ele>418.045055</ele>
        <time>2011-01-30T15:14:28Z</time>
      </trkpt>
      <trkpt lat="46.79175" lon="4.70696">
        <ele>417.400259</ele>
        <time>2011-01-30T15:14:30Z</time>
      </trkpt>
      <trkpt lat="46.79188" lon="4.70705">
        <ele>416.553316</ele>
        <time>2011-01-30T15:14:32Z</time>
      </trkpt>
      <trkpt lat="46.79211" lon="4.70715">
        <ele>415.475463</ele>
        <time>2011-01-30T15:14:35Z</time>
      </trkpt>
      <trkpt lat="46.79236" lon="4.70724">
        <ele>414.372678</ele>
        <time>2011-01-30T15:14:38Z</time>
      </trkpt>
      <trkpt lat="46.79252" lon="4.70731">
        <ele>413.454864</ele>
        <time>2011-01-30T15:14:40Z</time>
      </trkpt>
      <trkpt lat="46.79268" lon="4.70739">
        <ele>412.667323</ele>
        <time>2011-01-30T15:14:42Z</time>
      </trkpt>
      <trkpt lat="46.7929" lon="4.70756">
        <ele>411.811122</ele>
        <time>2011-01-30T15:14:45Z</time>
      </trkpt>
      <trkpt lat="46.79305" lon="4.70767">
        <ele>410.785636</ele>
        <time>2011-01-30T15:14:47Z</time>
      </trkpt>
      <trkpt lat="46.79329" lon="4.7078">
        <ele>409.662441</ele>
        <time>2011-01-30T15:14:50Z</time>
      </trkpt>
      <trkpt lat="46.79344" lon="4.70787">
        <ele>408.475338</ele>
        <time>2011-01-30T15:14:52Z</time>
      </trkpt>
      <trkpt lat="46.79365" lon="4.70794">
        <ele>407.295116</ele>
        <time>2011-01-30T15:14:55Z</time>
      </trkpt>
      <trkpt lat="46.79379" lon="4.70798">
        <ele>406.247425</ele>
        <time>2011-01-30T15:14:57Z</time>
      </trkpt>
      <trkpt lat="46.79401" lon="4.70805">
        <ele>405.28878</ele>
        <time>2011-01-30T15:15:00Z</time>
      </trkpt>
      <trkpt lat="46.79417" lon="4.70815">
        <ele>404.245728</ele>
        <time>2011-01-30T15:15:02Z</time>
      </trkpt>
      <trkpt lat="46.79441" lon="4.70835">
        <ele>403.131213</ele>
        <time>2011-01-30T15:15:05Z</time>
      </trkpt>
      <trkpt lat="46.79469" lon="4.70849">
        <ele>402.112167</ele>
        <time>2011-01-30T15:15:08Z</time>
      </trkpt>
      <trkpt lat="46.79498" lon="4.70855">
        <ele>401.286841</ele>
        <time>2011-01-30T15:15:11Z</time>
      </trkpt>
      <trkpt lat="46.79525" lon="4.70864">
        <ele>400.488563</ele>
        <time>2011-01-30T15:15:14Z</time>
      </trkpt>
      <trkpt lat="46.79541" lon="4.70872">
        <ele>399.507144</ele>
        <time>2011-01-30T15:15:16Z</time>
      </trkpt>
      <trkpt lat="46.79555" lon="4.70886">
        <ele>398.423486</ele>
        <time>2011-01-30T15:15:19Z</time>
      </trkpt>
      <trkpt lat="46.79573" lon="4.70898">
        <ele>397.436864</ele>
        <time>2011-01-30T15:15:22Z</time>
      </trkpt>
      <trkpt lat="46.79583" lon="4.70905">
        <ele>396.53653</ele>
        <time>2011-01-30T15:15:25Z</time>
      </trkpt>
      <trkpt lat="46.79588" lon="4.70918">
        <ele>395.606153</ele>
        <time>2011-01-30T15:15:29Z</time>
      </trkpt>
      <trkpt lat="46.79588" lon="4.70918">
        <ele>394.723825</ele>
        <time>2011-01-30T15:15:30Z</time>
      </trkpt>
      <trkpt lat="46.79601" lon="4.70908">
        <ele>393.953086</ele>
        <time>2011-01-30T15:15:38Z</time>
      </trkpt>
      <trkpt lat="46.79613" lon="4.70901">
        <ele>393.052149</ele>
        <time>2011-01-30T15:15:42Z</time>
      </trkpt>
      <trkpt lat="46.79623" lon="4.70895">
        <ele>391.943251</ele>
        <time>2011-01-30T15:15:44Z</time>
      </trkpt>
      <trkpt lat="46.79641" lon="4.70886">
        <ele>390.789997</ele>
        <time>2011-01-30T15:15:47Z</time>
      </trkpt>
      <trkpt lat="46.79662" lon="4.70877">
        <ele>389.416182</ele>
        <time>2011-01-30T15:15:50Z</time>
      </trkpt>
      <trkpt lat="46.79676" lon="4.7087">
        <ele>387.507454</ele>
        <time>2011-01-30T15:15:52Z</time>
      </trkpt>
      <trkpt lat="46.79696" lon="4.7086">
        <ele>385.06722</ele>
        <time>2011-01-30T15:15:55Z</time>
      </trkpt>
      <trkpt lat="46.79708" lon="4.70859">
        <ele>382.368957</ele>
        <time>2011-01-30T15:15:57Z</time>
      </trkpt>
      <trkpt lat="46.79719" lon="4.70861">
        <ele>379.845733</ele>
        <time>2011-01-30T15:15:59Z</time>
      </trkpt>
      <trkpt lat="46.79737" lon="4.70867">
        <ele>377.934087</ele>
        <time>2011-01-30T15:16:02Z</time>
      </trkpt>
      <trkpt lat="46.79749" lon="4.70871">
        <ele>376.812687</ele>
        <time>2011-01-30T15:16:04Z</time>
      </trkpt>
      <trkpt lat="46.79768" lon="4.70885">
        <ele>376.286193</ele>
        <time>2011-01-30T15:16:07Z</time>
      </trkpt>
      <trkpt lat="46.79782" lon="4.70892">
        <ele>375.899599</ele>
        <time>2011-01-30T15:16:09Z</time>
      </trkpt>
      <trkpt lat="46.79795" lon="4.70895">
        <ele>375.332765</ele>
        <time>2011-01-30T15:16:11Z</time>
      </trkpt>
      <trkpt lat="46.79816" lon="4.709">
        <ele>374.659196</ele>
        <time>2011-01-30T15:16:14Z</time>
      </trkpt>
      <trkpt lat="46.79831" lon="4.70913">
        <ele>374.064303</ele>
        <time>2011-01-30T15:16:16Z</time>
      </trkpt>
      <trkpt lat="46.7985" lon="4.70934">
        <ele>373.578295</ele>
        <time>2011-01-30T15:16:19Z</time>
      </trkpt>
      <trkpt lat="46.79864" lon="4.70945">
        <ele>373.070153</ele>
        <time>2011-01-30T15:16:21Z</time>
      </trkpt>
      <trkpt lat="46.79889" lon="4.70955">
        <ele>372.403973</ele>
        <time>2011-01-30T15:16:24Z</time>
      </trkpt>
      <trkpt lat="46.79913" lon="4.7096">
        <ele>371.52147</ele>
        <time>2011-01-30T15:16:27Z</time>
      </trkpt>
      <trkpt lat="46.79928" lon="4.70965">
        <ele>370.436277</ele>
        <time>2011-01-30T15:16:29Z</time>
      </trkpt>
      <trkpt lat="46.79954" lon="4.70971">
        <ele>369.270236</ele>
        <time>2011-01-30T15:16:32Z</time>
      </trkpt>
      <trkpt lat="46.79974" lon="4.70974">
        <ele>368.282335</ele>
        <time>2011-01-30T15:16:34Z</time>
      </trkpt>
      <trkpt lat="46.80001" lon="4.70972">
        <ele>367.670698</ele>
        <time>2011-01-30T15:16:37Z</time>
      </trkpt>
      <trkpt lat="46.80013" lon="4.7097">
        <ele>367.388404</ele>
        <time>2011-01-30T15:16:39Z</time>
      </trkpt>
      <trkpt lat="46.80027" lon="4.70972">
        <ele>367.115258</ele>
        <time>2011-01-30T15:16:41Z</time>
      </trkpt>
      <trkpt lat="46.80052" lon="4.7098">
        <ele>366.553028</ele>
        <time>2011-01-30T15:16:44Z</time>
      </trkpt>
      <trkpt lat="46.80082" lon="4.70988">
        <ele>365.706363</ele>
        <time>2011-01-30T15:16:47Z</time>
      </trkpt>
      <trkpt lat="46.80102" lon="4.70994">
        <ele>364.820345</ele>
        <time>2011-01-30T15:16:49Z</time>
      </trkpt>
      <trkpt lat="46.80124" lon="4.71003">
        <ele>364.013748</ele>
        <time>2011-01-30T15:16:51Z</time>
      </trkpt>
      <trkpt lat="46.80147" lon="4.71014">
        <ele>363.193064</ele>
        <time>2011-01-30T15:16:53Z</time>
      </trkpt>
      <trkpt lat="46.80169" lon="4.71027">
        <ele>362.332493</ele>
        <time>2011-01-30T15:16:55Z</time>
      </trkpt>
      <trkpt lat="46.80202" lon="4.71043">
        <ele>361.564856</ele>
        <time>2011-01-30T15:16:58Z</time>
      </trkpt>
      <trkpt lat="46.80223" lon="4.71052">
        <ele>360.94155</ele>
        <time>2011-01-30T15:17:00Z</time>
      </trkpt>
      <trkpt lat="46.80256" lon="4.71063">
        <ele>360.445713</ele>
        <time>2011-01-30T15:17:03Z</time>
      </trkpt>
      <trkpt lat="46.80292" lon="4.71078">
        <ele>360.042571</ele>
        <time>2011-01-30T15:17:06Z</time>
      </trkpt>
      <trkpt lat="46.80319" lon="4.71091">
        <ele>359.580325</ele>
        <time>2011-01-30T15:17:09Z</time>
      </trkpt>
      <trkpt lat="46.80333" lon="4.71093">
        <ele>358.891642</ele>
        <time>2011-01-30T15:17:12Z</time>
      </trkpt>
      <trkpt lat="46.8034" lon="4.71084">
        <ele>357.878547</ele>
        <time>2011-01-30T15:17:15Z</time>
      </trkpt>
      <trkpt lat="46.80338" lon="4.71068">
        <ele>356.571563</ele>
        <time>2011-01-30T15:17:18Z</time>
      </trkpt>
      <trkpt lat="46.8033" lon="4.7105">
        <ele>355.084794</ele>
        <time>2011-01-30T15:17:21Z</time>
      </trkpt>
      <trkpt lat="46.80323" lon="4.71031">
        <ele>353.648752</ele>
        <time>2011-01-30T15:17:24Z</time>
      </trkpt>
      <trkpt lat="46.80327" lon="4.71014">
        <ele>352.200118</ele>
        <time>2011-01-30T15:17:27Z</time>
      </trkpt>
      <trkpt lat="46.80335" lon="4.71006">
        <ele>350.056473</ele>
        <time>2011-01-30T15:17:30Z</time>
      </trkpt>
      <trkpt lat="46.8035" lon="4.71003">
        <ele>346.813516</ele>
        <time>2011-01-30T15:17:33Z</time>
      </trkpt>
      <trkpt lat="46.80367" lon="4.71006">
        <ele>343.200466</ele>
        <time>2011-01-30T15:17:35Z</time>
      </trkpt>
      <trkpt lat="46.80395" lon="4.71013">
        <ele>339.843556</ele>
        <time>2011-01-30T15:17:38Z</time>
      </trkpt>
      <trkpt lat="46.8042" lon="4.71019">
        <ele>336.021036</ele>
        <time>2011-01-30T15:17:41Z</time>
      </trkpt>
      <trkpt lat="46.80434" lon="4.71023">
        <ele>331.406541</ele>
        <time>2011-01-30T15:17:43Z</time>
      </trkpt>
      <trkpt lat="46.80456" lon="4.71026">
        <ele>327.413018</ele>
        <time>2011-01-30T15:17:46Z</time>
      </trkpt>
      <trkpt lat="46.80471" lon="4.71027">
        <ele>325.23955</ele>
        <time>2011-01-30T15:17:48Z</time>
      </trkpt>
      <trkpt lat="46.80484" lon="4.71027">
        <ele>324.605213</ele>
        <time>2011-01-30T15:17:50Z</time>
      </trkpt>
      <trkpt lat="46.80497" lon="4.71025">
        <ele>324.672126</ele>
        <time>2011-01-30T15:17:53Z</time>
      </trkpt>
      <trkpt lat="46.80507" lon="4.71018">
        <ele>324.781822</ele>
        <time>2011-01-30T15:17:55Z</time>
      </trkpt>
      <trkpt lat="46.80515" lon="4.71004">
        <ele>324.728427</ele>
        <time>2011-01-30T15:17:57Z</time>
      </trkpt>
      <trkpt lat="46.80521" lon="4.70987">
        <ele>324.415291</ele>
        <time>2011-01-30T15:17:59Z</time>
      </trkpt>
      <trkpt lat="46.8052" lon="4.70965">
        <ele>323.556102</ele>
        <time>2011-01-30T15:18:01Z</time>
      </trkpt>
      <trkpt lat="46.80518" lon="4.70943">
        <ele>321.773503</ele>
        <time>2011-01-30T15:18:03Z</time>
      </trkpt>
      <trkpt lat="46.80507" lon="4.70909">
        <ele>318.963709</ele>
        <time>2011-01-30T15:18:06Z</time>
      </trkpt>
      <trkpt lat="46.80493" lon="4.70873">
        <ele>315.347982</ele>
        <time>2011-01-30T15:18:09Z</time>
      </trkpt>
      <trkpt lat="46.80484" lon="4.70846">
        <ele>311.154551</ele>
        <time>2011-01-30T15:18:12Z</time>
      </trkpt>
      <trkpt lat="46.80484" lon="4.70846">
        <ele>307.182502</ele>
        <time>2011-01-30T15:18:15Z</time>
      </trkpt>
      <trkpt lat="46.80484" lon="4.70846">
        <ele>304.715587</ele>
        <time>2011-01-30T15:18:43Z</time>
      </trkpt>
      <trkpt lat="46.80497" lon="4.70852">
        <ele>303.509008</ele>
        <time>2011-01-30T15:18:55Z</time>
      </trkpt>
      <trkpt lat="46.80504" lon="4.7086">
        <ele>301.869062</ele>
        <time>2011-01-30T15:18:59Z</time>
      </trkpt>
      <trkpt lat="46.80514" lon="4.70869">
        <ele>299.158714</ele>
        <time>2011-01-30T15:19:03Z</time>
      </trkpt>
      <trkpt lat="46.80524" lon="4.70878">
        <ele>294.931122</ele>
        <time>2011-01-30T15:19:06Z</time>
      </trkpt>
      <trkpt lat="46.80534" lon="4.7089">
        <ele>289.001363</ele>
        <time>2011-01-30T15:19:09Z</time>
      </trkpt>
      <trkpt lat="46.80548" lon="4.70904">
        <ele>283.07585</ele>
        <time>2011-01-30T15:19:12Z</time>
      </trkpt>
      <trkpt lat="46.8056" lon="4.70915">
        <ele>278.866492</ele>
        <time>2011-01-30T15:19:14Z</time>
      </trkpt>
      <trkpt lat="46.80573" lon="4.70928">
        <ele>274.69937</ele>
        <time>2011-01-30T15:19:16Z</time>
      </trkpt>
      <trkpt lat="46.80592" lon="4.70952">
        <ele>267.726315</ele>
        <time>2011-01-30T15:19:19Z</time>
      </trkpt>
      <trkpt lat="46.80608" lon="4.70979">
        <ele>258.58392</ele>
        <time>2011-01-30T15:19:22Z</time>
      </trkpt>
      <trkpt lat="46.80619" lon="4.70998">
        <ele>250.772317</ele>
        <time>2011-01-30T15:19:24Z</time>
      </trkpt>
      <trkpt lat="46.80637" lon="4.71024">
        <ele>245.878855</ele>
        <time>2011-01-30T15:19:27Z</time>
      </trkpt>
      <trkpt lat="46.80649" lon="4.71041">
        <ele>243.261663</ele>
        <time>2011-01-30T15:19:29Z</time>
      </trkpt>
      <trkpt lat="46.80668" lon="4.71065">
        <ele>242.035222</ele>
        <time>2011-01-30T15:19:32Z</time>
      </trkpt>
      <trkpt lat="46.80685" lon="4.71087">
        <ele>241.555672</ele>
        <time>2011-01-30T15:19:35Z</time>
      </trkpt>
      <trkpt lat="46.80697" lon="4.71101">
        <ele>241.295786</ele>
        <time>2011-01-30T15:19:37Z</time>
      </trkpt>
      <trkpt lat="46.80718" lon="4.71121">
        <ele>240.840893</ele>
        <time>2011-01-30T15:19:40Z</time>
      </trkpt>
      <trkpt lat="46.8074" lon="4.71139">
        <ele>239.989988</ele>
        <time>2011-01-30T15:19:43Z</time>
      </trkpt>
      <trkpt lat="46.80754" lon="4.71149">
        <ele>238.937839</ele>
        <time>2011-01-30T15:19:45Z</time>
      </trkpt>
      <trkpt lat="46.80766" lon="4.7116">
        <ele>237.971263</ele>
        <time>2011-01-30T15:19:47Z</time>
      </trkpt>
      <trkpt lat="46.80779" lon="4.71169">
        <ele>237.084859</ele>
        <time>2011-01-30T15:19:49Z</time>
      </trkpt>
      <trkpt lat="46.8079" lon="4.71179">
        <ele>236.146764</ele>
        <time>2011-01-30T15:19:51Z</time>
      </trkpt>
      <trkpt lat="46.80808" lon="4.71194">
        <ele>235.090828</ele>
        <time>2011-01-30T15:19:54Z</time>
      </trkpt>
      <trkpt lat="46.8082" lon="4.71205">
        <ele>234.075694</ele>
        <time>2011-01-30T15:19:56Z</time>
      </trkpt>
      <trkpt lat="46.80837" lon="4.71222">
        <ele>233.408429</ele>
        <time>2011-01-30T15:19:59Z</time>
      </trkpt>
      <trkpt lat="46.80855" lon="4.71241">
        <ele>233.163214</ele>
        <time>2011-01-30T15:20:02Z</time>
      </trkpt>
      <trkpt lat="46.80866" lon="4.71253">
        <ele>233.109631</ele>
        <time>2011-01-30T15:20:04Z</time>
      </trkpt>
      <trkpt lat="46.80884" lon="4.71272">
        <ele>233.051556</ele>
        <time>2011-01-30T15:20:07Z</time>
      </trkpt>
      <trkpt lat="46.80901" lon="4.71292">
        <ele>232.980773</ele>
        <time>2011-01-30T15:20:10Z</time>
      </trkpt>
      <trkpt lat="46.8092" lon="4.71314">
        <ele>232.944094</ele>
        <time>2011-01-30T15:20:13Z</time>
      </trkpt>
      <trkpt lat="46.80932" lon="4.7133">
        <ele>232.830002</ele>
        <time>2011-01-30T15:20:15Z</time>
      </trkpt>
      <trkpt lat="46.80943" lon="4.71346">
        <ele>232.476428</ele>
        <time>2011-01-30T15:20:17Z</time>
      </trkpt>
      <trkpt lat="46.80954" lon="4.71363">
        <ele>231.91305</ele>
        <time>2011-01-30T15:20:19Z</time>
      </trkpt>
      <trkpt lat="46.8097" lon="4.71388">
        <ele>231.307707</ele>
        <time>2011-01-30T15:20:22Z</time>
      </trkpt>
      <trkpt lat="46.80981" lon="4.71406">
        <ele>230.735381</ele>
        <time>2011-01-30T15:20:24Z</time>
      </trkpt>
      <trkpt lat="46.8099" lon="4.71426">
        <ele>230.165994</ele>
        <time>2011-01-30T15:20:26Z</time>
      </trkpt>
      <trkpt lat="46.80998" lon="4.7146">
        <ele>229.517032</ele>
        <time>2011-01-30T15:20:29Z</time>
      </trkpt>
      <trkpt lat="46.81004" lon="4.71492">
        <ele>228.759906</ele>
        <time>2011-01-30T15:20:32Z</time>
      </trkpt>
      <trkpt lat="46.81007" lon="4.71513">
        <ele>227.962109</ele>
        <time>2011-01-30T15:20:34Z</time>
      </trkpt>
      <trkpt lat="46.81009" lon="4.71542">
        <ele>227.138596</ele>
        <time>2011-01-30T15:20:37Z</time>
      </trkpt>
      <trkpt lat="46.81011" lon="4.71561">
        <ele>226.223802</ele>
        <time>2011-01-30T15:20:39Z</time>
      </trkpt>
      <trkpt lat="46.81014" lon="4.71589">
        <ele>225.278026</ele>
        <time>2011-01-30T15:20:42Z</time>
      </trkpt>
      <trkpt lat="46.81019" lon="4.71617">
        <ele>224.436284</ele>
        <time>2011-01-30T15:20:45Z</time>
      </trkpt>
      <trkpt lat="46.81026" lon="4.71641">
        <ele>223.658413</ele>
        <time>2011-01-30T15:20:48Z</time>
      </trkpt>
      <trkpt lat="46.81031" lon="4.71656">
        <ele>222.729639</ele>
        <time>2011-01-30T15:20:50Z</time>
      </trkpt>
      <trkpt lat="46.81035" lon="4.71673">
        <ele>221.430386</ele>
        <time>2011-01-30T15:20:52Z</time>
      </trkpt>
      <trkpt lat="46.81042" lon="4.71698">
        <ele>219.787044</ele>
        <time>2011-01-30T15:20:55Z</time>
      </trkpt>
      <trkpt lat="46.81047" lon="4.71724">
        <ele>218.205076</ele>
        <time>2011-01-30T15:20:58Z</time>
      </trkpt>
      <trkpt lat="46.8105" lon="4.71741">
        <ele>217.108723</ele>
        <time>2011-01-30T15:21:00Z</time>
      </trkpt>
      <trkpt lat="46.81053" lon="4.71758">
        <ele>216.548813</ele>
        <time>2011-01-30T15:21:02Z</time>
      </trkpt>
      <trkpt lat="46.81058" lon="4.71784">
        <ele>216.305303</ele>
        <time>2011-01-30T15:21:05Z</time>
      </trkpt>
      <trkpt lat="46.81062" lon="4.71811">
        <ele>216.12556</ele>
        <time>2011-01-30T15:21:08Z</time>
      </trkpt>
      <trkpt lat="46.81067" lon="4.71836">
        <ele>215.850496</ele>
        <time>2011-01-30T15:21:11Z</time>
      </trkpt>
      <trkpt lat="46.81073" lon="4.71863">
        <ele>215.396867</ele>
        <time>2011-01-30T15:21:14Z</time>
      </trkpt>
      <trkpt lat="46.81077" lon="4.7188">
        <ele>214.693722</ele>
        <time>2011-01-30T15:21:16Z</time>
      </trkpt>
      <trkpt lat="46.81082" lon="4.71907">
        <ele>213.743196</ele>
        <time>2011-01-30T15:21:19Z</time>
      </trkpt>
      <trkpt lat="46.81087" lon="4.71925">
        <ele>212.7105</ele>
        <time>2011-01-30T15:21:21Z</time>
      </trkpt>
      <trkpt lat="46.81092" lon="4.71953">
        <ele>211.83299</ele>
        <time>2011-01-30T15:21:24Z</time>
      </trkpt>
      <trkpt lat="46.81095" lon="4.71971">
        <ele>211.079675</ele>
        <time>2011-01-30T15:21:26Z</time>
      </trkpt>
      <trkpt lat="46.81097" lon="4.71988">
        <ele>210.206343</ele>
        <time>2011-01-30T15:21:28Z</time>
      </trkpt>
      <trkpt lat="46.81099" lon="4.72005">
        <ele>209.029539</ele>
        <time>2011-01-30T15:21:30Z</time>
      </trkpt>
      <trkpt lat="46.811" lon="4.72023">
        <ele>207.579112</ele>
        <time>2011-01-30T15:21:32Z</time>
      </trkpt>
      <trkpt lat="46.81101" lon="4.72049">
        <ele>206.205854</ele>
        <time>2011-01-30T15:21:35Z</time>
      </trkpt>
      <trkpt lat="46.81102" lon="4.72065">
        <ele>205.29471</ele>
        <time>2011-01-30T15:21:37Z</time>
      </trkpt>
      <trkpt lat="46.81103" lon="4.72091">
        <ele>204.842114</ele>
        <time>2011-01-30T15:21:40Z</time>
      </trkpt>
      <trkpt lat="46.81103" lon="4.72108">
        <ele>204.639323</ele>
        <time>2011-01-30T15:21:42Z</time>
      </trkpt>
      <trkpt lat="46.81104" lon="4.72135">
        <ele>204.492277</ele>
        <time>2011-01-30T15:21:45Z</time>
      </trkpt>
      <trkpt lat="46.81105" lon="4.72153">
        <ele>204.262733</ele>
        <time>2011-01-30T15:21:47Z</time>
      </trkpt>
      <trkpt lat="46.81105" lon="4.7218">
        <ele>203.940689</ele>
        <time>2011-01-30T15:21:50Z</time>
      </trkpt>
      <trkpt lat="46.81105" lon="4.72208">
        <ele>203.636798</ele>
        <time>2011-01-30T15:21:53Z</time>
      </trkpt>
      <trkpt lat="46.81104" lon="4.72227">
        <ele>203.436573</ele>
        <time>2011-01-30T15:21:55Z</time>
      </trkpt>
      <trkpt lat="46.81102" lon="4.72246">
        <ele>203.336085</ele>
        <time>2011-01-30T15:21:57Z</time>
      </trkpt>
      <trkpt lat="46.81099" lon="4.72265">
        <ele>203.27154</ele>
        <time>2011-01-30T15:21:59Z</time>
      </trkpt>
      <trkpt lat="46.81094" lon="4.72291">
        <ele>203.147617</ele>
        <time>2011-01-30T15:22:02Z</time>
      </trkpt>
      <trkpt lat="46.81089" lon="4.72308">
        <ele>202.92249</ele>
        <time>2011-01-30T15:22:04Z</time>
      </trkpt>
      <trkpt lat="46.81083" lon="4.72324">
        <ele>202.644986</ele>
        <time>2011-01-30T15:22:06Z</time>
      </trkpt>
      <trkpt lat="46.81076" lon="4.7235">
        <ele>202.367652</ele>
        <time>2011-01-30T15:22:09Z</time>
      </trkpt>
      <trkpt lat="46.81071" lon="4.72367">
        <ele>202.096523</ele>
        <time>2011-01-30T15:22:11Z</time>
      </trkpt>
      <trkpt lat="46.81067" lon="4.72386">
        <ele>201.819265</ele>
        <time>2011-01-30T15:22:13Z</time>
      </trkpt>
      <trkpt lat="46.81063" lon="4.72414">
        <ele>201.497885</ele>
        <time>2011-01-30T15:22:16Z</time>
      </trkpt>
      <trkpt lat="46.81063" lon="4.72445">
        <ele>201.128578</ele>
        <time>2011-01-30T15:22:19Z</time>
      </trkpt>
      <trkpt lat="46.81064" lon="4.72477">
        <ele>200.752411</ele>
        <time>2011-01-30T15:22:22Z</time>
      </trkpt>
      <trkpt lat="46.81065" lon="4.72508">
        <ele>200.230301</ele>
        <time>2011-01-30T15:22:25Z</time>
      </trkpt>
      <trkpt lat="46.81065" lon="4.72528">
        <ele>199.174498</ele>
        <time>2011-01-30T15:22:27Z</time>
      </trkpt>
      <trkpt lat="46.81067" lon="4.72558">
        <ele>197.24862</ele>
        <time>2011-01-30T15:22:30Z</time>
      </trkpt>
      <trkpt lat="46.81068" lon="4.72578">
        <ele>194.594245</ele>
        <time>2011-01-30T15:22:32Z</time>
      </trkpt>
      <trkpt lat="46.81068" lon="4.72608">
        <ele>192.022209</ele>
        <time>2011-01-30T15:22:35Z</time>
      </trkpt>
      <trkpt lat="46.81068" lon="4.72629">
        <ele>190.344024</ele>
        <time>2011-01-30T15:22:37Z</time>
      </trkpt>
      <trkpt lat="46.81068" lon="4.72658">
        <ele>189.642957</ele>
        <time>2011-01-30T15:22:40Z</time>
      </trkpt>
      <trkpt lat="46.81068" lon="4.72686">
        <ele>189.50743</ele>
        <time>2011-01-30T15:22:43Z</time>
      </trkpt>
      <trkpt lat="46.81068" lon="4.72713">
        <ele>189.532856</ele>
        <time>2011-01-30T15:22:46Z</time>
      </trkpt>
      <trkpt lat="46.8107" lon="4.72741">
        <ele>189.479805</ele>
        <time>2011-01-30T15:22:49Z</time>
      </trkpt>
      <trkpt lat="46.81077" lon="4.72764">
        <ele>189.333306</ele>
        <time>2011-01-30T15:22:52Z</time>
      </trkpt>
      <trkpt lat="46.8109" lon="4.72783">
        <ele>189.193742</ele>
        <time>2011-01-30T15:22:55Z</time>
      </trkpt>
      <trkpt lat="46.81107" lon="4.72798">
        <ele>189.123645</ele>
        <time>2011-01-30T15:22:58Z</time>
      </trkpt>
      <trkpt lat="46.81124" lon="4.72813">
        <ele>189.110699</ele>
        <time>2011-01-30T15:23:01Z</time>
      </trkpt>
      <trkpt lat="46.81134" lon="4.72825">
        <ele>189.217199</ele>
        <time>2011-01-30T15:23:03Z</time>
      </trkpt>
      <trkpt lat="46.81147" lon="4.72845">
        <ele>189.541952</ele>
        <time>2011-01-30T15:23:06Z</time>
      </trkpt>
      <trkpt lat="46.81153" lon="4.7286">
        <ele>190.04147</ele>
        <time>2011-01-30T15:23:08Z</time>
      </trkpt>
      <trkpt lat="46.81157" lon="4.72876">
        <ele>190.677007</ele>
        <time>2011-01-30T15:23:10Z</time>
      </trkpt>
      <trkpt lat="46.8116" lon="4.72892">
        <ele>191.571778</ele>
        <time>2011-01-30T15:23:12Z</time>
      </trkpt>
      <trkpt lat="46.81164" lon="4.72914">
        <ele>192.667631</ele>
        <time>2011-01-30T15:23:15Z</time>
      </trkpt>
      <trkpt lat="46.81167" lon="4.72934">
        <ele>193.583908</ele>
        <time>2011-01-30T15:23:18Z</time>
      </trkpt>
      <trkpt lat="46.81168" lon="4.72948">
        <ele>194.065672</ele>
        <time>2011-01-30T15:23:20Z</time>
      </trkpt>
      <trkpt lat="46.8117" lon="4.7297">
        <ele>194.22632</ele>
        <time>2011-01-30T15:23:23Z</time>
      </trkpt>
      <trkpt lat="46.81173" lon="4.72992">
        <ele>194.262119</ele>
        <time>2011-01-30T15:23:26Z</time>
      </trkpt>
      <trkpt lat="46.81176" lon="4.73013">
        <ele>194.287914</ele>
        <time>2011-01-30T15:23:29Z</time>
      </trkpt>
      <trkpt lat="46.81179" lon="4.73027">
        <ele>194.473127</ele>
        <time>2011-01-30T15:23:31Z</time>
      </trkpt>
      <trkpt lat="46.8118" lon="4.73041">
        <ele>194.940385</ele>
        <time>2011-01-30T15:23:33Z</time>
      </trkpt>
      <trkpt lat="46.81184" lon="4.73061">
        <ele>195.559978</ele>
        <time>2011-01-30T15:23:36Z</time>
      </trkpt>
      <trkpt lat="46.81187" lon="4.73075">
        <ele>196.128201</ele>
        <time>2011-01-30T15:23:38Z</time>
      </trkpt>
      <trkpt lat="46.81191" lon="4.73096">
        <ele>196.587169</ele>
        <time>2011-01-30T15:23:41Z</time>
      </trkpt>
      <trkpt lat="46.81197" lon="4.73116">
        <ele>196.975374</ele>
        <time>2011-01-30T15:23:44Z</time>
      </trkpt>
      <trkpt lat="46.81202" lon="4.73129">
        <ele>197.339736</ele>
        <time>2011-01-30T15:23:46Z</time>
      </trkpt>
      <trkpt lat="46.81209" lon="4.73148">
        <ele>197.692451</ele>
        <time>2011-01-30T15:23:49Z</time>
      </trkpt>
      <trkpt lat="46.81214" lon="4.7316">
        <ele>198.039768</ele>
        <time>2011-01-30T15:23:51Z</time>
      </trkpt>
      <trkpt lat="46.8122" lon="4.73172">
        <ele>198.388313</ele>
        <time>2011-01-30T15:23:53Z</time>
      </trkpt>
      <trkpt lat="46.81228" lon="4.7319">
        <ele>198.678097</ele>
        <time>2011-01-30T15:23:56Z</time>
      </trkpt>
      <trkpt lat="46.81233" lon="4.73203">
        <ele>198.836605</ele>
        <time>2011-01-30T15:23:58Z</time>
      </trkpt>
      <trkpt lat="46.81239" lon="4.73223">
        <ele>198.890816</ele>
        <time>2011-01-30T15:24:01Z</time>
      </trkpt>
      <trkpt lat="46.81244" lon="4.7324">
        <ele>198.918995</ele>
        <time>2011-01-30T15:24:04Z</time>
      </trkpt>
      <trkpt lat="46.81249" lon="4.73254">
        <ele>198.942323</ele>
        <time>2011-01-30T15:24:07Z</time>
      </trkpt>
      <trkpt lat="46.81256" lon="4.73269">
        <ele>198.951836</ele>
        <time>2011-01-30T15:24:10Z</time>
      </trkpt>
      <trkpt lat="46.81261" lon="4.7328">
        <ele>199.006167</ele>
        <time>2011-01-30T15:24:12Z</time>
      </trkpt>
      <trkpt lat="46.81266" lon="4.73293">
        <ele>199.166188</ele>
        <time>2011-01-30T15:24:14Z</time>
      </trkpt>
      <trkpt lat="46.81274" lon="4.73312">
        <ele>199.419689</ele>
        <time>2011-01-30T15:24:17Z</time>
      </trkpt>
      <trkpt lat="46.8128" lon="4.73326">
        <ele>199.721736</ele>
        <time>2011-01-30T15:24:19Z</time>
      </trkpt>
      <trkpt lat="46.81284" lon="4.73343">
        <ele>200.037281</ele>
        <time>2011-01-30T15:24:21Z</time>
      </trkpt>
      <trkpt lat="46.8129" lon="4.7337">
        <ele>200.362853</ele>
        <time>2011-01-30T15:24:24Z</time>
      </trkpt>
      <trkpt lat="46.81301" lon="4.73395">
        <ele>200.674347</ele>
        <time>2011-01-30T15:24:27Z</time>
      </trkpt>
      <trkpt lat="46.81316" lon="4.73419">
        <ele>200.877893</ele>
        <time>2011-01-30T15:24:30Z</time>
      </trkpt>
      <trkpt lat="46.81326" lon="4.73437">
        <ele>200.942201</ele>
        <time>2011-01-30T15:24:32Z</time>
      </trkpt>
      <trkpt lat="46.81341" lon="4.7346">
        <ele>200.876986</ele>
        <time>2011-01-30T15:24:35Z</time>
      </trkpt>
      <trkpt lat="46.81356" lon="4.73481">
        <ele>200.705888</ele>
        <time>2011-01-30T15:24:38Z</time>
      </trkpt>
      <trkpt lat="46.81366" lon="4.73491">
        <ele>200.516705</ele>
        <time>2011-01-30T15:24:40Z</time>
      </trkpt>
      <trkpt lat="46.8138" lon="4.73505">
        <ele>200.375404</ele>
        <time>2011-01-30T15:24:43Z</time>
      </trkpt>
      <trkpt lat="46.81391" lon="4.73515">
        <ele>200.271656</ele>
        <time>2011-01-30T15:24:45Z</time>
      </trkpt>
      <trkpt lat="46.81401" lon="4.73524">
        <ele>200.090444</ele>
        <time>2011-01-30T15:24:47Z</time>
      </trkpt>
      <trkpt lat="46.81416" lon="4.73539">
        <ele>199.611521</ele>
        <time>2011-01-30T15:24:50Z</time>
      </trkpt>
      <trkpt lat="46.81426" lon="4.73548">
        <ele>198.819913</ele>
        <time>2011-01-30T15:24:52Z</time>
      </trkpt>
      <trkpt lat="46.8144" lon="4.73562">
        <ele>197.96433</ele>
        <time>2011-01-30T15:24:55Z</time>
      </trkpt>
      <trkpt lat="46.81449" lon="4.73572">
        <ele>197.186412</ele>
        <time>2011-01-30T15:24:57Z</time>
      </trkpt>
      <trkpt lat="46.81463" lon="4.73586">
        <ele>196.467425</ele>
        <time>2011-01-30T15:25:00Z</time>
      </trkpt>
      <trkpt lat="46.81477" lon="4.736">
        <ele>195.820421</ele>
        <time>2011-01-30T15:25:03Z</time>
      </trkpt>
      <trkpt lat="46.8149" lon="4.73613">
        <ele>195.299333</ele>
        <time>2011-01-30T15:25:06Z</time>
      </trkpt>
      <trkpt lat="46.81498" lon="4.73622">
        <ele>194.949109</ele>
        <time>2011-01-30T15:25:08Z</time>
      </trkpt>
      <trkpt lat="46.8151" lon="4.73635">
        <ele>194.739615</ele>
        <time>2011-01-30T15:25:11Z</time>
      </trkpt>
      <trkpt lat="46.81517" lon="4.73643">
        <ele>194.556992</ele>
        <time>2011-01-30T15:25:13Z</time>
      </trkpt>
      <trkpt lat="46.81529" lon="4.73654">
        <ele>194.319594</ele>
        <time>2011-01-30T15:25:16Z</time>
      </trkpt>
      <trkpt lat="46.81539" lon="4.73664">
        <ele>193.963078</ele>
        <time>2011-01-30T15:25:19Z</time>
      </trkpt>
      <trkpt lat="46.81548" lon="4.73677">
        <ele>193.492379</ele>
        <time>2011-01-30T15:25:22Z</time>
      </trkpt>
      <trkpt lat="46.81557" lon="4.7369">
        <ele>193.070314</ele>
        <time>2011-01-30T15:25:25Z</time>
      </trkpt>
      <trkpt lat="46.81564" lon="4.73703">
        <ele>192.849937</ele>
        <time>2011-01-30T15:25:28Z</time>
      </trkpt>
      <trkpt lat="46.8157" lon="4.73716">
        <ele>192.804476</ele>
        <time>2011-01-30T15:25:31Z</time>
      </trkpt>
      <trkpt lat="46.81577" lon="4.7373">
        <ele>192.871771</ele>
        <time>2011-01-30T15:25:34Z</time>
      </trkpt>
      <trkpt lat="46.81582" lon="4.73742">
        <ele>193.043547</ele>
        <time>2011-01-30T15:25:37Z</time>
      </trkpt>
      <trkpt lat="46.81588" lon="4.73755">
        <ele>193.267316</ele>
        <time>2011-01-30T15:25:40Z</time>
      </trkpt>
      <trkpt lat="46.81593" lon="4.73768">
        <ele>193.447552</ele>
        <time>2011-01-30T15:25:43Z</time>
      </trkpt>
      <trkpt lat="46.81598" lon="4.73781">
        <ele>193.563288</ele>
        <time>2011-01-30T15:25:46Z</time>
      </trkpt>
      <trkpt lat="46.81603" lon="4.73793">
        <ele>193.657189</ele>
        <time>2011-01-30T15:25:49Z</time>
      </trkpt>
      <trkpt lat="46.81607" lon="4.73805">
        <ele>193.757165</ele>
        <time>2011-01-30T15:25:52Z</time>
      </trkpt>
      <trkpt lat="46.81611" lon="4.73817">
        <ele>193.86769</ele>
        <time>2011-01-30T15:25:55Z</time>
      </trkpt>
      <trkpt lat="46.81616" lon="4.7383">
        <ele>193.995663</ele>
        <time>2011-01-30T15:25:58Z</time>
      </trkpt>
      <trkpt lat="46.8162" lon="4.73844">
        <ele>194.160959</ele>
        <time>2011-01-30T15:26:01Z</time>
      </trkpt>
      <trkpt lat="46.81623" lon="4.73858">
        <ele>194.386561</ele>
        <time>2011-01-30T15:26:04Z</time>
      </trkpt>
      <trkpt lat="46.81625" lon="4.73872">
        <ele>194.673157</ele>
        <time>2011-01-30T15:26:07Z</time>
      </trkpt>
      <trkpt lat="46.81627" lon="4.73886">
        <ele>194.99057</ele>
        <time>2011-01-30T15:26:10Z</time>
      </trkpt>
      <trkpt lat="46.8163" lon="4.73898">
        <ele>195.311838</ele>
        <time>2011-01-30T15:26:13Z</time>
      </trkpt>
      <trkpt lat="46.81633" lon="4.73911">
        <ele>195.642254</ele>
        <time>2011-01-30T15:26:16Z</time>
      </trkpt>
      <trkpt lat="46.81635" lon="4.73925">
        <ele>196.006037</ele>
        <time>2011-01-30T15:26:19Z</time>
      </trkpt>
      <trkpt lat="46.81638" lon="4.73939">
        <ele>196.418863</ele>
        <time>2011-01-30T15:26:22Z</time>
      </trkpt>
      <trkpt lat="46.81639" lon="4.73955">
        <ele>196.873689</ele>
        <time>2011-01-30T15:26:25Z</time>
      </trkpt>
      <trkpt lat="46.81642" lon="4.73971">
        <ele>197.348202</ele>
        <time>2011-01-30T15:26:28Z</time>
      </trkpt>
      <trkpt lat="46.81644" lon="4.73989">
        <ele>197.822464</ele>
        <time>2011-01-30T15:26:31Z</time>
      </trkpt>
      <trkpt lat="46.81645" lon="4.74002">
        <ele>198.287247</ele>
        <time>2011-01-30T15:26:33Z</time>
      </trkpt>
      <trkpt lat="46.81647" lon="4.74022">
        <ele>198.73518</ele>
        <time>2011-01-30T15:26:36Z</time>
      </trkpt>
      <trkpt lat="46.8165" lon="4.74042">
        <ele>199.550065</ele>
        <time>2011-01-30T15:26:39Z</time>
      </trkpt>
      <trkpt lat="46.81652" lon="4.74057">
        <ele>201.110436</ele>
        <time>2011-01-30T15:26:41Z</time>
      </trkpt>
      <trkpt lat="46.81654" lon="4.74071">
        <ele>203.034029</ele>
        <time>2011-01-30T15:26:43Z</time>
      </trkpt>
      <trkpt lat="46.81656" lon="4.74094">
        <ele>204.648893</ele>
        <time>2011-01-30T15:26:46Z</time>
      </trkpt>
      <trkpt lat="46.81657" lon="4.74118">
        <ele>205.659835</ele>
        <time>2011-01-30T15:26:49Z</time>
      </trkpt>
      <trkpt lat="46.81657" lon="4.74143">
        <ele>206.049922</ele>
        <time>2011-01-30T15:26:52Z</time>
      </trkpt>
      <trkpt lat="46.81656" lon="4.74161">
        <ele>206.055215</ele>
        <time>2011-01-30T15:26:54Z</time>
      </trkpt>
      <trkpt lat="46.81653" lon="4.74188">
        <ele>205.851104</ele>
        <time>2011-01-30T15:26:57Z</time>
      </trkpt>
      <trkpt lat="46.8165" lon="4.74218">
        <ele>205.39445</ele>
        <time>2011-01-30T15:27:00Z</time>
      </trkpt>
      <trkpt lat="46.81645" lon="4.74251">
        <ele>204.786143</ele>
        <time>2011-01-30T15:27:03Z</time>
      </trkpt>
      <trkpt lat="46.81641" lon="4.74286">
        <ele>204.336766</ele>
        <time>2011-01-30T15:27:06Z</time>
      </trkpt>
      <trkpt lat="46.81637" lon="4.74321">
        <ele>204.17217</ele>
        <time>2011-01-30T15:27:09Z</time>
      </trkpt>
      <trkpt lat="46.81632" lon="4.74358">
        <ele>204.205336</ele>
        <time>2011-01-30T15:27:12Z</time>
      </trkpt>
      <trkpt lat="46.81627" lon="4.74395">
        <ele>204.359623</ele>
        <time>2011-01-30T15:27:15Z</time>
      </trkpt>
      <trkpt lat="46.81622" lon="4.74431">
        <ele>204.548658</ele>
        <time>2011-01-30T15:27:18Z</time>
      </trkpt>
      <trkpt lat="46.81614" lon="4.74465">
        <ele>204.675762</ele>
        <time>2011-01-30T15:27:21Z</time>
      </trkpt>
      <trkpt lat="46.81606" lon="4.74498">
        <ele>204.717479</ele>
        <time>2011-01-30T15:27:24Z</time>
      </trkpt>
      <trkpt lat="46.81601" lon="4.7452">
        <ele>204.621997</ele>
        <time>2011-01-30T15:27:26Z</time>
      </trkpt>
      <trkpt lat="46.81596" lon="4.74542">
        <ele>204.227674</ele>
        <time>2011-01-30T15:27:28Z</time>
      </trkpt>
      <trkpt lat="46.81588" lon="4.74574">
        <ele>203.446841</ele>
        <time>2011-01-30T15:27:31Z</time>
      </trkpt>
      <trkpt lat="46.81583" lon="4.74596">
        <ele>202.439899</ele>
        <time>2011-01-30T15:27:33Z</time>
      </trkpt>
      <trkpt lat="46.81576" lon="4.74628">
        <ele>201.484449</ele>
        <time>2011-01-30T15:27:36Z</time>
      </trkpt>
      <trkpt lat="46.81569" lon="4.74661">
        <ele>200.785228</ele>
        <time>2011-01-30T15:27:39Z</time>
      </trkpt>
      <trkpt lat="46.81564" lon="4.74683">
        <ele>200.405077</ele>
        <time>2011-01-30T15:27:41Z</time>
      </trkpt>
      <trkpt lat="46.81557" lon="4.74716">
        <ele>200.268119</ele>
        <time>2011-01-30T15:27:44Z</time>
      </trkpt>
      <trkpt lat="46.81549" lon="4.74749">
        <ele>200.209577</ele>
        <time>2011-01-30T15:27:47Z</time>
      </trkpt>
      <trkpt lat="46.81541" lon="4.74778">
        <ele>200.10308</ele>
        <time>2011-01-30T15:27:50Z</time>
      </trkpt>
      <trkpt lat="46.81536" lon="4.74798">
        <ele>199.881069</ele>
        <time>2011-01-30T15:27:52Z</time>
      </trkpt>
      <trkpt lat="46.81529" lon="4.74826">
        <ele>199.424345</ele>
        <time>2011-01-30T15:27:55Z</time>
      </trkpt>
      <trkpt lat="46.81521" lon="4.74853">
        <ele>198.681647</ele>
        <time>2011-01-30T15:27:58Z</time>
      </trkpt>
      <trkpt lat="46.81512" lon="4.74879">
        <ele>197.88107</ele>
        <time>2011-01-30T15:28:01Z</time>
      </trkpt>
      <trkpt lat="46.81503" lon="4.74903">
        <ele>197.309868</ele>
        <time>2011-01-30T15:28:04Z</time>
      </trkpt>
      <trkpt lat="46.81497" lon="4.74918">
        <ele>196.970805</ele>
        <time>2011-01-30T15:28:06Z</time>
      </trkpt>
      <trkpt lat="46.81489" lon="4.74941">
        <ele>196.668796</ele>
        <time>2011-01-30T15:28:09Z</time>
      </trkpt>
      <trkpt lat="46.81485" lon="4.74956">
        <ele>196.280841</ele>
        <time>2011-01-30T15:28:11Z</time>
      </trkpt>
      <trkpt lat="46.81481" lon="4.74979">
        <ele>195.858656</ele>
        <time>2011-01-30T15:28:14Z</time>
      </trkpt>
      <trkpt lat="46.81479" lon="4.75003">
        <ele>195.499273</ele>
        <time>2011-01-30T15:28:17Z</time>
      </trkpt>
      <trkpt lat="46.8148" lon="4.75026">
        <ele>195.210017</ele>
        <time>2011-01-30T15:28:20Z</time>
      </trkpt>
      <trkpt lat="46.81481" lon="4.7504">
        <ele>194.886114</ele>
        <time>2011-01-30T15:28:22Z</time>
      </trkpt>
      <trkpt lat="46.81481" lon="4.75061">
        <ele>194.385961</ele>
        <time>2011-01-30T15:28:25Z</time>
      </trkpt>
      <trkpt lat="46.81481" lon="4.75076">
        <ele>193.696099</ele>
        <time>2011-01-30T15:28:27Z</time>
      </trkpt>
      <trkpt lat="46.81481" lon="4.75091">
        <ele>192.962917</ele>
        <time>2011-01-30T15:28:29Z</time>
      </trkpt>
      <trkpt lat="46.81482" lon="4.75114">
        <ele>192.277393</ele>
        <time>2011-01-30T15:28:32Z</time>
      </trkpt>
      <trkpt lat="46.81482" lon="4.7513">
        <ele>191.668521</ele>
        <time>2011-01-30T15:28:34Z</time>
      </trkpt>
      <trkpt lat="46.81481" lon="4.75145">
        <ele>191.216373</ele>
        <time>2011-01-30T15:28:36Z</time>
      </trkpt>
      <trkpt lat="46.81479" lon="4.75168">
        <ele>190.87182</ele>
        <time>2011-01-30T15:28:39Z</time>
      </trkpt>
      <trkpt lat="46.81478" lon="4.75181">
        <ele>190.439275</ele>
        <time>2011-01-30T15:28:41Z</time>
      </trkpt>
      <trkpt lat="46.81478" lon="4.75198">
        <ele>189.88409</ele>
        <time>2011-01-30T15:28:44Z</time>
      </trkpt>
      <trkpt lat="46.81479" lon="4.75212">
        <ele>189.313332</ele>
        <time>2011-01-30T15:28:47Z</time>
      </trkpt>
      <trkpt lat="46.81487" lon="4.7522">
        <ele>188.759878</ele>
        <time>2011-01-30T15:28:51Z</time>
      </trkpt>
      <trkpt lat="46.81499" lon="4.75224">
        <ele>188.262123</ele>
        <time>2011-01-30T15:28:55Z</time>
      </trkpt>
      <trkpt lat="46.8151" lon="4.75223">
        <ele>187.930735</ele>
        <time>2011-01-30T15:28:58Z</time>
      </trkpt>
      <trkpt lat="46.81522" lon="4.7522">
        <ele>187.802634</ele>
        <time>2011-01-30T15:29:01Z</time>
      </trkpt>
      <trkpt lat="46.81533" lon="4.75216">
        <ele>187.800727</ele>
        <time>2011-01-30T15:29:04Z</time>
      </trkpt>
      <trkpt lat="46.81545" lon="4.75213">
        <ele>187.889459</ele>
        <time>2011-01-30T15:29:07Z</time>
      </trkpt>
      <trkpt lat="46.81556" lon="4.75207">
        <ele>188.110371</ele>
        <time>2011-01-30T15:29:10Z</time>
      </trkpt>
      <trkpt lat="46.81567" lon="4.75199">
        <ele>188.460312</ele>
        <time>2011-01-30T15:29:13Z</time>
      </trkpt>
      <trkpt lat="46.81578" lon="4.75198">
        <ele>188.839209</ele>
        <time>2011-01-30T15:29:16Z</time>
      </trkpt>
      <trkpt lat="46.81586" lon="4.75208">
        <ele>189.12129</ele>
        <time>2011-01-30T15:29:20Z</time>
      </trkpt>
      <trkpt lat="46.81592" lon="4.7522">
        <ele>189.261085</ele>
        <time>2011-01-30T15:29:24Z</time>
      </trkpt>
      <trkpt lat="46.81599" lon="4.7523">
        <ele>189.310207</ele>
        <time>2011-01-30T15:29:27Z</time>
      </trkpt>
      <trkpt lat="46.81607" lon="4.75238">
        <ele>189.320774</ele>
        <time>2011-01-30T15:29:30Z</time>
      </trkpt>
      <trkpt lat="46.81616" lon="4.75241">
        <ele>189.314955</ele>
        <time>2011-01-30T15:29:33Z</time>
      </trkpt>
      <trkpt lat="46.81628" lon="4.75241">
        <ele>189.326293</ele>
        <time>2011-01-30T15:29:37Z</time>
      </trkpt>
      <trkpt lat="46.81638" lon="4.75239">
        <ele>189.401105</ele>
        <time>2011-01-30T15:29:40Z</time>
      </trkpt>
      <trkpt lat="46.81648" lon="4.75236">
        <ele>189.559233</ele>
        <time>2011-01-30T15:29:43Z</time>
      </trkpt>
      <trkpt lat="46.81657" lon="4.75231">
        <ele>189.781174</ele>
        <time>2011-01-30T15:29:46Z</time>
      </trkpt>
      <trkpt lat="46.81666" lon="4.75224">
        <ele>190.031665</ele>
        <time>2011-01-30T15:29:49Z</time>
      </trkpt>
      <trkpt lat="46.81676" lon="4.75217">
        <ele>190.278534</ele>
        <time>2011-01-30T15:29:52Z</time>
      </trkpt>
      <trkpt lat="46.81686" lon="4.7521">
        <ele>190.513277</ele>
        <time>2011-01-30T15:29:55Z</time>
      </trkpt>
      <trkpt lat="46.81698" lon="4.75204">
        <ele>190.754484</ele>
        <time>2011-01-30T15:29:58Z</time>
      </trkpt>
      <trkpt lat="46.8171" lon="4.752">
        <ele>191.019072</ele>
        <time>2011-01-30T15:30:01Z</time>
      </trkpt>
      <trkpt lat="46.81723" lon="4.75198">
        <ele>191.477157</ele>
        <time>2011-01-30T15:30:04Z</time>
      </trkpt>
      <trkpt lat="46.81735" lon="4.75197">
        <ele>192.334565</ele>
        <time>2011-01-30T15:30:07Z</time>
      </trkpt>
      <trkpt lat="46.81747" lon="4.75197">
        <ele>193.410127</ele>
        <time>2011-01-30T15:30:10Z</time>
      </trkpt>
      <trkpt lat="46.81759" lon="4.75198">
        <ele>194.254805</ele>
        <time>2011-01-30T15:30:13Z</time>
      </trkpt>
      <trkpt lat="46.81771" lon="4.75198">
        <ele>194.664217</ele>
        <time>2011-01-30T15:30:16Z</time>
      </trkpt>
      <trkpt lat="46.81785" lon="4.75198">
        <ele>194.744397</ele>
        <time>2011-01-30T15:30:19Z</time>
      </trkpt>
      <trkpt lat="46.81798" lon="4.75199">
        <ele>194.701555</ele>
        <time>2011-01-30T15:30:22Z</time>
      </trkpt>
      <trkpt lat="46.81811" lon="4.752">
        <ele>194.664033</ele>
        <time>2011-01-30T15:30:25Z</time>
      </trkpt>
      <trkpt lat="46.81825" lon="4.752">
        <ele>194.675185</ele>
        <time>2011-01-30T15:30:28Z</time>
      </trkpt>
      <trkpt lat="46.81838" lon="4.75201">
        <ele>194.749673</ele>
        <time>2011-01-30T15:30:31Z</time>
      </trkpt>
      <trkpt lat="46.81848" lon="4.75201">
        <ele>194.868652</ele>
        <time>2011-01-30T15:30:33Z</time>
      </trkpt>
      <trkpt lat="46.81863" lon="4.75202">
        <ele>194.979159</ele>
        <time>2011-01-30T15:30:36Z</time>
      </trkpt>
      <trkpt lat="46.8188" lon="4.75202">
        <ele>195.059559</ele>
        <time>2011-01-30T15:30:39Z</time>
      </trkpt>
      <trkpt lat="46.81896" lon="4.75203">
        <ele>195.181165</ele>
        <time>2011-01-30T15:30:42Z</time>
      </trkpt>
      <trkpt lat="46.81906" lon="4.75203">
        <ele>195.443206</ele>
        <time>2011-01-30T15:30:44Z</time>
      </trkpt>
      <trkpt lat="46.81922" lon="4.75202">
        <ele>195.849145</ele>
        <time>2011-01-30T15:30:47Z</time>
      </trkpt>
      <trkpt lat="46.81933" lon="4.75203">
        <ele>196.276735</ele>
        <time>2011-01-30T15:30:49Z</time>
      </trkpt>
      <trkpt lat="46.81948" lon="4.75203">
        <ele>196.579685</ele>
        <time>2011-01-30T15:30:52Z</time>
      </trkpt>
      <trkpt lat="46.81963" lon="4.75203">
        <ele>196.731244</ele>
        <time>2011-01-30T15:30:55Z</time>
      </trkpt>
      <trkpt lat="46.81977" lon="4.75204">
        <ele>196.824317</ele>
        <time>2011-01-30T15:30:58Z</time>
      </trkpt>
      <trkpt lat="46.81986" lon="4.75205">
        <ele>196.911527</ele>
        <time>2011-01-30T15:31:00Z</time>
      </trkpt>
      <trkpt lat="46.82" lon="4.75206">
        <ele>196.971485</ele>
        <time>2011-01-30T15:31:03Z</time>
      </trkpt>
      <trkpt lat="46.82013" lon="4.75206">
        <ele>197.067531</ele>
        <time>2011-01-30T15:31:06Z</time>
      </trkpt>
      <trkpt lat="46.82025" lon="4.75207">
        <ele>197.330785</ele>
        <time>2011-01-30T15:31:09Z</time>
      </trkpt>
      <trkpt lat="46.82036" lon="4.75207">
        <ele>197.766264</ele>
        <time>2011-01-30T15:31:12Z</time>
      </trkpt>
      <trkpt lat="46.82047" lon="4.75206">
        <ele>198.271638</ele>
        <time>2011-01-30T15:31:15Z</time>
      </trkpt>
      <trkpt lat="46.82058" lon="4.75206">
        <ele>198.820833</ele>
        <time>2011-01-30T15:31:18Z</time>
      </trkpt>
      <trkpt lat="46.82068" lon="4.75206">
        <ele>199.38259</ele>
        <time>2011-01-30T15:31:21Z</time>
      </trkpt>
      <trkpt lat="46.82078" lon="4.75205">
        <ele>199.810988</ele>
        <time>2011-01-30T15:31:24Z</time>
      </trkpt>
      <trkpt lat="46.82089" lon="4.75203">
        <ele>200.004079</ele>
        <time>2011-01-30T15:31:27Z</time>
      </trkpt>
      <trkpt lat="46.82099" lon="4.75203">
        <ele>200.027267</ele>
        <time>2011-01-30T15:31:30Z</time>
      </trkpt>
      <trkpt lat="46.8211" lon="4.75203">
        <ele>199.992075</ele>
        <time>2011-01-30T15:31:33Z</time>
      </trkpt>
      <trkpt lat="46.82121" lon="4.75203">
        <ele>199.963306</ele>
        <time>2011-01-30T15:31:36Z</time>
      </trkpt>
      <trkpt lat="46.82131" lon="4.75203">
        <ele>199.953993</ele>
        <time>2011-01-30T15:31:39Z</time>
      </trkpt>
      <trkpt lat="46.82142" lon="4.75204">
        <ele>199.955187</ele>
        <time>2011-01-30T15:31:42Z</time>
      </trkpt>
      <trkpt lat="46.82152" lon="4.75204">
        <ele>199.966649</ele>
        <time>2011-01-30T15:31:45Z</time>
      </trkpt>
      <trkpt lat="46.82163" lon="4.75205">
        <ele>199.999435</ele>
        <time>2011-01-30T15:31:48Z</time>
      </trkpt>
      <trkpt lat="46.82174" lon="4.75205">
        <ele>200.058806</ele>
        <time>2011-01-30T15:31:51Z</time>
      </trkpt>
      <trkpt lat="46.82187" lon="4.75205">
        <ele>200.140384</ele>
        <time>2011-01-30T15:31:54Z</time>
      </trkpt>
      <trkpt lat="46.82199" lon="4.75205">
        <ele>200.238895</ele>
        <time>2011-01-30T15:31:57Z</time>
      </trkpt>
      <trkpt lat="46.82212" lon="4.75205">
        <ele>200.367568</ele>
        <time>2011-01-30T15:32:00Z</time>
      </trkpt>
      <trkpt lat="46.82226" lon="4.75205">
        <ele>200.589242</ele>
        <time>2011-01-30T15:32:03Z</time>
      </trkpt>
      <trkpt lat="46.82239" lon="4.75204">
        <ele>200.959378</ele>
        <time>2011-01-30T15:32:06Z</time>
      </trkpt>
      <trkpt lat="46.82253" lon="4.75203">
        <ele>201.429615</ele>
        <time>2011-01-30T15:32:09Z</time>
      </trkpt>
      <trkpt lat="46.82265" lon="4.75203">
        <ele>201.934386</ele>
        <time>2011-01-30T15:32:12Z</time>
      </trkpt>
      <trkpt lat="46.82278" lon="4.75204">
        <ele>202.458459</ele>
        <time>2011-01-30T15:32:15Z</time>
      </trkpt>
      <trkpt lat="46.82292" lon="4.75204">
        <ele>202.950281</ele>
        <time>2011-01-30T15:32:18Z</time>
      </trkpt>
      <trkpt lat="46.82301" lon="4.75204">
        <ele>203.335435</ele>
        <time>2011-01-30T15:32:20Z</time>
      </trkpt>
      <trkpt lat="46.82316" lon="4.75204">
        <ele>203.612699</ele>
        <time>2011-01-30T15:32:23Z</time>
      </trkpt>
      <trkpt lat="46.82326" lon="4.75205">
        <ele>203.820517</ele>
        <time>2011-01-30T15:32:25Z</time>
      </trkpt>
      <trkpt lat="46.82341" lon="4.75206">
        <ele>203.97092</ele>
        <time>2011-01-30T15:32:28Z</time>
      </trkpt>
      <trkpt lat="46.82351" lon="4.75207">
        <ele>204.089863</ele>
        <time>2011-01-30T15:32:30Z</time>
      </trkpt>
      <trkpt lat="46.82361" lon="4.75207">
        <ele>204.265088</ele>
        <time>2011-01-30T15:32:32Z</time>
      </trkpt>
      <trkpt lat="46.82376" lon="4.75208">
        <ele>204.577228</ele>
        <time>2011-01-30T15:32:35Z</time>
      </trkpt>
      <trkpt lat="46.82386" lon="4.75209">
        <ele>204.986187</ele>
        <time>2011-01-30T15:32:37Z</time>
      </trkpt>
      <trkpt lat="46.82402" lon="4.75209">
        <ele>205.387024</ele>
        <time>2011-01-30T15:32:40Z</time>
      </trkpt>
      <trkpt lat="46.82412" lon="4.75209">
        <ele>205.786436</ele>
        <time>2011-01-30T15:32:42Z</time>
      </trkpt>
      <trkpt lat="46.82426" lon="4.75209">
        <ele>206.233776</ele>
        <time>2011-01-30T15:32:45Z</time>
      </trkpt>
      <trkpt lat="46.82436" lon="4.7521">
        <ele>206.675593</ele>
        <time>2011-01-30T15:32:47Z</time>
      </trkpt>
      <trkpt lat="46.8245" lon="4.75211">
        <ele>207.039502</ele>
        <time>2011-01-30T15:32:50Z</time>
      </trkpt>
      <trkpt lat="46.82459" lon="4.75211">
        <ele>207.305327</ele>
        <time>2011-01-30T15:32:52Z</time>
      </trkpt>
      <trkpt lat="46.82472" lon="4.75212">
        <ele>207.489313</ele>
        <time>2011-01-30T15:32:55Z</time>
      </trkpt>
      <trkpt lat="46.82485" lon="4.75212">
        <ele>207.632032</ele>
        <time>2011-01-30T15:32:58Z</time>
      </trkpt>
      <trkpt lat="46.82498" lon="4.75212">
        <ele>207.759717</ele>
        <time>2011-01-30T15:33:01Z</time>
      </trkpt>
      <trkpt lat="46.8251" lon="4.75211">
        <ele>207.895682</ele>
        <time>2011-01-30T15:33:04Z</time>
      </trkpt>
      <trkpt lat="46.82522" lon="4.75209">
        <ele>208.036386</ele>
        <time>2011-01-30T15:33:07Z</time>
      </trkpt>
      <trkpt lat="46.82535" lon="4.75209">
        <ele>208.134618</ele>
        <time>2011-01-30T15:33:10Z</time>
      </trkpt>
      <trkpt lat="46.82548" lon="4.7521">
        <ele>208.168395</ele>
        <time>2011-01-30T15:33:13Z</time>
      </trkpt>
      <trkpt lat="46.82561" lon="4.75212">
        <ele>208.02533</ele>
        <time>2011-01-30T15:33:16Z</time>
      </trkpt>
      <trkpt lat="46.82573" lon="4.75214">
        <ele>207.647881</ele>
        <time>2011-01-30T15:33:19Z</time>
      </trkpt>
      <trkpt lat="46.82587" lon="4.75215">
        <ele>207.264339</ele>
        <time>2011-01-30T15:33:22Z</time>
      </trkpt>
      <trkpt lat="46.82596" lon="4.75215">
        <ele>207.083471</ele>
        <time>2011-01-30T15:33:24Z</time>
      </trkpt>
      <trkpt lat="46.82611" lon="4.75215">
        <ele>207.145936</ele>
        <time>2011-01-30T15:33:27Z</time>
      </trkpt>
      <trkpt lat="46.82621" lon="4.75214">
        <ele>207.528615</ele>
        <time>2011-01-30T15:33:29Z</time>
      </trkpt>
      <trkpt lat="46.82635" lon="4.75214">
        <ele>208.206176</ele>
        <time>2011-01-30T15:33:32Z</time>
      </trkpt>
      <trkpt lat="46.82645" lon="4.75214">
        <ele>209.066293</ele>
        <time>2011-01-30T15:33:34Z</time>
      </trkpt>
      <trkpt lat="46.82658" lon="4.75214">
        <ele>210.061245</ele>
        <time>2011-01-30T15:33:37Z</time>
      </trkpt>
      <trkpt lat="46.82671" lon="4.75213">
        <ele>211.162623</ele>
        <time>2011-01-30T15:33:40Z</time>
      </trkpt>
      <trkpt lat="46.82684" lon="4.75213">
        <ele>212.240039</ele>
        <time>2011-01-30T15:33:43Z</time>
      </trkpt>
      <trkpt lat="46.82697" lon="4.75213">
        <ele>213.143592</ele>
        <time>2011-01-30T15:33:46Z</time>
      </trkpt>
      <trkpt lat="46.82709" lon="4.75213">
        <ele>213.785646</ele>
        <time>2011-01-30T15:33:49Z</time>
      </trkpt>
      <trkpt lat="46.82721" lon="4.75214">
        <ele>214.160613</ele>
        <time>2011-01-30T15:33:52Z</time>
      </trkpt>
      <trkpt lat="46.82734" lon="4.75214">
        <ele>214.330247</ele>
        <time>2011-01-30T15:33:55Z</time>
      </trkpt>
      <trkpt lat="46.82745" lon="4.75214">
        <ele>214.388415</ele>
        <time>2011-01-30T15:33:58Z</time>
      </trkpt>
      <trkpt lat="46.82757" lon="4.75213">
        <ele>214.409098</ele>
        <time>2011-01-30T15:34:01Z</time>
      </trkpt>
      <trkpt lat="46.82769" lon="4.75213">
        <ele>214.49072</ele>
        <time>2011-01-30T15:34:04Z</time>
      </trkpt>
      <trkpt lat="46.82781" lon="4.75213">
        <ele>214.702672</ele>
        <time>2011-01-30T15:34:07Z</time>
      </trkpt>
      <trkpt lat="46.82794" lon="4.75213">
        <ele>215.014805</ele>
        <time>2011-01-30T15:34:10Z</time>
      </trkpt>
      <trkpt lat="46.82806" lon="4.75214">
        <ele>215.331397</ele>
        <time>2011-01-30T15:34:13Z</time>
      </trkpt>
      <trkpt lat="46.82818" lon="4.75214">
        <ele>215.598573</ele>
        <time>2011-01-30T15:34:16Z</time>
      </trkpt>
      <trkpt lat="46.8283" lon="4.75214">
        <ele>215.803415</ele>
        <time>2011-01-30T15:34:19Z</time>
      </trkpt>
      <trkpt lat="46.82842" lon="4.75214">
        <ele>215.938815</ele>
        <time>2011-01-30T15:34:22Z</time>
      </trkpt>
      <trkpt lat="46.82851" lon="4.75216">
        <ele>216.056677</ele>
        <time>2011-01-30T15:34:24Z</time>
      </trkpt>
      <trkpt lat="46.82865" lon="4.75217">
        <ele>216.218998</ele>
        <time>2011-01-30T15:34:27Z</time>
      </trkpt>
      <trkpt lat="46.82879" lon="4.75217">
        <ele>216.510553</ele>
        <time>2011-01-30T15:34:30Z</time>
      </trkpt>
      <trkpt lat="46.82889" lon="4.75217">
        <ele>216.970128</ele>
        <time>2011-01-30T15:34:32Z</time>
      </trkpt>
      <trkpt lat="46.82902" lon="4.75217">
        <ele>217.47108</ele>
        <time>2011-01-30T15:34:35Z</time>
      </trkpt>
      <trkpt lat="46.82915" lon="4.75218">
        <ele>217.893022</ele>
        <time>2011-01-30T15:34:38Z</time>
      </trkpt>
      <trkpt lat="46.82928" lon="4.75219">
        <ele>218.242067</ele>
        <time>2011-01-30T15:34:41Z</time>
      </trkpt>
      <trkpt lat="46.82941" lon="4.75219">
        <ele>218.582581</ele>
        <time>2011-01-30T15:34:44Z</time>
      </trkpt>
      <trkpt lat="46.82951" lon="4.75218">
        <ele>218.976064</ele>
        <time>2011-01-30T15:34:47Z</time>
      </trkpt>
      <trkpt lat="46.8296" lon="4.75217">
        <ele>219.353788</ele>
        <time>2011-01-30T15:34:50Z</time>
      </trkpt>
      <trkpt lat="46.82972" lon="4.75217">
        <ele>219.632407</ele>
        <time>2011-01-30T15:34:54Z</time>
      </trkpt>
      <trkpt lat="46.82983" lon="4.75222">
        <ele>219.830733</ele>
        <time>2011-01-30T15:34:58Z</time>
      </trkpt>
      <trkpt lat="46.82984" lon="4.75236">
        <ele>219.975101</ele>
        <time>2011-01-30T15:35:01Z</time>
      </trkpt>
      <trkpt lat="46.82983" lon="4.75252">
        <ele>220.093882</ele>
        <time>2011-01-30T15:35:04Z</time>
      </trkpt>
      <trkpt lat="46.82983" lon="4.75269">
        <ele>220.218897</ele>
        <time>2011-01-30T15:35:07Z</time>
      </trkpt>
      <trkpt lat="46.82981" lon="4.75286">
        <ele>220.333839</ele>
        <time>2011-01-30T15:35:10Z</time>
      </trkpt>
      <trkpt lat="46.8298" lon="4.75306">
        <ele>220.402358</ele>
        <time>2011-01-30T15:35:13Z</time>
      </trkpt>
      <trkpt lat="46.82979" lon="4.75325">
        <ele>220.421132</ele>
        <time>2011-01-30T15:35:16Z</time>
      </trkpt>
      <trkpt lat="46.82978" lon="4.75338">
        <ele>220.388411</ele>
        <time>2011-01-30T15:35:18Z</time>
      </trkpt>
      <trkpt lat="46.82975" lon="4.75358">
        <ele>220.297315</ele>
        <time>2011-01-30T15:35:21Z</time>
      </trkpt>
      <trkpt lat="46.82973" lon="4.75378">
        <ele>220.166865</ele>
        <time>2011-01-30T15:35:24Z</time>
      </trkpt>
      <trkpt lat="46.82971" lon="4.75392">
        <ele>220.013023</ele>
        <time>2011-01-30T15:35:26Z</time>
      </trkpt>
      <trkpt lat="46.82967" lon="4.75413">
        <ele>219.831273</ele>
        <time>2011-01-30T15:35:29Z</time>
      </trkpt>
      <trkpt lat="46.8296" lon="4.75435">
        <ele>219.618399</ele>
        <time>2011-01-30T15:35:32Z</time>
      </trkpt>
      <trkpt lat="46.82952" lon="4.75455">
        <ele>219.370871</ele>
        <time>2011-01-30T15:35:35Z</time>
      </trkpt>
      <trkpt lat="46.82946" lon="4.75469">
        <ele>219.079602</ele>
        <time>2011-01-30T15:35:37Z</time>
      </trkpt>
      <trkpt lat="46.82942" lon="4.75484">
        <ele>218.721377</ele>
        <time>2011-01-30T15:35:39Z</time>
      </trkpt>
      <trkpt lat="46.82939" lon="4.755">
        <ele>218.291691</ele>
        <time>2011-01-30T15:35:41Z</time>
      </trkpt>
      <trkpt lat="46.82938" lon="4.75526">
        <ele>217.843932</ele>
        <time>2011-01-30T15:35:44Z</time>
      </trkpt>
      <trkpt lat="46.8294" lon="4.75542">
        <ele>217.447527</ele>
        <time>2011-01-30T15:35:46Z</time>
      </trkpt>
      <trkpt lat="46.82942" lon="4.75559">
        <ele>217.119125</ele>
        <time>2011-01-30T15:35:48Z</time>
      </trkpt>
      <trkpt lat="46.82946" lon="4.75584">
        <ele>216.823146</ele>
        <time>2011-01-30T15:35:51Z</time>
      </trkpt>
      <trkpt lat="46.82949" lon="4.75609">
        <ele>216.567667</ele>
        <time>2011-01-30T15:35:54Z</time>
      </trkpt>
      <trkpt lat="46.82951" lon="4.75627">
        <ele>216.413839</ele>
        <time>2011-01-30T15:35:56Z</time>
      </trkpt>
      <trkpt lat="46.82952" lon="4.75645">
        <ele>216.370957</ele>
        <time>2011-01-30T15:35:58Z</time>
      </trkpt>
      <trkpt lat="46.82953" lon="4.75664">
        <ele>216.393883</ele>
        <time>2011-01-30T15:36:00Z</time>
      </trkpt>
      <trkpt lat="46.82953" lon="4.75683">
        <ele>216.467941</ele>
        <time>2011-01-30T15:36:02Z</time>
      </trkpt>
      <trkpt lat="46.82952" lon="4.75701">
        <ele>216.579505</ele>
        <time>2011-01-30T15:36:04Z</time>
      </trkpt>
      <trkpt lat="46.82948" lon="4.75726">
        <ele>216.680364</ele>
        <time>2011-01-30T15:36:07Z</time>
      </trkpt>
      <trkpt lat="46.82945" lon="4.75742">
        <ele>216.738622</ele>
        <time>2011-01-30T15:36:09Z</time>
      </trkpt>
      <trkpt lat="46.82939" lon="4.75765">
        <ele>216.768522</ele>
        <time>2011-01-30T15:36:12Z</time>
      </trkpt>
      <trkpt lat="46.82934" lon="4.7578">
        <ele>216.78863</ele>
        <time>2011-01-30T15:36:14Z</time>
      </trkpt>
      <trkpt lat="46.82928" lon="4.75804">
        <ele>216.8203</ele>
        <time>2011-01-30T15:36:17Z</time>
      </trkpt>
      <trkpt lat="46.82925" lon="4.7582">
        <ele>216.922781</ele>
        <time>2011-01-30T15:36:19Z</time>
      </trkpt>
      <trkpt lat="46.82922" lon="4.75837">
        <ele>217.116561</ele>
        <time>2011-01-30T15:36:21Z</time>
      </trkpt>
      <trkpt lat="46.82918" lon="4.75859">
        <ele>217.31327</ele>
        <time>2011-01-30T15:36:24Z</time>
      </trkpt>
      <trkpt lat="46.82918" lon="4.75859">
        <ele>217.423055</ele>
        <time>2011-01-30T15:36:27Z</time>
      </trkpt>
      <trkpt lat="46.82909" lon="4.75888">
        <ele>217.449562</ele>
        <time>2011-01-30T15:36:54Z</time>
      </trkpt>
      <trkpt lat="46.82904" lon="4.75899">
        <ele>217.393149</ele>
        <time>2011-01-30T15:36:57Z</time>
      </trkpt>
      <trkpt lat="46.82898" lon="4.75913">
        <ele>217.256214</ele>
        <time>2011-01-30T15:37:00Z</time>
      </trkpt>
      <trkpt lat="46.82891" lon="4.75928">
        <ele>217.032129</ele>
        <time>2011-01-30T15:37:03Z</time>
      </trkpt>
      <trkpt lat="46.82885" lon="4.75944">
        <ele>216.732107</ele>
        <time>2011-01-30T15:37:06Z</time>
      </trkpt>
      <trkpt lat="46.82879" lon="4.75963">
        <ele>216.430535</ele>
        <time>2011-01-30T15:37:09Z</time>
      </trkpt>
      <trkpt lat="46.82875" lon="4.75983">
        <ele>216.209073</ele>
        <time>2011-01-30T15:37:12Z</time>
      </trkpt>
      <trkpt lat="46.8287" lon="4.76005">
        <ele>216.081581</ele>
        <time>2011-01-30T15:37:15Z</time>
      </trkpt>
      <trkpt lat="46.82863" lon="4.7603">
        <ele>216.00749</ele>
        <time>2011-01-30T15:37:18Z</time>
      </trkpt>
      <trkpt lat="46.82852" lon="4.76048">
        <ele>215.899967</ele>
        <time>2011-01-30T15:37:21Z</time>
      </trkpt>
      <trkpt lat="46.82845" lon="4.7606">
        <ele>215.702647</ele>
        <time>2011-01-30T15:37:23Z</time>
      </trkpt>
      <trkpt lat="46.82835" lon="4.76079">
        <ele>215.360357</ele>
        <time>2011-01-30T15:37:26Z</time>
      </trkpt>
      <trkpt lat="46.82824" lon="4.76099">
        <ele>214.790955</ele>
        <time>2011-01-30T15:37:29Z</time>
      </trkpt>
      <trkpt lat="46.82813" lon="4.76117">
        <ele>213.99799</ele>
        <time>2011-01-30T15:37:32Z</time>
      </trkpt>
      <trkpt lat="46.82806" lon="4.76128">
        <ele>212.92453</ele>
        <time>2011-01-30T15:37:34Z</time>
      </trkpt>
      <trkpt lat="46.82794" lon="4.76147">
        <ele>211.165962</ele>
        <time>2011-01-30T15:37:37Z</time>
      </trkpt>
      <trkpt lat="46.82782" lon="4.76166">
        <ele>208.451473</ele>
        <time>2011-01-30T15:37:40Z</time>
      </trkpt>
      <trkpt lat="46.82771" lon="4.76186">
        <ele>205.364517</ele>
        <time>2011-01-30T15:37:43Z</time>
      </trkpt>
      <trkpt lat="46.82763" lon="4.762">
        <ele>202.799165</ele>
        <time>2011-01-30T15:37:45Z</time>
      </trkpt>
      <trkpt lat="46.8275" lon="4.76221">
        <ele>200.981062</ele>
        <time>2011-01-30T15:37:48Z</time>
      </trkpt>
      <trkpt lat="46.82742" lon="4.76236">
        <ele>199.457104</ele>
        <time>2011-01-30T15:37:50Z</time>
      </trkpt>
      <trkpt lat="46.82729" lon="4.76264">
        <ele>197.905255</ele>
        <time>2011-01-30T15:37:53Z</time>
      </trkpt>
      <trkpt lat="46.82719" lon="4.76283">
        <ele>196.493375</ele>
        <time>2011-01-30T15:37:55Z</time>
      </trkpt>
      <trkpt lat="46.8271" lon="4.76304">
        <ele>195.421789</ele>
        <time>2011-01-30T15:37:57Z</time>
      </trkpt>
      <trkpt lat="46.82703" lon="4.76326">
        <ele>194.334272</ele>
        <time>2011-01-30T15:37:59Z</time>
      </trkpt>
      <trkpt lat="46.82697" lon="4.7636">
        <ele>192.865755</ele>
        <time>2011-01-30T15:38:02Z</time>
      </trkpt>
      <trkpt lat="46.82694" lon="4.76384">
        <ele>191.269608</ele>
        <time>2011-01-30T15:38:04Z</time>
      </trkpt>
      <trkpt lat="46.82688" lon="4.76418">
        <ele>189.998493</ele>
        <time>2011-01-30T15:38:07Z</time>
      </trkpt>
      <trkpt lat="46.82684" lon="4.76439">
        <ele>189.193398</ele>
        <time>2011-01-30T15:38:09Z</time>
      </trkpt>
      <trkpt lat="46.82672" lon="4.76454">
        <ele>188.821242</ele>
        <time>2011-01-30T15:38:12Z</time>
      </trkpt>
      <trkpt lat="46.82663" lon="4.76459">
        <ele>188.615224</ele>
        <time>2011-01-30T15:38:14Z</time>
      </trkpt>
      <trkpt lat="46.82663" lon="4.76459">
        <ele>188.338277</ele>
        <time>2011-01-30T15:38:16Z</time>
      </trkpt>
      <trkpt lat="46.82635" lon="4.76468">
        <ele>188.066711</ele>
        <time>2011-01-30T15:38:25Z</time>
      </trkpt>
      <trkpt lat="46.82623" lon="4.76471">
        <ele>187.94141</ele>
        <time>2011-01-30T15:38:29Z</time>
      </trkpt>
      <trkpt lat="46.82614" lon="4.76474">
        <ele>187.976533</ele>
        <time>2011-01-30T15:38:32Z</time>
      </trkpt>
      <trkpt lat="46.82604" lon="4.76478">
        <ele>188.141249</ele>
        <time>2011-01-30T15:38:35Z</time>
      </trkpt>
      <trkpt lat="46.82596" lon="4.76483">
        <ele>188.357448</ele>
        <time>2011-01-30T15:38:38Z</time>
      </trkpt>
      <trkpt lat="46.82586" lon="4.76481">
        <ele>188.587069</ele>
        <time>2011-01-30T15:38:41Z</time>
      </trkpt>
      <trkpt lat="46.82586" lon="4.76481">
        <ele>188.803559</ele>
        <time>2011-01-30T15:38:44Z</time>
      </trkpt>
      <trkpt lat="46.82575" lon="4.76456">
        <ele>188.971139</ele>
        <time>2011-01-30T15:38:49Z</time>
      </trkpt>
      <trkpt lat="46.82573" lon="4.76442">
        <ele>189.123032</ele>
        <time>2011-01-30T15:38:52Z</time>
      </trkpt>
      <trkpt lat="46.82569" lon="4.7643">
        <ele>189.294051</ele>
        <time>2011-01-30T15:38:55Z</time>
      </trkpt>
      <trkpt lat="46.82561" lon="4.76419">
        <ele>189.585</ele>
        <time>2011-01-30T15:38:58Z</time>
      </trkpt>
      <trkpt lat="46.82551" lon="4.76411">
        <ele>190.107295</ele>
        <time>2011-01-30T15:39:02Z</time>
      </trkpt>
      <trkpt lat="46.8254" lon="4.76404">
        <ele>190.775189</ele>
        <time>2011-01-30T15:39:06Z</time>
      </trkpt>
      <trkpt lat="46.82532" lon="4.76399">
        <ele>191.434339</ele>
        <time>2011-01-30T15:39:09Z</time>
      </trkpt>
      <trkpt lat="46.82532" lon="4.76399">
        <ele>191.969007</ele>
        <time>2011-01-30T15:39:14Z</time>
      </trkpt>
      <trkpt lat="46.82493" lon="4.76372">
        <ele>192.354402</ele>
        <time>2011-01-30T15:39:28Z</time>
      </trkpt>
      <trkpt lat="46.82493" lon="4.76372">
        <ele>192.658734</ele>
        <time>2011-01-30T15:39:31Z</time>
      </trkpt>
      <trkpt lat="46.82465" lon="4.76357">
        <ele>192.941176</ele>
        <time>2011-01-30T15:39:43Z</time>
      </trkpt>
      <trkpt lat="46.82456" lon="4.76349">
        <ele>193.246468</ele>
        <time>2011-01-30T15:39:47Z</time>
      </trkpt>
      <trkpt lat="46.82444" lon="4.76338">
        <ele>193.77131</ele>
        <time>2011-01-30T15:39:55Z</time>
      </trkpt>
      <trkpt lat="46.82435" lon="4.76329">
        <ele>194.53281</ele>
        <time>2011-01-30T15:39:58Z</time>
      </trkpt>
      <trkpt lat="46.82426" lon="4.76322">
        <ele>195.177235</ele>
        <time>2011-01-30T15:40:01Z</time>
      </trkpt>
      <trkpt lat="46.82418" lon="4.76312">
        <ele>195.40656</ele>
        <time>2011-01-30T15:40:06Z</time>
      </trkpt>
      <trkpt lat="46.8241" lon="4.76301">
        <ele>195.324451</ele>
        <time>2011-01-30T15:40:10Z</time>
      </trkpt>
      <trkpt lat="46.82402" lon="4.76291">
        <ele>195.074215</ele>
        <time>2011-01-30T15:40:15Z</time>
      </trkpt>
      <trkpt lat="46.82394" lon="4.76282">
        <ele>194.62623</ele>
        <time>2011-01-30T15:40:20Z</time>
      </trkpt>
      <trkpt lat="46.82385" lon="4.76278">
        <ele>193.955783</ele>
        <time>2011-01-30T15:40:24Z</time>
      </trkpt>
      <trkpt lat="46.82376" lon="4.76272">
        <ele>193.292858</ele>
        <time>2011-01-30T15:40:28Z</time>
      </trkpt>
      <trkpt lat="46.82368" lon="4.76265">
        <ele>192.898796</ele>
        <time>2011-01-30T15:40:31Z</time>
      </trkpt>
      <trkpt lat="46.82359" lon="4.76258">
        <ele>192.791358</ele>
        <time>2011-01-30T15:40:34Z</time>
      </trkpt>
      <trkpt lat="46.82348" lon="4.7624">
        <ele>192.870997</ele>
        <time>2011-01-30T15:40:40Z</time>
      </trkpt>
      <trkpt lat="46.82338" lon="4.76236">
        <ele>193.122658</ele>
        <time>2011-01-30T15:40:43Z</time>
      </trkpt>
      <trkpt lat="46.82338" lon="4.76236">
        <ele>193.470665</ele>
        <time>2011-01-30T15:40:45Z</time>
      </trkpt>
      <trkpt lat="46.82317" lon="4.7621">
        <ele>193.834491</ele>
        <time>2011-01-30T15:40:55Z</time>
      </trkpt>
      <trkpt lat="46.82317" lon="4.7621">
        <ele>194.197669</ele>
        <time>2011-01-30T15:41:00Z</time>
      </trkpt>
      <trkpt lat="46.82294" lon="4.76183">
        <ele>194.710061</ele>
        <time>2011-01-30T15:41:22Z</time>
      </trkpt>
      <trkpt lat="46.82288" lon="4.76172">
        <ele>195.557765</ele>
        <time>2011-01-30T15:41:25Z</time>
      </trkpt>
      <trkpt lat="46.82281" lon="4.76162">
        <ele>197.017643</ele>
        <time>2011-01-30T15:41:28Z</time>
      </trkpt>
      <trkpt lat="46.82273" lon="4.76151">
        <ele>199.182466</ele>
        <time>2011-01-30T15:41:32Z</time>
      </trkpt>
      <trkpt lat="46.82266" lon="4.76139">
        <ele>201.377637</ele>
        <time>2011-01-30T15:41:35Z</time>
      </trkpt>
      <trkpt lat="46.82266" lon="4.76139">
        <ele>202.684086</ele>
        <time>2011-01-30T15:41:38Z</time>
      </trkpt>
      <trkpt lat="46.82246" lon="4.76098">
        <ele>203.061305</ele>
        <time>2011-01-30T15:41:46Z</time>
      </trkpt>
      <trkpt lat="46.8224" lon="4.76085">
        <ele>202.989044</ele>
        <time>2011-01-30T15:41:49Z</time>
      </trkpt>
      <trkpt lat="46.82237" lon="4.7607">
        <ele>202.880815</ele>
        <time>2011-01-30T15:41:53Z</time>
      </trkpt>
      <trkpt lat="46.82233" lon="4.76056">
        <ele>203.080759</ele>
        <time>2011-01-30T15:41:57Z</time>
      </trkpt>
      <trkpt lat="46.82229" lon="4.76042">
        <ele>203.665531</ele>
        <time>2011-01-30T15:42:01Z</time>
      </trkpt>
      <trkpt lat="46.82226" lon="4.76025">
        <ele>204.310951</ele>
        <time>2011-01-30T15:42:05Z</time>
      </trkpt>
      <trkpt lat="46.82222" lon="4.76013">
        <ele>204.718914</ele>
        <time>2011-01-30T15:42:08Z</time>
      </trkpt>
      <trkpt lat="46.82219" lon="4.75997">
        <ele>204.91857</ele>
        <time>2011-01-30T15:42:12Z</time>
      </trkpt>
      <trkpt lat="46.82216" lon="4.75982">
        <ele>205.082322</ele>
        <time>2011-01-30T15:42:16Z</time>
      </trkpt>
      <trkpt lat="46.82214" lon="4.75966">
        <ele>205.333034</ele>
        <time>2011-01-30T15:42:20Z</time>
      </trkpt>
      <trkpt lat="46.82211" lon="4.75952">
        <ele>205.691164</ele>
        <time>2011-01-30T15:42:23Z</time>
      </trkpt>
      <trkpt lat="46.82208" lon="4.75939">
        <ele>206.153932</ele>
        <time>2011-01-30T15:42:26Z</time>
      </trkpt>
      <trkpt lat="46.82203" lon="4.75928">
        <ele>206.718161</ele>
        <time>2011-01-30T15:42:28Z</time>
      </trkpt>
      <trkpt lat="46.82197" lon="4.75914">
        <ele>207.355555</ele>
        <time>2011-01-30T15:42:30Z</time>
      </trkpt>
      <trkpt lat="46.82188" lon="4.75898">
        <ele>208.036523</ele>
        <time>2011-01-30T15:42:33Z</time>
      </trkpt>
      <trkpt lat="46.82182" lon="4.75883">
        <ele>208.703159</ele>
        <time>2011-01-30T15:42:36Z</time>
      </trkpt>
      <trkpt lat="46.82176" lon="4.75866">
        <ele>209.255337</ele>
        <time>2011-01-30T15:42:39Z</time>
      </trkpt>
      <trkpt lat="46.82171" lon="4.7585">
        <ele>209.674545</ele>
        <time>2011-01-30T15:42:41Z</time>
      </trkpt>
      <trkpt lat="46.82162" lon="4.75827">
        <ele>210.07672</ele>
        <time>2011-01-30T15:42:44Z</time>
      </trkpt>
      <trkpt lat="46.82154" lon="4.75814">
        <ele>210.550277</ele>
        <time>2011-01-30T15:42:47Z</time>
      </trkpt>
      <trkpt lat="46.82146" lon="4.75804">
        <ele>211.038162</ele>
        <time>2011-01-30T15:42:50Z</time>
      </trkpt>
      <trkpt lat="46.82138" lon="4.75798">
        <ele>211.410127</ele>
        <time>2011-01-30T15:42:53Z</time>
      </trkpt>
      <trkpt lat="46.82129" lon="4.75793">
        <ele>211.630101</ele>
        <time>2011-01-30T15:42:56Z</time>
      </trkpt>
      <trkpt lat="46.82119" lon="4.75792">
        <ele>211.795501</ele>
        <time>2011-01-30T15:42:59Z</time>
      </trkpt>
      <trkpt lat="46.82106" lon="4.75789">
        <ele>212.01652</ele>
        <time>2011-01-30T15:43:02Z</time>
      </trkpt>
      <trkpt lat="46.82092" lon="4.75785">
        <ele>212.275404</ele>
        <time>2011-01-30T15:43:04Z</time>
      </trkpt>
      <trkpt lat="46.8208" lon="4.75783">
        <ele>212.457472</ele>
        <time>2011-01-30T15:43:07Z</time>
      </trkpt>
      <trkpt lat="46.82069" lon="4.75779">
        <ele>212.52062</ele>
        <time>2011-01-30T15:43:10Z</time>
      </trkpt>
      <trkpt lat="46.82057" lon="4.75772">
        <ele>212.478215</ele>
        <time>2011-01-30T15:43:13Z</time>
      </trkpt>
      <trkpt lat="46.82045" lon="4.75771">
        <ele>212.304254</ele>
        <time>2011-01-30T15:43:15Z</time>
      </trkpt>
      <trkpt lat="46.82028" lon="4.75769">
        <ele>211.940615</ele>
        <time>2011-01-30T15:43:18Z</time>
      </trkpt>
      <trkpt lat="46.82028" lon="4.75769">
        <ele>211.463942</ele>
        <time>2011-01-30T15:43:20Z</time>
      </trkpt>
      <trkpt lat="46.81993" lon="4.7575">
        <ele>211.050004</ele>
        <time>2011-01-30T15:43:25Z</time>
      </trkpt>
      <trkpt lat="46.81993" lon="4.7575">
        <ele>210.77893</ele>
        <time>2011-01-30T15:43:29Z</time>
      </trkpt>
      <trkpt lat="46.81963" lon="4.75737">
        <ele>210.609661</ele>
        <time>2011-01-30T15:43:44Z</time>
      </trkpt>
      <trkpt lat="46.81963" lon="4.75737">
        <ele>210.491241</ele>
        <time>2011-01-30T15:43:47Z</time>
      </trkpt>
      <trkpt lat="46.81934" lon="4.7573">
        <ele>210.31934</ele>
        <time>2011-01-30T15:43:57Z</time>
      </trkpt>
      <trkpt lat="46.81926" lon="4.75722">
        <ele>209.736846</ele>
        <time>2011-01-30T15:44:00Z</time>
      </trkpt>
      <trkpt lat="46.81917" lon="4.75716">
        <ele>208.392414</ele>
        <time>2011-01-30T15:44:04Z</time>
      </trkpt>
      <trkpt lat="46.81908" lon="4.75715">
        <ele>206.71761</ele>
        <time>2011-01-30T15:44:09Z</time>
      </trkpt>
      <trkpt lat="46.81897" lon="4.75718">
        <ele>205.512711</ele>
        <time>2011-01-30T15:44:15Z</time>
      </trkpt>
      <trkpt lat="46.81888" lon="4.75719">
        <ele>204.916101</ele>
        <time>2011-01-30T15:44:21Z</time>
      </trkpt>
      <trkpt lat="46.81878" lon="4.75716">
        <ele>204.556913</ele>
        <time>2011-01-30T15:44:25Z</time>
      </trkpt>
      <trkpt lat="46.81868" lon="4.75713">
        <ele>204.194231</ele>
        <time>2011-01-30T15:44:30Z</time>
      </trkpt>
      <trkpt lat="46.81859" lon="4.75709">
        <ele>203.820933</ele>
        <time>2011-01-30T15:44:33Z</time>
      </trkpt>
      <trkpt lat="46.8185" lon="4.75708">
        <ele>203.51363</ele>
        <time>2011-01-30T15:44:36Z</time>
      </trkpt>
      <trkpt lat="46.81838" lon="4.75707">
        <ele>203.260268</ele>
        <time>2011-01-30T15:44:40Z</time>
      </trkpt>
      <trkpt lat="46.81829" lon="4.75706">
        <ele>202.941757</ele>
        <time>2011-01-30T15:44:43Z</time>
      </trkpt>
      <trkpt lat="46.81818" lon="4.75704">
        <ele>202.484521</ele>
        <time>2011-01-30T15:44:46Z</time>
      </trkpt>
      <trkpt lat="46.81805" lon="4.75699">
        <ele>201.965076</ele>
        <time>2011-01-30T15:44:49Z</time>
      </trkpt>
      <trkpt lat="46.81793" lon="4.75692">
        <ele>201.521798</ele>
        <time>2011-01-30T15:44:52Z</time>
      </trkpt>
      <trkpt lat="46.81783" lon="4.75687">
        <ele>201.202919</ele>
        <time>2011-01-30T15:44:55Z</time>
      </trkpt>
      <trkpt lat="46.81774" lon="4.7569">
        <ele>200.972859</ele>
        <time>2011-01-30T15:44:58Z</time>
      </trkpt>
      <trkpt lat="46.81763" lon="4.75692">
        <ele>200.812926</ele>
        <time>2011-01-30T15:45:01Z</time>
      </trkpt>
      <trkpt lat="46.81748" lon="4.75692">
        <ele>200.731086</ele>
        <time>2011-01-30T15:45:04Z</time>
      </trkpt>
      <trkpt lat="46.81735" lon="4.7569">
        <ele>200.67318</ele>
        <time>2011-01-30T15:45:07Z</time>
      </trkpt>
      <trkpt lat="46.81725" lon="4.75693">
        <ele>200.523201</ele>
        <time>2011-01-30T15:45:10Z</time>
      </trkpt>
      <trkpt lat="46.81725" lon="4.75693">
        <ele>200.276352</ele>
        <time>2011-01-30T15:45:14Z</time>
      </trkpt>
      <trkpt lat="46.81705" lon="4.7571">
        <ele>200.026257</ele>
        <time>2011-01-30T15:45:19Z</time>
      </trkpt>
      <trkpt lat="46.81698" lon="4.75721">
        <ele>199.736888</ele>
        <time>2011-01-30T15:45:22Z</time>
      </trkpt>
      <trkpt lat="46.81698" lon="4.75721">
        <ele>199.383553</ele>
        <time>2011-01-30T15:45:25Z</time>
      </trkpt>
      <trkpt lat="46.81672" lon="4.75767">
        <ele>199.00307</ele>
        <time>2011-01-30T15:45:53Z</time>
      </trkpt>
      <trkpt lat="46.81668" lon="4.75781">
        <ele>198.082284</ele>
        <time>2011-01-30T15:45:57Z</time>
      </trkpt>
      <trkpt lat="46.81667" lon="4.75795">
        <ele>196.210302</ele>
        <time>2011-01-30T15:46:04Z</time>
      </trkpt>
      <trkpt lat="46.81666" lon="4.75811">
        <ele>193.799697</ele>
        <time>2011-01-30T15:46:22Z</time>
      </trkpt>
      <trkpt lat="46.81666" lon="4.75811">
        <ele>191.631335</ele>
        <time>2011-01-30T15:46:26Z</time>
      </trkpt>
      <trkpt lat="46.81651" lon="4.75847">
        <ele>190.312218</ele>
        <time>2011-01-30T15:47:47Z</time>
      </trkpt>
      <trkpt lat="46.81657" lon="4.75858">
        <ele>189.938101</ele>
        <time>2011-01-30T15:48:02Z</time>
      </trkpt>
      <trkpt lat="46.81662" lon="4.7587">
        <ele>190.483775</ele>
        <time>2011-01-30T15:48:08Z</time>
      </trkpt>
      <trkpt lat="46.81667" lon="4.75882">
        <ele>192.655145</ele>
        <time>2011-01-30T15:48:13Z</time>
      </trkpt>
      <trkpt lat="46.81672" lon="4.75893">
        <ele>196.451531</ele>
        <time>2011-01-30T15:48:17Z</time>
      </trkpt>
      <trkpt lat="46.81672" lon="4.75907">
        <ele>200.157059</ele>
        <time>2011-01-30T15:48:22Z</time>
      </trkpt>
      <trkpt lat="46.81671" lon="4.7592">
        <ele>202.213105</ele>
        <time>2011-01-30T15:48:26Z</time>
      </trkpt>
      <trkpt lat="46.81668" lon="4.75933">
        <ele>202.703394</ele>
        <time>2011-01-30T15:48:30Z</time>
      </trkpt>
      <trkpt lat="46.81664" lon="4.75949">
        <ele>202.463439</ele>
        <time>2011-01-30T15:48:34Z</time>
      </trkpt>
      <trkpt lat="46.81659" lon="4.75964">
        <ele>202.024858</ele>
        <time>2011-01-30T15:48:37Z</time>
      </trkpt>
      <trkpt lat="46.81653" lon="4.75977">
        <ele>201.530677</ele>
        <time>2011-01-30T15:48:41Z</time>
      </trkpt>
      <trkpt lat="46.81648" lon="4.75989">
        <ele>201.014708</ele>
        <time>2011-01-30T15:48:45Z</time>
      </trkpt>
      <trkpt lat="46.81642" lon="4.75999">
        <ele>200.561288</ele>
        <time>2011-01-30T15:48:51Z</time>
      </trkpt>
      <trkpt lat="46.81637" lon="4.76011">
        <ele>200.228242</ele>
        <time>2011-01-30T15:48:55Z</time>
      </trkpt>
      <trkpt lat="46.81633" lon="4.76024">
        <ele>199.977164</ele>
        <time>2011-01-30T15:49:00Z</time>
      </trkpt>
      <trkpt lat="46.81629" lon="4.7604">
        <ele>199.698986</ele>
        <time>2011-01-30T15:49:05Z</time>
      </trkpt>
      <trkpt lat="46.81626" lon="4.76054">
        <ele>199.317279</ele>
        <time>2011-01-30T15:49:10Z</time>
      </trkpt>
      <trkpt lat="46.81627" lon="4.76068">
        <ele>198.795049</ele>
        <time>2011-01-30T15:49:16Z</time>
      </trkpt>
      <trkpt lat="46.81628" lon="4.76083">
        <ele>198.112335</ele>
        <time>2011-01-30T15:49:21Z</time>
      </trkpt>
      <trkpt lat="46.8163" lon="4.76098">
        <ele>197.298346</ele>
        <time>2011-01-30T15:49:25Z</time>
      </trkpt>
      <trkpt lat="46.81631" lon="4.76112">
        <ele>196.43356</ele>
        <time>2011-01-30T15:49:28Z</time>
      </trkpt>
      <trkpt lat="46.81628" lon="4.76127">
        <ele>195.491826</ele>
        <time>2011-01-30T15:49:31Z</time>
      </trkpt>
      <trkpt lat="46.81621" lon="4.76137">
        <ele>194.355123</ele>
        <time>2011-01-30T15:49:34Z</time>
      </trkpt>
      <trkpt lat="46.81611" lon="4.76144">
        <ele>193.062055</ele>
        <time>2011-01-30T15:49:38Z</time>
      </trkpt>
      <trkpt lat="46.81602" lon="4.76151">
        <ele>191.87382</ele>
        <time>2011-01-30T15:49:43Z</time>
      </trkpt>
      <trkpt lat="46.81601" lon="4.76167">
        <ele>191.062383</ele>
        <time>2011-01-30T15:49:50Z</time>
      </trkpt>
      <trkpt lat="46.81603" lon="4.7618">
        <ele>190.709907</ele>
        <time>2011-01-30T15:49:54Z</time>
      </trkpt>
      <trkpt lat="46.81605" lon="4.76195">
        <ele>190.676054</ele>
        <time>2011-01-30T15:49:58Z</time>
      </trkpt>
      <trkpt lat="46.81607" lon="4.76212">
        <ele>190.772312</ele>
        <time>2011-01-30T15:50:02Z</time>
      </trkpt>
      <trkpt lat="46.81609" lon="4.76227">
        <ele>190.903901</ele>
        <time>2011-01-30T15:50:05Z</time>
      </trkpt>
      <trkpt lat="46.8161" lon="4.7624">
        <ele>191.029916</ele>
        <time>2011-01-30T15:50:08Z</time>
      </trkpt>
      <trkpt lat="46.81612" lon="4.76255">
        <ele>191.124071</ele>
        <time>2011-01-30T15:50:11Z</time>
      </trkpt>
      <trkpt lat="46.81613" lon="4.76271">
        <ele>191.173415</ele>
        <time>2011-01-30T15:50:14Z</time>
      </trkpt>
      <trkpt lat="46.81616" lon="4.76288">
        <ele>191.183693</ele>
        <time>2011-01-30T15:50:17Z</time>
      </trkpt>
      <trkpt lat="46.81617" lon="4.76305">
        <ele>191.175845</ele>
        <time>2011-01-30T15:50:20Z</time>
      </trkpt>
      <trkpt lat="46.8162" lon="4.7633">
        <ele>191.159677</ele>
        <time>2011-01-30T15:50:23Z</time>
      </trkpt>
      <trkpt lat="46.81622" lon="4.76343">
        <ele>191.125919</ele>
        <time>2011-01-30T15:50:25Z</time>
      </trkpt>
      <trkpt lat="46.81624" lon="4.76357">
        <ele>191.003397</ele>
        <time>2011-01-30T15:50:27Z</time>
      </trkpt>
      <trkpt lat="46.81626" lon="4.76372">
        <ele>190.63681</ele>
        <time>2011-01-30T15:50:29Z</time>
      </trkpt>
      <trkpt lat="46.81628" lon="4.76388">
        <ele>189.928132</ele>
        <time>2011-01-30T15:50:31Z</time>
      </trkpt>
      <trkpt lat="46.81631" lon="4.76404">
        <ele>188.936671</ele>
        <time>2011-01-30T15:50:33Z</time>
      </trkpt>
      <trkpt lat="46.81635" lon="4.7643">
        <ele>187.870623</ele>
        <time>2011-01-30T15:50:36Z</time>
      </trkpt>
      <trkpt lat="46.81639" lon="4.76455">
        <ele>187.010817</ele>
        <time>2011-01-30T15:50:39Z</time>
      </trkpt>
      <trkpt lat="46.81643" lon="4.76471">
        <ele>186.49047</ele>
        <time>2011-01-30T15:50:41Z</time>
      </trkpt>
      <trkpt lat="46.81647" lon="4.76489">
        <ele>186.136606</ele>
        <time>2011-01-30T15:50:43Z</time>
      </trkpt>
      <trkpt lat="46.81651" lon="4.76506">
        <ele>185.614461</ele>
        <time>2011-01-30T15:50:45Z</time>
      </trkpt>
      <trkpt lat="46.81656" lon="4.7653">
        <ele>184.779858</ele>
        <time>2011-01-30T15:50:48Z</time>
      </trkpt>
      <trkpt lat="46.8166" lon="4.76548">
        <ele>183.766317</ele>
        <time>2011-01-30T15:50:51Z</time>
      </trkpt>
      <trkpt lat="46.81662" lon="4.76566">
        <ele>182.840974</ele>
        <time>2011-01-30T15:50:54Z</time>
      </trkpt>
      <trkpt lat="46.81662" lon="4.76584">
        <ele>182.258721</ele>
        <time>2011-01-30T15:50:57Z</time>
      </trkpt>
      <trkpt lat="46.81658" lon="4.76599">
        <ele>182.068658</ele>
        <time>2011-01-30T15:51:00Z</time>
      </trkpt>
      <trkpt lat="46.81658" lon="4.76599">
        <ele>182.060226</ele>
        <time>2011-01-30T15:51:01Z</time>
      </trkpt>
      <trkpt lat="46.8163" lon="4.76615">
        <ele>182.081262</ele>
        <time>2011-01-30T15:51:13Z</time>
      </trkpt>
      <trkpt lat="46.8162" lon="4.76618">
        <ele>182.188079</ele>
        <time>2011-01-30T15:51:16Z</time>
      </trkpt>
      <trkpt lat="46.8161" lon="4.7662">
        <ele>182.463776</ele>
        <time>2011-01-30T15:51:19Z</time>
      </trkpt>
      <trkpt lat="46.8161" lon="4.7662">
        <ele>182.805173</ele>
        <time>2011-01-30T15:51:22Z</time>
      </trkpt>
      <trkpt lat="46.81588" lon="4.76629">
        <ele>183.460684</ele>
        <time>2011-01-30T15:51:26Z</time>
      </trkpt>
      <trkpt lat="46.81577" lon="4.76638">
        <ele>184.77639</ele>
        <time>2011-01-30T15:51:29Z</time>
      </trkpt>
      <trkpt lat="46.81577" lon="4.76638">
        <ele>186.257351</ele>
        <time>2011-01-30T15:51:32Z</time>
      </trkpt>
      <trkpt lat="46.81562" lon="4.76664">
        <ele>187.295183</ele>
        <time>2011-01-30T15:51:39Z</time>
      </trkpt>
      <trkpt lat="46.81558" lon="4.76676">
        <ele>188.338541</ele>
        <time>2011-01-30T15:51:42Z</time>
      </trkpt>
      <trkpt lat="46.81555" lon="4.76691">
        <ele>189.864094</ele>
        <time>2011-01-30T15:51:45Z</time>
      </trkpt>
      <trkpt lat="46.81552" lon="4.76707">
        <ele>191.617647</ele>
        <time>2011-01-30T15:51:48Z</time>
      </trkpt>
      <trkpt lat="46.8155" lon="4.76722">
        <ele>193.072639</ele>
        <time>2011-01-30T15:51:51Z</time>
      </trkpt>
      <trkpt lat="46.81547" lon="4.76736">
        <ele>193.889783</ele>
        <time>2011-01-30T15:51:54Z</time>
      </trkpt>
      <trkpt lat="46.81545" lon="4.7675">
        <ele>194.089689</ele>
        <time>2011-01-30T15:51:57Z</time>
      </trkpt>
      <trkpt lat="46.81545" lon="4.7675">
        <ele>194.007188</ele>
        <time>2011-01-30T15:51:59Z</time>
      </trkpt>
      <trkpt lat="46.81544" lon="4.76777">
        <ele>193.867918</ele>
        <time>2011-01-30T15:52:02Z</time>
      </trkpt>
      <trkpt lat="46.81541" lon="4.76797">
        <ele>193.728588</ele>
        <time>2011-01-30T15:52:05Z</time>
      </trkpt>
      <trkpt lat="46.81539" lon="4.76813">
        <ele>193.583135</ele>
        <time>2011-01-30T15:52:07Z</time>
      </trkpt>
      <trkpt lat="46.81536" lon="4.76827">
        <ele>193.386162</ele>
        <time>2011-01-30T15:52:09Z</time>
      </trkpt>
      <trkpt lat="46.81534" lon="4.76845">
        <ele>192.885336</ele>
        <time>2011-01-30T15:52:12Z</time>
      </trkpt>
      <trkpt lat="46.81531" lon="4.76861">
        <ele>191.692747</ele>
        <time>2011-01-30T15:52:15Z</time>
      </trkpt>
      <trkpt lat="46.81528" lon="4.7688">
        <ele>189.841051</ele>
        <time>2011-01-30T15:52:18Z</time>
      </trkpt>
      <trkpt lat="46.81526" lon="4.76895">
        <ele>187.90606</ele>
        <time>2011-01-30T15:52:20Z</time>
      </trkpt>
      <trkpt lat="46.81523" lon="4.76915">
        <ele>186.468038</ele>
        <time>2011-01-30T15:52:23Z</time>
      </trkpt>
      <trkpt lat="46.81521" lon="4.76929">
        <ele>185.635586</ele>
        <time>2011-01-30T15:52:25Z</time>
      </trkpt>
      <trkpt lat="46.8152" lon="4.76943">
        <ele>185.026821</ele>
        <time>2011-01-30T15:52:27Z</time>
      </trkpt>
      <trkpt lat="46.81518" lon="4.76958">
        <ele>184.328119</ele>
        <time>2011-01-30T15:52:29Z</time>
      </trkpt>
      <trkpt lat="46.81515" lon="4.76982">
        <ele>183.697944</ele>
        <time>2011-01-30T15:52:32Z</time>
      </trkpt>
      <trkpt lat="46.81511" lon="4.77004">
        <ele>183.33684</ele>
        <time>2011-01-30T15:52:35Z</time>
      </trkpt>
      <trkpt lat="46.81507" lon="4.77027">
        <ele>183.194657</ele>
        <time>2011-01-30T15:52:38Z</time>
      </trkpt>
      <trkpt lat="46.81503" lon="4.77051">
        <ele>183.163981</ele>
        <time>2011-01-30T15:52:41Z</time>
      </trkpt>
      <trkpt lat="46.81501" lon="4.77064">
        <ele>183.208901</ele>
        <time>2011-01-30T15:52:43Z</time>
      </trkpt>
      <trkpt lat="46.81498" lon="4.77086">
        <ele>183.326145</ele>
        <time>2011-01-30T15:52:46Z</time>
      </trkpt>
      <trkpt lat="46.81498" lon="4.77086">
        <ele>183.473117</ele>
        <time>2011-01-30T15:52:48Z</time>
      </trkpt>
      <trkpt lat="46.81492" lon="4.77121">
        <ele>183.69378</ele>
        <time>2011-01-30T15:52:51Z</time>
      </trkpt>
      <trkpt lat="46.81487" lon="4.77145">
        <ele>184.0845</ele>
        <time>2011-01-30T15:52:54Z</time>
      </trkpt>
      <trkpt lat="46.81484" lon="4.77164">
        <ele>184.615385</ele>
        <time>2011-01-30T15:52:57Z</time>
      </trkpt>
      <trkpt lat="46.81484" lon="4.77164">
        <ele>185.128051</ele>
        <time>2011-01-30T15:53:00Z</time>
      </trkpt>
      <trkpt lat="46.81479" lon="4.772">
        <ele>185.67348</ele>
        <time>2011-01-30T15:53:03Z</time>
      </trkpt>
      <trkpt lat="46.81475" lon="4.77225">
        <ele>186.334121</ele>
        <time>2011-01-30T15:53:06Z</time>
      </trkpt>
      <trkpt lat="46.81471" lon="4.77256">
        <ele>186.889555</ele>
        <time>2011-01-30T15:53:09Z</time>
      </trkpt>
      <trkpt lat="46.81468" lon="4.77277">
        <ele>187.020646</ele>
        <time>2011-01-30T15:53:11Z</time>
      </trkpt>
      <trkpt lat="46.81463" lon="4.77306">
        <ele>186.778773</ele>
        <time>2011-01-30T15:53:14Z</time>
      </trkpt>
      <trkpt lat="46.81459" lon="4.77331">
        <ele>186.461196</ele>
        <time>2011-01-30T15:53:17Z</time>
      </trkpt>
      <trkpt lat="46.81455" lon="4.77355">
        <ele>186.294719</ele>
        <time>2011-01-30T15:53:20Z</time>
      </trkpt>
      <trkpt lat="46.81452" lon="4.77374">
        <ele>186.266347</ele>
        <time>2011-01-30T15:53:23Z</time>
      </trkpt>
      <trkpt lat="46.81448" lon="4.77393">
        <ele>186.35173</ele>
        <time>2011-01-30T15:53:26Z</time>
      </trkpt>
      <trkpt lat="46.81445" lon="4.77413">
        <ele>186.919002</ele>
        <time>2011-01-30T15:53:29Z</time>
      </trkpt>
      <trkpt lat="46.81443" lon="4.77428">
        <ele>188.157167</ele>
        <time>2011-01-30T15:53:31Z</time>
      </trkpt>
      <trkpt lat="46.8144" lon="4.77449">
        <ele>189.481562</ele>
        <time>2011-01-30T15:53:34Z</time>
      </trkpt>
      <trkpt lat="46.81438" lon="4.77467">
        <ele>190.368202</ele>
        <time>2011-01-30T15:53:37Z</time>
      </trkpt>
      <trkpt lat="46.81436" lon="4.77486">
        <ele>190.906535</ele>
        <time>2011-01-30T15:53:40Z</time>
      </trkpt>
      <trkpt lat="46.81436" lon="4.77486">
        <ele>191.225345</ele>
        <time>2011-01-30T15:53:43Z</time>
      </trkpt>
      <trkpt lat="46.81428" lon="4.77534">
        <ele>191.4202</ele>
        <time>2011-01-30T15:53:55Z</time>
      </trkpt>
      <trkpt lat="46.81428" lon="4.77534">
        <ele>191.584211</ele>
        <time>2011-01-30T15:53:58Z</time>
      </trkpt>
      <trkpt lat="46.81428" lon="4.77534">
        <ele>191.710494</ele>
        <time>2011-01-30T15:55:00Z</time>
      </trkpt>
      <trkpt lat="46.81421" lon="4.77515">
        <ele>191.812927</ele>
        <time>2011-01-30T15:55:29Z</time>
      </trkpt>
      <trkpt lat="46.81412" lon="4.77511">
        <ele>192.024685</ele>
        <time>2011-01-30T15:55:32Z</time>
      </trkpt>
      <trkpt lat="46.81403" lon="4.77506">
        <ele>192.862443</ele>
        <time>2011-01-30T15:55:35Z</time>
      </trkpt>
      <trkpt lat="46.81393" lon="4.77504">
        <ele>195.216996</ele>
        <time>2011-01-30T15:55:38Z</time>
      </trkpt>
      <trkpt lat="46.81381" lon="4.77501">
        <ele>198.715041</ele>
        <time>2011-01-30T15:55:41Z</time>
      </trkpt>
      <trkpt lat="46.8137" lon="4.77496">
        <ele>201.580307</ele>
        <time>2011-01-30T15:55:44Z</time>
      </trkpt>
      <trkpt lat="46.81357" lon="4.77492">
        <ele>202.92452</ele>
        <time>2011-01-30T15:55:47Z</time>
      </trkpt>
      <trkpt lat="46.81345" lon="4.77488">
        <ele>203.280302</ele>
        <time>2011-01-30T15:55:50Z</time>
      </trkpt>
      <trkpt lat="46.81332" lon="4.77484">
        <ele>203.414141</ele>
        <time>2011-01-30T15:55:53Z</time>
      </trkpt>
      <trkpt lat="46.8132" lon="4.77479">
        <ele>203.798585</ele>
        <time>2011-01-30T15:55:56Z</time>
      </trkpt>
      <trkpt lat="46.81311" lon="4.77476">
        <ele>204.364721</ele>
        <time>2011-01-30T15:55:58Z</time>
      </trkpt>
      <trkpt lat="46.81301" lon="4.77473">
        <ele>204.779535</ele>
        <time>2011-01-30T15:56:00Z</time>
      </trkpt>
      <trkpt lat="46.81285" lon="4.77468">
        <ele>204.930157</ele>
        <time>2011-01-30T15:56:03Z</time>
      </trkpt>
      <trkpt lat="46.81269" lon="4.77463">
        <ele>204.923737</ele>
        <time>2011-01-30T15:56:06Z</time>
      </trkpt>
      <trkpt lat="46.81252" lon="4.77458">
        <ele>204.871132</ele>
        <time>2011-01-30T15:56:09Z</time>
      </trkpt>
      <trkpt lat="46.81241" lon="4.77455">
        <ele>204.810905</ele>
        <time>2011-01-30T15:56:11Z</time>
      </trkpt>
      <trkpt lat="46.81225" lon="4.77451">
        <ele>204.700903</ele>
        <time>2011-01-30T15:56:14Z</time>
      </trkpt>
      <trkpt lat="46.81214" lon="4.77447">
        <ele>204.496088</ele>
        <time>2011-01-30T15:56:16Z</time>
      </trkpt>
      <trkpt lat="46.81197" lon="4.77441">
        <ele>204.227944</ele>
        <time>2011-01-30T15:56:19Z</time>
      </trkpt>
      <trkpt lat="46.81181" lon="4.77437">
        <ele>203.951692</ele>
        <time>2011-01-30T15:56:22Z</time>
      </trkpt>
      <trkpt lat="46.81171" lon="4.77434">
        <ele>203.638374</ele>
        <time>2011-01-30T15:56:24Z</time>
      </trkpt>
      <trkpt lat="46.81155" lon="4.7743">
        <ele>203.191091</ele>
        <time>2011-01-30T15:56:27Z</time>
      </trkpt>
      <trkpt lat="46.81139" lon="4.77426">
        <ele>202.58992</ele>
        <time>2011-01-30T15:56:30Z</time>
      </trkpt>
      <trkpt lat="46.81123" lon="4.77424">
        <ele>201.98578</ele>
        <time>2011-01-30T15:56:33Z</time>
      </trkpt>
      <trkpt lat="46.81108" lon="4.77421">
        <ele>201.40749</ele>
        <time>2011-01-30T15:56:36Z</time>
      </trkpt>
      <trkpt lat="46.81097" lon="4.77418">
        <ele>200.722846</ele>
        <time>2011-01-30T15:56:38Z</time>
      </trkpt>
      <trkpt lat="46.8108" lon="4.77413">
        <ele>200.012604</ele>
        <time>2011-01-30T15:56:41Z</time>
      </trkpt>
      <trkpt lat="46.81065" lon="4.77408">
        <ele>199.446818</ele>
        <time>2011-01-30T15:56:44Z</time>
      </trkpt>
      <trkpt lat="46.81051" lon="4.77404">
        <ele>199.014618</ele>
        <time>2011-01-30T15:56:47Z</time>
      </trkpt>
      <trkpt lat="46.8104" lon="4.77399">
        <ele>198.645427</ele>
        <time>2011-01-30T15:56:50Z</time>
      </trkpt>
      <trkpt lat="46.81029" lon="4.77394">
        <ele>198.243198</ele>
        <time>2011-01-30T15:56:53Z</time>
      </trkpt>
      <trkpt lat="46.81017" lon="4.77391">
        <ele>197.797255</ele>
        <time>2011-01-30T15:56:56Z</time>
      </trkpt>
      <trkpt lat="46.81004" lon="4.77391">
        <ele>197.304244</ele>
        <time>2011-01-30T15:56:59Z</time>
      </trkpt>
      <trkpt lat="46.80991" lon="4.77389">
        <ele>196.737681</ele>
        <time>2011-01-30T15:57:02Z</time>
      </trkpt>
      <trkpt lat="46.80976" lon="4.77385">
        <ele>196.258204</ele>
        <time>2011-01-30T15:57:05Z</time>
      </trkpt>
      <trkpt lat="46.80967" lon="4.77382">
        <ele>196.036039</ele>
        <time>2011-01-30T15:57:07Z</time>
      </trkpt>
      <trkpt lat="46.80955" lon="4.77378">
        <ele>196.005592</ele>
        <time>2011-01-30T15:57:10Z</time>
      </trkpt>
      <trkpt lat="46.80945" lon="4.77376">
        <ele>196.094681</ele>
        <time>2011-01-30T15:57:12Z</time>
      </trkpt>
      <trkpt lat="46.80931" lon="4.77372">
        <ele>196.371243</ele>
        <time>2011-01-30T15:57:15Z</time>
      </trkpt>
      <trkpt lat="46.80917" lon="4.77368">
        <ele>196.902876</ele>
        <time>2011-01-30T15:57:18Z</time>
      </trkpt>
      <trkpt lat="46.80908" lon="4.77365">
        <ele>197.521694</ele>
        <time>2011-01-30T15:57:20Z</time>
      </trkpt>
      <trkpt lat="46.80898" lon="4.77363">
        <ele>197.950528</ele>
        <time>2011-01-30T15:57:22Z</time>
      </trkpt>
      <trkpt lat="46.80883" lon="4.7736">
        <ele>198.107316</ele>
        <time>2011-01-30T15:57:25Z</time>
      </trkpt>
      <trkpt lat="46.80871" lon="4.77357">
        <ele>198.103031</ele>
        <time>2011-01-30T15:57:28Z</time>
      </trkpt>
      <trkpt lat="46.80859" lon="4.77352">
        <ele>198.051126</ele>
        <time>2011-01-30T15:57:31Z</time>
      </trkpt>
      <trkpt lat="46.80848" lon="4.77347">
        <ele>198.005887</ele>
        <time>2011-01-30T15:57:34Z</time>
      </trkpt>
      <trkpt lat="46.80836" lon="4.77343">
        <ele>197.982647</ele>
        <time>2011-01-30T15:57:37Z</time>
      </trkpt>
      <trkpt lat="46.80823" lon="4.77339">
        <ele>197.978061</ele>
        <time>2011-01-30T15:57:40Z</time>
      </trkpt>
      <trkpt lat="46.80823" lon="4.77339">
        <ele>197.953947</ele>
        <time>2011-01-30T15:57:41Z</time>
      </trkpt>
      <trkpt lat="46.80799" lon="4.7736">
        <ele>197.936104</ele>
        <time>2011-01-30T15:57:57Z</time>
      </trkpt>
      <trkpt lat="46.80799" lon="4.7736">
        <ele>197.994039</ele>
        <time>2011-01-30T15:58:00Z</time>
      </trkpt>
      <trkpt lat="46.80799" lon="4.7736">
        <ele>198.092223</ele>
        <time>2011-01-30T15:58:31Z</time>
      </trkpt>
      <trkpt lat="46.80819" lon="4.77346">
        <ele>198.197304</ele>
        <time>2011-01-30T15:59:57Z</time>
      </trkpt>
      <trkpt lat="46.80829" lon="4.77349">
        <ele>198.383089</ele>
        <time>2011-01-30T16:00:01Z</time>
      </trkpt>
      <trkpt lat="46.8084" lon="4.7735">
        <ele>198.801585</ele>
        <time>2011-01-30T16:00:05Z</time>
      </trkpt>
      <trkpt lat="46.8085" lon="4.77351">
        <ele>199.670229</ele>
        <time>2011-01-30T16:00:09Z</time>
      </trkpt>
      <trkpt lat="46.80861" lon="4.77352">
        <ele>200.816537</ele>
        <time>2011-01-30T16:00:13Z</time>
      </trkpt>
      <trkpt lat="46.80872" lon="4.77356">
        <ele>201.666967</ele>
        <time>2011-01-30T16:00:17Z</time>
      </trkpt>
      <trkpt lat="46.80881" lon="4.77361">
        <ele>201.979853</ele>
        <time>2011-01-30T16:00:21Z</time>
      </trkpt>
      <trkpt lat="46.80891" lon="4.77365">
        <ele>201.953669</ele>
        <time>2011-01-30T16:00:24Z</time>
      </trkpt>
      <trkpt lat="46.80902" lon="4.77369">
        <ele>201.766223</ele>
        <time>2011-01-30T16:00:28Z</time>
      </trkpt>
      <trkpt lat="46.80912" lon="4.77374">
        <ele>201.471024</ele>
        <time>2011-01-30T16:00:31Z</time>
      </trkpt>
      <trkpt lat="46.80922" lon="4.77376">
        <ele>201.090773</ele>
        <time>2011-01-30T16:00:34Z</time>
      </trkpt>
      <trkpt lat="46.80932" lon="4.77378">
        <ele>200.651333</ele>
        <time>2011-01-30T16:00:37Z</time>
      </trkpt>
      <trkpt lat="46.80942" lon="4.7738">
        <ele>200.169129</ele>
        <time>2011-01-30T16:00:40Z</time>
      </trkpt>
      <trkpt lat="46.80953" lon="4.77384">
        <ele>199.66831</ele>
        <time>2011-01-30T16:00:43Z</time>
      </trkpt>
      <trkpt lat="46.80963" lon="4.77388">
        <ele>199.17432</ele>
        <time>2011-01-30T16:00:46Z</time>
      </trkpt>
      <trkpt lat="46.80973" lon="4.77389">
        <ele>198.696677</ele>
        <time>2011-01-30T16:00:50Z</time>
      </trkpt>
      <trkpt lat="46.80983" lon="4.77391">
        <ele>198.242735</ele>
        <time>2011-01-30T16:00:54Z</time>
      </trkpt>
      <trkpt lat="46.80983" lon="4.77391">
        <ele>197.867686</ele>
        <time>2011-01-30T16:00:55Z</time>
      </trkpt>
      <trkpt lat="46.80997" lon="4.77393">
        <ele>197.600074</ele>
        <time>2011-01-30T16:01:02Z</time>
      </trkpt>
      <trkpt lat="46.81008" lon="4.77395">
        <ele>197.347438</ele>
        <time>2011-01-30T16:01:06Z</time>
      </trkpt>
      <trkpt lat="46.81019" lon="4.77398">
        <ele>197.030307</ele>
        <time>2011-01-30T16:01:09Z</time>
      </trkpt>
      <trkpt lat="46.8103" lon="4.77402">
        <ele>196.6781</ele>
        <time>2011-01-30T16:01:12Z</time>
      </trkpt>
      <trkpt lat="46.8104" lon="4.77406">
        <ele>196.342549</ele>
        <time>2011-01-30T16:01:15Z</time>
      </trkpt>
      <trkpt lat="46.81049" lon="4.77411">
        <ele>196.057656</ele>
        <time>2011-01-30T16:01:18Z</time>
      </trkpt>
      <trkpt lat="46.81058" lon="4.77415">
        <ele>195.817005</ele>
        <time>2011-01-30T16:01:21Z</time>
      </trkpt>
      <trkpt lat="46.81067" lon="4.77417">
        <ele>195.567334</ele>
        <time>2011-01-30T16:01:24Z</time>
      </trkpt>
      <trkpt lat="46.81077" lon="4.7742">
        <ele>195.264315</ele>
        <time>2011-01-30T16:01:27Z</time>
      </trkpt>
      <trkpt lat="46.81089" lon="4.77423">
        <ele>194.930672</ele>
        <time>2011-01-30T16:01:30Z</time>
      </trkpt>
      <trkpt lat="46.81106" lon="4.77426">
        <ele>194.647122</ele>
        <time>2011-01-30T16:01:33Z</time>
      </trkpt>
      <trkpt lat="46.8112" lon="4.77428">
        <ele>194.478714</ele>
        <time>2011-01-30T16:01:36Z</time>
      </trkpt>
      <trkpt lat="46.81129" lon="4.77431">
        <ele>194.424045</ele>
        <time>2011-01-30T16:01:38Z</time>
      </trkpt>
      <trkpt lat="46.81145" lon="4.77435">
        <ele>194.430919</ele>
        <time>2011-01-30T16:01:41Z</time>
      </trkpt>
      <trkpt lat="46.81154" lon="4.77437">
        <ele>194.620798</ele>
        <time>2011-01-30T16:01:43Z</time>
      </trkpt>
      <trkpt lat="46.81169" lon="4.77443">
        <ele>195.127192</ele>
        <time>2011-01-30T16:01:46Z</time>
      </trkpt>
      <trkpt lat="46.81181" lon="4.77447">
        <ele>195.719785</ele>
        <time>2011-01-30T16:01:48Z</time>
      </trkpt>
      <trkpt lat="46.81197" lon="4.77452">
        <ele>196.073347</ele>
        <time>2011-01-30T16:01:51Z</time>
      </trkpt>
      <trkpt lat="46.81208" lon="4.77455">
        <ele>196.17037</ele>
        <time>2011-01-30T16:01:53Z</time>
      </trkpt>
      <trkpt lat="46.81222" lon="4.77458">
        <ele>196.111162</ele>
        <time>2011-01-30T16:01:56Z</time>
      </trkpt>
      <trkpt lat="46.81235" lon="4.77461">
        <ele>195.973628</ele>
        <time>2011-01-30T16:01:59Z</time>
      </trkpt>
      <trkpt lat="46.81245" lon="4.77464">
        <ele>195.819042</ele>
        <time>2011-01-30T16:02:02Z</time>
      </trkpt>
      <trkpt lat="46.81257" lon="4.77468">
        <ele>195.561802</ele>
        <time>2011-01-30T16:02:06Z</time>
      </trkpt>
      <trkpt lat="46.81268" lon="4.77471">
        <ele>195.127278</ele>
        <time>2011-01-30T16:02:10Z</time>
      </trkpt>
      <trkpt lat="46.81279" lon="4.77474">
        <ele>194.704396</ele>
        <time>2011-01-30T16:02:14Z</time>
      </trkpt>
      <trkpt lat="46.81279" lon="4.77474">
        <ele>194.485561</ele>
        <time>2011-01-30T16:02:17Z</time>
      </trkpt>
      <trkpt lat="46.8131" lon="4.77484">
        <ele>194.432457</ele>
        <time>2011-01-30T16:02:25Z</time>
      </trkpt>
      <trkpt lat="46.81321" lon="4.77487">
        <ele>194.445227</ele>
        <time>2011-01-30T16:02:28Z</time>
      </trkpt>
      <trkpt lat="46.81321" lon="4.77487">
        <ele>194.460551</ele>
        <time>2011-01-30T16:02:29Z</time>
      </trkpt>
      <trkpt lat="46.81352" lon="4.77497">
        <ele>194.458493</ele>
        <time>2011-01-30T16:03:01Z</time>
      </trkpt>
      <trkpt lat="46.81361" lon="4.77497">
        <ele>194.447604</ele>
        <time>2011-01-30T16:03:05Z</time>
      </trkpt>
      <trkpt lat="46.81372" lon="4.77499">
        <ele>194.445702</ele>
        <time>2011-01-30T16:03:09Z</time>
      </trkpt>
      <trkpt lat="46.81381" lon="4.77501">
        <ele>195.004654</ele>
        <time>2011-01-30T16:03:12Z</time>
      </trkpt>
      <trkpt lat="46.81392" lon="4.77503">
        <ele>196.552761</ele>
        <time>2011-01-30T16:03:15Z</time>
      </trkpt>
      <trkpt lat="46.81403" lon="4.77506">
        <ele>198.388962</ele>
        <time>2011-01-30T16:03:18Z</time>
      </trkpt>
      <trkpt lat="46.81414" lon="4.77508">
        <ele>199.648521</ele>
        <time>2011-01-30T16:03:21Z</time>
      </trkpt>
      <trkpt lat="46.81414" lon="4.77508">
        <ele>200.261305</ele>
        <time>2011-01-30T16:03:25Z</time>
      </trkpt>
      <trkpt lat="46.81424" lon="4.7756">
        <ele>200.472808</ele>
        <time>2011-01-30T16:03:42Z</time>
      </trkpt>
      <trkpt lat="46.81424" lon="4.7756">
        <ele>200.554696</ele>
        <time>2011-01-30T16:03:46Z</time>
      </trkpt>
      <trkpt lat="46.81418" lon="4.77585">
        <ele>200.656967</ele>
        <time>2011-01-30T16:03:50Z</time>
      </trkpt>
      <trkpt lat="46.81413" lon="4.77605">
        <ele>200.83859</ele>
        <time>2011-01-30T16:03:53Z</time>
      </trkpt>
      <trkpt lat="46.81408" lon="4.77633">
        <ele>201.276579</ele>
        <time>2011-01-30T16:03:56Z</time>
      </trkpt>
      <trkpt lat="46.81403" lon="4.77669">
        <ele>201.983429</ele>
        <time>2011-01-30T16:03:59Z</time>
      </trkpt>
      <trkpt lat="46.814" lon="4.77706">
        <ele>202.601105</ele>
        <time>2011-01-30T16:04:02Z</time>
      </trkpt>
      <trkpt lat="46.81396" lon="4.7773">
        <ele>202.644754</ele>
        <time>2011-01-30T16:04:04Z</time>
      </trkpt>
      <trkpt lat="46.81392" lon="4.77757">
        <ele>202.095084</ele>
        <time>2011-01-30T16:04:06Z</time>
      </trkpt>
      <trkpt lat="46.81385" lon="4.77796">
        <ele>201.239317</ele>
        <time>2011-01-30T16:04:09Z</time>
      </trkpt>
      <trkpt lat="46.81381" lon="4.77822">
        <ele>200.29456</ele>
        <time>2011-01-30T16:04:11Z</time>
      </trkpt>
      <trkpt lat="46.81376" lon="4.77847">
        <ele>199.438884</ele>
        <time>2011-01-30T16:04:13Z</time>
      </trkpt>
      <trkpt lat="46.81372" lon="4.77871">
        <ele>198.830575</ele>
        <time>2011-01-30T16:04:15Z</time>
      </trkpt>
      <trkpt lat="46.81365" lon="4.77904">
        <ele>198.374176</ele>
        <time>2011-01-30T16:04:18Z</time>
      </trkpt>
      <trkpt lat="46.81362" lon="4.77924">
        <ele>197.944004</ele>
        <time>2011-01-30T16:04:20Z</time>
      </trkpt>
      <trkpt lat="46.81358" lon="4.77952">
        <ele>197.443145</ele>
        <time>2011-01-30T16:04:23Z</time>
      </trkpt>
      <trkpt lat="46.81356" lon="4.77969">
        <ele>196.751331</ele>
        <time>2011-01-30T16:04:25Z</time>
      </trkpt>
      <trkpt lat="46.81355" lon="4.77993">
        <ele>195.86602</ele>
        <time>2011-01-30T16:04:28Z</time>
      </trkpt>
      <trkpt lat="46.81355" lon="4.78008">
        <ele>194.944491</ele>
        <time>2011-01-30T16:04:30Z</time>
      </trkpt>
      <trkpt lat="46.81354" lon="4.78024">
        <ele>194.050887</ele>
        <time>2011-01-30T16:04:32Z</time>
      </trkpt>
      <trkpt lat="46.81353" lon="4.78047">
        <ele>192.965128</ele>
        <time>2011-01-30T16:04:35Z</time>
      </trkpt>
      <trkpt lat="46.81352" lon="4.78067">
        <ele>191.457337</ele>
        <time>2011-01-30T16:04:38Z</time>
      </trkpt>
      <trkpt lat="46.81349" lon="4.78088">
        <ele>189.640682</ele>
        <time>2011-01-30T16:04:41Z</time>
      </trkpt>
      <trkpt lat="46.81347" lon="4.78102">
        <ele>187.885189</ele>
        <time>2011-01-30T16:04:43Z</time>
      </trkpt>
      <trkpt lat="46.81345" lon="4.78125">
        <ele>186.541574</ele>
        <time>2011-01-30T16:04:46Z</time>
      </trkpt>
      <trkpt lat="46.81343" lon="4.7814">
        <ele>185.803861</ele>
        <time>2011-01-30T16:04:48Z</time>
      </trkpt>
      <trkpt lat="46.81341" lon="4.78156">
        <ele>185.586879</ele>
        <time>2011-01-30T16:04:50Z</time>
      </trkpt>
      <trkpt lat="46.81339" lon="4.7818">
        <ele>185.627839</ele>
        <time>2011-01-30T16:04:53Z</time>
      </trkpt>
      <trkpt lat="46.81337" lon="4.78196">
        <ele>185.720463</ele>
        <time>2011-01-30T16:04:55Z</time>
      </trkpt>
      <trkpt lat="46.81335" lon="4.78211">
        <ele>185.85249</ele>
        <time>2011-01-30T16:04:57Z</time>
      </trkpt>
      <trkpt lat="46.81332" lon="4.78234">
        <ele>186.069506</ele>
        <time>2011-01-30T16:05:00Z</time>
      </trkpt>
      <trkpt lat="46.81332" lon="4.78248">
        <ele>186.333879</ele>
        <time>2011-01-30T16:05:02Z</time>
      </trkpt>
      <trkpt lat="46.81331" lon="4.78267">
        <ele>186.64462</ele>
        <time>2011-01-30T16:05:05Z</time>
      </trkpt>
      <trkpt lat="46.81329" lon="4.78286">
        <ele>187.086095</ele>
        <time>2011-01-30T16:05:08Z</time>
      </trkpt>
      <trkpt lat="46.81328" lon="4.783">
        <ele>187.65522</ele>
        <time>2011-01-30T16:05:11Z</time>
      </trkpt>
      <trkpt lat="46.81328" lon="4.783">
        <ele>188.185925</ele>
        <time>2011-01-30T16:05:14Z</time>
      </trkpt>
      <trkpt lat="46.81299" lon="4.78306">
        <ele>188.592093</ele>
        <time>2011-01-30T16:05:47Z</time>
      </trkpt>
      <trkpt lat="46.81299" lon="4.78306">
        <ele>188.931602</ele>
        <time>2011-01-30T16:06:03Z</time>
      </trkpt>
      <trkpt lat="46.81299" lon="4.78306">
        <ele>189.171196</ele>
        <time>2011-01-30T16:06:17Z</time>
      </trkpt>
      <trkpt lat="46.81315" lon="4.78335">
        <ele>189.321435</ele>
        <time>2011-01-30T16:06:45Z</time>
      </trkpt>
      <trkpt lat="46.81319" lon="4.78347">
        <ele>189.495002</ele>
        <time>2011-01-30T16:06:47Z</time>
      </trkpt>
      <trkpt lat="46.81322" lon="4.78367">
        <ele>189.682618</ele>
        <time>2011-01-30T16:06:50Z</time>
      </trkpt>
      <trkpt lat="46.81327" lon="4.78378">
        <ele>189.901137</ele>
        <time>2011-01-30T16:06:53Z</time>
      </trkpt>
      <trkpt lat="46.81327" lon="4.78398">
        <ele>190.211087</ele>
        <time>2011-01-30T16:06:56Z</time>
      </trkpt>
      <trkpt lat="46.81324" lon="4.78413">
        <ele>190.540553</ele>
        <time>2011-01-30T16:06:58Z</time>
      </trkpt>
      <trkpt lat="46.81316" lon="4.78435">
        <ele>190.791135</ele>
        <time>2011-01-30T16:07:01Z</time>
      </trkpt>
      <trkpt lat="46.81311" lon="4.78455">
        <ele>190.940521</ele>
        <time>2011-01-30T16:07:04Z</time>
      </trkpt>
      <trkpt lat="46.81306" lon="4.78474">
        <ele>190.998494</ele>
        <time>2011-01-30T16:07:07Z</time>
      </trkpt>
      <trkpt lat="46.81303" lon="4.78487">
        <ele>190.999524</ele>
        <time>2011-01-30T16:07:09Z</time>
      </trkpt>
      <trkpt lat="46.81299" lon="4.78507">
        <ele>190.973003</ele>
        <time>2011-01-30T16:07:12Z</time>
      </trkpt>
      <trkpt lat="46.81298" lon="4.7852">
        <ele>190.881235</ele>
        <time>2011-01-30T16:07:14Z</time>
      </trkpt>
      <trkpt lat="46.81296" lon="4.78534">
        <ele>190.685577</ele>
        <time>2011-01-30T16:07:16Z</time>
      </trkpt>
      <trkpt lat="46.81294" lon="4.78557">
        <ele>190.451033</ele>
        <time>2011-01-30T16:07:19Z</time>
      </trkpt>
      <trkpt lat="46.8129" lon="4.7858">
        <ele>190.278368</ele>
        <time>2011-01-30T16:07:22Z</time>
      </trkpt>
      <trkpt lat="46.81286" lon="4.78604">
        <ele>190.1957</ele>
        <time>2011-01-30T16:07:25Z</time>
      </trkpt>
      <trkpt lat="46.8128" lon="4.7863">
        <ele>190.177685</ele>
        <time>2011-01-30T16:07:28Z</time>
      </trkpt>
      <trkpt lat="46.81277" lon="4.78647">
        <ele>190.203045</ele>
        <time>2011-01-30T16:07:30Z</time>
      </trkpt>
      <trkpt lat="46.81273" lon="4.78673">
        <ele>190.273306</ele>
        <time>2011-01-30T16:07:33Z</time>
      </trkpt>
      <trkpt lat="46.81268" lon="4.787">
        <ele>190.366899</ele>
        <time>2011-01-30T16:07:36Z</time>
      </trkpt>
      <trkpt lat="46.81265" lon="4.78717">
        <ele>190.434873</ele>
        <time>2011-01-30T16:07:38Z</time>
      </trkpt>
      <trkpt lat="46.81262" lon="4.78733">
        <ele>190.45932</ele>
        <time>2011-01-30T16:07:40Z</time>
      </trkpt>
      <trkpt lat="46.81259" lon="4.78759">
        <ele>190.305985</ele>
        <time>2011-01-30T16:07:43Z</time>
      </trkpt>
      <trkpt lat="46.81257" lon="4.78776">
        <ele>189.89565</ele>
        <time>2011-01-30T16:07:45Z</time>
      </trkpt>
      <trkpt lat="46.81253" lon="4.788">
        <ele>189.407446</ele>
        <time>2011-01-30T16:07:48Z</time>
      </trkpt>
      <trkpt lat="46.81249" lon="4.78824">
        <ele>189.027469</ele>
        <time>2011-01-30T16:07:51Z</time>
      </trkpt>
      <trkpt lat="46.81246" lon="4.78839">
        <ele>188.797606</ele>
        <time>2011-01-30T16:07:53Z</time>
      </trkpt>
      <trkpt lat="46.81244" lon="4.78854">
        <ele>188.733021</ele>
        <time>2011-01-30T16:07:55Z</time>
      </trkpt>
      <trkpt lat="46.81242" lon="4.7887">
        <ele>188.772987</ele>
        <time>2011-01-30T16:07:57Z</time>
      </trkpt>
      <trkpt lat="46.81241" lon="4.78885">
        <ele>188.841488</ele>
        <time>2011-01-30T16:07:59Z</time>
      </trkpt>
      <trkpt lat="46.81239" lon="4.789">
        <ele>188.93864</ele>
        <time>2011-01-30T16:08:01Z</time>
      </trkpt>
      <trkpt lat="46.81237" lon="4.78923">
        <ele>189.086114</ele>
        <time>2011-01-30T16:08:04Z</time>
      </trkpt>
      <trkpt lat="46.81235" lon="4.78938">
        <ele>189.258263</ele>
        <time>2011-01-30T16:08:06Z</time>
      </trkpt>
      <trkpt lat="46.81232" lon="4.78961">
        <ele>189.472875</ele>
        <time>2011-01-30T16:08:09Z</time>
      </trkpt>
      <trkpt lat="46.8123" lon="4.78978">
        <ele>189.832862</ele>
        <time>2011-01-30T16:08:11Z</time>
      </trkpt>
      <trkpt lat="46.81228" lon="4.78995">
        <ele>190.297084</ele>
        <time>2011-01-30T16:08:13Z</time>
      </trkpt>
      <trkpt lat="46.81226" lon="4.79011">
        <ele>190.649498</ele>
        <time>2011-01-30T16:08:15Z</time>
      </trkpt>
      <trkpt lat="46.81222" lon="4.79025">
        <ele>190.782234</ele>
        <time>2011-01-30T16:08:17Z</time>
      </trkpt>
      <trkpt lat="46.81219" lon="4.79039">
        <ele>190.724439</ele>
        <time>2011-01-30T16:08:19Z</time>
      </trkpt>
      <trkpt lat="46.81216" lon="4.79053">
        <ele>190.503832</ele>
        <time>2011-01-30T16:08:21Z</time>
      </trkpt>
      <trkpt lat="46.81213" lon="4.79066">
        <ele>190.231865</ele>
        <time>2011-01-30T16:08:23Z</time>
      </trkpt>
      <trkpt lat="46.8121" lon="4.7908">
        <ele>189.993016</ele>
        <time>2011-01-30T16:08:25Z</time>
      </trkpt>
      <trkpt lat="46.81205" lon="4.79102">
        <ele>189.733927</ele>
        <time>2011-01-30T16:08:28Z</time>
      </trkpt>
      <trkpt lat="46.81201" lon="4.79125">
        <ele>189.433645</ele>
        <time>2011-01-30T16:08:31Z</time>
      </trkpt>
      <trkpt lat="46.81199" lon="4.79143">
        <ele>189.139144</ele>
        <time>2011-01-30T16:08:34Z</time>
      </trkpt>
      <trkpt lat="46.81199" lon="4.79143">
        <ele>188.896357</ele>
        <time>2011-01-30T16:08:35Z</time>
      </trkpt>
      <trkpt lat="46.81194" lon="4.79176">
        <ele>188.699852</ele>
        <time>2011-01-30T16:08:44Z</time>
      </trkpt>
      <trkpt lat="46.81194" lon="4.7919">
        <ele>188.439437</ele>
        <time>2011-01-30T16:08:47Z</time>
      </trkpt>
      <trkpt lat="46.81197" lon="4.79206">
        <ele>188.020411</ele>
        <time>2011-01-30T16:08:51Z</time>
      </trkpt>
      <trkpt lat="46.81197" lon="4.79206">
        <ele>187.557068</ele>
        <time>2011-01-30T16:08:53Z</time>
      </trkpt>
      <trkpt lat="46.81193" lon="4.79233">
        <ele>187.250542</ele>
        <time>2011-01-30T16:08:59Z</time>
      </trkpt>
      <trkpt lat="46.81186" lon="4.79241">
        <ele>187.167285</ele>
        <time>2011-01-30T16:09:03Z</time>
      </trkpt>
      <trkpt lat="46.81178" lon="4.79248">
        <ele>187.220216</ele>
        <time>2011-01-30T16:09:06Z</time>
      </trkpt>
      <trkpt lat="46.81168" lon="4.79255">
        <ele>187.309383</ele>
        <time>2011-01-30T16:09:09Z</time>
      </trkpt>
      <trkpt lat="46.81156" lon="4.79261">
        <ele>187.396102</ele>
        <time>2011-01-30T16:09:12Z</time>
      </trkpt>
      <trkpt lat="46.81141" lon="4.7927">
        <ele>187.497869</ele>
        <time>2011-01-30T16:09:15Z</time>
      </trkpt>
      <trkpt lat="46.81133" lon="4.79276">
        <ele>187.607607</ele>
        <time>2011-01-30T16:09:17Z</time>
      </trkpt>
      <trkpt lat="46.8112" lon="4.79282">
        <ele>187.698163</ele>
        <time>2011-01-30T16:09:20Z</time>
      </trkpt>
      <trkpt lat="46.81107" lon="4.79286">
        <ele>188.005793</ele>
        <time>2011-01-30T16:09:23Z</time>
      </trkpt>
      <trkpt lat="46.81093" lon="4.79288">
        <ele>188.847394</ele>
        <time>2011-01-30T16:09:26Z</time>
      </trkpt>
      <trkpt lat="46.81081" lon="4.7929">
        <ele>189.99105</ele>
        <time>2011-01-30T16:09:29Z</time>
      </trkpt>
      <trkpt lat="46.81069" lon="4.79292">
        <ele>191.157421</ele>
        <time>2011-01-30T16:09:32Z</time>
      </trkpt>
      <trkpt lat="46.81059" lon="4.79293">
        <ele>192.549755</ele>
        <time>2011-01-30T16:09:35Z</time>
      </trkpt>
      <trkpt lat="46.81049" lon="4.79291">
        <ele>194.066925</ele>
        <time>2011-01-30T16:09:39Z</time>
      </trkpt>
      <trkpt lat="46.81036" lon="4.79288">
        <ele>195.151147</ele>
        <time>2011-01-30T16:09:43Z</time>
      </trkpt>
      <trkpt lat="46.81026" lon="4.79286">
        <ele>195.587025</ele>
        <time>2011-01-30T16:09:46Z</time>
      </trkpt>
      <trkpt lat="46.81015" lon="4.79283">
        <ele>195.60587</ele>
        <time>2011-01-30T16:09:49Z</time>
      </trkpt>
      <trkpt lat="46.81003" lon="4.79281">
        <ele>195.488787</ele>
        <time>2011-01-30T16:09:52Z</time>
      </trkpt>
      <trkpt lat="46.8099" lon="4.79277">
        <ele>195.353361</ele>
        <time>2011-01-30T16:09:55Z</time>
      </trkpt>
      <trkpt lat="46.80976" lon="4.79273">
        <ele>195.18022</ele>
        <time>2011-01-30T16:09:58Z</time>
      </trkpt>
      <trkpt lat="46.80967" lon="4.79269">
        <ele>194.920405</ele>
        <time>2011-01-30T16:10:00Z</time>
      </trkpt>
      <trkpt lat="46.80954" lon="4.79263">
        <ele>194.361845</ele>
        <time>2011-01-30T16:10:03Z</time>
      </trkpt>
      <trkpt lat="46.80941" lon="4.79257">
        <ele>192.914127</ele>
        <time>2011-01-30T16:10:06Z</time>
      </trkpt>
      <trkpt lat="46.80928" lon="4.79249">
        <ele>190.475679</ele>
        <time>2011-01-30T16:10:09Z</time>
      </trkpt>
      <trkpt lat="46.80919" lon="4.79245">
        <ele>187.898121</ele>
        <time>2011-01-30T16:10:11Z</time>
      </trkpt>
      <trkpt lat="46.8091" lon="4.79242">
        <ele>186.047149</ele>
        <time>2011-01-30T16:10:13Z</time>
      </trkpt>
      <trkpt lat="46.80895" lon="4.79235">
        <ele>185.135675</ele>
        <time>2011-01-30T16:10:16Z</time>
      </trkpt>
      <trkpt lat="46.80885" lon="4.79231">
        <ele>184.912006</ele>
        <time>2011-01-30T16:10:18Z</time>
      </trkpt>
      <trkpt lat="46.8087" lon="4.79224">
        <ele>184.959397</ele>
        <time>2011-01-30T16:10:21Z</time>
      </trkpt>
      <trkpt lat="46.80862" lon="4.79218">
        <ele>185.058762</ele>
        <time>2011-01-30T16:10:23Z</time>
      </trkpt>
      <trkpt lat="46.8085" lon="4.79213">
        <ele>185.143407</ele>
        <time>2011-01-30T16:10:26Z</time>
      </trkpt>
      <trkpt lat="46.80838" lon="4.7921">
        <ele>185.263176</ele>
        <time>2011-01-30T16:10:29Z</time>
      </trkpt>
      <trkpt lat="46.80811" lon="4.79218">
        <ele>185.47859</ele>
        <time>2011-01-30T16:10:31Z</time>
      </trkpt>
      <trkpt lat="46.80799" lon="4.79215">
        <ele>185.748223</ele>
        <time>2011-01-30T16:10:34Z</time>
      </trkpt>
      <trkpt lat="46.80787" lon="4.79214">
        <ele>185.979956</ele>
        <time>2011-01-30T16:10:37Z</time>
      </trkpt>
      <trkpt lat="46.80775" lon="4.79212">
        <ele>187.02296</ele>
        <time>2011-01-30T16:10:40Z</time>
      </trkpt>
      <trkpt lat="46.80765" lon="4.7921">
        <ele>190.053442</ele>
        <time>2011-01-30T16:10:43Z</time>
      </trkpt>
      <trkpt lat="46.80754" lon="4.79208">
        <ele>194.355349</ele>
        <time>2011-01-30T16:10:46Z</time>
      </trkpt>
      <trkpt lat="46.80745" lon="4.79208">
        <ele>197.862143</ele>
        <time>2011-01-30T16:10:49Z</time>
      </trkpt>
      <trkpt lat="46.80745" lon="4.79208">
        <ele>199.619783</ele>
        <time>2011-01-30T16:10:53Z</time>
      </trkpt>
      <trkpt lat="46.80745" lon="4.79208">
        <ele>200.000581</ele>
        <time>2011-01-30T16:11:27Z</time>
      </trkpt>
      <trkpt lat="46.80721" lon="4.79207">
        <ele>199.842511</ele>
        <time>2011-01-30T16:11:43Z</time>
      </trkpt>
      <trkpt lat="46.80717" lon="4.7922">
        <ele>199.774932</ele>
        <time>2011-01-30T16:11:46Z</time>
      </trkpt>
      <trkpt lat="46.80713" lon="4.79233">
        <ele>199.975304</ele>
        <time>2011-01-30T16:11:48Z</time>
      </trkpt>
      <trkpt lat="46.80708" lon="4.79254">
        <ele>200.397894</ele>
        <time>2011-01-30T16:11:51Z</time>
      </trkpt>
      <trkpt lat="46.80702" lon="4.79279">
        <ele>200.98444</ele>
        <time>2011-01-30T16:11:54Z</time>
      </trkpt>
      <trkpt lat="46.80698" lon="4.79306">
        <ele>201.580193</ele>
        <time>2011-01-30T16:11:57Z</time>
      </trkpt>
      <trkpt lat="46.80695" lon="4.79324">
        <ele>201.98436</ele>
        <time>2011-01-30T16:11:59Z</time>
      </trkpt>
      <trkpt lat="46.80689" lon="4.7935">
        <ele>202.144487</ele>
        <time>2011-01-30T16:12:02Z</time>
      </trkpt>
      <trkpt lat="46.80686" lon="4.79367">
        <ele>202.149741</ele>
        <time>2011-01-30T16:12:04Z</time>
      </trkpt>
      <trkpt lat="46.80682" lon="4.79385">
        <ele>202.093777</ele>
        <time>2011-01-30T16:12:06Z</time>
      </trkpt>
      <trkpt lat="46.80678" lon="4.79403">
        <ele>202.009089</ele>
        <time>2011-01-30T16:12:08Z</time>
      </trkpt>
      <trkpt lat="46.80672" lon="4.7943">
        <ele>201.90131</ele>
        <time>2011-01-30T16:12:11Z</time>
      </trkpt>
      <trkpt lat="46.80665" lon="4.79456">
        <ele>201.723436</ele>
        <time>2011-01-30T16:12:14Z</time>
      </trkpt>
      <trkpt lat="46.80658" lon="4.79481">
        <ele>201.415895</ele>
        <time>2011-01-30T16:12:17Z</time>
      </trkpt>
      <trkpt lat="46.80652" lon="4.79507">
        <ele>200.959599</ele>
        <time>2011-01-30T16:12:20Z</time>
      </trkpt>
      <trkpt lat="46.80646" lon="4.79532">
        <ele>200.33111</ele>
        <time>2011-01-30T16:12:23Z</time>
      </trkpt>
      <trkpt lat="46.80642" lon="4.79547">
        <ele>199.595991</ele>
        <time>2011-01-30T16:12:25Z</time>
      </trkpt>
      <trkpt lat="46.80636" lon="4.79567">
        <ele>198.955242</ele>
        <time>2011-01-30T16:12:28Z</time>
      </trkpt>
      <trkpt lat="46.80631" lon="4.79587">
        <ele>198.486944</ele>
        <time>2011-01-30T16:12:31Z</time>
      </trkpt>
      <trkpt lat="46.80628" lon="4.796">
        <ele>198.096492</ele>
        <time>2011-01-30T16:12:33Z</time>
      </trkpt>
      <trkpt lat="46.80627" lon="4.79617">
        <ele>197.700537</ele>
        <time>2011-01-30T16:12:36Z</time>
      </trkpt>
      <trkpt lat="46.80635" lon="4.79628">
        <ele>197.257327</ele>
        <time>2011-01-30T16:12:40Z</time>
      </trkpt>
      <trkpt lat="46.80644" lon="4.79638">
        <ele>196.737728</ele>
        <time>2011-01-30T16:12:43Z</time>
      </trkpt>
      <trkpt lat="46.80651" lon="4.79648">
        <ele>196.194869</ele>
        <time>2011-01-30T16:12:46Z</time>
      </trkpt>
      <trkpt lat="46.80657" lon="4.7966">
        <ele>195.755635</ele>
        <time>2011-01-30T16:12:49Z</time>
      </trkpt>
      <trkpt lat="46.80665" lon="4.79671">
        <ele>195.460351</ele>
        <time>2011-01-30T16:12:52Z</time>
      </trkpt>
      <trkpt lat="46.80673" lon="4.79682">
        <ele>195.20243</ele>
        <time>2011-01-30T16:12:55Z</time>
      </trkpt>
      <trkpt lat="46.80682" lon="4.79695">
        <ele>194.871659</ele>
        <time>2011-01-30T16:12:58Z</time>
      </trkpt>
      <trkpt lat="46.80688" lon="4.79704">
        <ele>194.440908</ele>
        <time>2011-01-30T16:13:00Z</time>
      </trkpt>
      <trkpt lat="46.807" lon="4.79715">
        <ele>193.934305</ele>
        <time>2011-01-30T16:13:03Z</time>
      </trkpt>
      <trkpt lat="46.80708" lon="4.7973">
        <ele>193.401286</ele>
        <time>2011-01-30T16:13:06Z</time>
      </trkpt>
      <trkpt lat="46.80715" lon="4.79739">
        <ele>192.897908</ele>
        <time>2011-01-30T16:13:08Z</time>
      </trkpt>
      <trkpt lat="46.80723" lon="4.79748">
        <ele>191.871761</ele>
        <time>2011-01-30T16:13:10Z</time>
      </trkpt>
      <trkpt lat="46.80732" lon="4.79758">
        <ele>189.703992</ele>
        <time>2011-01-30T16:13:12Z</time>
      </trkpt>
      <trkpt lat="46.80745" lon="4.79773">
        <ele>187.031867</ele>
        <time>2011-01-30T16:13:15Z</time>
      </trkpt>
      <trkpt lat="46.80753" lon="4.79784">
        <ele>185.002571</ele>
        <time>2011-01-30T16:13:17Z</time>
      </trkpt>
      <trkpt lat="46.80762" lon="4.79795">
        <ele>183.731211</ele>
        <time>2011-01-30T16:13:19Z</time>
      </trkpt>
      <trkpt lat="46.80778" lon="4.79811">
        <ele>182.789404</ele>
        <time>2011-01-30T16:13:22Z</time>
      </trkpt>
      <trkpt lat="46.80792" lon="4.79828">
        <ele>182.015826</ele>
        <time>2011-01-30T16:13:25Z</time>
      </trkpt>
      <trkpt lat="46.80806" lon="4.79842">
        <ele>181.423427</ele>
        <time>2011-01-30T16:13:28Z</time>
      </trkpt>
      <trkpt lat="46.80815" lon="4.7985">
        <ele>180.697783</ele>
        <time>2011-01-30T16:13:30Z</time>
      </trkpt>
      <trkpt lat="46.80829" lon="4.79864">
        <ele>179.568441</ele>
        <time>2011-01-30T16:13:33Z</time>
      </trkpt>
      <trkpt lat="46.80838" lon="4.79877">
        <ele>178.30909</ele>
        <time>2011-01-30T16:13:36Z</time>
      </trkpt>
      <trkpt lat="46.80848" lon="4.7989">
        <ele>177.404059</ele>
        <time>2011-01-30T16:13:39Z</time>
      </trkpt>
      <trkpt lat="46.80858" lon="4.79902">
        <ele>177.004877</ele>
        <time>2011-01-30T16:13:42Z</time>
      </trkpt>
      <trkpt lat="46.80869" lon="4.79915">
        <ele>176.96257</ele>
        <time>2011-01-30T16:13:45Z</time>
      </trkpt>
      <trkpt lat="46.80878" lon="4.79923">
        <ele>177.056307</ele>
        <time>2011-01-30T16:13:47Z</time>
      </trkpt>
      <trkpt lat="46.80891" lon="4.79935">
        <ele>177.192163</ele>
        <time>2011-01-30T16:13:50Z</time>
      </trkpt>
      <trkpt lat="46.80903" lon="4.79946">
        <ele>177.361019</ele>
        <time>2011-01-30T16:13:53Z</time>
      </trkpt>
      <trkpt lat="46.80916" lon="4.7996">
        <ele>177.58586</ele>
        <time>2011-01-30T16:13:56Z</time>
      </trkpt>
      <trkpt lat="46.8093" lon="4.79973">
        <ele>177.857866</ele>
        <time>2011-01-30T16:13:59Z</time>
      </trkpt>
      <trkpt lat="46.80938" lon="4.79982">
        <ele>178.103761</ele>
        <time>2011-01-30T16:14:01Z</time>
      </trkpt>
      <trkpt lat="46.80948" lon="4.79995">
        <ele>178.349148</ele>
        <time>2011-01-30T16:14:04Z</time>
      </trkpt>
      <trkpt lat="46.80956" lon="4.80007">
        <ele>178.764653</ele>
        <time>2011-01-30T16:14:07Z</time>
      </trkpt>
      <trkpt lat="46.80966" lon="4.80018">
        <ele>179.441113</ele>
        <time>2011-01-30T16:14:10Z</time>
      </trkpt>
      <trkpt lat="46.80977" lon="4.8003">
        <ele>180.250142</ele>
        <time>2011-01-30T16:14:13Z</time>
      </trkpt>
      <trkpt lat="46.80987" lon="4.80042">
        <ele>180.924675</ele>
        <time>2011-01-30T16:14:16Z</time>
      </trkpt>
      <trkpt lat="46.80998" lon="4.80054">
        <ele>181.315965</ele>
        <time>2011-01-30T16:14:19Z</time>
      </trkpt>
      <trkpt lat="46.81007" lon="4.80066">
        <ele>181.58897</ele>
        <time>2011-01-30T16:14:22Z</time>
      </trkpt>
      <trkpt lat="46.81015" lon="4.80075">
        <ele>182.095313</ele>
        <time>2011-01-30T16:14:24Z</time>
      </trkpt>
      <trkpt lat="46.81027" lon="4.8009">
        <ele>183.059518</ele>
        <time>2011-01-30T16:14:27Z</time>
      </trkpt>
      <trkpt lat="46.81039" lon="4.80102">
        <ele>184.346144</ele>
        <time>2011-01-30T16:14:30Z</time>
      </trkpt>
      <trkpt lat="46.81049" lon="4.80114">
        <ele>185.585903</ele>
        <time>2011-01-30T16:14:33Z</time>
      </trkpt>
      <trkpt lat="46.81056" lon="4.80122">
        <ele>186.459464</ele>
        <time>2011-01-30T16:14:35Z</time>
      </trkpt>
      <trkpt lat="46.81068" lon="4.80135">
        <ele>186.910859</ele>
        <time>2011-01-30T16:14:38Z</time>
      </trkpt>
      <trkpt lat="46.81076" lon="4.80144">
        <ele>187.101734</ele>
        <time>2011-01-30T16:14:40Z</time>
      </trkpt>
      <trkpt lat="46.8109" lon="4.80159">
        <ele>187.178016</ele>
        <time>2011-01-30T16:14:43Z</time>
      </trkpt>
      <trkpt lat="46.81105" lon="4.80174">
        <ele>187.255366</ele>
        <time>2011-01-30T16:14:46Z</time>
      </trkpt>
      <trkpt lat="46.81113" lon="4.80184">
        <ele>187.45426</ele>
        <time>2011-01-30T16:14:48Z</time>
      </trkpt>
      <trkpt lat="46.81129" lon="4.80201">
        <ele>187.719224</ele>
        <time>2011-01-30T16:14:51Z</time>
      </trkpt>
      <trkpt lat="46.81145" lon="4.80218">
        <ele>187.899692</ele>
        <time>2011-01-30T16:14:54Z</time>
      </trkpt>
      <trkpt lat="46.81155" lon="4.8023">
        <ele>187.959904</ele>
        <time>2011-01-30T16:14:56Z</time>
      </trkpt>
      <trkpt lat="46.81155" lon="4.8023">
        <ele>187.92989</ele>
        <time>2011-01-30T16:14:58Z</time>
      </trkpt>
      <trkpt lat="46.81186" lon="4.80249">
        <ele>187.808243</ele>
        <time>2011-01-30T16:15:10Z</time>
      </trkpt>
      <trkpt lat="46.81196" lon="4.80246">
        <ele>187.631607</ele>
        <time>2011-01-30T16:15:14Z</time>
      </trkpt>
      <trkpt lat="46.81166" lon="4.80254">
        <ele>187.495744</ele>
        <time>2011-01-30T16:15:37Z</time>
      </trkpt>
      <trkpt lat="46.81156" lon="4.8026">
        <ele>187.481606</ele>
        <time>2011-01-30T16:15:41Z</time>
      </trkpt>
      <trkpt lat="46.81147" lon="4.80268">
        <ele>187.642378</ele>
        <time>2011-01-30T16:15:45Z</time>
      </trkpt>
      <trkpt lat="46.81137" lon="4.80277">
        <ele>188.050758</ele>
        <time>2011-01-30T16:15:49Z</time>
      </trkpt>
      <trkpt lat="46.81129" lon="4.80283">
        <ele>188.614464</ele>
        <time>2011-01-30T16:15:52Z</time>
      </trkpt>
      <trkpt lat="46.8112" lon="4.80289">
        <ele>189.051313</ele>
        <time>2011-01-30T16:15:55Z</time>
      </trkpt>
      <trkpt lat="46.8111" lon="4.80293">
        <ele>189.219197</ele>
        <time>2011-01-30T16:15:59Z</time>
      </trkpt>
      <trkpt lat="46.81099" lon="4.80293">
        <ele>189.15316</ele>
        <time>2011-01-30T16:16:04Z</time>
      </trkpt>
      <trkpt lat="46.81091" lon="4.80301">
        <ele>188.870264</ele>
        <time>2011-01-30T16:16:08Z</time>
      </trkpt>
      <trkpt lat="46.81084" lon="4.8031">
        <ele>188.406298</ele>
        <time>2011-01-30T16:16:12Z</time>
      </trkpt>
      <trkpt lat="46.81077" lon="4.80321">
        <ele>187.806399</ele>
        <time>2011-01-30T16:16:16Z</time>
      </trkpt>
      <trkpt lat="46.8107" lon="4.80342">
        <ele>187.100489</ele>
        <time>2011-01-30T16:16:24Z</time>
      </trkpt>
      <trkpt lat="46.81065" lon="4.80356">
        <ele>186.315415</ele>
        <time>2011-01-30T16:16:28Z</time>
      </trkpt>
      <trkpt lat="46.81065" lon="4.80356">
        <ele>185.585718</ele>
        <time>2011-01-30T16:16:33Z</time>
      </trkpt>
      <trkpt lat="46.81053" lon="4.80384">
        <ele>184.989829</ele>
        <time>2011-01-30T16:16:36Z</time>
      </trkpt>
      <trkpt lat="46.81049" lon="4.80397">
        <ele>184.200774</ele>
        <time>2011-01-30T16:16:39Z</time>
      </trkpt>
      <trkpt lat="46.81049" lon="4.80397">
        <ele>183.111223</ele>
        <time>2011-01-30T16:16:42Z</time>
      </trkpt>
      <trkpt lat="46.81025" lon="4.80435">
        <ele>182.083142</ele>
        <time>2011-01-30T16:16:54Z</time>
      </trkpt>
      <trkpt lat="46.81025" lon="4.80435">
        <ele>181.338958</ele>
        <time>2011-01-30T16:16:57Z</time>
      </trkpt>
      <trkpt lat="46.81001" lon="4.80463">
        <ele>180.566581</ele>
        <time>2011-01-30T16:17:08Z</time>
      </trkpt>
      <trkpt lat="46.80992" lon="4.80474">
        <ele>179.37448</ele>
        <time>2011-01-30T16:17:10Z</time>
      </trkpt>
      <trkpt lat="46.80984" lon="4.80486">
        <ele>177.345164</ele>
        <time>2011-01-30T16:17:13Z</time>
      </trkpt>
      <trkpt lat="46.80977" lon="4.80495">
        <ele>174.495737</ele>
        <time>2011-01-30T16:17:18Z</time>
      </trkpt>
      <trkpt lat="46.80968" lon="4.80504">
        <ele>171.834655</ele>
        <time>2011-01-30T16:17:24Z</time>
      </trkpt>
      <trkpt lat="46.80961" lon="4.80515">
        <ele>170.424893</ele>
        <time>2011-01-30T16:17:29Z</time>
      </trkpt>
      <trkpt lat="46.80956" lon="4.80528">
        <ele>170.123002</ele>
        <time>2011-01-30T16:17:34Z</time>
      </trkpt>
      <trkpt lat="46.80953" lon="4.80542">
        <ele>170.390303</ele>
        <time>2011-01-30T16:17:38Z</time>
      </trkpt>
      <trkpt lat="46.8095" lon="4.80556">
        <ele>170.92473</ele>
        <time>2011-01-30T16:17:42Z</time>
      </trkpt>
      <trkpt lat="46.80946" lon="4.80572">
        <ele>171.588602</ele>
        <time>2011-01-30T16:17:46Z</time>
      </trkpt>
      <trkpt lat="46.80946" lon="4.80572">
        <ele>172.206075</ele>
        <time>2011-01-30T16:17:50Z</time>
      </trkpt>
      <trkpt lat="46.8093" lon="4.80608">
        <ele>172.586364</ele>
        <time>2011-01-30T16:18:00Z</time>
      </trkpt>
      <trkpt lat="46.80923" lon="4.8062">
        <ele>172.696396</ele>
        <time>2011-01-30T16:18:04Z</time>
      </trkpt>
      <trkpt lat="46.80917" lon="4.80632">
        <ele>172.617685</ele>
        <time>2011-01-30T16:18:07Z</time>
      </trkpt>
      <trkpt lat="46.80912" lon="4.80642">
        <ele>172.354614</ele>
        <time>2011-01-30T16:18:10Z</time>
      </trkpt>
      <trkpt lat="46.80908" lon="4.80654">
        <ele>171.950215</ele>
        <time>2011-01-30T16:18:14Z</time>
      </trkpt>
      <trkpt lat="46.80903" lon="4.80667">
        <ele>171.539669</ele>
        <time>2011-01-30T16:18:19Z</time>
      </trkpt>
      <trkpt lat="46.80897" lon="4.80682">
        <ele>171.122969</ele>
        <time>2011-01-30T16:18:23Z</time>
      </trkpt>
      <trkpt lat="46.80897" lon="4.80682">
        <ele>170.671735</ele>
        <time>2011-01-30T16:18:26Z</time>
      </trkpt>
      <trkpt lat="46.80883" lon="4.80727">
        <ele>170.199238</ele>
        <time>2011-01-30T16:18:34Z</time>
      </trkpt>
      <trkpt lat="46.80879" lon="4.80741">
        <ele>169.594501</ele>
        <time>2011-01-30T16:18:37Z</time>
      </trkpt>
      <trkpt lat="46.80875" lon="4.80755">
        <ele>168.764201</ele>
        <time>2011-01-30T16:18:40Z</time>
      </trkpt>
      <trkpt lat="46.80872" lon="4.8077">
        <ele>167.632334</ele>
        <time>2011-01-30T16:18:44Z</time>
      </trkpt>
      <trkpt lat="46.80869" lon="4.80786">
        <ele>166.242534</ele>
        <time>2011-01-30T16:18:49Z</time>
      </trkpt>
      <trkpt lat="46.80865" lon="4.80799">
        <ele>165.026326</ele>
        <time>2011-01-30T16:18:53Z</time>
      </trkpt>
      <trkpt lat="46.8086" lon="4.80816">
        <ele>164.2955</ele>
        <time>2011-01-30T16:18:57Z</time>
      </trkpt>
      <trkpt lat="46.80857" lon="4.80832">
        <ele>163.819961</ele>
        <time>2011-01-30T16:19:00Z</time>
      </trkpt>
      <trkpt lat="46.80851" lon="4.80844">
        <ele>163.228456</ele>
        <time>2011-01-30T16:19:03Z</time>
      </trkpt>
      <trkpt lat="46.80844" lon="4.80855">
        <ele>162.451196</ele>
        <time>2011-01-30T16:19:06Z</time>
      </trkpt>
      <trkpt lat="46.80835" lon="4.80865">
        <ele>161.765676</ele>
        <time>2011-01-30T16:19:10Z</time>
      </trkpt>
      <trkpt lat="46.80828" lon="4.80876">
        <ele>161.407542</ele>
        <time>2011-01-30T16:19:15Z</time>
      </trkpt>
      <trkpt lat="46.80823" lon="4.80887">
        <ele>161.333557</ele>
        <time>2011-01-30T16:19:19Z</time>
      </trkpt>
      <trkpt lat="46.80817" lon="4.80898">
        <ele>161.549283</ele>
        <time>2011-01-30T16:19:23Z</time>
      </trkpt>
      <trkpt lat="46.8081" lon="4.8091">
        <ele>162.290131</ele>
        <time>2011-01-30T16:19:28Z</time>
      </trkpt>
      <trkpt lat="46.80804" lon="4.8092">
        <ele>163.599215</ele>
        <time>2011-01-30T16:19:32Z</time>
      </trkpt>
      <trkpt lat="46.80798" lon="4.80931">
        <ele>165.144072</ele>
        <time>2011-01-30T16:19:36Z</time>
      </trkpt>
      <trkpt lat="46.80791" lon="4.80943">
        <ele>166.632275</ele>
        <time>2011-01-30T16:19:40Z</time>
      </trkpt>
      <trkpt lat="46.80785" lon="4.80953">
        <ele>167.965319</ele>
        <time>2011-01-30T16:19:44Z</time>
      </trkpt>
      <trkpt lat="46.80779" lon="4.80965">
        <ele>169.087495</ele>
        <time>2011-01-30T16:19:48Z</time>
      </trkpt>
      <trkpt lat="46.80772" lon="4.80977">
        <ele>169.977035</ele>
        <time>2011-01-30T16:19:52Z</time>
      </trkpt>
      <trkpt lat="46.80765" lon="4.80988">
        <ele>170.672667</ele>
        <time>2011-01-30T16:19:57Z</time>
      </trkpt>
      <trkpt lat="46.80759" lon="4.80999">
        <ele>171.222387</ele>
        <time>2011-01-30T16:20:01Z</time>
      </trkpt>
      <trkpt lat="46.80753" lon="4.8101">
        <ele>171.660072</ele>
        <time>2011-01-30T16:20:05Z</time>
      </trkpt>
      <trkpt lat="46.80743" lon="4.81015">
        <ele>172.017269</ele>
        <time>2011-01-30T16:20:10Z</time>
      </trkpt>
      <trkpt lat="46.80733" lon="4.81019">
        <ele>172.308272</ele>
        <time>2011-01-30T16:20:15Z</time>
      </trkpt>
      <trkpt lat="46.80724" lon="4.81022">
        <ele>172.513752</ele>
        <time>2011-01-30T16:20:19Z</time>
      </trkpt>
      <trkpt lat="46.80714" lon="4.81022">
        <ele>172.663033</ele>
        <time>2011-01-30T16:20:24Z</time>
      </trkpt>
      <trkpt lat="46.80706" lon="4.81017">
        <ele>172.880958</ele>
        <time>2011-01-30T16:20:29Z</time>
      </trkpt>
      <trkpt lat="46.80696" lon="4.8101">
        <ele>173.274275</ele>
        <time>2011-01-30T16:20:35Z</time>
      </trkpt>
      <trkpt lat="46.80687" lon="4.81004">
        <ele>173.883288</ele>
        <time>2011-01-30T16:20:41Z</time>
      </trkpt>
      <trkpt lat="46.80676" lon="4.81003">
        <ele>174.686159</ele>
        <time>2011-01-30T16:20:47Z</time>
      </trkpt>
      <trkpt lat="46.80668" lon="4.81012">
        <ele>175.60395</ele>
        <time>2011-01-30T16:20:52Z</time>
      </trkpt>
      <trkpt lat="46.80663" lon="4.81028">
        <ele>176.540249</ele>
        <time>2011-01-30T16:20:56Z</time>
      </trkpt>
      <trkpt lat="46.80659" lon="4.81043">
        <ele>177.423762</ele>
        <time>2011-01-30T16:20:59Z</time>
      </trkpt>
      <trkpt lat="46.80654" lon="4.81062">
        <ele>178.179265</ele>
        <time>2011-01-30T16:21:01Z</time>
      </trkpt>
      <trkpt lat="46.80648" lon="4.81081">
        <ele>178.724898</ele>
        <time>2011-01-30T16:21:04Z</time>
      </trkpt>
      <trkpt lat="46.80643" lon="4.811">
        <ele>179.019675</ele>
        <time>2011-01-30T16:21:07Z</time>
      </trkpt>
      <trkpt lat="46.80637" lon="4.81121">
        <ele>179.110029</ele>
        <time>2011-01-30T16:21:10Z</time>
      </trkpt>
      <trkpt lat="46.80634" lon="4.81135">
        <ele>179.093983</ele>
        <time>2011-01-30T16:21:12Z</time>
      </trkpt>
      <trkpt lat="46.80628" lon="4.81155">
        <ele>178.967062</ele>
        <time>2011-01-30T16:21:15Z</time>
      </trkpt>
      <trkpt lat="46.80621" lon="4.81175">
        <ele>178.581521</ele>
        <time>2011-01-30T16:21:18Z</time>
      </trkpt>
      <trkpt lat="46.80617" lon="4.81189">
        <ele>177.927442</ele>
        <time>2011-01-30T16:21:20Z</time>
      </trkpt>
      <trkpt lat="46.80612" lon="4.8121">
        <ele>177.204483</ele>
        <time>2011-01-30T16:21:23Z</time>
      </trkpt>
      <trkpt lat="46.80608" lon="4.81223">
        <ele>176.574765</ele>
        <time>2011-01-30T16:21:25Z</time>
      </trkpt>
      <trkpt lat="46.80602" lon="4.81245">
        <ele>176.099555</ele>
        <time>2011-01-30T16:21:28Z</time>
      </trkpt>
      <trkpt lat="46.80597" lon="4.81269">
        <ele>175.754262</ele>
        <time>2011-01-30T16:21:31Z</time>
      </trkpt>
      <trkpt lat="46.80594" lon="4.81286">
        <ele>175.421331</ele>
        <time>2011-01-30T16:21:33Z</time>
      </trkpt>
      <trkpt lat="46.80589" lon="4.8131">
        <ele>175.008549</ele>
        <time>2011-01-30T16:21:36Z</time>
      </trkpt>
      <trkpt lat="46.80584" lon="4.81327">
        <ele>174.586443</ele>
        <time>2011-01-30T16:21:38Z</time>
      </trkpt>
      <trkpt lat="46.80581" lon="4.81343">
        <ele>174.301445</ele>
        <time>2011-01-30T16:21:40Z</time>
      </trkpt>
      <trkpt lat="46.80577" lon="4.81359">
        <ele>174.185938</ele>
        <time>2011-01-30T16:21:42Z</time>
      </trkpt>
      <trkpt lat="46.80573" lon="4.81383">
        <ele>174.161141</ele>
        <time>2011-01-30T16:21:45Z</time>
      </trkpt>
      <trkpt lat="46.80569" lon="4.81405">
        <ele>174.139993</ele>
        <time>2011-01-30T16:21:48Z</time>
      </trkpt>
      <trkpt lat="46.80564" lon="4.81427">
        <ele>174.027553</ele>
        <time>2011-01-30T16:21:51Z</time>
      </trkpt>
      <trkpt lat="46.80557" lon="4.8144">
        <ele>173.719986</ele>
        <time>2011-01-30T16:21:54Z</time>
      </trkpt>
      <trkpt lat="46.80547" lon="4.81445">
        <ele>173.227387</ele>
        <time>2011-01-30T16:21:57Z</time>
      </trkpt>
      <trkpt lat="46.80537" lon="4.81449">
        <ele>172.638303</ele>
        <time>2011-01-30T16:22:00Z</time>
      </trkpt>
      <trkpt lat="46.80525" lon="4.81451">
        <ele>172.063002</ele>
        <time>2011-01-30T16:22:03Z</time>
      </trkpt>
      <trkpt lat="46.80514" lon="4.81452">
        <ele>171.662611</ele>
        <time>2011-01-30T16:22:06Z</time>
      </trkpt>
      <trkpt lat="46.80502" lon="4.81452">
        <ele>171.516149</ele>
        <time>2011-01-30T16:22:09Z</time>
      </trkpt>
      <trkpt lat="46.80489" lon="4.81452">
        <ele>171.520095</ele>
        <time>2011-01-30T16:22:12Z</time>
      </trkpt>
      <trkpt lat="46.80475" lon="4.8145">
        <ele>171.572062</ele>
        <time>2011-01-30T16:22:15Z</time>
      </trkpt>
      <trkpt lat="46.80461" lon="4.81446">
        <ele>171.655928</ele>
        <time>2011-01-30T16:22:18Z</time>
      </trkpt>
      <trkpt lat="46.80448" lon="4.8144">
        <ele>171.829219</ele>
        <time>2011-01-30T16:22:21Z</time>
      </trkpt>
      <trkpt lat="46.80438" lon="4.81436">
        <ele>172.114978</ele>
        <time>2011-01-30T16:22:23Z</time>
      </trkpt>
      <trkpt lat="46.80424" lon="4.8143">
        <ele>172.414794</ele>
        <time>2011-01-30T16:22:26Z</time>
      </trkpt>
      <trkpt lat="46.8041" lon="4.81424">
        <ele>172.636406</ele>
        <time>2011-01-30T16:22:29Z</time>
      </trkpt>
      <trkpt lat="46.804" lon="4.81421">
        <ele>172.825486</ele>
        <time>2011-01-30T16:22:31Z</time>
      </trkpt>
      <trkpt lat="46.80391" lon="4.81417">
        <ele>173.104591</ele>
        <time>2011-01-30T16:22:33Z</time>
      </trkpt>
      <trkpt lat="46.80377" lon="4.81413">
        <ele>173.615328</ele>
        <time>2011-01-30T16:22:36Z</time>
      </trkpt>
      <trkpt lat="46.80364" lon="4.81409">
        <ele>174.433723</ele>
        <time>2011-01-30T16:22:39Z</time>
      </trkpt>
      <trkpt lat="46.80352" lon="4.81404">
        <ele>175.435332</ele>
        <time>2011-01-30T16:22:42Z</time>
      </trkpt>
      <trkpt lat="46.80341" lon="4.81402">
        <ele>176.409327</ele>
        <time>2011-01-30T16:22:45Z</time>
      </trkpt>
      <trkpt lat="46.8033" lon="4.81401">
        <ele>177.229586</ele>
        <time>2011-01-30T16:22:48Z</time>
      </trkpt>
      <trkpt lat="46.80317" lon="4.81399">
        <ele>177.825383</ele>
        <time>2011-01-30T16:22:51Z</time>
      </trkpt>
      <trkpt lat="46.80305" lon="4.81396">
        <ele>178.161977</ele>
        <time>2011-01-30T16:22:54Z</time>
      </trkpt>
      <trkpt lat="46.80292" lon="4.81394">
        <ele>178.303814</ele>
        <time>2011-01-30T16:22:57Z</time>
      </trkpt>
      <trkpt lat="46.8028" lon="4.81392">
        <ele>178.359971</ele>
        <time>2011-01-30T16:23:00Z</time>
      </trkpt>
      <trkpt lat="46.80267" lon="4.81389">
        <ele>178.405818</ele>
        <time>2011-01-30T16:23:03Z</time>
      </trkpt>
      <trkpt lat="46.80256" lon="4.81386">
        <ele>178.464321</ele>
        <time>2011-01-30T16:23:06Z</time>
      </trkpt>
      <trkpt lat="46.80244" lon="4.81385">
        <ele>178.5243</ele>
        <time>2011-01-30T16:23:09Z</time>
      </trkpt>
      <trkpt lat="46.80231" lon="4.81382">
        <ele>178.57309</ele>
        <time>2011-01-30T16:23:12Z</time>
      </trkpt>
      <trkpt lat="46.8022" lon="4.81381">
        <ele>178.608994</ele>
        <time>2011-01-30T16:23:15Z</time>
      </trkpt>
      <trkpt lat="46.80208" lon="4.81379">
        <ele>178.626282</ele>
        <time>2011-01-30T16:23:18Z</time>
      </trkpt>
      <trkpt lat="46.80197" lon="4.81375">
        <ele>178.629053</ele>
        <time>2011-01-30T16:23:21Z</time>
      </trkpt>
      <trkpt lat="46.80185" lon="4.81371">
        <ele>178.622959</ele>
        <time>2011-01-30T16:23:24Z</time>
      </trkpt>
      <trkpt lat="46.80175" lon="4.81369">
        <ele>178.611564</ele>
        <time>2011-01-30T16:23:27Z</time>
      </trkpt>
      <trkpt lat="46.80166" lon="4.81368">
        <ele>178.601481</ele>
        <time>2011-01-30T16:23:30Z</time>
      </trkpt>
      <trkpt lat="46.80156" lon="4.81366">
        <ele>178.597145</ele>
        <time>2011-01-30T16:23:33Z</time>
      </trkpt>
      <trkpt lat="46.80156" lon="4.81366">
        <ele>178.589053</ele>
        <time>2011-01-30T16:23:36Z</time>
      </trkpt>
      <trkpt lat="46.80136" lon="4.81371">
        <ele>178.577737</ele>
        <time>2011-01-30T16:23:44Z</time>
      </trkpt>
      <trkpt lat="46.80132" lon="4.81384">
        <ele>178.587734</ele>
        <time>2011-01-30T16:23:47Z</time>
      </trkpt>
      <trkpt lat="46.80128" lon="4.81399">
        <ele>178.639835</ele>
        <time>2011-01-30T16:23:50Z</time>
      </trkpt>
      <trkpt lat="46.80124" lon="4.81417">
        <ele>178.783528</ele>
        <time>2011-01-30T16:23:53Z</time>
      </trkpt>
      <trkpt lat="46.8012" lon="4.81435">
        <ele>179.035601</ele>
        <time>2011-01-30T16:23:56Z</time>
      </trkpt>
      <trkpt lat="46.80118" lon="4.81449">
        <ele>179.326824</ele>
        <time>2011-01-30T16:23:58Z</time>
      </trkpt>
      <trkpt lat="46.80115" lon="4.81463">
        <ele>179.571751</ele>
        <time>2011-01-30T16:24:00Z</time>
      </trkpt>
      <trkpt lat="46.80112" lon="4.81476">
        <ele>179.716812</ele>
        <time>2011-01-30T16:24:02Z</time>
      </trkpt>
      <trkpt lat="46.80107" lon="4.81497">
        <ele>179.756107</ele>
        <time>2011-01-30T16:24:05Z</time>
      </trkpt>
      <trkpt lat="46.80102" lon="4.81518">
        <ele>179.694654</ele>
        <time>2011-01-30T16:24:08Z</time>
      </trkpt>
      <trkpt lat="46.80099" lon="4.81532">
        <ele>179.490031</ele>
        <time>2011-01-30T16:24:10Z</time>
      </trkpt>
      <trkpt lat="46.80093" lon="4.81547">
        <ele>179.130714</ele>
        <time>2011-01-30T16:24:13Z</time>
      </trkpt>
      <trkpt lat="46.80088" lon="4.81561">
        <ele>178.655901</ele>
        <time>2011-01-30T16:24:16Z</time>
      </trkpt>
      <trkpt lat="46.80083" lon="4.81576">
        <ele>178.137933</ele>
        <time>2011-01-30T16:24:19Z</time>
      </trkpt>
      <trkpt lat="46.80078" lon="4.81592">
        <ele>177.667505</ele>
        <time>2011-01-30T16:24:22Z</time>
      </trkpt>
      <trkpt lat="46.80073" lon="4.81608">
        <ele>177.323061</ele>
        <time>2011-01-30T16:24:25Z</time>
      </trkpt>
      <trkpt lat="46.80067" lon="4.81625">
        <ele>177.098634</ele>
        <time>2011-01-30T16:24:28Z</time>
      </trkpt>
      <trkpt lat="46.80063" lon="4.81637">
        <ele>176.902761</ele>
        <time>2011-01-30T16:24:30Z</time>
      </trkpt>
      <trkpt lat="46.80055" lon="4.81654">
        <ele>176.640669</ele>
        <time>2011-01-30T16:24:33Z</time>
      </trkpt>
      <trkpt lat="46.80049" lon="4.81666">
        <ele>176.267511</ele>
        <time>2011-01-30T16:24:35Z</time>
      </trkpt>
      <trkpt lat="46.80041" lon="4.81686">
        <ele>175.803923</ele>
        <time>2011-01-30T16:24:38Z</time>
      </trkpt>
      <trkpt lat="46.80032" lon="4.81707">
        <ele>175.316014</ele>
        <time>2011-01-30T16:24:41Z</time>
      </trkpt>
      <trkpt lat="46.80025" lon="4.81722">
        <ele>174.871268</ele>
        <time>2011-01-30T16:24:43Z</time>
      </trkpt>
      <trkpt lat="46.80015" lon="4.81743">
        <ele>174.492331</ele>
        <time>2011-01-30T16:24:46Z</time>
      </trkpt>
      <trkpt lat="46.80004" lon="4.81763">
        <ele>174.090729</ele>
        <time>2011-01-30T16:24:49Z</time>
      </trkpt>
      <trkpt lat="46.79994" lon="4.81781">
        <ele>173.627352</ele>
        <time>2011-01-30T16:24:52Z</time>
      </trkpt>
      <trkpt lat="46.79988" lon="4.81794">
        <ele>173.22356</ele>
        <time>2011-01-30T16:24:54Z</time>
      </trkpt>
      <trkpt lat="46.79982" lon="4.81806">
        <ele>172.97629</ele>
        <time>2011-01-30T16:24:56Z</time>
      </trkpt>
      <trkpt lat="46.79973" lon="4.81827">
        <ele>172.849246</ele>
        <time>2011-01-30T16:24:59Z</time>
      </trkpt>
      <trkpt lat="46.79964" lon="4.81848">
        <ele>172.775419</ele>
        <time>2011-01-30T16:25:02Z</time>
      </trkpt>
      <trkpt lat="46.79956" lon="4.8187">
        <ele>172.711757</ele>
        <time>2011-01-30T16:25:05Z</time>
      </trkpt>
      <trkpt lat="46.79949" lon="4.81894">
        <ele>172.607703</ele>
        <time>2011-01-30T16:25:08Z</time>
      </trkpt>
      <trkpt lat="46.79945" lon="4.8192">
        <ele>172.422687</ele>
        <time>2011-01-30T16:25:11Z</time>
      </trkpt>
      <trkpt lat="46.79942" lon="4.81946">
        <ele>172.153562</ele>
        <time>2011-01-30T16:25:14Z</time>
      </trkpt>
      <trkpt lat="46.79939" lon="4.8197">
        <ele>171.741181</ele>
        <time>2011-01-30T16:25:17Z</time>
      </trkpt>
      <trkpt lat="46.79933" lon="4.81982">
        <ele>171.15404</ele>
        <time>2011-01-30T16:25:19Z</time>
      </trkpt>
      <trkpt lat="46.79926" lon="4.81994">
        <ele>170.505148</ele>
        <time>2011-01-30T16:25:21Z</time>
      </trkpt>
      <trkpt lat="46.79918" lon="4.82004">
        <ele>169.926432</ele>
        <time>2011-01-30T16:25:23Z</time>
      </trkpt>
      <trkpt lat="46.79909" lon="4.82009">
        <ele>169.502617</ele>
        <time>2011-01-30T16:25:25Z</time>
      </trkpt>
      <trkpt lat="46.79893" lon="4.82011">
        <ele>169.29277</ele>
        <time>2011-01-30T16:25:28Z</time>
      </trkpt>
      <trkpt lat="46.7988" lon="4.82012">
        <ele>169.255727</ele>
        <time>2011-01-30T16:25:30Z</time>
      </trkpt>
      <trkpt lat="46.79859" lon="4.82012">
        <ele>169.350219</ele>
        <time>2011-01-30T16:25:33Z</time>
      </trkpt>
      <trkpt lat="46.79844" lon="4.82011">
        <ele>169.660045</ele>
        <time>2011-01-30T16:25:35Z</time>
      </trkpt>
      <trkpt lat="46.79823" lon="4.82009">
        <ele>170.270056</ele>
        <time>2011-01-30T16:25:38Z</time>
      </trkpt>
      <trkpt lat="46.7981" lon="4.8201">
        <ele>171.136913</ele>
        <time>2011-01-30T16:25:40Z</time>
      </trkpt>
      <trkpt lat="46.79797" lon="4.82025">
        <ele>172.053368</ele>
        <time>2011-01-30T16:25:43Z</time>
      </trkpt>
      <trkpt lat="46.79789" lon="4.82047">
        <ele>172.771305</ele>
        <time>2011-01-30T16:25:46Z</time>
      </trkpt>
      <trkpt lat="46.79784" lon="4.82071">
        <ele>173.208998</ele>
        <time>2011-01-30T16:25:49Z</time>
      </trkpt>
      <trkpt lat="46.7978" lon="4.82095">
        <ele>173.463794</ele>
        <time>2011-01-30T16:25:52Z</time>
      </trkpt>
      <trkpt lat="46.79772" lon="4.82114">
        <ele>173.626434</ele>
        <time>2011-01-30T16:25:55Z</time>
      </trkpt>
      <trkpt lat="46.79764" lon="4.8212">
        <ele>173.71365</ele>
        <time>2011-01-30T16:25:57Z</time>
      </trkpt>
      <trkpt lat="46.79751" lon="4.8212">
        <ele>173.732893</ele>
        <time>2011-01-30T16:26:00Z</time>
      </trkpt>
      <trkpt lat="46.79738" lon="4.8212">
        <ele>173.720207</ele>
        <time>2011-01-30T16:26:03Z</time>
      </trkpt>
      <trkpt lat="46.79725" lon="4.8212">
        <ele>173.68358</ele>
        <time>2011-01-30T16:26:06Z</time>
      </trkpt>
      <trkpt lat="46.79711" lon="4.8212">
        <ele>173.612997</ele>
        <time>2011-01-30T16:26:09Z</time>
      </trkpt>
      <trkpt lat="46.79698" lon="4.82121">
        <ele>173.525986</ele>
        <time>2011-01-30T16:26:12Z</time>
      </trkpt>
      <trkpt lat="46.79689" lon="4.82117">
        <ele>173.455352</ele>
        <time>2011-01-30T16:26:15Z</time>
      </trkpt>
      <trkpt lat="46.79679" lon="4.82124">
        <ele>173.408603</ele>
        <time>2011-01-30T16:26:19Z</time>
      </trkpt>
      <trkpt lat="46.7967" lon="4.82136">
        <ele>173.374891</ele>
        <time>2011-01-30T16:26:23Z</time>
      </trkpt>
      <trkpt lat="46.79662" lon="4.82143">
        <ele>173.349194</ele>
        <time>2011-01-30T16:26:26Z</time>
      </trkpt>
      <trkpt lat="46.79652" lon="4.82147">
        <ele>173.334694</ele>
        <time>2011-01-30T16:26:29Z</time>
      </trkpt>
      <trkpt lat="46.79642" lon="4.82147">
        <ele>173.326292</ele>
        <time>2011-01-30T16:26:32Z</time>
      </trkpt>
      <trkpt lat="46.79631" lon="4.82146">
        <ele>173.31422</ele>
        <time>2011-01-30T16:26:35Z</time>
      </trkpt>
      <trkpt lat="46.79619" lon="4.82144">
        <ele>173.29966</ele>
        <time>2011-01-30T16:26:38Z</time>
      </trkpt>
      <trkpt lat="46.79608" lon="4.8214">
        <ele>173.288667</ele>
        <time>2011-01-30T16:26:41Z</time>
      </trkpt>
      <trkpt lat="46.79598" lon="4.82135">
        <ele>173.272457</ele>
        <time>2011-01-30T16:26:44Z</time>
      </trkpt>
      <trkpt lat="46.79587" lon="4.8213">
        <ele>173.228489</ele>
        <time>2011-01-30T16:26:47Z</time>
      </trkpt>
      <trkpt lat="46.79576" lon="4.82126">
        <ele>173.150986</ele>
        <time>2011-01-30T16:26:50Z</time>
      </trkpt>
      <trkpt lat="46.79565" lon="4.82121">
        <ele>173.056113</ele>
        <time>2011-01-30T16:26:53Z</time>
      </trkpt>
      <trkpt lat="46.79555" lon="4.82116">
        <ele>172.964903</ele>
        <time>2011-01-30T16:26:56Z</time>
      </trkpt>
      <trkpt lat="46.79544" lon="4.8211">
        <ele>172.896476</ele>
        <time>2011-01-30T16:26:59Z</time>
      </trkpt>
      <trkpt lat="46.79533" lon="4.82105">
        <ele>172.846864</ele>
        <time>2011-01-30T16:27:02Z</time>
      </trkpt>
      <trkpt lat="46.79523" lon="4.821">
        <ele>172.802024</ele>
        <time>2011-01-30T16:27:05Z</time>
      </trkpt>
      <trkpt lat="46.79514" lon="4.82096">
        <ele>172.769554</ele>
        <time>2011-01-30T16:27:08Z</time>
      </trkpt>
      <trkpt lat="46.79503" lon="4.82092">
        <ele>172.757454</ele>
        <time>2011-01-30T16:27:11Z</time>
      </trkpt>
      <trkpt lat="46.79491" lon="4.82087">
        <ele>172.757607</ele>
        <time>2011-01-30T16:27:14Z</time>
      </trkpt>
      <trkpt lat="46.79478" lon="4.82082">
        <ele>172.76117</ele>
        <time>2011-01-30T16:27:17Z</time>
      </trkpt>
      <trkpt lat="46.79466" lon="4.82076">
        <ele>172.763805</ele>
        <time>2011-01-30T16:27:20Z</time>
      </trkpt>
      <trkpt lat="46.79455" lon="4.8207">
        <ele>172.764771</ele>
        <time>2011-01-30T16:27:23Z</time>
      </trkpt>
      <trkpt lat="46.79447" lon="4.82065">
        <ele>172.708267</ele>
        <time>2011-01-30T16:27:26Z</time>
      </trkpt>
      <trkpt lat="46.79447" lon="4.82065">
        <ele>172.560867</ele>
        <time>2011-01-30T16:27:30Z</time>
      </trkpt>
      <trkpt lat="46.79421" lon="4.82053">
        <ele>172.396223</ele>
        <time>2011-01-30T16:27:39Z</time>
      </trkpt>
      <trkpt lat="46.79421" lon="4.82053">
        <ele>172.281104</ele>
        <time>2011-01-30T16:27:43Z</time>
      </trkpt>
      <trkpt lat="46.79415" lon="4.82079">
        <ele>172.212382</ele>
        <time>2011-01-30T16:27:49Z</time>
      </trkpt>
      <trkpt lat="46.79412" lon="4.82093">
        <ele>172.185062</ele>
        <time>2011-01-30T16:27:52Z</time>
      </trkpt>
      <trkpt lat="46.79407" lon="4.82113">
        <ele>172.227215</ele>
        <time>2011-01-30T16:27:55Z</time>
      </trkpt>
      <trkpt lat="46.79401" lon="4.82137">
        <ele>172.43784</ele>
        <time>2011-01-30T16:27:58Z</time>
      </trkpt>
      <trkpt lat="46.79393" lon="4.82162">
        <ele>172.975949</ele>
        <time>2011-01-30T16:28:01Z</time>
      </trkpt>
      <trkpt lat="46.79386" lon="4.82187">
        <ele>173.961801</ele>
        <time>2011-01-30T16:28:04Z</time>
      </trkpt>
      <trkpt lat="46.79381" lon="4.82203">
        <ele>175.13199</ele>
        <time>2011-01-30T16:28:06Z</time>
      </trkpt>
      <trkpt lat="46.79378" lon="4.82224">
        <ele>175.948379</ele>
        <time>2011-01-30T16:28:08Z</time>
      </trkpt>
      <trkpt lat="46.79372" lon="4.82254">
        <ele>176.228862</ele>
        <time>2011-01-30T16:28:11Z</time>
      </trkpt>
      <trkpt lat="46.79368" lon="4.82275">
        <ele>176.207169</ele>
        <time>2011-01-30T16:28:13Z</time>
      </trkpt>
      <trkpt lat="46.79363" lon="4.82295">
        <ele>176.028677</ele>
        <time>2011-01-30T16:28:15Z</time>
      </trkpt>
      <trkpt lat="46.79359" lon="4.82316">
        <ele>175.662764</ele>
        <time>2011-01-30T16:28:17Z</time>
      </trkpt>
      <trkpt lat="46.79353" lon="4.82341">
        <ele>175.134263</ele>
        <time>2011-01-30T16:28:20Z</time>
      </trkpt>
      <trkpt lat="46.7935" lon="4.82355">
        <ele>174.54053</ele>
        <time>2011-01-30T16:28:22Z</time>
      </trkpt>
      <trkpt lat="46.79346" lon="4.82372">
        <ele>173.985355</ele>
        <time>2011-01-30T16:28:25Z</time>
      </trkpt>
      <trkpt lat="46.79345" lon="4.82388">
        <ele>173.518551</ele>
        <time>2011-01-30T16:28:28Z</time>
      </trkpt>
      <trkpt lat="46.79342" lon="4.82405">
        <ele>173.03181</ele>
        <time>2011-01-30T16:28:31Z</time>
      </trkpt>
      <trkpt lat="46.79338" lon="4.82423">
        <ele>172.503893</ele>
        <time>2011-01-30T16:28:34Z</time>
      </trkpt>
      <trkpt lat="46.79336" lon="4.82436">
        <ele>172.130092</ele>
        <time>2011-01-30T16:28:36Z</time>
      </trkpt>
      <trkpt lat="46.79332" lon="4.82458">
        <ele>171.97068</ele>
        <time>2011-01-30T16:28:39Z</time>
      </trkpt>
      <trkpt lat="46.79327" lon="4.82481">
        <ele>171.858142</ele>
        <time>2011-01-30T16:28:42Z</time>
      </trkpt>
      <trkpt lat="46.79322" lon="4.82505">
        <ele>171.649519</ele>
        <time>2011-01-30T16:28:45Z</time>
      </trkpt>
      <trkpt lat="46.79317" lon="4.82532">
        <ele>171.339327</ele>
        <time>2011-01-30T16:28:48Z</time>
      </trkpt>
      <trkpt lat="46.79311" lon="4.82561">
        <ele>170.97565</ele>
        <time>2011-01-30T16:28:51Z</time>
      </trkpt>
      <trkpt lat="46.79306" lon="4.82589">
        <ele>170.559701</ele>
        <time>2011-01-30T16:28:54Z</time>
      </trkpt>
      <trkpt lat="46.79302" lon="4.82614">
        <ele>170.050129</ele>
        <time>2011-01-30T16:28:57Z</time>
      </trkpt>
      <trkpt lat="46.793" lon="4.82627">
        <ele>169.44645</ele>
        <time>2011-01-30T16:28:59Z</time>
      </trkpt>
      <trkpt lat="46.79297" lon="4.82645">
        <ele>168.824329</ele>
        <time>2011-01-30T16:29:02Z</time>
      </trkpt>
      <trkpt lat="46.79297" lon="4.82667">
        <ele>168.186683</ele>
        <time>2011-01-30T16:29:05Z</time>
      </trkpt>
      <trkpt lat="46.79294" lon="4.82693">
        <ele>167.482155</ele>
        <time>2011-01-30T16:29:08Z</time>
      </trkpt>
      <trkpt lat="46.79292" lon="4.82711">
        <ele>166.683502</ele>
        <time>2011-01-30T16:29:10Z</time>
      </trkpt>
      <trkpt lat="46.7929" lon="4.82729">
        <ele>165.788133</ele>
        <time>2011-01-30T16:29:12Z</time>
      </trkpt>
      <trkpt lat="46.79286" lon="4.82752">
        <ele>164.969585</ele>
        <time>2011-01-30T16:29:15Z</time>
      </trkpt>
      <trkpt lat="46.79279" lon="4.82773">
        <ele>164.493511</ele>
        <time>2011-01-30T16:29:18Z</time>
      </trkpt>
      <trkpt lat="46.79275" lon="4.82786">
        <ele>164.368743</ele>
        <time>2011-01-30T16:29:20Z</time>
      </trkpt>
      <trkpt lat="46.79267" lon="4.82807">
        <ele>164.457844</ele>
        <time>2011-01-30T16:29:23Z</time>
      </trkpt>
      <trkpt lat="46.79261" lon="4.82819">
        <ele>164.689812</ele>
        <time>2011-01-30T16:29:25Z</time>
      </trkpt>
      <trkpt lat="46.79251" lon="4.82836">
        <ele>164.985733</ele>
        <time>2011-01-30T16:29:28Z</time>
      </trkpt>
      <trkpt lat="46.79244" lon="4.82846">
        <ele>165.244266</ele>
        <time>2011-01-30T16:29:30Z</time>
      </trkpt>
      <trkpt lat="46.79234" lon="4.8286">
        <ele>165.514144</ele>
        <time>2011-01-30T16:29:33Z</time>
      </trkpt>
      <trkpt lat="46.79227" lon="4.82869">
        <ele>166.053187</ele>
        <time>2011-01-30T16:29:35Z</time>
      </trkpt>
      <trkpt lat="46.79217" lon="4.82881">
        <ele>166.963743</ele>
        <time>2011-01-30T16:29:38Z</time>
      </trkpt>
      <trkpt lat="46.79207" lon="4.82895">
        <ele>168.018337</ele>
        <time>2011-01-30T16:29:41Z</time>
      </trkpt>
      <trkpt lat="46.79199" lon="4.8291">
        <ele>168.947602</ele>
        <time>2011-01-30T16:29:44Z</time>
      </trkpt>
      <trkpt lat="46.79192" lon="4.82926">
        <ele>169.661412</ele>
        <time>2011-01-30T16:29:47Z</time>
      </trkpt>
      <trkpt lat="46.79186" lon="4.82939">
        <ele>170.165715</ele>
        <time>2011-01-30T16:29:50Z</time>
      </trkpt>
      <trkpt lat="46.79178" lon="4.82952">
        <ele>170.506059</ele>
        <time>2011-01-30T16:29:53Z</time>
      </trkpt>
      <trkpt lat="46.79172" lon="4.82962">
        <ele>170.72125</ele>
        <time>2011-01-30T16:29:55Z</time>
      </trkpt>
      <trkpt lat="46.79163" lon="4.82978">
        <ele>170.840091</ele>
        <time>2011-01-30T16:29:58Z</time>
      </trkpt>
      <trkpt lat="46.79154" lon="4.82994">
        <ele>170.899911</ele>
        <time>2011-01-30T16:30:01Z</time>
      </trkpt>
      <trkpt lat="46.79146" lon="4.83009">
        <ele>170.948624</ele>
        <time>2011-01-30T16:30:04Z</time>
      </trkpt>
      <trkpt lat="46.7914" lon="4.8302">
        <ele>170.969484</ele>
        <time>2011-01-30T16:30:06Z</time>
      </trkpt>
      <trkpt lat="46.79131" lon="4.83037">
        <ele>170.934786</ele>
        <time>2011-01-30T16:30:09Z</time>
      </trkpt>
      <trkpt lat="46.79123" lon="4.83052">
        <ele>170.871785</ele>
        <time>2011-01-30T16:30:12Z</time>
      </trkpt>
      <trkpt lat="46.79114" lon="4.83071">
        <ele>170.834297</ele>
        <time>2011-01-30T16:30:15Z</time>
      </trkpt>
      <trkpt lat="46.79103" lon="4.83089">
        <ele>170.839947</ele>
        <time>2011-01-30T16:30:18Z</time>
      </trkpt>
      <trkpt lat="46.79094" lon="4.83106">
        <ele>170.863454</ele>
        <time>2011-01-30T16:30:21Z</time>
      </trkpt>
      <trkpt lat="46.79085" lon="4.83123">
        <ele>171.079737</ele>
        <time>2011-01-30T16:30:24Z</time>
      </trkpt>
      <trkpt lat="46.79078" lon="4.83134">
        <ele>171.75268</ele>
        <time>2011-01-30T16:30:26Z</time>
      </trkpt>
      <trkpt lat="46.7907" lon="4.83149">
        <ele>172.728652</ele>
        <time>2011-01-30T16:30:29Z</time>
      </trkpt>
      <trkpt lat="46.79059" lon="4.83165">
        <ele>173.573549</ele>
        <time>2011-01-30T16:30:32Z</time>
      </trkpt>
      <trkpt lat="46.79052" lon="4.83176">
        <ele>174.07541</ele>
        <time>2011-01-30T16:30:34Z</time>
      </trkpt>
      <trkpt lat="46.79043" lon="4.83191">
        <ele>174.260047</ele>
        <time>2011-01-30T16:30:37Z</time>
      </trkpt>
      <trkpt lat="46.79035" lon="4.83205">
        <ele>174.257953</ele>
        <time>2011-01-30T16:30:40Z</time>
      </trkpt>
      <trkpt lat="46.79028" lon="4.83218">
        <ele>174.203772</ele>
        <time>2011-01-30T16:30:43Z</time>
      </trkpt>
      <trkpt lat="46.79021" lon="4.8323">
        <ele>174.151739</ele>
        <time>2011-01-30T16:30:46Z</time>
      </trkpt>
      <trkpt lat="46.79014" lon="4.83241">
        <ele>174.066793</ele>
        <time>2011-01-30T16:30:49Z</time>
      </trkpt>
      <trkpt lat="46.79008" lon="4.83251">
        <ele>173.893026</ele>
        <time>2011-01-30T16:30:52Z</time>
      </trkpt>
      <trkpt lat="46.79002" lon="4.83263">
        <ele>173.663221</ele>
        <time>2011-01-30T16:30:55Z</time>
      </trkpt>
      <trkpt lat="46.78995" lon="4.83279">
        <ele>173.471795</ele>
        <time>2011-01-30T16:30:58Z</time>
      </trkpt>
      <trkpt lat="46.78989" lon="4.83293">
        <ele>173.346644</ele>
        <time>2011-01-30T16:31:01Z</time>
      </trkpt>
      <trkpt lat="46.78984" lon="4.83304">
        <ele>173.238621</ele>
        <time>2011-01-30T16:31:04Z</time>
      </trkpt>
      <trkpt lat="46.78977" lon="4.83318">
        <ele>173.11756</ele>
        <time>2011-01-30T16:31:08Z</time>
      </trkpt>
      <trkpt lat="46.78973" lon="4.8333">
        <ele>173.003469</ele>
        <time>2011-01-30T16:31:11Z</time>
      </trkpt>
      <trkpt lat="46.78968" lon="4.83343">
        <ele>172.918919</ele>
        <time>2011-01-30T16:31:14Z</time>
      </trkpt>
      <trkpt lat="46.78964" lon="4.83357">
        <ele>172.8475</ele>
        <time>2011-01-30T16:31:17Z</time>
      </trkpt>
      <trkpt lat="46.78959" lon="4.83372">
        <ele>172.764889</ele>
        <time>2011-01-30T16:31:20Z</time>
      </trkpt>
      <trkpt lat="46.78954" lon="4.83388">
        <ele>172.684809</ele>
        <time>2011-01-30T16:31:23Z</time>
      </trkpt>
      <trkpt lat="46.78948" lon="4.83404">
        <ele>172.637506</ele>
        <time>2011-01-30T16:31:26Z</time>
      </trkpt>
      <trkpt lat="46.78943" lon="4.83416">
        <ele>172.624753</ele>
        <time>2011-01-30T16:31:28Z</time>
      </trkpt>
      <trkpt lat="46.78938" lon="4.83431">
        <ele>172.638167</ele>
        <time>2011-01-30T16:31:31Z</time>
      </trkpt>
      <trkpt lat="46.78934" lon="4.83446">
        <ele>172.674346</ele>
        <time>2011-01-30T16:31:34Z</time>
      </trkpt>
      <trkpt lat="46.7893" lon="4.8346">
        <ele>172.719446</ele>
        <time>2011-01-30T16:31:37Z</time>
      </trkpt>
      <trkpt lat="46.78926" lon="4.83474">
        <ele>172.757462</ele>
        <time>2011-01-30T16:31:40Z</time>
      </trkpt>
      <trkpt lat="46.78921" lon="4.83489">
        <ele>172.784861</ele>
        <time>2011-01-30T16:31:43Z</time>
      </trkpt>
      <trkpt lat="46.78917" lon="4.83505">
        <ele>172.808369</ele>
        <time>2011-01-30T16:31:46Z</time>
      </trkpt>
      <trkpt lat="46.78912" lon="4.8352">
        <ele>172.844138</ele>
        <time>2011-01-30T16:31:49Z</time>
      </trkpt>
      <trkpt lat="46.78907" lon="4.83534">
        <ele>172.904093</ele>
        <time>2011-01-30T16:31:52Z</time>
      </trkpt>
      <trkpt lat="46.78903" lon="4.83549">
        <ele>172.987989</ele>
        <time>2011-01-30T16:31:55Z</time>
      </trkpt>
      <trkpt lat="46.78898" lon="4.83564">
        <ele>173.094995</ele>
        <time>2011-01-30T16:31:58Z</time>
      </trkpt>
      <trkpt lat="46.78893" lon="4.83579">
        <ele>173.221695</ele>
        <time>2011-01-30T16:32:01Z</time>
      </trkpt>
      <trkpt lat="46.78887" lon="4.83597">
        <ele>173.364249</ele>
        <time>2011-01-30T16:32:04Z</time>
      </trkpt>
      <trkpt lat="46.78882" lon="4.83614">
        <ele>173.528602</ele>
        <time>2011-01-30T16:32:07Z</time>
      </trkpt>
      <trkpt lat="46.78876" lon="4.8363">
        <ele>173.728034</ele>
        <time>2011-01-30T16:32:10Z</time>
      </trkpt>
      <trkpt lat="46.78871" lon="4.83645">
        <ele>173.983556</ele>
        <time>2011-01-30T16:32:13Z</time>
      </trkpt>
      <trkpt lat="46.78865" lon="4.83659">
        <ele>174.308544</ele>
        <time>2011-01-30T16:32:16Z</time>
      </trkpt>
      <trkpt lat="46.78859" lon="4.83674">
        <ele>174.683512</ele>
        <time>2011-01-30T16:32:19Z</time>
      </trkpt>
      <trkpt lat="46.78853" lon="4.83689">
        <ele>175.073489</ele>
        <time>2011-01-30T16:32:22Z</time>
      </trkpt>
      <trkpt lat="46.78847" lon="4.83701">
        <ele>175.457663</ele>
        <time>2011-01-30T16:32:25Z</time>
      </trkpt>
      <trkpt lat="46.7884" lon="4.83713">
        <ele>175.832947</ele>
        <time>2011-01-30T16:32:28Z</time>
      </trkpt>
      <trkpt lat="46.78834" lon="4.83727">
        <ele>176.201209</ele>
        <time>2011-01-30T16:32:31Z</time>
      </trkpt>
      <trkpt lat="46.78828" lon="4.83741">
        <ele>176.557699</ele>
        <time>2011-01-30T16:32:34Z</time>
      </trkpt>
      <trkpt lat="46.78821" lon="4.83756">
        <ele>176.894488</ele>
        <time>2011-01-30T16:32:37Z</time>
      </trkpt>
      <trkpt lat="46.78816" lon="4.83769">
        <ele>177.209308</ele>
        <time>2011-01-30T16:32:40Z</time>
      </trkpt>
      <trkpt lat="46.7881" lon="4.83783">
        <ele>177.602019</ele>
        <time>2011-01-30T16:32:43Z</time>
      </trkpt>
      <trkpt lat="46.78803" lon="4.83797">
        <ele>178.384023</ele>
        <time>2011-01-30T16:32:46Z</time>
      </trkpt>
      <trkpt lat="46.78796" lon="4.83809">
        <ele>179.551075</ele>
        <time>2011-01-30T16:32:49Z</time>
      </trkpt>
      <trkpt lat="46.7879" lon="4.8382">
        <ele>180.570191</ele>
        <time>2011-01-30T16:32:52Z</time>
      </trkpt>
      <trkpt lat="46.78784" lon="4.8383">
        <ele>181.115229</ele>
        <time>2011-01-30T16:32:55Z</time>
      </trkpt>
      <trkpt lat="46.78784" lon="4.8383">
        <ele>181.31989</ele>
        <time>2011-01-30T16:32:59Z</time>
      </trkpt>
      <trkpt lat="46.78784" lon="4.8383">
        <ele>181.348513</ele>
        <time>2011-01-30T16:33:33Z</time>
      </trkpt>
      <trkpt lat="46.78766" lon="4.83869">
        <ele>181.338987</ele>
        <time>2011-01-30T16:33:49Z</time>
      </trkpt>
      <trkpt lat="46.7876" lon="4.83881">
        <ele>181.397193</ele>
        <time>2011-01-30T16:33:52Z</time>
      </trkpt>
      <trkpt lat="46.7876" lon="4.83881">
        <ele>181.513584</ele>
        <time>2011-01-30T16:33:55Z</time>
      </trkpt>
      <trkpt lat="46.78762" lon="4.83908">
        <ele>181.631983</ele>
        <time>2011-01-30T16:34:00Z</time>
      </trkpt>
      <trkpt lat="46.7877" lon="4.83919">
        <ele>182.03268</ele>
        <time>2011-01-30T16:34:03Z</time>
      </trkpt>
      <trkpt lat="46.78779" lon="4.83931">
        <ele>182.919087</ele>
        <time>2011-01-30T16:34:06Z</time>
      </trkpt>
      <trkpt lat="46.78789" lon="4.83942">
        <ele>183.909683</ele>
        <time>2011-01-30T16:34:09Z</time>
      </trkpt>
      <trkpt lat="46.78798" lon="4.83957">
        <ele>184.578312</ele>
        <time>2011-01-30T16:34:12Z</time>
      </trkpt>
      <trkpt lat="46.78808" lon="4.83968">
        <ele>184.89286</ele>
        <time>2011-01-30T16:34:15Z</time>
      </trkpt>
      <trkpt lat="46.78816" lon="4.83979">
        <ele>184.954224</ele>
        <time>2011-01-30T16:34:18Z</time>
      </trkpt>
      <trkpt lat="46.78822" lon="4.83993">
        <ele>184.910745</ele>
        <time>2011-01-30T16:34:21Z</time>
      </trkpt>
      <trkpt lat="46.78825" lon="4.84017">
        <ele>184.832937</ele>
        <time>2011-01-30T16:34:24Z</time>
      </trkpt>
      <trkpt lat="46.78826" lon="4.84039">
        <ele>184.637</ele>
        <time>2011-01-30T16:34:27Z</time>
      </trkpt>
      <trkpt lat="46.78824" lon="4.84054">
        <ele>184.244633</ele>
        <time>2011-01-30T16:34:29Z</time>
      </trkpt>
      <trkpt lat="46.78822" lon="4.84069">
        <ele>183.36352</ele>
        <time>2011-01-30T16:34:31Z</time>
      </trkpt>
      <trkpt lat="46.7882" lon="4.84089">
        <ele>181.456984</ele>
        <time>2011-01-30T16:34:34Z</time>
      </trkpt>
      <trkpt lat="46.78818" lon="4.84104">
        <ele>178.710477</ele>
        <time>2011-01-30T16:34:36Z</time>
      </trkpt>
      <trkpt lat="46.78816" lon="4.8412">
        <ele>176.119516</ele>
        <time>2011-01-30T16:34:38Z</time>
      </trkpt>
      <trkpt lat="46.78814" lon="4.84148">
        <ele>174.29461</ele>
        <time>2011-01-30T16:34:41Z</time>
      </trkpt>
      <trkpt lat="46.78811" lon="4.84182">
        <ele>173.117689</ele>
        <time>2011-01-30T16:34:44Z</time>
      </trkpt>
      <trkpt lat="46.78806" lon="4.84215">
        <ele>172.360597</ele>
        <time>2011-01-30T16:34:47Z</time>
      </trkpt>
      <trkpt lat="46.78803" lon="4.84235">
        <ele>171.981806</ele>
        <time>2011-01-30T16:34:49Z</time>
      </trkpt>
      <trkpt lat="46.7879" lon="4.84264">
        <ele>171.91268</ele>
        <time>2011-01-30T16:34:52Z</time>
      </trkpt>
      <trkpt lat="46.78777" lon="4.84275">
        <ele>172.032554</ele>
        <time>2011-01-30T16:34:54Z</time>
      </trkpt>
      <trkpt lat="46.78759" lon="4.84287">
        <ele>172.285992</ele>
        <time>2011-01-30T16:34:57Z</time>
      </trkpt>
      <trkpt lat="46.78749" lon="4.84294">
        <ele>173.029654</ele>
        <time>2011-01-30T16:34:59Z</time>
      </trkpt>
      <trkpt lat="46.78738" lon="4.84299">
        <ele>174.697067</ele>
        <time>2011-01-30T16:35:02Z</time>
      </trkpt>
      <trkpt lat="46.78725" lon="4.84303">
        <ele>177.014388</ele>
        <time>2011-01-30T16:35:05Z</time>
      </trkpt>
      <trkpt lat="46.78707" lon="4.84311">
        <ele>179.253769</ele>
        <time>2011-01-30T16:35:08Z</time>
      </trkpt>
      <trkpt lat="46.78685" lon="4.84322">
        <ele>180.857564</ele>
        <time>2011-01-30T16:35:11Z</time>
      </trkpt>
      <trkpt lat="46.78667" lon="4.84329">
        <ele>181.579677</ele>
        <time>2011-01-30T16:35:14Z</time>
      </trkpt>
      <trkpt lat="46.78648" lon="4.84345">
        <ele>181.665725</ele>
        <time>2011-01-30T16:35:17Z</time>
      </trkpt>
      <trkpt lat="46.78636" lon="4.84358">
        <ele>181.387568</ele>
        <time>2011-01-30T16:35:19Z</time>
      </trkpt>
      <trkpt lat="46.78626" lon="4.84368">
        <ele>180.730586</ele>
        <time>2011-01-30T16:35:21Z</time>
      </trkpt>
      <trkpt lat="46.78616" lon="4.84381">
        <ele>179.75778</ele>
        <time>2011-01-30T16:35:24Z</time>
      </trkpt>
      <trkpt lat="46.78607" lon="4.84391">
        <ele>178.845376</ele>
        <time>2011-01-30T16:35:26Z</time>
      </trkpt>
      <trkpt lat="46.78592" lon="4.84409">
        <ele>178.322884</ele>
        <time>2011-01-30T16:35:29Z</time>
      </trkpt>
      <trkpt lat="46.78582" lon="4.84417">
        <ele>178.168889</ele>
        <time>2011-01-30T16:35:31Z</time>
      </trkpt>
      <trkpt lat="46.78567" lon="4.84433">
        <ele>178.18763</ele>
        <time>2011-01-30T16:35:34Z</time>
      </trkpt>
      <trkpt lat="46.78556" lon="4.84443">
        <ele>178.258887</ele>
        <time>2011-01-30T16:35:37Z</time>
      </trkpt>
      <trkpt lat="46.7854" lon="4.84456">
        <ele>178.327306</ele>
        <time>2011-01-30T16:35:40Z</time>
      </trkpt>
      <trkpt lat="46.78519" lon="4.84474">
        <ele>178.386493</ele>
        <time>2011-01-30T16:35:43Z</time>
      </trkpt>
      <trkpt lat="46.78502" lon="4.84483">
        <ele>178.451248</ele>
        <time>2011-01-30T16:35:46Z</time>
      </trkpt>
      <trkpt lat="46.78487" lon="4.84491">
        <ele>178.767264</ele>
        <time>2011-01-30T16:35:49Z</time>
      </trkpt>
      <trkpt lat="46.78487" lon="4.84491">
        <ele>179.474228</ele>
        <time>2011-01-30T16:35:50Z</time>
      </trkpt>
      <trkpt lat="46.78467" lon="4.84477">
        <ele>180.44596</ele>
        <time>2011-01-30T16:35:59Z</time>
      </trkpt>
      <trkpt lat="46.78458" lon="4.84481">
        <ele>181.46963</ele>
        <time>2011-01-30T16:36:02Z</time>
      </trkpt>
      <trkpt lat="46.78452" lon="4.84492">
        <ele>182.229391</ele>
        <time>2011-01-30T16:36:05Z</time>
      </trkpt>
      <trkpt lat="46.78445" lon="4.84509">
        <ele>182.496371</ele>
        <time>2011-01-30T16:36:08Z</time>
      </trkpt>
      <trkpt lat="46.78437" lon="4.8453">
        <ele>182.439809</ele>
        <time>2011-01-30T16:36:11Z</time>
      </trkpt>
      <trkpt lat="46.7843" lon="4.84545">
        <ele>182.080191</ele>
        <time>2011-01-30T16:36:13Z</time>
      </trkpt>
      <trkpt lat="46.78419" lon="4.84566">
        <ele>181.445124</ele>
        <time>2011-01-30T16:36:16Z</time>
      </trkpt>
      <trkpt lat="46.78411" lon="4.8458">
        <ele>180.311528</ele>
        <time>2011-01-30T16:36:18Z</time>
      </trkpt>
      <trkpt lat="46.78398" lon="4.84597">
        <ele>178.3116</ele>
        <time>2011-01-30T16:36:21Z</time>
      </trkpt>
      <trkpt lat="46.78391" lon="4.8461">
        <ele>175.800697</ele>
        <time>2011-01-30T16:36:23Z</time>
      </trkpt>
      <trkpt lat="46.78379" lon="4.84629">
        <ele>173.666817</ele>
        <time>2011-01-30T16:36:26Z</time>
      </trkpt>
      <trkpt lat="46.78361" lon="4.84642">
        <ele>172.261909</ele>
        <time>2011-01-30T16:36:29Z</time>
      </trkpt>
      <trkpt lat="46.78349" lon="4.8465">
        <ele>171.516666</ele>
        <time>2011-01-30T16:36:31Z</time>
      </trkpt>
      <trkpt lat="46.78335" lon="4.84658">
        <ele>171.24522</ele>
        <time>2011-01-30T16:36:33Z</time>
      </trkpt>
      <trkpt lat="46.78312" lon="4.84669">
        <ele>171.253439</ele>
        <time>2011-01-30T16:36:36Z</time>
      </trkpt>
      <trkpt lat="46.78299" lon="4.84682">
        <ele>171.351724</ele>
        <time>2011-01-30T16:36:38Z</time>
      </trkpt>
      <trkpt lat="46.78293" lon="4.84702">
        <ele>171.531565</ele>
        <time>2011-01-30T16:36:40Z</time>
      </trkpt>
      <trkpt lat="46.78294" lon="4.84733">
        <ele>171.907106</ele>
        <time>2011-01-30T16:36:43Z</time>
      </trkpt>
      <trkpt lat="46.783" lon="4.84753">
        <ele>172.455319</ele>
        <time>2011-01-30T16:36:45Z</time>
      </trkpt>
      <trkpt lat="46.78307" lon="4.84784">
        <ele>172.946803</ele>
        <time>2011-01-30T16:36:48Z</time>
      </trkpt>
      <trkpt lat="46.78315" lon="4.84814">
        <ele>173.205852</ele>
        <time>2011-01-30T16:36:51Z</time>
      </trkpt>
      <trkpt lat="46.7832" lon="4.84835">
        <ele>173.261426</ele>
        <time>2011-01-30T16:36:53Z</time>
      </trkpt>
      <trkpt lat="46.78327" lon="4.84867">
        <ele>173.229408</ele>
        <time>2011-01-30T16:36:56Z</time>
      </trkpt>
      <trkpt lat="46.78326" lon="4.84887">
        <ele>173.067435</ele>
        <time>2011-01-30T16:36:58Z</time>
      </trkpt>
      <trkpt lat="46.7831" lon="4.84914">
        <ele>172.727062</ele>
        <time>2011-01-30T16:37:01Z</time>
      </trkpt>
      <trkpt lat="46.78295" lon="4.84923">
        <ele>172.361171</ele>
        <time>2011-01-30T16:37:03Z</time>
      </trkpt>
      <trkpt lat="46.78276" lon="4.84936">
        <ele>171.992015</ele>
        <time>2011-01-30T16:37:06Z</time>
      </trkpt>
      <trkpt lat="46.7826" lon="4.8495">
        <ele>171.280544</ele>
        <time>2011-01-30T16:37:09Z</time>
      </trkpt>
      <trkpt lat="46.78246" lon="4.84961">
        <ele>170.086405</ele>
        <time>2011-01-30T16:37:12Z</time>
      </trkpt>
      <trkpt lat="46.78233" lon="4.84966">
        <ele>168.64399</ele>
        <time>2011-01-30T16:37:15Z</time>
      </trkpt>
      <trkpt lat="46.7822" lon="4.8496">
        <ele>167.257648</ele>
        <time>2011-01-30T16:37:18Z</time>
      </trkpt>
      <trkpt lat="46.78207" lon="4.84959">
        <ele>166.228658</ele>
        <time>2011-01-30T16:37:21Z</time>
      </trkpt>
      <trkpt lat="46.78193" lon="4.84959">
        <ele>165.751226</ele>
        <time>2011-01-30T16:37:24Z</time>
      </trkpt>
      <trkpt lat="46.78181" lon="4.84963">
        <ele>165.685395</ele>
        <time>2011-01-30T16:37:26Z</time>
      </trkpt>
      <trkpt lat="46.78163" lon="4.84969">
        <ele>166.006723</ele>
        <time>2011-01-30T16:37:29Z</time>
      </trkpt>
      <trkpt lat="46.78152" lon="4.84971">
        <ele>166.972251</ele>
        <time>2011-01-30T16:37:31Z</time>
      </trkpt>
      <trkpt lat="46.78143" lon="4.84973">
        <ele>168.459331</ele>
        <time>2011-01-30T16:37:33Z</time>
      </trkpt>
      <trkpt lat="46.78128" lon="4.84982">
        <ele>169.867593</ele>
        <time>2011-01-30T16:37:36Z</time>
      </trkpt>
      <trkpt lat="46.78112" lon="4.84993">
        <ele>170.767308</ele>
        <time>2011-01-30T16:37:39Z</time>
      </trkpt>
      <trkpt lat="46.78101" lon="4.85">
        <ele>171.133156</ele>
        <time>2011-01-30T16:37:41Z</time>
      </trkpt>
      <trkpt lat="46.78088" lon="4.85008">
        <ele>171.17185</ele>
        <time>2011-01-30T16:37:43Z</time>
      </trkpt>
      <trkpt lat="46.78069" lon="4.85019">
        <ele>171.111021</ele>
        <time>2011-01-30T16:37:46Z</time>
      </trkpt>
      <trkpt lat="46.78054" lon="4.85031">
        <ele>171.054255</ele>
        <time>2011-01-30T16:37:49Z</time>
      </trkpt>
      <trkpt lat="46.78044" lon="4.85041">
        <ele>171.011311</ele>
        <time>2011-01-30T16:37:51Z</time>
      </trkpt>
      <trkpt lat="46.78034" lon="4.85049">
        <ele>170.951996</ele>
        <time>2011-01-30T16:37:53Z</time>
      </trkpt>
      <trkpt lat="46.78022" lon="4.85057">
        <ele>170.823209</ele>
        <time>2011-01-30T16:37:55Z</time>
      </trkpt>
      <trkpt lat="46.7801" lon="4.85065">
        <ele>170.610041</ele>
        <time>2011-01-30T16:37:57Z</time>
      </trkpt>
      <trkpt lat="46.77995" lon="4.85079">
        <ele>170.395321</ele>
        <time>2011-01-30T16:38:00Z</time>
      </trkpt>
      <trkpt lat="46.77991" lon="4.85096">
        <ele>170.27155</ele>
        <time>2011-01-30T16:38:03Z</time>
      </trkpt>
      <trkpt lat="46.77995" lon="4.85111">
        <ele>170.239657</ele>
        <time>2011-01-30T16:38:06Z</time>
      </trkpt>
      <trkpt lat="46.77999" lon="4.85127">
        <ele>170.250939</ele>
        <time>2011-01-30T16:38:09Z</time>
      </trkpt>
      <trkpt lat="46.78006" lon="4.85143">
        <ele>170.268511</ele>
        <time>2011-01-30T16:38:12Z</time>
      </trkpt>
      <trkpt lat="46.78014" lon="4.85157">
        <ele>170.278509</ele>
        <time>2011-01-30T16:38:15Z</time>
      </trkpt>
      <trkpt lat="46.78023" lon="4.85173">
        <ele>170.177877</ele>
        <time>2011-01-30T16:38:18Z</time>
      </trkpt>
      <trkpt lat="46.78033" lon="4.85187">
        <ele>169.745278</ele>
        <time>2011-01-30T16:38:21Z</time>
      </trkpt>
      <trkpt lat="46.78044" lon="4.85205">
        <ele>168.983775</ele>
        <time>2011-01-30T16:38:24Z</time>
      </trkpt>
      <trkpt lat="46.78052" lon="4.8523">
        <ele>168.260684</ele>
        <time>2011-01-30T16:38:27Z</time>
      </trkpt>
      <trkpt lat="46.78058" lon="4.85247">
        <ele>167.874144</ele>
        <time>2011-01-30T16:38:29Z</time>
      </trkpt>
      <trkpt lat="46.78068" lon="4.85274">
        <ele>167.789504</ele>
        <time>2011-01-30T16:38:32Z</time>
      </trkpt>
      <trkpt lat="46.78072" lon="4.85294">
        <ele>167.887576</ele>
        <time>2011-01-30T16:38:34Z</time>
      </trkpt>
      <trkpt lat="46.78077" lon="4.85313">
        <ele>168.081004</ele>
        <time>2011-01-30T16:38:36Z</time>
      </trkpt>
      <trkpt lat="46.78085" lon="4.85344">
        <ele>168.250098</ele>
        <time>2011-01-30T16:38:39Z</time>
      </trkpt>
      <trkpt lat="46.78091" lon="4.85373">
        <ele>168.322139</ele>
        <time>2011-01-30T16:38:42Z</time>
      </trkpt>
      <trkpt lat="46.78099" lon="4.85396">
        <ele>168.265166</ele>
        <time>2011-01-30T16:38:45Z</time>
      </trkpt>
      <trkpt lat="46.78099" lon="4.85396">
        <ele>168.085148</ele>
        <time>2011-01-30T16:38:46Z</time>
      </trkpt>
      <trkpt lat="46.7813" lon="4.85399">
        <ele>167.756562</ele>
        <time>2011-01-30T16:39:09Z</time>
      </trkpt>
      <trkpt lat="46.78131" lon="4.85385">
        <ele>167.203169</ele>
        <time>2011-01-30T16:39:12Z</time>
      </trkpt>
    </trkseg>
  </trk>
</gpx>